<?xml version="1.0" encoding="utf-8"?>
<gpx xmlns:xsi="http://www.w3.org/2001/XMLSchema-instance" xmlns:xsd="http://www.w3.org/2001/XMLSchema" version="1.1" creator="Shapelink.com" xmlns="http://www.topografix.com/GPX/1/1" xmlns:gpxtpx="http://www.garmin.com/xmlschemas/TrackPointExtension/v1">
  <metadata>
    <name>Löpning 8.49 km, 2018-01-23</name>
    <desc></desc>
    <author><name>Bengt-Åke Forslund</name></author> 
    <time>2018-01-23T11:52:20Z</time>
  </metadata>
  <trk>
    <name>Löpning 8.49 km, 2018-01-23</name>
    <trkseg>
      <trkpt lat="62.635855965488" lon="17.967769661937">
        <ele>70.8</ele>
        <time>2018-01-23T11:52:20Z</time>
      </trkpt>
      <trkpt lat="62.635954201356" lon="17.968108542154">
        <ele>70.6</ele>
        <time>2018-01-23T11:52:50Z</time>
      </trkpt>
      <trkpt lat="62.635964511093" lon="17.968148188541">
        <ele>70.8</ele>
        <time>2018-01-23T11:52:51Z</time>
      </trkpt>
      <trkpt lat="62.635974234097" lon="17.968187499652">
        <ele>70.8</ele>
        <time>2018-01-23T11:52:52Z</time>
      </trkpt>
      <trkpt lat="62.635982615997" lon="17.968218177406">
        <ele>70.8</ele>
        <time>2018-01-23T11:52:53Z</time>
      </trkpt>
      <trkpt lat="62.635989405336" lon="17.968257069422">
        <ele>70.8</ele>
        <time>2018-01-23T11:52:54Z</time>
      </trkpt>
      <trkpt lat="62.635998960702" lon="17.968296883447">
        <ele>70.8</ele>
        <time>2018-01-23T11:52:55Z</time>
      </trkpt>
      <trkpt lat="62.636010276267" lon="17.968335356368">
        <ele>71</ele>
        <time>2018-01-23T11:52:56Z</time>
      </trkpt>
      <trkpt lat="62.636020250728" lon="17.968369973615">
        <ele>71</ele>
        <time>2018-01-23T11:52:57Z</time>
      </trkpt>
      <trkpt lat="62.636031147198" lon="17.968394867858">
        <ele>71</ele>
        <time>2018-01-23T11:52:58Z</time>
      </trkpt>
      <trkpt lat="62.63604271422" lon="17.968419594463">
        <ele>71</ele>
        <time>2018-01-23T11:52:59Z</time>
      </trkpt>
      <trkpt lat="62.636047910998" lon="17.968431664399">
        <ele>71.2</ele>
        <time>2018-01-23T11:53:00Z</time>
      </trkpt>
      <trkpt lat="62.636079259304" lon="17.968481620523">
        <ele>71.2</ele>
        <time>2018-01-23T11:53:01Z</time>
      </trkpt>
      <trkpt lat="62.636096526018" lon="17.968496372667">
        <ele>71.2</ele>
        <time>2018-01-23T11:53:02Z</time>
      </trkpt>
      <trkpt lat="62.636112116352" lon="17.968502239997">
        <ele>71.4</ele>
        <time>2018-01-23T11:53:03Z</time>
      </trkpt>
      <trkpt lat="62.636134160749" lon="17.968513052648">
        <ele>71.4</ele>
        <time>2018-01-23T11:53:04Z</time>
      </trkpt>
      <trkpt lat="62.636154109671" lon="17.968511879182">
        <ele>71.6</ele>
        <time>2018-01-23T11:53:05Z</time>
      </trkpt>
      <trkpt lat="62.636174393869" lon="17.968509699888">
        <ele>71.4</ele>
        <time>2018-01-23T11:53:06Z</time>
      </trkpt>
      <trkpt lat="62.636200377759" lon="17.968521686005">
        <ele>71.6</ele>
        <time>2018-01-23T11:53:07Z</time>
      </trkpt>
      <trkpt lat="62.636223511803" lon="17.968536270511">
        <ele>71.6</ele>
        <time>2018-01-23T11:53:08Z</time>
      </trkpt>
      <trkpt lat="62.636249830969" lon="17.968552950492">
        <ele>71.6</ele>
        <time>2018-01-23T11:53:09Z</time>
      </trkpt>
      <trkpt lat="62.636276820687" lon="17.968577006545">
        <ele>71.6</ele>
        <time>2018-01-23T11:53:10Z</time>
      </trkpt>
      <trkpt lat="62.636296182876" lon="17.968591339594">
        <ele>71.8</ele>
        <time>2018-01-23T11:53:11Z</time>
      </trkpt>
      <trkpt lat="62.636313198133" lon="17.96860508591">
        <ele>71.8</ele>
        <time>2018-01-23T11:53:12Z</time>
      </trkpt>
      <trkpt lat="62.636329961933" lon="17.968625034832">
        <ele>71.8</ele>
        <time>2018-01-23T11:53:13Z</time>
      </trkpt>
      <trkpt lat="62.636351838692" lon="17.968651270179">
        <ele>71.6</ele>
        <time>2018-01-23T11:53:14Z</time>
      </trkpt>
      <trkpt lat="62.636372541985" lon="17.968679349544">
        <ele>71.6</ele>
        <time>2018-01-23T11:53:15Z</time>
      </trkpt>
      <trkpt lat="62.63639391583" lon="17.968709524384">
        <ele>71.6</ele>
        <time>2018-01-23T11:53:16Z</time>
      </trkpt>
      <trkpt lat="62.636413278019" lon="17.968736346464">
        <ele>71.6</ele>
        <time>2018-01-23T11:53:17Z</time>
      </trkpt>
      <trkpt lat="62.63643414895" lon="17.968776579584">
        <ele>71.6</ele>
        <time>2018-01-23T11:53:18Z</time>
      </trkpt>
      <trkpt lat="62.636454684605" lon="17.96882050074">
        <ele>71.6</ele>
        <time>2018-01-23T11:53:19Z</time>
      </trkpt>
      <trkpt lat="62.636471783681" lon="17.96885905748">
        <ele>71.8</ele>
        <time>2018-01-23T11:53:20Z</time>
      </trkpt>
      <trkpt lat="62.636489050395" lon="17.968897027487">
        <ele>71.6</ele>
        <time>2018-01-23T11:53:21Z</time>
      </trkpt>
      <trkpt lat="62.636504473091" lon="17.968933321114">
        <ele>71.8</ele>
        <time>2018-01-23T11:53:22Z</time>
      </trkpt>
      <trkpt lat="62.636517548855" lon="17.96896886037">
        <ele>71.8</ele>
        <time>2018-01-23T11:53:23Z</time>
      </trkpt>
      <trkpt lat="62.636533642103" lon="17.969015966648">
        <ele>71.8</ele>
        <time>2018-01-23T11:53:24Z</time>
      </trkpt>
      <trkpt lat="62.636547220781" lon="17.96905603213">
        <ele>71.8</ele>
        <time>2018-01-23T11:53:25Z</time>
      </trkpt>
      <trkpt lat="62.636558703984" lon="17.969102467856">
        <ele>71.8</ele>
        <time>2018-01-23T11:53:26Z</time>
      </trkpt>
      <trkpt lat="62.636569600454" lon="17.969144125899">
        <ele>72</ele>
        <time>2018-01-23T11:53:27Z</time>
      </trkpt>
      <trkpt lat="62.636583095313" lon="17.969193160014">
        <ele>72</ele>
        <time>2018-01-23T11:53:28Z</time>
      </trkpt>
      <trkpt lat="62.636596003439" lon="17.969244708699">
        <ele>72</ele>
        <time>2018-01-23T11:53:29Z</time>
      </trkpt>
      <trkpt lat="62.636607989556" lon="17.969288629855">
        <ele>72</ele>
        <time>2018-01-23T11:53:30Z</time>
      </trkpt>
      <trkpt lat="62.63662106532" lon="17.969337915427">
        <ele>72</ele>
        <time>2018-01-23T11:53:31Z</time>
      </trkpt>
      <trkpt lat="62.636635063093" lon="17.969377729452">
        <ele>72</ele>
        <time>2018-01-23T11:53:32Z</time>
      </trkpt>
      <trkpt lat="62.636648306495" lon="17.969420309504">
        <ele>72</ele>
        <time>2018-01-23T11:53:33Z</time>
      </trkpt>
      <trkpt lat="62.636661801354" lon="17.969473786026">
        <ele>72</ele>
        <time>2018-01-23T11:53:34Z</time>
      </trkpt>
      <trkpt lat="62.636674290385" lon="17.969511588395">
        <ele>72</ele>
        <time>2018-01-23T11:53:35Z</time>
      </trkpt>
      <trkpt lat="62.636689713081" lon="17.969559951958">
        <ele>72</ele>
        <time>2018-01-23T11:53:36Z</time>
      </trkpt>
      <trkpt lat="62.636702453569" lon="17.96961678124">
        <ele>72</ele>
        <time>2018-01-23T11:53:37Z</time>
      </trkpt>
      <trkpt lat="62.636712511849" lon="17.969660534758">
        <ele>72</ele>
        <time>2018-01-23T11:53:38Z</time>
      </trkpt>
      <trkpt lat="62.63672500088" lon="17.969702611896">
        <ele>72.4</ele>
        <time>2018-01-23T11:53:39Z</time>
      </trkpt>
      <trkpt lat="62.636737406092" lon="17.969755166409">
        <ele>72.4</ele>
        <time>2018-01-23T11:53:40Z</time>
      </trkpt>
      <trkpt lat="62.636749559847" lon="17.96980285942">
        <ele>72.4</ele>
        <time>2018-01-23T11:53:41Z</time>
      </trkpt>
      <trkpt lat="62.636763054706" lon="17.969846612938">
        <ele>72.6</ele>
        <time>2018-01-23T11:53:42Z</time>
      </trkpt>
      <trkpt lat="62.636777555393" lon="17.969893635397">
        <ele>72.6</ele>
        <time>2018-01-23T11:53:43Z</time>
      </trkpt>
      <trkpt lat="62.636794905926" lon="17.969938394743">
        <ele>72.6</ele>
        <time>2018-01-23T11:53:44Z</time>
      </trkpt>
      <trkpt lat="62.636813178468" lon="17.969978544044">
        <ele>72.6</ele>
        <time>2018-01-23T11:53:45Z</time>
      </trkpt>
      <trkpt lat="62.63683648015" lon="17.970028583987">
        <ele>72.6</ele>
        <time>2018-01-23T11:53:46Z</time>
      </trkpt>
      <trkpt lat="62.63685575852" lon="17.97006353651">
        <ele>72.6</ele>
        <time>2018-01-23T11:53:47Z</time>
      </trkpt>
      <trkpt lat="62.636874282519" lon="17.970094633359">
        <ele>72.6</ele>
        <time>2018-01-23T11:53:48Z</time>
      </trkpt>
      <trkpt lat="62.636895740183" lon="17.970122293629">
        <ele>72.8</ele>
        <time>2018-01-23T11:53:49Z</time>
      </trkpt>
      <trkpt lat="62.63692029915" lon="17.970149953899">
        <ele>72.8</ele>
        <time>2018-01-23T11:53:50Z</time>
      </trkpt>
      <trkpt lat="62.636946702135" lon="17.97017417759">
        <ele>73</ele>
        <time>2018-01-23T11:53:51Z</time>
      </trkpt>
      <trkpt lat="62.636971847835" lon="17.970191444304">
        <ele>73</ele>
        <time>2018-01-23T11:53:52Z</time>
      </trkpt>
      <trkpt lat="62.63699908901" lon="17.970201586403">
        <ele>72.8</ele>
        <time>2018-01-23T11:53:53Z</time>
      </trkpt>
      <trkpt lat="62.637030772592" lon="17.970203011326">
        <ele>73</ele>
        <time>2018-01-23T11:53:54Z</time>
      </trkpt>
      <trkpt lat="62.637064551649" lon="17.970201586403">
        <ele>72.8</ele>
        <time>2018-01-23T11:53:55Z</time>
      </trkpt>
      <trkpt lat="62.63709464267" lon="17.97019764691">
        <ele>72.8</ele>
        <time>2018-01-23T11:53:56Z</time>
      </trkpt>
      <trkpt lat="62.63712900846" lon="17.970185744612">
        <ele>72.6</ele>
        <time>2018-01-23T11:53:57Z</time>
      </trkpt>
      <trkpt lat="62.637163960983" lon="17.970171495382">
        <ele>72.6</ele>
        <time>2018-01-23T11:53:58Z</time>
      </trkpt>
      <trkpt lat="62.637196734212" lon="17.970145260035">
        <ele>72.6</ele>
        <time>2018-01-23T11:53:59Z</time>
      </trkpt>
      <trkpt lat="62.637236799694" lon="17.970118354136">
        <ele>72.2</ele>
        <time>2018-01-23T11:54:00Z</time>
      </trkpt>
      <trkpt lat="62.637273260959" lon="17.970095723006">
        <ele>72.2</ele>
        <time>2018-01-23T11:54:01Z</time>
      </trkpt>
      <trkpt lat="62.637314164631" lon="17.970074097704">
        <ele>72</ele>
        <time>2018-01-23T11:54:02Z</time>
      </trkpt>
      <trkpt lat="62.63734861424" lon="17.97005515461">
        <ele>71.6</ele>
        <time>2018-01-23T11:54:03Z</time>
      </trkpt>
      <trkpt lat="62.637392786853" lon="17.97004258176">
        <ele>71.4</ele>
        <time>2018-01-23T11:54:04Z</time>
      </trkpt>
      <trkpt lat="62.637428996661" lon="17.970026907607">
        <ele>71</ele>
        <time>2018-01-23T11:54:05Z</time>
      </trkpt>
      <trkpt lat="62.637470906161" lon="17.97002497977">
        <ele>70.8</ele>
        <time>2018-01-23T11:54:06Z</time>
      </trkpt>
      <trkpt lat="62.637510049634" lon="17.970039061362">
        <ele>70.6</ele>
        <time>2018-01-23T11:54:07Z</time>
      </trkpt>
      <trkpt lat="62.637542655225" lon="17.970059513198">
        <ele>70.4</ele>
        <time>2018-01-23T11:54:08Z</time>
      </trkpt>
      <trkpt lat="62.637578529757" lon="17.970094633359">
        <ele>70.2</ele>
        <time>2018-01-23T11:54:09Z</time>
      </trkpt>
      <trkpt lat="62.637608788416" lon="17.970141236723">
        <ele>70.2</ele>
        <time>2018-01-23T11:54:10Z</time>
      </trkpt>
      <trkpt lat="62.637637203057" lon="17.97019094139">
        <ele>70.2</ele>
        <time>2018-01-23T11:54:11Z</time>
      </trkpt>
      <trkpt lat="62.637660169463" lon="17.970249866147">
        <ele>70.2</ele>
        <time>2018-01-23T11:54:12Z</time>
      </trkpt>
      <trkpt lat="62.637676597987" lon="17.970309377637">
        <ele>70.2</ele>
        <time>2018-01-23T11:54:13Z</time>
      </trkpt>
      <trkpt lat="62.637693194149" lon="17.970366626014">
        <ele>70.2</ele>
        <time>2018-01-23T11:54:14Z</time>
      </trkpt>
      <trkpt lat="62.63770819775" lon="17.970416330681">
        <ele>70</ele>
        <time>2018-01-23T11:54:15Z</time>
      </trkpt>
      <trkpt lat="62.637723033713" lon="17.970468466099">
        <ele>70</ele>
        <time>2018-01-23T11:54:16Z</time>
      </trkpt>
      <trkpt lat="62.637734852192" lon="17.970507441934">
        <ele>69.8</ele>
        <time>2018-01-23T11:54:17Z</time>
      </trkpt>
      <trkpt lat="62.637748514689" lon="17.970555386402">
        <ele>70</ele>
        <time>2018-01-23T11:54:18Z</time>
      </trkpt>
      <trkpt lat="62.637758992064" lon="17.970603917603">
        <ele>70</ele>
        <time>2018-01-23T11:54:19Z</time>
      </trkpt>
      <trkpt lat="62.637771313457" lon="17.970648425492">
        <ele>69.8</ele>
        <time>2018-01-23T11:54:20Z</time>
      </trkpt>
      <trkpt lat="62.637782209927" lon="17.970701315281">
        <ele>70</ele>
        <time>2018-01-23T11:54:21Z</time>
      </trkpt>
      <trkpt lat="62.637791765293" lon="17.970754624165">
        <ele>70.2</ele>
        <time>2018-01-23T11:54:22Z</time>
      </trkpt>
      <trkpt lat="62.637800314831" lon="17.970796617484">
        <ele>70.2</ele>
        <time>2018-01-23T11:54:23Z</time>
      </trkpt>
      <trkpt lat="62.637810373111" lon="17.970850345463">
        <ele>70.2</ele>
        <time>2018-01-23T11:54:24Z</time>
      </trkpt>
      <trkpt lat="62.637819509382" lon="17.970906839469">
        <ele>70.4</ele>
        <time>2018-01-23T11:54:25Z</time>
      </trkpt>
      <trkpt lat="62.63782638254" lon="17.97095201791">
        <ele>70.4</ele>
        <time>2018-01-23T11:54:26Z</time>
      </trkpt>
      <trkpt lat="62.637833004241" lon="17.970999375645">
        <ele>70.6</ele>
        <time>2018-01-23T11:54:27Z</time>
      </trkpt>
      <trkpt lat="62.637839542123" lon="17.971053941814">
        <ele>70.6</ele>
        <time>2018-01-23T11:54:28Z</time>
      </trkpt>
      <trkpt lat="62.637848259299" lon="17.971101970101">
        <ele>70.6</ele>
        <time>2018-01-23T11:54:29Z</time>
      </trkpt>
      <trkpt lat="62.637856473561" lon="17.971159386116">
        <ele>70.6</ele>
        <time>2018-01-23T11:54:30Z</time>
      </trkpt>
      <trkpt lat="62.637865526013" lon="17.971219987253">
        <ele>70.6</ele>
        <time>2018-01-23T11:54:31Z</time>
      </trkpt>
      <trkpt lat="62.637875249017" lon="17.971266842074">
        <ele>70.6</ele>
        <time>2018-01-23T11:54:32Z</time>
      </trkpt>
      <trkpt lat="62.637884804383" lon="17.97131579237">
        <ele>70.6</ele>
        <time>2018-01-23T11:54:33Z</time>
      </trkpt>
      <trkpt lat="62.637894862663" lon="17.971374130394">
        <ele>70.8</ele>
        <time>2018-01-23T11:54:34Z</time>
      </trkpt>
      <trkpt lat="62.637902406373" lon="17.971411094573">
        <ele>70.8</ele>
        <time>2018-01-23T11:54:35Z</time>
      </trkpt>
      <trkpt lat="62.6379135543" lon="17.971470941339">
        <ele>71</ele>
        <time>2018-01-23T11:54:36Z</time>
      </trkpt>
      <trkpt lat="62.637923528761" lon="17.971530704286">
        <ele>71</ele>
        <time>2018-01-23T11:54:37Z</time>
      </trkpt>
      <trkpt lat="62.637931407747" lon="17.971570350673">
        <ele>71</ele>
        <time>2018-01-23T11:54:38Z</time>
      </trkpt>
      <trkpt lat="62.637939286733" lon="17.97162424629">
        <ele>71.2</ele>
        <time>2018-01-23T11:54:39Z</time>
      </trkpt>
      <trkpt lat="62.637945992253" lon="17.971678896278">
        <ele>71.2</ele>
        <time>2018-01-23T11:54:40Z</time>
      </trkpt>
      <trkpt lat="62.637951859583" lon="17.971723404167">
        <ele>71.2</ele>
        <time>2018-01-23T11:54:41Z</time>
      </trkpt>
      <trkpt lat="62.637958313646" lon="17.97178350239">
        <ele>71.4</ele>
        <time>2018-01-23T11:54:42Z</time>
      </trkpt>
      <trkpt lat="62.637965019166" lon="17.971834883437">
        <ele>71.4</ele>
        <time>2018-01-23T11:54:43Z</time>
      </trkpt>
      <trkpt lat="62.637970383582" lon="17.97189498166">
        <ele>71.4</ele>
        <time>2018-01-23T11:54:44Z</time>
      </trkpt>
      <trkpt lat="62.637976502369" lon="17.971950721295">
        <ele>71.4</ele>
        <time>2018-01-23T11:54:45Z</time>
      </trkpt>
      <trkpt lat="62.637979938948" lon="17.971992379338">
        <ele>71.6</ele>
        <time>2018-01-23T11:54:46Z</time>
      </trkpt>
      <trkpt lat="62.6379806095" lon="17.972041329634">
        <ele>71.6</ele>
        <time>2018-01-23T11:54:47Z</time>
      </trkpt>
      <trkpt lat="62.637982034423" lon="17.972097236907">
        <ele>71.6</ele>
        <time>2018-01-23T11:54:48Z</time>
      </trkpt>
      <trkpt lat="62.637984716631" lon="17.972144175547">
        <ele>71.6</ele>
        <time>2018-01-23T11:54:49Z</time>
      </trkpt>
      <trkpt lat="62.637986309192" lon="17.972202429752">
        <ele>71.6</ele>
        <time>2018-01-23T11:54:50Z</time>
      </trkpt>
      <trkpt lat="62.63798731502" lon="17.972254732808">
        <ele>71.6</ele>
        <time>2018-01-23T11:54:51Z</time>
      </trkpt>
      <trkpt lat="62.637989661952" lon="17.97229982743">
        <ele>71.6</ele>
        <time>2018-01-23T11:54:52Z</time>
      </trkpt>
      <trkpt lat="62.63799150597" lon="17.972348023355">
        <ele>71.8</ele>
        <time>2018-01-23T11:54:53Z</time>
      </trkpt>
      <trkpt lat="62.637993601445" lon="17.972407534845">
        <ele>71.8</ele>
        <time>2018-01-23T11:54:54Z</time>
      </trkpt>
      <trkpt lat="62.63799653511" lon="17.972452545648">
        <ele>71.8</ele>
        <time>2018-01-23T11:54:55Z</time>
      </trkpt>
      <trkpt lat="62.63799988787" lon="17.972494119872">
        <ele>71.8</ele>
        <time>2018-01-23T11:54:56Z</time>
      </trkpt>
      <trkpt lat="62.638002150983" lon="17.972545752376">
        <ele>72</ele>
        <time>2018-01-23T11:54:57Z</time>
      </trkpt>
      <trkpt lat="62.638005336105" lon="17.972598055432">
        <ele>72</ele>
        <time>2018-01-23T11:54:58Z</time>
      </trkpt>
      <trkpt lat="62.638010029969" lon="17.972641222217">
        <ele>72.2</ele>
        <time>2018-01-23T11:54:59Z</time>
      </trkpt>
      <trkpt lat="62.638013801824" lon="17.972695285472">
        <ele>72.4</ele>
        <time>2018-01-23T11:55:00Z</time>
      </trkpt>
      <trkpt lat="62.638017825136" lon="17.972749600184">
        <ele>72.4</ele>
        <time>2018-01-23T11:55:01Z</time>
      </trkpt>
      <trkpt lat="62.638022016086" lon="17.972789665666">
        <ele>72.6</ele>
        <time>2018-01-23T11:55:02Z</time>
      </trkpt>
      <trkpt lat="62.638025704122" lon="17.972836017573">
        <ele>72.6</ele>
        <time>2018-01-23T11:55:03Z</time>
      </trkpt>
      <trkpt lat="62.638028470149" lon="17.972895109968">
        <ele>72.6</ele>
        <time>2018-01-23T11:55:04Z</time>
      </trkpt>
      <trkpt lat="62.638030649443" lon="17.972937187106">
        <ele>72.6</ele>
        <time>2018-01-23T11:55:05Z</time>
      </trkpt>
      <trkpt lat="62.638034588936" lon="17.972980856805">
        <ele>72.6</ele>
        <time>2018-01-23T11:55:06Z</time>
      </trkpt>
      <trkpt lat="62.638036265316" lon="17.973029639463">
        <ele>72.8</ele>
        <time>2018-01-23T11:55:07Z</time>
      </trkpt>
      <trkpt lat="62.638036600592" lon="17.973076578103">
        <ele>72.8</ele>
        <time>2018-01-23T11:55:08Z</time>
      </trkpt>
      <trkpt lat="62.638036600592" lon="17.973126450408">
        <ele>73</ele>
        <time>2018-01-23T11:55:09Z</time>
      </trkpt>
      <trkpt lat="62.638037522601" lon="17.973165007148">
        <ele>73.2</ele>
        <time>2018-01-23T11:55:10Z</time>
      </trkpt>
      <trkpt lat="62.638037857877" lon="17.973202474241">
        <ele>73.2</ele>
        <time>2018-01-23T11:55:11Z</time>
      </trkpt>
      <trkpt lat="62.638036600592" lon="17.973248323234">
        <ele>73.4</ele>
        <time>2018-01-23T11:55:12Z</time>
      </trkpt>
      <trkpt lat="62.638036013859" lon="17.973288975449">
        <ele>73.6</ele>
        <time>2018-01-23T11:55:13Z</time>
      </trkpt>
      <trkpt lat="62.638036349135" lon="17.973336333184">
        <ele>73.6</ele>
        <time>2018-01-23T11:55:14Z</time>
      </trkpt>
      <trkpt lat="62.638035762402" lon="17.973384193833">
        <ele>73.8</ele>
        <time>2018-01-23T11:55:15Z</time>
      </trkpt>
      <trkpt lat="62.638036181497" lon="17.973425181324">
        <ele>74</ele>
        <time>2018-01-23T11:55:16Z</time>
      </trkpt>
      <trkpt lat="62.638038025515" lon="17.973463821883">
        <ele>74.2</ele>
        <time>2018-01-23T11:55:17Z</time>
      </trkpt>
      <trkpt lat="62.638033080194" lon="17.973524339201">
        <ele>74.4</ele>
        <time>2018-01-23T11:55:18Z</time>
      </trkpt>
      <trkpt lat="62.638032912556" lon="17.973564991416">
        <ele>74.4</ele>
        <time>2018-01-23T11:55:19Z</time>
      </trkpt>
      <trkpt lat="62.638031906728" lon="17.973616791558">
        <ele>74.4</ele>
        <time>2018-01-23T11:55:20Z</time>
      </trkpt>
      <trkpt lat="62.638031152357" lon="17.973669765166">
        <ele>74.4</ele>
        <time>2018-01-23T11:55:21Z</time>
      </trkpt>
      <trkpt lat="62.638031236176" lon="17.973720056566">
        <ele>74.4</ele>
        <time>2018-01-23T11:55:22Z</time>
      </trkpt>
      <trkpt lat="62.638031319995" lon="17.973771102337">
        <ele>74.6</ele>
        <time>2018-01-23T11:55:23Z</time>
      </trkpt>
      <trkpt lat="62.638034002203" lon="17.973820890823">
        <ele>74.6</ele>
        <time>2018-01-23T11:55:24Z</time>
      </trkpt>
      <trkpt lat="62.638036013859" lon="17.973877217191">
        <ele>74.6</ele>
        <time>2018-01-23T11:55:25Z</time>
      </trkpt>
      <trkpt lat="62.638037019687" lon="17.973930190799">
        <ele>74.8</ele>
        <time>2018-01-23T11:55:26Z</time>
      </trkpt>
      <trkpt lat="62.638039953352" lon="17.973978805819">
        <ele>74.8</ele>
        <time>2018-01-23T11:55:27Z</time>
      </trkpt>
      <trkpt lat="62.638041965008" lon="17.97403320435">
        <ele>74.8</ele>
        <time>2018-01-23T11:55:28Z</time>
      </trkpt>
      <trkpt lat="62.638046658872" lon="17.974080394447">
        <ele>74.8</ele>
        <time>2018-01-23T11:55:29Z</time>
      </trkpt>
      <trkpt lat="62.638050346908" lon="17.974137307548">
        <ele>74.8</ele>
        <time>2018-01-23T11:55:30Z</time>
      </trkpt>
      <trkpt lat="62.638053615849" lon="17.974193131002">
        <ele>74.8</ele>
        <time>2018-01-23T11:55:31Z</time>
      </trkpt>
      <trkpt lat="62.638057052428" lon="17.974238979995">
        <ele>74.8</ele>
        <time>2018-01-23T11:55:32Z</time>
      </trkpt>
      <trkpt lat="62.638059483179" lon="17.974296144553">
        <ele>74.8</ele>
        <time>2018-01-23T11:55:33Z</time>
      </trkpt>
      <trkpt lat="62.638062668301" lon="17.97434920198">
        <ele>74.8</ele>
        <time>2018-01-23T11:55:34Z</time>
      </trkpt>
      <trkpt lat="62.638064931414" lon="17.974403432873">
        <ele>74.8</ele>
        <time>2018-01-23T11:55:35Z</time>
      </trkpt>
      <trkpt lat="62.638067026889" lon="17.974463531096">
        <ele>74.8</ele>
        <time>2018-01-23T11:55:36Z</time>
      </trkpt>
      <trkpt lat="62.638067697441" lon="17.97451264903">
        <ele>74.8</ele>
        <time>2018-01-23T11:55:37Z</time>
      </trkpt>
      <trkpt lat="62.638066188699" lon="17.974570987054">
        <ele>74.8</ele>
        <time>2018-01-23T11:55:38Z</time>
      </trkpt>
      <trkpt lat="62.638064260862" lon="17.97462496649">
        <ele>74.8</ele>
        <time>2018-01-23T11:55:39Z</time>
      </trkpt>
      <trkpt lat="62.638058309713" lon="17.974684226523">
        <ele>74.8</ele>
        <time>2018-01-23T11:55:40Z</time>
      </trkpt>
      <trkpt lat="62.638051604193" lon="17.97473728395">
        <ele>74.8</ele>
        <time>2018-01-23T11:55:41Z</time>
      </trkpt>
      <trkpt lat="62.638043222293" lon="17.974784138771">
        <ele>74.8</ele>
        <time>2018-01-23T11:55:42Z</time>
      </trkpt>
      <trkpt lat="62.638030314167" lon="17.974831580325">
        <ele>74.8</ele>
        <time>2018-01-23T11:55:43Z</time>
      </trkpt>
      <trkpt lat="62.638015226747" lon="17.97488145263">
        <ele>74.8</ele>
        <time>2018-01-23T11:55:44Z</time>
      </trkpt>
      <trkpt lat="62.638002150983" lon="17.974919506456">
        <ele>74.8</ele>
        <time>2018-01-23T11:55:45Z</time>
      </trkpt>
      <trkpt lat="62.637988488486" lon="17.974953620789">
        <ele>75</ele>
        <time>2018-01-23T11:55:46Z</time>
      </trkpt>
      <trkpt lat="62.63797138941" lon="17.974991758434">
        <ele>75</ele>
        <time>2018-01-23T11:55:47Z</time>
      </trkpt>
      <trkpt lat="62.63795294923" lon="17.975029141708">
        <ele>75</ele>
        <time>2018-01-23T11:55:48Z</time>
      </trkpt>
      <trkpt lat="62.637935933973" lon="17.975062166394">
        <ele>75</ele>
        <time>2018-01-23T11:55:49Z</time>
      </trkpt>
      <trkpt lat="62.637923109666" lon="17.975092341234">
        <ele>75.2</ele>
        <time>2018-01-23T11:55:50Z</time>
      </trkpt>
      <trkpt lat="62.637907016418" lon="17.975128634861">
        <ele>75.2</ele>
        <time>2018-01-23T11:55:51Z</time>
      </trkpt>
      <trkpt lat="62.637890001161" lon="17.97516559904">
        <ele>75.4</ele>
        <time>2018-01-23T11:55:52Z</time>
      </trkpt>
      <trkpt lat="62.637875416655" lon="17.975194684233">
        <ele>75.6</ele>
        <time>2018-01-23T11:55:53Z</time>
      </trkpt>
      <trkpt lat="62.637860580692" lon="17.975227038367">
        <ele>75.6</ele>
        <time>2018-01-23T11:55:54Z</time>
      </trkpt>
      <trkpt lat="62.637846415281" lon="17.975259057225">
        <ele>75.8</ele>
        <time>2018-01-23T11:55:55Z</time>
      </trkpt>
      <trkpt lat="62.637828645653" lon="17.975294847938">
        <ele>76</ele>
        <time>2018-01-23T11:55:56Z</time>
      </trkpt>
      <trkpt lat="62.637810289292" lon="17.975327788805">
        <ele>76.2</ele>
        <time>2018-01-23T11:55:57Z</time>
      </trkpt>
      <trkpt lat="62.637795788605" lon="17.975349665564">
        <ele>76.4</ele>
        <time>2018-01-23T11:55:58Z</time>
      </trkpt>
      <trkpt lat="62.637782629022" lon="17.975369782124">
        <ele>76.6</ele>
        <time>2018-01-23T11:55:59Z</time>
      </trkpt>
      <trkpt lat="62.637769637077" lon="17.975395933652">
        <ele>76.8</ele>
        <time>2018-01-23T11:56:00Z</time>
      </trkpt>
      <trkpt lat="62.637756309856" lon="17.975417307497">
        <ele>77</ele>
        <time>2018-01-23T11:56:01Z</time>
      </trkpt>
      <trkpt lat="62.63774088716" lon="17.975440022446">
        <ele>77</ele>
        <time>2018-01-23T11:56:02Z</time>
      </trkpt>
      <trkpt lat="62.637724793912" lon="17.975461815386">
        <ele>77.2</ele>
        <time>2018-01-23T11:56:03Z</time>
      </trkpt>
      <trkpt lat="62.637708533026" lon="17.975486961086">
        <ele>77.2</ele>
        <time>2018-01-23T11:56:04Z</time>
      </trkpt>
      <trkpt lat="62.637694283796" lon="17.975506239456">
        <ele>77.4</ele>
        <time>2018-01-23T11:56:05Z</time>
      </trkpt>
      <trkpt lat="62.637678525824" lon="17.975524176722">
        <ele>77.8</ele>
        <time>2018-01-23T11:56:06Z</time>
      </trkpt>
      <trkpt lat="62.637664025137" lon="17.97553691721">
        <ele>78</ele>
        <time>2018-01-23T11:56:07Z</time>
      </trkpt>
      <trkpt lat="62.637647764251" lon="17.975547646042">
        <ele>78.2</ele>
        <time>2018-01-23T11:56:08Z</time>
      </trkpt>
      <trkpt lat="62.637625133121" lon="17.975562398186">
        <ele>78.6</ele>
        <time>2018-01-23T11:56:09Z</time>
      </trkpt>
      <trkpt lat="62.637607447312" lon="17.975570528629">
        <ele>78.6</ele>
        <time>2018-01-23T11:56:10Z</time>
      </trkpt>
      <trkpt lat="62.637589426227" lon="17.975577820882">
        <ele>78.8</ele>
        <time>2018-01-23T11:56:11Z</time>
      </trkpt>
      <trkpt lat="62.637566627459" lon="17.975586454239">
        <ele>78.8</ele>
        <time>2018-01-23T11:56:12Z</time>
      </trkpt>
      <trkpt lat="62.637533518954" lon="17.975599613822">
        <ele>78.8</ele>
        <time>2018-01-23T11:56:13Z</time>
      </trkpt>
      <trkpt lat="62.637524382683" lon="17.975604391505">
        <ele>78.8</ele>
        <time>2018-01-23T11:56:14Z</time>
      </trkpt>
      <trkpt lat="62.637503344114" lon="17.975612605767">
        <ele>78.8</ele>
        <time>2018-01-23T11:56:15Z</time>
      </trkpt>
      <trkpt lat="62.637485909762" lon="17.975623921332">
        <ele>79</ele>
        <time>2018-01-23T11:56:16Z</time>
      </trkpt>
      <trkpt lat="62.637470906161" lon="17.975631129766">
        <ele>79.2</ele>
        <time>2018-01-23T11:56:17Z</time>
      </trkpt>
      <trkpt lat="62.637455232008" lon="17.975641104227">
        <ele>79.4</ele>
        <time>2018-01-23T11:56:18Z</time>
      </trkpt>
      <trkpt lat="62.637440479864" lon="17.975655604914">
        <ele>79.6</ele>
        <time>2018-01-23T11:56:19Z</time>
      </trkpt>
      <trkpt lat="62.63742237496" lon="17.975669015954">
        <ele>79.8</ele>
        <time>2018-01-23T11:56:20Z</time>
      </trkpt>
      <trkpt lat="62.637400079106" lon="17.975685193021">
        <ele>80</ele>
        <time>2018-01-23T11:56:21Z</time>
      </trkpt>
      <trkpt lat="62.637381806564" lon="17.975698268785">
        <ele>80.2</ele>
        <time>2018-01-23T11:56:22Z</time>
      </trkpt>
      <trkpt lat="62.637368311705" lon="17.975710506359">
        <ele>80.4</ele>
        <time>2018-01-23T11:56:23Z</time>
      </trkpt>
      <trkpt lat="62.637345932032" lon="17.975730036186">
        <ele>80.4</ele>
        <time>2018-01-23T11:56:24Z</time>
      </trkpt>
      <trkpt lat="62.637325899291" lon="17.975747638176">
        <ele>80.6</ele>
        <time>2018-01-23T11:56:25Z</time>
      </trkpt>
      <trkpt lat="62.637311650061" lon="17.975761133035">
        <ele>80.6</ele>
        <time>2018-01-23T11:56:26Z</time>
      </trkpt>
      <trkpt lat="62.637297233193" lon="17.975774041161">
        <ele>80.8</ele>
        <time>2018-01-23T11:56:27Z</time>
      </trkpt>
      <trkpt lat="62.637284827981" lon="17.975791224056">
        <ele>80.8</ele>
        <time>2018-01-23T11:56:28Z</time>
      </trkpt>
      <trkpt lat="62.637270075837" lon="17.975809077503">
        <ele>81</ele>
        <time>2018-01-23T11:56:29Z</time>
      </trkpt>
      <trkpt lat="62.637258173539" lon="17.975838078877">
        <ele>81.2</ele>
        <time>2018-01-23T11:56:30Z</time>
      </trkpt>
      <trkpt lat="62.637246271241" lon="17.975866074423">
        <ele>81.6</ele>
        <time>2018-01-23T11:56:31Z</time>
      </trkpt>
      <trkpt lat="62.637231016183" lon="17.975896584539">
        <ele>81.8</ele>
        <time>2018-01-23T11:56:32Z</time>
      </trkpt>
      <trkpt lat="62.637217688962" lon="17.975927765207">
        <ele>81.8</ele>
        <time>2018-01-23T11:56:33Z</time>
      </trkpt>
      <trkpt lat="62.637203523551" lon="17.97596355592">
        <ele>82</ele>
        <time>2018-01-23T11:56:34Z</time>
      </trkpt>
      <trkpt lat="62.637191621253" lon="17.975997167339">
        <ele>82.2</ele>
        <time>2018-01-23T11:56:35Z</time>
      </trkpt>
      <trkpt lat="62.637181646792" lon="17.976038406287">
        <ele>82.4</ele>
        <time>2018-01-23T11:56:36Z</time>
      </trkpt>
      <trkpt lat="62.637175779462" lon="17.976066569471">
        <ele>82.6</ele>
        <time>2018-01-23T11:56:37Z</time>
      </trkpt>
      <trkpt lat="62.637164547716" lon="17.976109484799">
        <ele>82.8</ele>
        <time>2018-01-23T11:56:38Z</time>
      </trkpt>
      <trkpt lat="62.637155998178" lon="17.976152483946">
        <ele>83</ele>
        <time>2018-01-23T11:56:39Z</time>
      </trkpt>
      <trkpt lat="62.637151304314" lon="17.976182658786">
        <ele>83.2</ele>
        <time>2018-01-23T11:56:40Z</time>
      </trkpt>
      <trkpt lat="62.637140491663" lon="17.976238817516">
        <ele>83.2</ele>
        <time>2018-01-23T11:56:41Z</time>
      </trkpt>
      <trkpt lat="62.637131942125" lon="17.976281313749">
        <ele>83.4</ele>
        <time>2018-01-23T11:56:42Z</time>
      </trkpt>
      <trkpt lat="62.637128086451" lon="17.976307968191">
        <ele>83.4</ele>
        <time>2018-01-23T11:56:43Z</time>
      </trkpt>
      <trkpt lat="62.637118698723" lon="17.976358175772">
        <ele>83.4</ele>
        <time>2018-01-23T11:56:44Z</time>
      </trkpt>
      <trkpt lat="62.637113837221" lon="17.976395139951">
        <ele>83.6</ele>
        <time>2018-01-23T11:56:45Z</time>
      </trkpt>
      <trkpt lat="62.637104784769" lon="17.97643210413">
        <ele>83.8</ele>
        <time>2018-01-23T11:56:46Z</time>
      </trkpt>
      <trkpt lat="62.637099587991" lon="17.97646982268">
        <ele>83.8</ele>
        <time>2018-01-23T11:56:47Z</time>
      </trkpt>
      <trkpt lat="62.637094223575" lon="17.97651508494">
        <ele>84.2</ele>
        <time>2018-01-23T11:56:48Z</time>
      </trkpt>
      <trkpt lat="62.637087182779" lon="17.97657375824">
        <ele>84.2</ele>
        <time>2018-01-23T11:56:49Z</time>
      </trkpt>
      <trkpt lat="62.63708626077" lon="17.976607621116">
        <ele>84.2</ele>
        <time>2018-01-23T11:56:50Z</time>
      </trkpt>
      <trkpt lat="62.637076621585" lon="17.976663025475">
        <ele>84.2</ele>
        <time>2018-01-23T11:56:51Z</time>
      </trkpt>
      <trkpt lat="62.637073771739" lon="17.97672127968">
        <ele>84.4</ele>
        <time>2018-01-23T11:56:52Z</time>
      </trkpt>
      <trkpt lat="62.637068994056" lon="17.976779366247">
        <ele>84.4</ele>
        <time>2018-01-23T11:56:53Z</time>
      </trkpt>
      <trkpt lat="62.637072682092" lon="17.976818258263">
        <ele>84.2</ele>
        <time>2018-01-23T11:56:54Z</time>
      </trkpt>
      <trkpt lat="62.637078465603" lon="17.976859664849">
        <ele>84.2</ele>
        <time>2018-01-23T11:56:55Z</time>
      </trkpt>
      <trkpt lat="62.63707368792" lon="17.97692328347">
        <ele>84.4</ele>
        <time>2018-01-23T11:56:56Z</time>
      </trkpt>
      <trkpt lat="62.637077795051" lon="17.976977849639">
        <ele>84.4</ele>
        <time>2018-01-23T11:56:57Z</time>
      </trkpt>
      <trkpt lat="62.63708039344" lon="17.977008611212">
        <ele>84.6</ele>
        <time>2018-01-23T11:56:58Z</time>
      </trkpt>
      <trkpt lat="62.637078297965" lon="17.977076420783">
        <ele>84.6</ele>
        <time>2018-01-23T11:56:59Z</time>
      </trkpt>
      <trkpt lat="62.637079974345" lon="17.977118162645">
        <ele>84.6</ele>
        <time>2018-01-23T11:57:00Z</time>
      </trkpt>
      <trkpt lat="62.637078130327" lon="17.977184714931">
        <ele>84.6</ele>
        <time>2018-01-23T11:57:01Z</time>
      </trkpt>
      <trkpt lat="62.637077459775" lon="17.977238694367">
        <ele>84.4</ele>
        <time>2018-01-23T11:57:02Z</time>
      </trkpt>
      <trkpt lat="62.637069329332" lon="17.977299379323">
        <ele>84.4</ele>
        <time>2018-01-23T11:57:03Z</time>
      </trkpt>
      <trkpt lat="62.637069580789" lon="17.977348832533">
        <ele>84.4</ele>
        <time>2018-01-23T11:57:04Z</time>
      </trkpt>
      <trkpt lat="62.637059857785" lon="17.977403817797">
        <ele>84.4</ele>
        <time>2018-01-23T11:57:05Z</time>
      </trkpt>
      <trkpt lat="62.637044770365" lon="17.977470872997">
        <ele>84.4</ele>
        <time>2018-01-23T11:57:06Z</time>
      </trkpt>
      <trkpt lat="62.637035634094" lon="17.977507837176">
        <ele>84.6</ele>
        <time>2018-01-23T11:57:07Z</time>
      </trkpt>
      <trkpt lat="62.637022055416" lon="17.977556871291">
        <ele>84.6</ele>
        <time>2018-01-23T11:57:08Z</time>
      </trkpt>
      <trkpt lat="62.637005962168" lon="17.977618394437">
        <ele>84.4</ele>
        <time>2018-01-23T11:57:09Z</time>
      </trkpt>
      <trkpt lat="62.637001855037" lon="17.977649491286">
        <ele>84.4</ele>
        <time>2018-01-23T11:57:10Z</time>
      </trkpt>
      <trkpt lat="62.636987438169" lon="17.977705230921">
        <ele>84.6</ele>
        <time>2018-01-23T11:57:11Z</time>
      </trkpt>
      <trkpt lat="62.636977882803" lon="17.977760048547">
        <ele>84.4</ele>
        <time>2018-01-23T11:57:12Z</time>
      </trkpt>
      <trkpt lat="62.636973440396" lon="17.977814111802">
        <ele>84.4</ele>
        <time>2018-01-23T11:57:14Z</time>
      </trkpt>
      <trkpt lat="62.636962711564" lon="17.97787127636">
        <ele>84.4</ele>
        <time>2018-01-23T11:57:15Z</time>
      </trkpt>
      <trkpt lat="62.636957095691" lon="17.977913604955">
        <ele>84.4</ele>
        <time>2018-01-23T11:57:16Z</time>
      </trkpt>
      <trkpt lat="62.636949551981" lon="17.977961130328">
        <ele>84.4</ele>
        <time>2018-01-23T11:57:17Z</time>
      </trkpt>
      <trkpt lat="62.636941421538" lon="17.978010583538">
        <ele>84.4</ele>
        <time>2018-01-23T11:57:18Z</time>
      </trkpt>
      <trkpt lat="62.636935554208" lon="17.978056767807">
        <ele>84.4</ele>
        <time>2018-01-23T11:57:19Z</time>
      </trkpt>
      <trkpt lat="62.636928429593" lon="17.978108987044">
        <ele>84.6</ele>
        <time>2018-01-23T11:57:20Z</time>
      </trkpt>
      <trkpt lat="62.63692281372" lon="17.978157518245">
        <ele>84.8</ele>
        <time>2018-01-23T11:57:21Z</time>
      </trkpt>
      <trkpt lat="62.636915772924" lon="17.978201858496">
        <ele>84.8</ele>
        <time>2018-01-23T11:57:22Z</time>
      </trkpt>
      <trkpt lat="62.636905882282" lon="17.978250305878">
        <ele>85</ele>
        <time>2018-01-23T11:57:23Z</time>
      </trkpt>
      <trkpt lat="62.636894147622" lon="17.978300345821">
        <ele>85</ele>
        <time>2018-01-23T11:57:24Z</time>
      </trkpt>
      <trkpt lat="62.63688425698" lon="17.978340327484">
        <ele>85.2</ele>
        <time>2018-01-23T11:57:25Z</time>
      </trkpt>
      <trkpt lat="62.636868918103" lon="17.978390283608">
        <ele>85.2</ele>
        <time>2018-01-23T11:57:26Z</time>
      </trkpt>
      <trkpt lat="62.63685659671" lon="17.978429343262">
        <ele>85.2</ele>
        <time>2018-01-23T11:57:27Z</time>
      </trkpt>
      <trkpt lat="62.636842179842" lon="17.978473180599">
        <ele>85.2</ele>
        <time>2018-01-23T11:57:28Z</time>
      </trkpt>
      <trkpt lat="62.636827595336" lon="17.978519281049">
        <ele>85.2</ele>
        <time>2018-01-23T11:57:29Z</time>
      </trkpt>
      <trkpt lat="62.63681217264" lon="17.978558424522">
        <ele>85.2</ele>
        <time>2018-01-23T11:57:30Z</time>
      </trkpt>
      <trkpt lat="62.636793900098" lon="17.978597400357">
        <ele>85.2</ele>
        <time>2018-01-23T11:57:31Z</time>
      </trkpt>
      <trkpt lat="62.636778393583" lon="17.978631682328">
        <ele>85.4</ele>
        <time>2018-01-23T11:57:32Z</time>
      </trkpt>
      <trkpt lat="62.636765234" lon="17.978662276263">
        <ele>85.4</ele>
        <time>2018-01-23T11:57:33Z</time>
      </trkpt>
      <trkpt lat="62.636751152408" lon="17.978694211302">
        <ele>85.4</ele>
        <time>2018-01-23T11:57:34Z</time>
      </trkpt>
      <trkpt lat="62.636739501567" lon="17.97872203921">
        <ele>85.4</ele>
        <time>2018-01-23T11:57:35Z</time>
      </trkpt>
      <trkpt lat="62.636715613152" lon="17.978735198793">
        <ele>85.4</ele>
        <time>2018-01-23T11:57:36Z</time>
      </trkpt>
      <trkpt lat="62.636699519904" lon="17.978751627317">
        <ele>85.4</ele>
        <time>2018-01-23T11:57:37Z</time>
      </trkpt>
      <trkpt lat="62.636679319525" lon="17.978765457452">
        <ele>85.6</ele>
        <time>2018-01-23T11:57:38Z</time>
      </trkpt>
      <trkpt lat="62.636654006187" lon="17.9787731688">
        <ele>85.6</ele>
        <time>2018-01-23T11:57:39Z</time>
      </trkpt>
      <trkpt lat="62.636626597374" lon="17.978778700854">
        <ele>85.8</ele>
        <time>2018-01-23T11:57:40Z</time>
      </trkpt>
      <trkpt lat="62.636613689248" lon="17.978784568184">
        <ele>86</ele>
        <time>2018-01-23T11:57:41Z</time>
      </trkpt>
      <trkpt lat="62.636593991783" lon="17.978785574012">
        <ele>86.2</ele>
        <time>2018-01-23T11:57:42Z</time>
      </trkpt>
      <trkpt lat="62.636573707585" lon="17.978784232908">
        <ele>86.4</ele>
        <time>2018-01-23T11:57:43Z</time>
      </trkpt>
      <trkpt lat="62.636555015948" lon="17.978785238736">
        <ele>86.4</ele>
        <time>2018-01-23T11:57:44Z</time>
      </trkpt>
      <trkpt lat="62.636535067026" lon="17.978785071098">
        <ele>86.6</ele>
        <time>2018-01-23T11:57:45Z</time>
      </trkpt>
      <trkpt lat="62.636510508059" lon="17.97878406527">
        <ele>86.8</ele>
        <time>2018-01-23T11:57:46Z</time>
      </trkpt>
      <trkpt lat="62.636489134214" lon="17.978779287587">
        <ele>86.8</ele>
        <time>2018-01-23T11:57:47Z</time>
      </trkpt>
      <trkpt lat="62.636471364586" lon="17.978781634519">
        <ele>86.8</ele>
        <time>2018-01-23T11:57:48Z</time>
      </trkpt>
      <trkpt lat="62.636451834759" lon="17.978783729994">
        <ele>86.8</ele>
        <time>2018-01-23T11:57:49Z</time>
      </trkpt>
      <trkpt lat="62.636433059303" lon="17.97878490346">
        <ele>87</ele>
        <time>2018-01-23T11:57:50Z</time>
      </trkpt>
      <trkpt lat="62.636413361838" lon="17.978783059442">
        <ele>87</ele>
        <time>2018-01-23T11:57:51Z</time>
      </trkpt>
      <trkpt lat="62.636394502563" lon="17.978789681143">
        <ele>87.2</ele>
        <time>2018-01-23T11:57:52Z</time>
      </trkpt>
      <trkpt lat="62.636379582781" lon="17.978796219025">
        <ele>87.4</ele>
        <time>2018-01-23T11:57:53Z</time>
      </trkpt>
      <trkpt lat="62.636361729334" lon="17.978804936201">
        <ele>87.6</ele>
        <time>2018-01-23T11:57:54Z</time>
      </trkpt>
      <trkpt lat="62.636347396285" lon="17.978811641721">
        <ele>87.8</ele>
        <time>2018-01-23T11:57:55Z</time>
      </trkpt>
      <trkpt lat="62.636332476503" lon="17.97882010744">
        <ele>88</ele>
        <time>2018-01-23T11:57:56Z</time>
      </trkpt>
      <trkpt lat="62.63631931692" lon="17.978829243711">
        <ele>88.2</ele>
        <time>2018-01-23T11:57:57Z</time>
      </trkpt>
      <trkpt lat="62.63630674407" lon="17.978837374154">
        <ele>88.4</ele>
        <time>2018-01-23T11:57:58Z</time>
      </trkpt>
      <trkpt lat="62.636291321374" lon="17.978850114642">
        <ele>88.8</ele>
        <time>2018-01-23T11:57:59Z</time>
      </trkpt>
      <trkpt lat="62.636270618081" lon="17.978868303365">
        <ele>89</ele>
        <time>2018-01-23T11:58:00Z</time>
      </trkpt>
      <trkpt lat="62.636254105738" lon="17.978884396613">
        <ele>89.2</ele>
        <time>2018-01-23T11:58:01Z</time>
      </trkpt>
      <trkpt lat="62.63623298335" lon="17.978904848449">
        <ele>89.4</ele>
        <time>2018-01-23T11:58:02Z</time>
      </trkpt>
      <trkpt lat="62.636219739948" lon="17.978923875362">
        <ele>89.6</ele>
        <time>2018-01-23T11:58:03Z</time>
      </trkpt>
      <trkpt lat="62.636210771315" lon="17.97894164499">
        <ele>89.8</ele>
        <time>2018-01-23T11:58:04Z</time>
      </trkpt>
      <trkpt lat="62.636200964492" lon="17.978961426274">
        <ele>90</ele>
        <time>2018-01-23T11:58:05Z</time>
      </trkpt>
      <trkpt lat="62.636190487117" lon="17.97897852535">
        <ele>90.2</ele>
        <time>2018-01-23T11:58:06Z</time>
      </trkpt>
      <trkpt lat="62.636181937579" lon="17.978993277494">
        <ele>90.4</ele>
        <time>2018-01-23T11:58:07Z</time>
      </trkpt>
      <trkpt lat="62.636173974774" lon="17.979008616371">
        <ele>90.6</ele>
        <time>2018-01-23T11:58:08Z</time>
      </trkpt>
      <trkpt lat="62.636166514883" lon="17.979027727103">
        <ele>90.8</ele>
        <time>2018-01-23T11:58:09Z</time>
      </trkpt>
      <trkpt lat="62.636157462431" lon="17.979041557238">
        <ele>91</ele>
        <time>2018-01-23T11:58:10Z</time>
      </trkpt>
      <trkpt lat="62.636147655608" lon="17.979061841436">
        <ele>91.2</ele>
        <time>2018-01-23T11:58:11Z</time>
      </trkpt>
      <trkpt lat="62.63613575331" lon="17.979086819498">
        <ele>91.4</ele>
        <time>2018-01-23T11:58:12Z</time>
      </trkpt>
      <trkpt lat="62.636124521564" lon="17.979110288818">
        <ele>91.6</ele>
        <time>2018-01-23T11:58:13Z</time>
      </trkpt>
      <trkpt lat="62.6361114458" lon="17.979129315731">
        <ele>92</ele>
        <time>2018-01-23T11:58:14Z</time>
      </trkpt>
      <trkpt lat="62.636100046416" lon="17.979156724544">
        <ele>92.4</ele>
        <time>2018-01-23T11:58:15Z</time>
      </trkpt>
      <trkpt lat="62.636087557385" lon="17.979179271855">
        <ele>92.8</ele>
        <time>2018-01-23T11:58:16Z</time>
      </trkpt>
      <trkpt lat="62.636077247648" lon="17.979206429211">
        <ele>93</ele>
        <time>2018-01-23T11:58:17Z</time>
      </trkpt>
      <trkpt lat="62.636069033386" lon="17.979235682042">
        <ele>93.4</ele>
        <time>2018-01-23T11:58:18Z</time>
      </trkpt>
      <trkpt lat="62.636057298726" lon="17.979280022293">
        <ele>93.6</ele>
        <time>2018-01-23T11:58:19Z</time>
      </trkpt>
      <trkpt lat="62.63604858155" lon="17.979325703648">
        <ele>93.8</ele>
        <time>2018-01-23T11:58:20Z</time>
      </trkpt>
      <trkpt lat="62.636042798039" lon="17.97937079827">
        <ele>93.8</ele>
        <time>2018-01-23T11:58:21Z</time>
      </trkpt>
      <trkpt lat="62.636038690908" lon="17.979417401634">
        <ele>93.8</ele>
        <time>2018-01-23T11:58:22Z</time>
      </trkpt>
      <trkpt lat="62.63603349413" lon="17.97947557202">
        <ele>93.8</ele>
        <time>2018-01-23T11:58:23Z</time>
      </trkpt>
      <trkpt lat="62.636036427795" lon="17.979550087111">
        <ele>94</ele>
        <time>2018-01-23T11:58:24Z</time>
      </trkpt>
      <trkpt lat="62.636032153026" lon="17.97963398993">
        <ele>93.8</ele>
        <time>2018-01-23T11:58:25Z</time>
      </trkpt>
      <trkpt lat="62.636029051723" lon="17.979750917435">
        <ele>93.8</ele>
        <time>2018-01-23T11:58:26Z</time>
      </trkpt>
      <trkpt lat="62.636027207705" lon="17.979879747238">
        <ele>93</ele>
        <time>2018-01-23T11:58:27Z</time>
      </trkpt>
      <trkpt lat="62.636025279868" lon="17.979999859865">
        <ele>92.2</ele>
        <time>2018-01-23T11:58:28Z</time>
      </trkpt>
      <trkpt lat="62.636027794438" lon="17.980114775714">
        <ele>91</ele>
        <time>2018-01-23T11:58:29Z</time>
      </trkpt>
      <trkpt lat="62.636037014528" lon="17.980231451762">
        <ele>90</ele>
        <time>2018-01-23T11:58:30Z</time>
      </trkpt>
      <trkpt lat="62.636052604862" lon="17.980351648208">
        <ele>89</ele>
        <time>2018-01-23T11:58:31Z</time>
      </trkpt>
      <trkpt lat="62.636068362834" lon="17.980451476637">
        <ele>88.4</ele>
        <time>2018-01-23T11:58:32Z</time>
      </trkpt>
      <trkpt lat="62.636081522417" lon="17.980535798551">
        <ele>88</ele>
        <time>2018-01-23T11:58:33Z</time>
      </trkpt>
      <trkpt lat="62.636096274561" lon="17.980628167089">
        <ele>87.8</ele>
        <time>2018-01-23T11:58:34Z</time>
      </trkpt>
      <trkpt lat="62.636105327013" lon="17.980715338849">
        <ele>87.4</ele>
        <time>2018-01-23T11:58:35Z</time>
      </trkpt>
      <trkpt lat="62.636133322559" lon="17.980833858915">
        <ele>87.4</ele>
        <time>2018-01-23T11:58:36Z</time>
      </trkpt>
      <trkpt lat="62.636155450775" lon="17.980914073698">
        <ele>87.4</ele>
        <time>2018-01-23T11:58:37Z</time>
      </trkpt>
      <trkpt lat="62.636170873471" lon="17.980984481658">
        <ele>87.6</ele>
        <time>2018-01-23T11:58:38Z</time>
      </trkpt>
      <trkpt lat="62.636188056366" lon="17.981072240151">
        <ele>87.6</ele>
        <time>2018-01-23T11:58:39Z</time>
      </trkpt>
      <trkpt lat="62.636202976148" lon="17.981124375569">
        <ele>87.6</ele>
        <time>2018-01-23T11:58:40Z</time>
      </trkpt>
      <trkpt lat="62.636215800455" lon="17.981199393574">
        <ele>87.6</ele>
        <time>2018-01-23T11:58:41Z</time>
      </trkpt>
      <trkpt lat="62.636232061341" lon="17.981293522311">
        <ele>87.4</ele>
        <time>2018-01-23T11:58:42Z</time>
      </trkpt>
      <trkpt lat="62.636239018318" lon="17.981357895303">
        <ele>87.2</ele>
        <time>2018-01-23T11:58:43Z</time>
      </trkpt>
      <trkpt lat="62.636243712182" lon="17.981441881941">
        <ele>87</ele>
        <time>2018-01-23T11:58:44Z</time>
      </trkpt>
      <trkpt lat="62.636262152362" lon="17.981513798643">
        <ele>87</ele>
        <time>2018-01-23T11:58:45Z</time>
      </trkpt>
      <trkpt lat="62.636270198986" lon="17.981588816648">
        <ele>87</ele>
        <time>2018-01-23T11:58:46Z</time>
      </trkpt>
      <trkpt lat="62.636284783492" lon="17.981662828825">
        <ele>87</ele>
        <time>2018-01-23T11:58:47Z</time>
      </trkpt>
      <trkpt lat="62.636293165392" lon="17.981724268152">
        <ele>87.2</ele>
        <time>2018-01-23T11:58:48Z</time>
      </trkpt>
      <trkpt lat="62.636300625283" lon="17.981797190682">
        <ele>87.2</ele>
        <time>2018-01-23T11:58:49Z</time>
      </trkpt>
      <trkpt lat="62.636302134025" lon="17.981866006081">
        <ele>86.8</ele>
        <time>2018-01-23T11:58:50Z</time>
      </trkpt>
      <trkpt lat="62.636311270296" lon="17.981929373245">
        <ele>87</ele>
        <time>2018-01-23T11:58:51Z</time>
      </trkpt>
      <trkpt lat="62.636314706875" lon="17.98201025858">
        <ele>86.8</ele>
        <time>2018-01-23T11:58:52Z</time>
      </trkpt>
      <trkpt lat="62.636320406567" lon="17.982074547753">
        <ele>86.8</ele>
        <time>2018-01-23T11:58:53Z</time>
      </trkpt>
      <trkpt lat="62.636322837318" lon="17.982143363152">
        <ele>86.8</ele>
        <time>2018-01-23T11:58:54Z</time>
      </trkpt>
      <trkpt lat="62.63632518425" lon="17.982213854931">
        <ele>86.8</ele>
        <time>2018-01-23T11:58:55Z</time>
      </trkpt>
      <trkpt lat="62.636329878114" lon="17.982269762204">
        <ele>87</ele>
        <time>2018-01-23T11:58:56Z</time>
      </trkpt>
      <trkpt lat="62.636326776811" lon="17.982344528752">
        <ele>86.8</ele>
        <time>2018-01-23T11:58:57Z</time>
      </trkpt>
      <trkpt lat="62.636328704648" lon="17.982404626975">
        <ele>86.8</ele>
        <time>2018-01-23T11:58:58Z</time>
      </trkpt>
      <trkpt lat="62.636325351888" lon="17.982458857868">
        <ele>86.8</ele>
        <time>2018-01-23T11:58:59Z</time>
      </trkpt>
      <trkpt lat="62.636321580033" lon="17.982530439294">
        <ele>86.8</ele>
        <time>2018-01-23T11:59:00Z</time>
      </trkpt>
      <trkpt lat="62.636318814006" lon="17.982586849481">
        <ele>86.8</ele>
        <time>2018-01-23T11:59:01Z</time>
      </trkpt>
      <trkpt lat="62.636311605572" lon="17.98266153221">
        <ele>86.8</ele>
        <time>2018-01-23T11:59:02Z</time>
      </trkpt>
      <trkpt lat="62.63630758226" lon="17.982717104207">
        <ele>86.8</ele>
        <time>2018-01-23T11:59:03Z</time>
      </trkpt>
      <trkpt lat="62.636303475129" lon="17.982777034792">
        <ele>86.8</ele>
        <time>2018-01-23T11:59:04Z</time>
      </trkpt>
      <trkpt lat="62.636301379654" lon="17.982831517142">
        <ele>87</ele>
        <time>2018-01-23T11:59:05Z</time>
      </trkpt>
      <trkpt lat="62.636300709102" lon="17.982884406931">
        <ele>87</ele>
        <time>2018-01-23T11:59:06Z</time>
      </trkpt>
      <trkpt lat="62.636296937247" lon="17.982946265353">
        <ele>87</ele>
        <time>2018-01-23T11:59:07Z</time>
      </trkpt>
      <trkpt lat="62.636297188704" lon="17.982991108518">
        <ele>87.2</ele>
        <time>2018-01-23T11:59:08Z</time>
      </trkpt>
      <trkpt lat="62.636294087401" lon="17.983049530361">
        <ele>87.2</ele>
        <time>2018-01-23T11:59:09Z</time>
      </trkpt>
      <trkpt lat="62.636295512324" lon="17.983109209489">
        <ele>87.2</ele>
        <time>2018-01-23T11:59:10Z</time>
      </trkpt>
      <trkpt lat="62.636295260867" lon="17.983163691839">
        <ele>87.2</ele>
        <time>2018-01-23T11:59:11Z</time>
      </trkpt>
      <trkpt lat="62.636290231727" lon="17.983230830858">
        <ele>87.2</ele>
        <time>2018-01-23T11:59:12Z</time>
      </trkpt>
      <trkpt lat="62.636290147908" lon="17.983282714819">
        <ele>87.2</ele>
        <time>2018-01-23T11:59:13Z</time>
      </trkpt>
      <trkpt lat="62.636283693845" lon="17.983383800533">
        <ele>87.2</ele>
        <time>2018-01-23T11:59:14Z</time>
      </trkpt>
      <trkpt lat="62.636281933646" lon="17.983396457202">
        <ele>87.2</ele>
        <time>2018-01-23T11:59:15Z</time>
      </trkpt>
      <trkpt lat="62.636279754352" lon="17.98346200366">
        <ele>87.2</ele>
        <time>2018-01-23T11:59:16Z</time>
      </trkpt>
      <trkpt lat="62.636273048832" lon="17.983520844598">
        <ele>87.4</ele>
        <time>2018-01-23T11:59:17Z</time>
      </trkpt>
      <trkpt lat="62.636266594769" lon="17.983573650568">
        <ele>87.4</ele>
        <time>2018-01-23T11:59:18Z</time>
      </trkpt>
      <trkpt lat="62.636259721611" lon="17.983625785986">
        <ele>87.4</ele>
        <time>2018-01-23T11:59:19Z</time>
      </trkpt>
      <trkpt lat="62.636252680815" lon="17.983667192572">
        <ele>87.4</ele>
        <time>2018-01-23T11:59:20Z</time>
      </trkpt>
      <trkpt lat="62.636243963639" lon="17.983726787881">
        <ele>87.4</ele>
        <time>2018-01-23T11:59:21Z</time>
      </trkpt>
      <trkpt lat="62.636235665558" lon="17.98377464853">
        <ele>87.6</ele>
        <time>2018-01-23T11:59:22Z</time>
      </trkpt>
      <trkpt lat="62.636226696925" lon="17.983814378736">
        <ele>87.8</ele>
        <time>2018-01-23T11:59:23Z</time>
      </trkpt>
      <trkpt lat="62.636208508202" lon="17.983891492216">
        <ele>87.8</ele>
        <time>2018-01-23T11:59:24Z</time>
      </trkpt>
      <trkpt lat="62.636201718863" lon="17.983940777788">
        <ele>88</ele>
        <time>2018-01-23T11:59:25Z</time>
      </trkpt>
      <trkpt lat="62.63619191204" lon="17.983995176319">
        <ele>88</ele>
        <time>2018-01-23T11:59:26Z</time>
      </trkpt>
      <trkpt lat="62.636194929524" lon="17.984052843791">
        <ele>88.2</ele>
        <time>2018-01-23T11:59:27Z</time>
      </trkpt>
      <trkpt lat="62.636198952836" lon="17.984104560114">
        <ele>88.4</ele>
        <time>2018-01-23T11:59:28Z</time>
      </trkpt>
      <trkpt lat="62.63619861756" lon="17.984161557034">
        <ele>88.4</ele>
        <time>2018-01-23T11:59:29Z</time>
      </trkpt>
      <trkpt lat="62.636199204293" lon="17.984230288614">
        <ele>88.6</ele>
        <time>2018-01-23T11:59:30Z</time>
      </trkpt>
      <trkpt lat="62.636195013343" lon="17.984277813987">
        <ele>88.6</ele>
        <time>2018-01-23T11:59:31Z</time>
      </trkpt>
      <trkpt lat="62.636198030827" lon="17.984340175323">
        <ele>88.8</ele>
        <time>2018-01-23T11:59:32Z</time>
      </trkpt>
      <trkpt lat="62.636198449922" lon="17.984384767031">
        <ele>88.8</ele>
        <time>2018-01-23T11:59:33Z</time>
      </trkpt>
      <trkpt lat="62.636194594248" lon="17.984443356512">
        <ele>89</ele>
        <time>2018-01-23T11:59:34Z</time>
      </trkpt>
      <trkpt lat="62.636189900384" lon="17.984496162482">
        <ele>89</ele>
        <time>2018-01-23T11:59:35Z</time>
      </trkpt>
      <trkpt lat="62.636187972547" lon="17.98454662152">
        <ele>89.2</ele>
        <time>2018-01-23T11:59:36Z</time>
      </trkpt>
      <trkpt lat="62.63617933919" lon="17.984602696431">
        <ele>89.2</ele>
        <time>2018-01-23T11:59:37Z</time>
      </trkpt>
      <trkpt lat="62.636174226231" lon="17.984647371958">
        <ele>89.2</ele>
        <time>2018-01-23T11:59:38Z</time>
      </trkpt>
      <trkpt lat="62.636169113272" lon="17.984699758833">
        <ele>89.2</ele>
        <time>2018-01-23T11:59:39Z</time>
      </trkpt>
      <trkpt lat="62.636162659209" lon="17.98473437608">
        <ele>89.4</ele>
        <time>2018-01-23T11:59:40Z</time>
      </trkpt>
      <trkpt lat="62.636162323933" lon="17.984788774611">
        <ele>89.4</ele>
        <time>2018-01-23T11:59:41Z</time>
      </trkpt>
      <trkpt lat="62.636154947861" lon="17.98484753173">
        <ele>89.6</ele>
        <time>2018-01-23T11:59:42Z</time>
      </trkpt>
      <trkpt lat="62.636154780223" lon="17.984892961628">
        <ele>89.8</ele>
        <time>2018-01-23T11:59:43Z</time>
      </trkpt>
      <trkpt lat="62.636153020024" lon="17.984954736231">
        <ele>89.8</ele>
        <time>2018-01-23T11:59:44Z</time>
      </trkpt>
      <trkpt lat="62.636148409979" lon="17.985020115051">
        <ele>90</ele>
        <time>2018-01-23T11:59:45Z</time>
      </trkpt>
      <trkpt lat="62.636146398323" lon="17.98505791742">
        <ele>90</ele>
        <time>2018-01-23T11:59:46Z</time>
      </trkpt>
      <trkpt lat="62.63614078245" lon="17.985110555752">
        <ele>90</ele>
        <time>2018-01-23T11:59:47Z</time>
      </trkpt>
      <trkpt lat="62.636134747482" lon="17.985174844925">
        <ele>90</ele>
        <time>2018-01-23T11:59:48Z</time>
      </trkpt>
      <trkpt lat="62.636135250396" lon="17.985224298135">
        <ele>90</ele>
        <time>2018-01-23T11:59:49Z</time>
      </trkpt>
      <trkpt lat="62.63613491512" lon="17.985264195979">
        <ele>90.2</ele>
        <time>2018-01-23T11:59:50Z</time>
      </trkpt>
      <trkpt lat="62.636129634523" lon="17.985349020807">
        <ele>90.2</ele>
        <time>2018-01-23T11:59:51Z</time>
      </trkpt>
      <trkpt lat="62.636126197944" lon="17.985388918651">
        <ele>90.4</ele>
        <time>2018-01-23T11:59:52Z</time>
      </trkpt>
      <trkpt lat="62.636122090813" lon="17.985430325237">
        <ele>90.4</ele>
        <time>2018-01-23T11:59:53Z</time>
      </trkpt>
      <trkpt lat="62.63611731313" lon="17.985491932202">
        <ele>90.4</ele>
        <time>2018-01-23T11:59:54Z</time>
      </trkpt>
      <trkpt lat="62.63611060761" lon="17.985530824218">
        <ele>90.4</ele>
        <time>2018-01-23T11:59:55Z</time>
      </trkpt>
      <trkpt lat="62.636104991737" lon="17.985583211093">
        <ele>90.4</ele>
        <time>2018-01-23T11:59:56Z</time>
      </trkpt>
      <trkpt lat="62.636094765819" lon="17.985636603796">
        <ele>90.6</ele>
        <time>2018-01-23T11:59:57Z</time>
      </trkpt>
      <trkpt lat="62.636095939285" lon="17.985677004554">
        <ele>90.6</ele>
        <time>2018-01-23T11:59:58Z</time>
      </trkpt>
      <trkpt lat="62.636082025331" lon="17.985738443881">
        <ele>90.6</ele>
        <time>2018-01-23T11:59:59Z</time>
      </trkpt>
      <trkpt lat="62.636069620119" lon="17.985794351154">
        <ele>90.6</ele>
        <time>2018-01-23T12:00:00Z</time>
      </trkpt>
      <trkpt lat="62.636059897115" lon="17.985829219858">
        <ele>90.8</ele>
        <time>2018-01-23T12:00:01Z</time>
      </trkpt>
      <trkpt lat="62.636045564066" lon="17.985866938408">
        <ele>90.8</ele>
        <time>2018-01-23T12:00:02Z</time>
      </trkpt>
      <trkpt lat="62.636028800266" lon="17.985903734949">
        <ele>91</ele>
        <time>2018-01-23T12:00:03Z</time>
      </trkpt>
      <trkpt lat="62.636008432249" lon="17.985937849282">
        <ele>91</ele>
        <time>2018-01-23T12:00:04Z</time>
      </trkpt>
      <trkpt lat="62.636005917679" lon="17.985956624738">
        <ele>91</ele>
        <time>2018-01-23T12:00:05Z</time>
      </trkpt>
      <trkpt lat="62.635980352884" lon="17.985990152338">
        <ele>91.2</ele>
        <time>2018-01-23T12:00:06Z</time>
      </trkpt>
      <trkpt lat="62.635956967383" lon="17.986008508699">
        <ele>91.4</ele>
        <time>2018-01-23T12:00:07Z</time>
      </trkpt>
      <trkpt lat="62.635946238551" lon="17.98603273239">
        <ele>91.4</ele>
        <time>2018-01-23T12:00:08Z</time>
      </trkpt>
      <trkpt lat="62.635923439783" lon="17.986061566126">
        <ele>91.6</ele>
        <time>2018-01-23T12:00:09Z</time>
      </trkpt>
      <trkpt lat="62.635894186952" lon="17.986081431229">
        <ele>91.6</ele>
        <time>2018-01-23T12:00:10Z</time>
      </trkpt>
      <trkpt lat="62.635889157812" lon="17.986091573328">
        <ele>91.8</ele>
        <time>2018-01-23T12:00:11Z</time>
      </trkpt>
      <trkpt lat="62.635868789795" lon="17.986098697943">
        <ele>91.8</ele>
        <time>2018-01-23T12:00:12Z</time>
      </trkpt>
      <trkpt lat="62.635846493941" lon="17.986115545562">
        <ele>91.8</ele>
        <time>2018-01-23T12:00:13Z</time>
      </trkpt>
      <trkpt lat="62.635837525308" lon="17.986119652693">
        <ele>92</ele>
        <time>2018-01-23T12:00:14Z</time>
      </trkpt>
      <trkpt lat="62.635811038504" lon="17.986146055678">
        <ele>92</ele>
        <time>2018-01-23T12:00:15Z</time>
      </trkpt>
      <trkpt lat="62.635789497021" lon="17.986173213034">
        <ele>92</ele>
        <time>2018-01-23T12:00:16Z</time>
      </trkpt>
      <trkpt lat="62.635775499248" lon="17.986200705666">
        <ele>92.2</ele>
        <time>2018-01-23T12:00:17Z</time>
      </trkpt>
      <trkpt lat="62.635759489819" lon="17.986222917701">
        <ele>92.2</ele>
        <time>2018-01-23T12:00:18Z</time>
      </trkpt>
      <trkpt lat="62.635744989132" lon="17.986241357881">
        <ele>92.2</ele>
        <time>2018-01-23T12:00:19Z</time>
      </trkpt>
      <trkpt lat="62.635731578092" lon="17.98626491102">
        <ele>92.4</ele>
        <time>2018-01-23T12:00:20Z</time>
      </trkpt>
      <trkpt lat="62.635719340518" lon="17.986292319833">
        <ele>92.6</ele>
        <time>2018-01-23T12:00:21Z</time>
      </trkpt>
      <trkpt lat="62.635704839831" lon="17.986322159397">
        <ele>92.8</ele>
        <time>2018-01-23T12:00:22Z</time>
      </trkpt>
      <trkpt lat="62.635696960845" lon="17.986343281785">
        <ele>92.8</ele>
        <time>2018-01-23T12:00:23Z</time>
      </trkpt>
      <trkpt lat="62.635679107398" lon="17.986390555701">
        <ele>93</ele>
        <time>2018-01-23T12:00:24Z</time>
      </trkpt>
      <trkpt lat="62.635668797661" lon="17.98643841635">
        <ele>93</ele>
        <time>2018-01-23T12:00:25Z</time>
      </trkpt>
      <trkpt lat="62.635656643906" lon="17.986480074393">
        <ele>93.4</ele>
        <time>2018-01-23T12:00:26Z</time>
      </trkpt>
      <trkpt lat="62.635630911473" lon="17.986534221467">
        <ele>93.4</ele>
        <time>2018-01-23T12:00:27Z</time>
      </trkpt>
      <trkpt lat="62.635621020831" lon="17.986563474298">
        <ele>93.4</ele>
        <time>2018-01-23T12:00:28Z</time>
      </trkpt>
      <trkpt lat="62.635606101049" lon="17.98659180512">
        <ele>93.6</ele>
        <time>2018-01-23T12:00:29Z</time>
      </trkpt>
      <trkpt lat="62.635593276742" lon="17.986638827579">
        <ele>93.6</ele>
        <time>2018-01-23T12:00:30Z</time>
      </trkpt>
      <trkpt lat="62.635584056652" lon="17.986670678799">
        <ele>93.6</ele>
        <time>2018-01-23T12:00:31Z</time>
      </trkpt>
      <trkpt lat="62.635565197377" lon="17.986720132009">
        <ele>93.6</ele>
        <time>2018-01-23T12:00:32Z</time>
      </trkpt>
      <trkpt lat="62.635541728057" lon="17.986751983229">
        <ele>93.8</ele>
        <time>2018-01-23T12:00:33Z</time>
      </trkpt>
      <trkpt lat="62.635524377524" lon="17.986786768114">
        <ele>94</ele>
        <time>2018-01-23T12:00:34Z</time>
      </trkpt>
      <trkpt lat="62.63551884547" lon="17.986809566882">
        <ele>94</ele>
        <time>2018-01-23T12:00:35Z</time>
      </trkpt>
      <trkpt lat="62.635505099154" lon="17.98684242393">
        <ele>94.2</ele>
        <time>2018-01-23T12:00:36Z</time>
      </trkpt>
      <trkpt lat="62.6354828033" lon="17.986890787493">
        <ele>94.4</ele>
        <time>2018-01-23T12:00:37Z</time>
      </trkpt>
      <trkpt lat="62.63547190683" lon="17.986923979817">
        <ele>94.4</ele>
        <time>2018-01-23T12:00:38Z</time>
      </trkpt>
      <trkpt lat="62.635446425854" lon="17.986979803271">
        <ele>94.4</ele>
        <time>2018-01-23T12:00:39Z</time>
      </trkpt>
      <trkpt lat="62.635444581836" lon="17.987012241224">
        <ele>94.4</ele>
        <time>2018-01-23T12:00:40Z</time>
      </trkpt>
      <trkpt lat="62.635435445565" lon="17.987040572046">
        <ele>94.4</ele>
        <time>2018-01-23T12:00:41Z</time>
      </trkpt>
      <trkpt lat="62.635417173023" lon="17.987087510686">
        <ele>94.6</ele>
        <time>2018-01-23T12:00:42Z</time>
      </trkpt>
      <trkpt lat="62.635397475558" lon="17.987110477092">
        <ele>94.6</ele>
        <time>2018-01-23T12:00:43Z</time>
      </trkpt>
      <trkpt lat="62.635389931848" lon="17.987144088511">
        <ele>94.6</ele>
        <time>2018-01-23T12:00:44Z</time>
      </trkpt>
      <trkpt lat="62.635368893279" lon="17.987184321631">
        <ele>94.8</ele>
        <time>2018-01-23T12:00:45Z</time>
      </trkpt>
      <trkpt lat="62.635347267977" lon="17.987224806208">
        <ele>95</ele>
        <time>2018-01-23T12:00:46Z</time>
      </trkpt>
      <trkpt lat="62.635337377335" lon="17.987248778442">
        <ele>95</ele>
        <time>2018-01-23T12:00:47Z</time>
      </trkpt>
      <trkpt lat="62.635316338766" lon="17.987291609951">
        <ele>95.2</ele>
        <time>2018-01-23T12:00:48Z</time>
      </trkpt>
      <trkpt lat="62.635296138387" lon="17.987342655722">
        <ele>95.2</ele>
        <time>2018-01-23T12:00:49Z</time>
      </trkpt>
      <trkpt lat="62.635291360704" lon="17.987365119214">
        <ele>95.4</ele>
        <time>2018-01-23T12:00:50Z</time>
      </trkpt>
      <trkpt lat="62.635268059022" lon="17.987414572424">
        <ele>95.6</ele>
        <time>2018-01-23T12:00:51Z</time>
      </trkpt>
      <trkpt lat="62.635247104272" lon="17.987450614594">
        <ele>95.6</ele>
        <time>2018-01-23T12:00:52Z</time>
      </trkpt>
      <trkpt lat="62.635234447603" lon="17.987475760294">
        <ele>95.6</ele>
        <time>2018-01-23T12:00:53Z</time>
      </trkpt>
      <trkpt lat="62.635217851441" lon="17.987515993414">
        <ele>95.6</ele>
        <time>2018-01-23T12:00:54Z</time>
      </trkpt>
      <trkpt lat="62.635195052673" lon="17.987557651457">
        <ele>95.8</ele>
        <time>2018-01-23T12:00:55Z</time>
      </trkpt>
      <trkpt lat="62.635181306357" lon="17.987591514333">
        <ele>96</ele>
        <time>2018-01-23T12:00:56Z</time>
      </trkpt>
      <trkpt lat="62.635178037416" lon="17.987617246766">
        <ele>96</ele>
        <time>2018-01-23T12:00:57Z</time>
      </trkpt>
      <trkpt lat="62.635166889489" lon="17.987664855958">
        <ele>96.2</ele>
        <time>2018-01-23T12:00:58Z</time>
      </trkpt>
      <trkpt lat="62.635159764874" lon="17.987718416299">
        <ele>96.2</ele>
        <time>2018-01-23T12:00:59Z</time>
      </trkpt>
      <trkpt lat="62.635152388802" lon="17.98776527112">
        <ele>96.4</ele>
        <time>2018-01-23T12:01:00Z</time>
      </trkpt>
      <trkpt lat="62.635151969707" lon="17.987811706846">
        <ele>96.4</ele>
        <time>2018-01-23T12:01:01Z</time>
      </trkpt>
      <trkpt lat="62.635147108205" lon="17.987844563894">
        <ele>96.4</ele>
        <time>2018-01-23T12:01:02Z</time>
      </trkpt>
      <trkpt lat="62.635149538956" lon="17.987866189196">
        <ele>96.6</ele>
        <time>2018-01-23T12:01:03Z</time>
      </trkpt>
      <trkpt lat="62.635148281671" lon="17.987915139492">
        <ele>96.6</ele>
        <time>2018-01-23T12:01:04Z</time>
      </trkpt>
      <trkpt lat="62.635139313038" lon="17.987967023453">
        <ele>96.8</ele>
        <time>2018-01-23T12:01:05Z</time>
      </trkpt>
      <trkpt lat="62.635139648314" lon="17.987998036483">
        <ele>97</ele>
        <time>2018-01-23T12:01:06Z</time>
      </trkpt>
      <trkpt lat="62.635131936966" lon="17.988043801657">
        <ele>97.2</ele>
        <time>2018-01-23T12:01:07Z</time>
      </trkpt>
      <trkpt lat="62.63511902884" lon="17.988094428333">
        <ele>97.2</ele>
        <time>2018-01-23T12:01:08Z</time>
      </trkpt>
      <trkpt lat="62.635115508442" lon="17.988121334232">
        <ele>97.4</ele>
        <time>2018-01-23T12:01:09Z</time>
      </trkpt>
      <trkpt lat="62.635095727158" lon="17.988178666428">
        <ele>97.4</ele>
        <time>2018-01-23T12:01:10Z</time>
      </trkpt>
      <trkpt lat="62.635079550091" lon="17.988214792417">
        <ele>97.6</ele>
        <time>2018-01-23T12:01:11Z</time>
      </trkpt>
      <trkpt lat="62.635064797947" lon="17.988255444632">
        <ele>97.6</ele>
        <time>2018-01-23T12:01:12Z</time>
      </trkpt>
      <trkpt lat="62.63505700278" lon="17.988279500685">
        <ele>97.6</ele>
        <time>2018-01-23T12:01:13Z</time>
      </trkpt>
      <trkpt lat="62.635041999179" lon="17.988303892014">
        <ele>97.6</ele>
        <time>2018-01-23T12:01:14Z</time>
      </trkpt>
      <trkpt lat="62.635030515976" lon="17.988324930583">
        <ele>97.8</ele>
        <time>2018-01-23T12:01:15Z</time>
      </trkpt>
      <trkpt lat="62.635010986149" lon="17.988346639704">
        <ele>97.8</ele>
        <time>2018-01-23T12:01:16Z</time>
      </trkpt>
      <trkpt lat="62.63499246215" lon="17.988360218382">
        <ele>98</ele>
        <time>2018-01-23T12:01:17Z</time>
      </trkpt>
      <trkpt lat="62.634982320051" lon="17.988380083485">
        <ele>98.2</ele>
        <time>2018-01-23T12:01:18Z</time>
      </trkpt>
      <trkpt lat="62.634950636469" lon="17.988400870597">
        <ele>98.4</ele>
        <time>2018-01-23T12:01:19Z</time>
      </trkpt>
      <trkpt lat="62.63493043609" lon="17.988410928877">
        <ele>98.4</ele>
        <time>2018-01-23T12:01:20Z</time>
      </trkpt>
      <trkpt lat="62.634913588471" lon="17.988432218903">
        <ele>98.6</ele>
        <time>2018-01-23T12:01:21Z</time>
      </trkpt>
      <trkpt lat="62.634896824671" lon="17.988445546124">
        <ele>98.6</ele>
        <time>2018-01-23T12:01:22Z</time>
      </trkpt>
      <trkpt lat="62.634877127206" lon="17.988455520585">
        <ele>98.8</ele>
        <time>2018-01-23T12:01:23Z</time>
      </trkpt>
      <trkpt lat="62.634853574067" lon="17.988473457851">
        <ele>98.8</ele>
        <time>2018-01-23T12:01:24Z</time>
      </trkpt>
      <trkpt lat="62.634842174683" lon="17.988486785072">
        <ele>98.8</ele>
        <time>2018-01-23T12:01:25Z</time>
      </trkpt>
      <trkpt lat="62.6348122513" lon="17.988502207768">
        <ele>98.8</ele>
        <time>2018-01-23T12:01:26Z</time>
      </trkpt>
      <trkpt lat="62.634795403681" lon="17.988511344039">
        <ele>99</ele>
        <time>2018-01-23T12:01:27Z</time>
      </trkpt>
      <trkpt lat="62.634786351229" lon="17.98852048031">
        <ele>99</ele>
        <time>2018-01-23T12:01:28Z</time>
      </trkpt>
      <trkpt lat="62.634757685131" lon="17.988536238282">
        <ele>99</ele>
        <time>2018-01-23T12:01:29Z</time>
      </trkpt>
      <trkpt lat="62.634735556915" lon="17.988550319874">
        <ele>99.2</ele>
        <time>2018-01-23T12:01:30Z</time>
      </trkpt>
      <trkpt lat="62.634723570798" lon="17.988558366498">
        <ele>99.2</ele>
        <time>2018-01-23T12:01:31Z</time>
      </trkpt>
      <trkpt lat="62.634703118962" lon="17.988566999855">
        <ele>99.4</ele>
        <time>2018-01-23T12:01:32Z</time>
      </trkpt>
      <trkpt lat="62.634679482004" lon="17.988581081447">
        <ele>99.6</ele>
        <time>2018-01-23T12:01:33Z</time>
      </trkpt>
      <trkpt lat="62.634670932466" lon="17.988589379528">
        <ele>99.6</ele>
        <time>2018-01-23T12:01:34Z</time>
      </trkpt>
      <trkpt lat="62.63465718615" lon="17.988599018713">
        <ele>99.6</ele>
        <time>2018-01-23T12:01:35Z</time>
      </trkpt>
      <trkpt lat="62.634639835617" lon="17.98861268121">
        <ele>99.6</ele>
        <time>2018-01-23T12:01:36Z</time>
      </trkpt>
      <trkpt lat="62.634613097356" lon="17.988623493861">
        <ele>99.8</ele>
        <time>2018-01-23T12:01:37Z</time>
      </trkpt>
      <trkpt lat="62.63459851285" lon="17.988637156358">
        <ele>100</ele>
        <time>2018-01-23T12:01:38Z</time>
      </trkpt>
      <trkpt lat="62.634578647747" lon="17.98865626709">
        <ele>100.2</ele>
        <time>2018-01-23T12:01:39Z</time>
      </trkpt>
      <trkpt lat="62.634560207567" lon="17.988673617623">
        <ele>100.4</ele>
        <time>2018-01-23T12:01:40Z</time>
      </trkpt>
      <trkpt lat="62.634549143459" lon="17.988700272065">
        <ele>100.4</ele>
        <time>2018-01-23T12:01:41Z</time>
      </trkpt>
      <trkpt lat="62.634521064094" lon="17.98873505695">
        <ele>100.6</ele>
        <time>2018-01-23T12:01:42Z</time>
      </trkpt>
      <trkpt lat="62.634498013869" lon="17.988764225962">
        <ele>100.8</ele>
        <time>2018-01-23T12:01:43Z</time>
      </trkpt>
      <trkpt lat="62.634484351372" lon="17.988800184313">
        <ele>100.8</ele>
        <time>2018-01-23T12:01:44Z</time>
      </trkpt>
      <trkpt lat="62.634467839029" lon="17.988824491823">
        <ele>100.8</ele>
        <time>2018-01-23T12:01:45Z</time>
      </trkpt>
      <trkpt lat="62.634451913419" lon="17.988845865668">
        <ele>101</ele>
        <time>2018-01-23T12:01:46Z</time>
      </trkpt>
      <trkpt lat="62.634434646705" lon="17.988882997485">
        <ele>101</ele>
        <time>2018-01-23T12:01:47Z</time>
      </trkpt>
      <trkpt lat="62.634424672244" lon="17.988911412126">
        <ele>101.2</ele>
        <time>2018-01-23T12:01:48Z</time>
      </trkpt>
      <trkpt lat="62.634406986435" lon="17.988947370477">
        <ele>101.4</ele>
        <time>2018-01-23T12:01:49Z</time>
      </trkpt>
      <trkpt lat="62.634385109676" lon="17.988995231126">
        <ele>101.6</ele>
        <time>2018-01-23T12:01:50Z</time>
      </trkpt>
      <trkpt lat="62.634375973405" lon="17.989021047378">
        <ele>101.8</ele>
        <time>2018-01-23T12:01:51Z</time>
      </trkpt>
      <trkpt lat="62.634357700863" lon="17.989048204734">
        <ele>101.8</ele>
        <time>2018-01-23T12:01:52Z</time>
      </trkpt>
      <trkpt lat="62.634340098873" lon="17.989081732334">
        <ele>101.8</ele>
        <time>2018-01-23T12:01:53Z</time>
      </trkpt>
      <trkpt lat="62.634329370041" lon="17.989109308785">
        <ele>101.8</ele>
        <time>2018-01-23T12:01:54Z</time>
      </trkpt>
      <trkpt lat="62.63430514635" lon="17.98914912281">
        <ele>102</ele>
        <time>2018-01-23T12:01:55Z</time>
      </trkpt>
      <trkpt lat="62.634287376722" lon="17.989173514139">
        <ele>102</ele>
        <time>2018-01-23T12:01:56Z</time>
      </trkpt>
      <trkpt lat="62.634265416144" lon="17.989203018427">
        <ele>102.2</ele>
        <time>2018-01-23T12:01:57Z</time>
      </trkpt>
      <trkpt lat="62.6342422821" lon="17.989238138588">
        <ele>102.2</ele>
        <time>2018-01-23T12:01:58Z</time>
      </trkpt>
      <trkpt lat="62.634226775585" lon="17.989264122478">
        <ele>102.2</ele>
        <time>2018-01-23T12:01:59Z</time>
      </trkpt>
      <trkpt lat="62.634205150283" lon="17.989286334513">
        <ele>102.2</ele>
        <time>2018-01-23T12:02:00Z</time>
      </trkpt>
      <trkpt lat="62.634177070918" lon="17.989314497697">
        <ele>102.2</ele>
        <time>2018-01-23T12:02:01Z</time>
      </trkpt>
      <trkpt lat="62.634165084801" lon="17.989326651452">
        <ele>102.2</ele>
        <time>2018-01-23T12:02:02Z</time>
      </trkpt>
      <trkpt lat="62.634147398992" lon="17.989348695849">
        <ele>102</ele>
        <time>2018-01-23T12:02:03Z</time>
      </trkpt>
      <trkpt lat="62.634121498921" lon="17.989364621459">
        <ele>102</ele>
        <time>2018-01-23T12:02:04Z</time>
      </trkpt>
      <trkpt lat="62.634095682669" lon="17.989400160715">
        <ele>102.2</ele>
        <time>2018-01-23T12:02:05Z</time>
      </trkpt>
      <trkpt lat="62.634085205294" lon="17.98942153456">
        <ele>102.2</ele>
        <time>2018-01-23T12:02:06Z</time>
      </trkpt>
      <trkpt lat="62.634063831449" lon="17.989441818758">
        <ele>102.2</ele>
        <time>2018-01-23T12:02:07Z</time>
      </trkpt>
      <trkpt lat="62.6340494984" lon="17.989460845671">
        <ele>102.2</ele>
        <time>2018-01-23T12:02:08Z</time>
      </trkpt>
      <trkpt lat="62.634028878926" lon="17.989477860928">
        <ele>102.4</ele>
        <time>2018-01-23T12:02:09Z</time>
      </trkpt>
      <trkpt lat="62.634015551705" lon="17.989488925036">
        <ele>102.4</ele>
        <time>2018-01-23T12:02:10Z</time>
      </trkpt>
      <trkpt lat="62.634001637751" lon="17.989504766827">
        <ele>102.6</ele>
        <time>2018-01-23T12:02:11Z</time>
      </trkpt>
      <trkpt lat="62.633975402404" lon="17.989527649414">
        <ele>102.8</ele>
        <time>2018-01-23T12:02:12Z</time>
      </trkpt>
      <trkpt lat="62.633954447654" lon="17.989544245576">
        <ele>103</ele>
        <time>2018-01-23T12:02:13Z</time>
      </trkpt>
      <trkpt lat="62.633938522044" lon="17.989565200326">
        <ele>103.2</ele>
        <time>2018-01-23T12:02:14Z</time>
      </trkpt>
      <trkpt lat="62.633917567294" lon="17.989588502008">
        <ele>103.4</ele>
        <time>2018-01-23T12:02:15Z</time>
      </trkpt>
      <trkpt lat="62.633885045522" lon="17.9896193474">
        <ele>103.4</ele>
        <time>2018-01-23T12:02:16Z</time>
      </trkpt>
      <trkpt lat="62.633876160708" lon="17.989641727073">
        <ele>103.6</ele>
        <time>2018-01-23T12:02:17Z</time>
      </trkpt>
      <trkpt lat="62.633845147678" lon="17.989678272157">
        <ele>103.6</ele>
        <time>2018-01-23T12:02:18Z</time>
      </trkpt>
      <trkpt lat="62.633834670303" lon="17.989697718165">
        <ele>103.6</ele>
        <time>2018-01-23T12:02:19Z</time>
      </trkpt>
      <trkpt lat="62.633809189327" lon="17.989732922145">
        <ele>103.8</ele>
        <time>2018-01-23T12:02:20Z</time>
      </trkpt>
      <trkpt lat="62.633785217093" lon="17.989777346215">
        <ele>103.8</ele>
        <time>2018-01-23T12:02:21Z</time>
      </trkpt>
      <trkpt lat="62.633776751374" lon="17.989817746973">
        <ele>103.8</ele>
        <time>2018-01-23T12:02:22Z</time>
      </trkpt>
      <trkpt lat="62.633757305366" lon="17.989862003405">
        <ele>103.8</ele>
        <time>2018-01-23T12:02:23Z</time>
      </trkpt>
      <trkpt lat="62.633746408896" lon="17.989892178245">
        <ele>103.8</ele>
        <time>2018-01-23T12:02:24Z</time>
      </trkpt>
      <trkpt lat="62.633727130526" lon="17.989936937591">
        <ele>103.8</ele>
        <time>2018-01-23T12:02:25Z</time>
      </trkpt>
      <trkpt lat="62.633707935975" lon="17.989982032213">
        <ele>103.6</ele>
        <time>2018-01-23T12:02:26Z</time>
      </trkpt>
      <trkpt lat="62.633693100012" lon="17.990016146546">
        <ele>103.6</ele>
        <time>2018-01-23T12:02:27Z</time>
      </trkpt>
      <trkpt lat="62.633681281533" lon="17.990049255051">
        <ele>103.6</ele>
        <time>2018-01-23T12:02:28Z</time>
      </trkpt>
      <trkpt lat="62.633663344267" lon="17.990087644153">
        <ele>103.6</ele>
        <time>2018-01-23T12:02:29Z</time>
      </trkpt>
      <trkpt lat="62.633641718965" lon="17.99012561416">
        <ele>103.6</ele>
        <time>2018-01-23T12:02:30Z</time>
      </trkpt>
      <trkpt lat="62.6336304034" lon="17.990159477036">
        <ele>103.8</ele>
        <time>2018-01-23T12:02:31Z</time>
      </trkpt>
      <trkpt lat="62.633607185537" lon="17.990193004636">
        <ele>104</ele>
        <time>2018-01-23T12:02:32Z</time>
      </trkpt>
      <trkpt lat="62.633591343746" lon="17.990211780092">
        <ele>104</ele>
        <time>2018-01-23T12:02:33Z</time>
      </trkpt>
      <trkpt lat="62.633572819747" lon="17.990233405394">
        <ele>104.2</ele>
        <time>2018-01-23T12:02:34Z</time>
      </trkpt>
      <trkpt lat="62.633563264381" lon="17.990255030696">
        <ele>104.2</ele>
        <time>2018-01-23T12:02:35Z</time>
      </trkpt>
      <trkpt lat="62.633536190844" lon="17.990285205536">
        <ele>104.4</ele>
        <time>2018-01-23T12:02:36Z</time>
      </trkpt>
      <trkpt lat="62.633510290773" lon="17.990301717879">
        <ele>104.6</ele>
        <time>2018-01-23T12:02:37Z</time>
      </trkpt>
      <trkpt lat="62.633498137018" lon="17.990316553842">
        <ele>104.8</ele>
        <time>2018-01-23T12:02:38Z</time>
      </trkpt>
      <trkpt lat="62.633462430124" lon="17.990347902148">
        <ele>104.8</ele>
        <time>2018-01-23T12:02:39Z</time>
      </trkpt>
      <trkpt lat="62.633437703519" lon="17.990358547161">
        <ele>105</ele>
        <time>2018-01-23T12:02:40Z</time>
      </trkpt>
      <trkpt lat="62.633416748769" lon="17.990372544934">
        <ele>105</ele>
        <time>2018-01-23T12:02:41Z</time>
      </trkpt>
      <trkpt lat="62.633398392408" lon="17.990389141096">
        <ele>105</ele>
        <time>2018-01-23T12:02:42Z</time>
      </trkpt>
      <trkpt lat="62.633370229224" lon="17.990404815249">
        <ele>105</ele>
        <time>2018-01-23T12:02:43Z</time>
      </trkpt>
      <trkpt lat="62.633345251162" lon="17.99042317161">
        <ele>105</ele>
        <time>2018-01-23T12:02:44Z</time>
      </trkpt>
      <trkpt lat="62.633310885372" lon="17.990442617618">
        <ele>105</ele>
        <time>2018-01-23T12:02:45Z</time>
      </trkpt>
      <trkpt lat="62.633282806007" lon="17.990459884332">
        <ele>105</ele>
        <time>2018-01-23T12:02:46Z</time>
      </trkpt>
      <trkpt lat="62.633270652252" lon="17.990477737779">
        <ele>105.2</ele>
        <time>2018-01-23T12:02:47Z</time>
      </trkpt>
      <trkpt lat="62.633241902335" lon="17.990504727497">
        <ele>105.2</ele>
        <time>2018-01-23T12:02:48Z</time>
      </trkpt>
      <trkpt lat="62.633219941757" lon="17.99053129812">
        <ele>105</ele>
        <time>2018-01-23T12:02:49Z</time>
      </trkpt>
      <trkpt lat="62.633195047514" lon="17.99056482572">
        <ele>105</ele>
        <time>2018-01-23T12:02:50Z</time>
      </trkpt>
      <trkpt lat="62.633170320909" lon="17.990603131003">
        <ele>105</ele>
        <time>2018-01-23T12:02:51Z</time>
      </trkpt>
      <trkpt lat="62.633161017" lon="17.990640179001">
        <ele>104.8</ele>
        <time>2018-01-23T12:02:52Z</time>
      </trkpt>
      <trkpt lat="62.633148611788" lon="17.990679490112">
        <ele>104.8</ele>
        <time>2018-01-23T12:02:53Z</time>
      </trkpt>
      <trkpt lat="62.633133775825" lon="17.990733553367">
        <ele>104.6</ele>
        <time>2018-01-23T12:02:54Z</time>
      </trkpt>
      <trkpt lat="62.633119191319" lon="17.990776217238">
        <ele>104.8</ele>
        <time>2018-01-23T12:02:55Z</time>
      </trkpt>
      <trkpt lat="62.633109971229" lon="17.990816953272">
        <ele>104.8</ele>
        <time>2018-01-23T12:02:56Z</time>
      </trkpt>
      <trkpt lat="62.633100164406" lon="17.99085316308">
        <ele>104.8</ele>
        <time>2018-01-23T12:02:57Z</time>
      </trkpt>
      <trkpt lat="62.63308138895" lon="17.99090848362">
        <ele>104.8</ele>
        <time>2018-01-23T12:02:58Z</time>
      </trkpt>
      <trkpt lat="62.633069905747" lon="17.990953662061">
        <ele>104.8</ele>
        <time>2018-01-23T12:02:59Z</time>
      </trkpt>
      <trkpt lat="62.633051968481" lon="17.990998505226">
        <ele>104.8</ele>
        <time>2018-01-23T12:03:00Z</time>
      </trkpt>
      <trkpt lat="62.63303947945" lon="17.991042929296">
        <ele>104.8</ele>
        <time>2018-01-23T12:03:01Z</time>
      </trkpt>
      <trkpt lat="62.633028834437" lon="17.991078887647">
        <ele>104.8</ele>
        <time>2018-01-23T12:03:02Z</time>
      </trkpt>
      <trkpt lat="62.633012489732" lon="17.991128676133">
        <ele>104.8</ele>
        <time>2018-01-23T12:03:03Z</time>
      </trkpt>
      <trkpt lat="62.632999749244" lon="17.991175614773">
        <ele>104.8</ele>
        <time>2018-01-23T12:03:04Z</time>
      </trkpt>
      <trkpt lat="62.632989523326" lon="17.991208807097">
        <ele>104.8</ele>
        <time>2018-01-23T12:03:05Z</time>
      </trkpt>
      <trkpt lat="62.632968652395" lon="17.991254488452">
        <ele>104.8</ele>
        <time>2018-01-23T12:03:06Z</time>
      </trkpt>
      <trkpt lat="62.632947110912" lon="17.991308803164">
        <ele>104.8</ele>
        <time>2018-01-23T12:03:07Z</time>
      </trkpt>
      <trkpt lat="62.63292800018" lon="17.991341744031">
        <ele>104.8</ele>
        <time>2018-01-23T12:03:08Z</time>
      </trkpt>
      <trkpt lat="62.632908218896" lon="17.991384240264">
        <ele>104.6</ele>
        <time>2018-01-23T12:03:09Z</time>
      </trkpt>
      <trkpt lat="62.6328844143" lon="17.991425898307">
        <ele>104.8</ele>
        <time>2018-01-23T12:03:10Z</time>
      </trkpt>
      <trkpt lat="62.632871506174" lon="17.991458252441">
        <ele>104.8</ele>
        <time>2018-01-23T12:03:11Z</time>
      </trkpt>
      <trkpt lat="62.63284501937" lon="17.991517596293">
        <ele>104.8</ele>
        <time>2018-01-23T12:03:12Z</time>
      </trkpt>
      <trkpt lat="62.632830937778" lon="17.991556739766">
        <ele>104.8</ele>
        <time>2018-01-23T12:03:13Z</time>
      </trkpt>
      <trkpt lat="62.6328089772" lon="17.991624633156">
        <ele>104.8</ele>
        <time>2018-01-23T12:03:14Z</time>
      </trkpt>
      <trkpt lat="62.63279388978" lon="17.99165866367">
        <ele>105</ele>
        <time>2018-01-23T12:03:15Z</time>
      </trkpt>
      <trkpt lat="62.632768576442" lon="17.991719264807">
        <ele>104.8</ele>
        <time>2018-01-23T12:03:16Z</time>
      </trkpt>
      <trkpt lat="62.632755752135" lon="17.99176176104">
        <ele>104.8</ele>
        <time>2018-01-23T12:03:17Z</time>
      </trkpt>
      <trkpt lat="62.632738736878" lon="17.991814734648">
        <ele>104.6</ele>
        <time>2018-01-23T12:03:18Z</time>
      </trkpt>
      <trkpt lat="62.632726750761" lon="17.991866953885">
        <ele>104.6</ele>
        <time>2018-01-23T12:03:19Z</time>
      </trkpt>
      <trkpt lat="62.632718871775" lon="17.991914730715">
        <ele>104.6</ele>
        <time>2018-01-23T12:03:20Z</time>
      </trkpt>
      <trkpt lat="62.63271761449" lon="17.991951275799">
        <ele>104.8</ele>
        <time>2018-01-23T12:03:21Z</time>
      </trkpt>
      <trkpt lat="62.632719542327" lon="17.992005422873">
        <ele>104.8</ele>
        <time>2018-01-23T12:03:22Z</time>
      </trkpt>
      <trkpt lat="62.632728175684" lon="17.992036100627">
        <ele>104.8</ele>
        <time>2018-01-23T12:03:23Z</time>
      </trkpt>
      <trkpt lat="62.63274778933" lon="17.992054959902">
        <ele>105</ele>
        <time>2018-01-23T12:03:24Z</time>
      </trkpt>
      <trkpt lat="62.632765139863" lon="17.992063425621">
        <ele>105</ele>
        <time>2018-01-23T12:03:25Z</time>
      </trkpt>
      <trkpt lat="62.632780143464" lon="17.992065604915">
        <ele>105</ele>
        <time>2018-01-23T12:03:26Z</time>
      </trkpt>
      <trkpt lat="62.632798248368" lon="17.992067784209">
        <ele>105.2</ele>
        <time>2018-01-23T12:03:27Z</time>
      </trkpt>
      <trkpt lat="62.632820208946" lon="17.99206937677">
        <ele>105.2</ele>
        <time>2018-01-23T12:03:28Z</time>
      </trkpt>
      <trkpt lat="62.632850299967" lon="17.992087230217">
        <ele>105.2</ele>
        <time>2018-01-23T12:03:29Z</time>
      </trkpt>
      <trkpt lat="62.632867147586" lon="17.992089660968">
        <ele>105.2</ele>
        <time>2018-01-23T12:03:30Z</time>
      </trkpt>
      <trkpt lat="62.632892293286" lon="17.992093516642">
        <ele>105</ele>
        <time>2018-01-23T12:03:31Z</time>
      </trkpt>
      <trkpt lat="62.632922887221" lon="17.992103658741">
        <ele>105</ele>
        <time>2018-01-23T12:03:32Z</time>
      </trkpt>
      <trkpt lat="62.632931101483" lon="17.992094354832">
        <ele>105</ele>
        <time>2018-01-23T12:03:33Z</time>
      </trkpt>
      <trkpt lat="62.632966473101" lon="17.992115644858">
        <ele>105</ele>
        <time>2018-01-23T12:03:34Z</time>
      </trkpt>
      <trkpt lat="62.632994301009" lon="17.992122937111">
        <ele>105</ele>
        <time>2018-01-23T12:03:35Z</time>
      </trkpt>
      <trkpt lat="62.633011735361" lon="17.992134504133">
        <ele>105</ele>
        <time>2018-01-23T12:03:36Z</time>
      </trkpt>
      <trkpt lat="62.633046939341" lon="17.992142215481">
        <ele>105</ele>
        <time>2018-01-23T12:03:37Z</time>
      </trkpt>
      <trkpt lat="62.633069570471" lon="17.992156883806">
        <ele>105.2</ele>
        <time>2018-01-23T12:03:38Z</time>
      </trkpt>
      <trkpt lat="62.633104355356" lon="17.99218001785">
        <ele>105.2</ele>
        <time>2018-01-23T12:03:39Z</time>
      </trkpt>
      <trkpt lat="62.633120448604" lon="17.992177754737">
        <ele>105.2</ele>
        <time>2018-01-23T12:03:40Z</time>
      </trkpt>
      <trkpt lat="62.633147019227" lon="17.99219845803">
        <ele>105.2</ele>
        <time>2018-01-23T12:03:41Z</time>
      </trkpt>
      <trkpt lat="62.633174595678" lon="17.992210695604">
        <ele>105.2</ele>
        <time>2018-01-23T12:03:42Z</time>
      </trkpt>
      <trkpt lat="62.63319873555" lon="17.992227878499">
        <ele>105</ele>
        <time>2018-01-23T12:03:43Z</time>
      </trkpt>
      <trkpt lat="62.633223965069" lon="17.99223869115">
        <ele>104.8</ele>
        <time>2018-01-23T12:03:44Z</time>
      </trkpt>
      <trkpt lat="62.6332532179" lon="17.992255203493">
        <ele>105</ele>
        <time>2018-01-23T12:03:45Z</time>
      </trkpt>
      <trkpt lat="62.633266964216" lon="17.99225210219">
        <ele>105</ele>
        <time>2018-01-23T12:03:46Z</time>
      </trkpt>
      <trkpt lat="62.633295462676" lon="17.992261992832">
        <ele>104.8</ele>
        <time>2018-01-23T12:03:47Z</time>
      </trkpt>
      <trkpt lat="62.633325218421" lon="17.992266854334">
        <ele>104.8</ele>
        <time>2018-01-23T12:03:48Z</time>
      </trkpt>
      <trkpt lat="62.633344664429" lon="17.992254952036">
        <ele>104.8</ele>
        <time>2018-01-23T12:03:49Z</time>
      </trkpt>
      <trkpt lat="62.633381796246" lon="17.992262495746">
        <ele>104.8</ele>
        <time>2018-01-23T12:03:50Z</time>
      </trkpt>
      <trkpt lat="62.633407193403" lon="17.992269620361">
        <ele>104.8</ele>
        <time>2018-01-23T12:03:51Z</time>
      </trkpt>
      <trkpt lat="62.633447761799" lon="17.992293257319">
        <ele>104.6</ele>
        <time>2018-01-23T12:03:52Z</time>
      </trkpt>
      <trkpt lat="62.633473494232" lon="17.992305662531">
        <ele>104.6</ele>
        <time>2018-01-23T12:03:53Z</time>
      </trkpt>
      <trkpt lat="62.633516577198" lon="17.992356708302">
        <ele>104.6</ele>
        <time>2018-01-23T12:03:54Z</time>
      </trkpt>
      <trkpt lat="62.633542141993" lon="17.992386464047">
        <ele>104.4</ele>
        <time>2018-01-23T12:03:55Z</time>
      </trkpt>
      <trkpt lat="62.633568042064" lon="17.992428876461">
        <ele>104.2</ele>
        <time>2018-01-23T12:03:56Z</time>
      </trkpt>
      <trkpt lat="62.633599809465" lon="17.992462739337">
        <ele>104</ele>
        <time>2018-01-23T12:03:57Z</time>
      </trkpt>
      <trkpt lat="62.633623446423" lon="17.992496183118">
        <ele>104</ele>
        <time>2018-01-23T12:03:58Z</time>
      </trkpt>
      <trkpt lat="62.633658566584" lon="17.992541780654">
        <ele>103.6</ele>
        <time>2018-01-23T12:03:59Z</time>
      </trkpt>
      <trkpt lat="62.633685053388" lon="17.992583438697">
        <ele>103.4</ele>
        <time>2018-01-23T12:04:00Z</time>
      </trkpt>
      <trkpt lat="62.633710282907" lon="17.992628868595">
        <ele>103.2</ele>
        <time>2018-01-23T12:04:01Z</time>
      </trkpt>
      <trkpt lat="62.633734674236" lon="17.992675304321">
        <ele>103</ele>
        <time>2018-01-23T12:04:02Z</time>
      </trkpt>
      <trkpt lat="62.633756550995" lon="17.992729619033">
        <ele>102.8</ele>
        <time>2018-01-23T12:04:03Z</time>
      </trkpt>
      <trkpt lat="62.633781026143" lon="17.992790303989">
        <ele>102.6</ele>
        <time>2018-01-23T12:04:04Z</time>
      </trkpt>
      <trkpt lat="62.633804998377" lon="17.992841601217">
        <ele>102.4</ele>
        <time>2018-01-23T12:04:05Z</time>
      </trkpt>
      <trkpt lat="62.633829138249" lon="17.992899436327">
        <ele>102.2</ele>
        <time>2018-01-23T12:04:06Z</time>
      </trkpt>
      <trkpt lat="62.633860318917" lon="17.992952745211">
        <ele>102</ele>
        <time>2018-01-23T12:04:07Z</time>
      </trkpt>
      <trkpt lat="62.633878004726" lon="17.992971604486">
        <ele>101.8</ele>
        <time>2018-01-23T12:04:08Z</time>
      </trkpt>
      <trkpt lat="62.633912202878" lon="17.993015441823">
        <ele>101.6</ele>
        <time>2018-01-23T12:04:09Z</time>
      </trkpt>
      <trkpt lat="62.633942126261" lon="17.993058608608">
        <ele>101.2</ele>
        <time>2018-01-23T12:04:10Z</time>
      </trkpt>
      <trkpt lat="62.633968948341" lon="17.993108648551">
        <ele>101.2</ele>
        <time>2018-01-23T12:04:11Z</time>
      </trkpt>
      <trkpt lat="62.63400255976" lon="17.993150306594">
        <ele>101</ele>
        <time>2018-01-23T12:04:12Z</time>
      </trkpt>
      <trkpt lat="62.634027621641" lon="17.99319590413">
        <ele>101</ele>
        <time>2018-01-23T12:04:13Z</time>
      </trkpt>
      <trkpt lat="62.634058886128" lon="17.993250218842">
        <ele>100.8</ele>
        <time>2018-01-23T12:04:14Z</time>
      </trkpt>
      <trkpt lat="62.634090150615" lon="17.993297492758">
        <ele>100.6</ele>
        <time>2018-01-23T12:04:15Z</time>
      </trkpt>
      <trkpt lat="62.634123845853" lon="17.99333755824">
        <ele>100.4</ele>
        <time>2018-01-23T12:04:16Z</time>
      </trkpt>
      <trkpt lat="62.63416097767" lon="17.993374187143">
        <ele>100</ele>
        <time>2018-01-23T12:04:17Z</time>
      </trkpt>
      <trkpt lat="62.634197271297" lon="17.993398159377">
        <ele>99.8</ele>
        <time>2018-01-23T12:04:18Z</time>
      </trkpt>
      <trkpt lat="62.634239935168" lon="17.993418611213">
        <ele>99.4</ele>
        <time>2018-01-23T12:04:19Z</time>
      </trkpt>
      <trkpt lat="62.634281006478" lon="17.993439482144">
        <ele>99</ele>
        <time>2018-01-23T12:04:20Z</time>
      </trkpt>
      <trkpt lat="62.634326352557" lon="17.993463705835">
        <ele>98.6</ele>
        <time>2018-01-23T12:04:21Z</time>
      </trkpt>
      <trkpt lat="62.634375386672" lon="17.993489102992">
        <ele>98.2</ele>
        <time>2018-01-23T12:04:22Z</time>
      </trkpt>
      <trkpt lat="62.634417882905" lon="17.993503268403">
        <ele>97.8</ele>
        <time>2018-01-23T12:04:23Z</time>
      </trkpt>
      <trkpt lat="62.6344769753" lon="17.993529000836">
        <ele>97.2</ele>
        <time>2018-01-23T12:04:24Z</time>
      </trkpt>
      <trkpt lat="62.634527015243" lon="17.993554817088">
        <ele>96.8</ele>
        <time>2018-01-23T12:04:25Z</time>
      </trkpt>
      <trkpt lat="62.634582419602" lon="17.993576274752">
        <ele>96.2</ele>
        <time>2018-01-23T12:04:26Z</time>
      </trkpt>
      <trkpt lat="62.634633968287" lon="17.993595385484">
        <ele>95.8</ele>
        <time>2018-01-23T12:04:27Z</time>
      </trkpt>
      <trkpt lat="62.634684930239" lon="17.99360829361">
        <ele>95.2</ele>
        <time>2018-01-23T12:04:28Z</time>
      </trkpt>
      <trkpt lat="62.634740418417" lon="17.993627991075">
        <ele>94.8</ele>
        <time>2018-01-23T12:04:29Z</time>
      </trkpt>
      <trkpt lat="62.634794733129" lon="17.993641485934">
        <ele>94.4</ele>
        <time>2018-01-23T12:04:30Z</time>
      </trkpt>
      <trkpt lat="62.634846449452" lon="17.993650035472">
        <ele>94</ele>
        <time>2018-01-23T12:04:31Z</time>
      </trkpt>
      <trkpt lat="62.634895651205" lon="17.993659926114">
        <ele>93.4</ele>
        <time>2018-01-23T12:04:32Z</time>
      </trkpt>
      <trkpt lat="62.634942003112" lon="17.993672750421">
        <ele>93</ele>
        <time>2018-01-23T12:04:33Z</time>
      </trkpt>
      <trkpt lat="62.634981230404" lon="17.993677695742">
        <ele>92.6</ele>
        <time>2018-01-23T12:04:34Z</time>
      </trkpt>
      <trkpt lat="62.635016518203" lon="17.99369630356">
        <ele>92.2</ele>
        <time>2018-01-23T12:04:35Z</time>
      </trkpt>
      <trkpt lat="62.635056835142" lon="17.993704936917">
        <ele>91.8</ele>
        <time>2018-01-23T12:04:36Z</time>
      </trkpt>
      <trkpt lat="62.635105282524" lon="17.993716001025">
        <ele>91.6</ele>
        <time>2018-01-23T12:04:37Z</time>
      </trkpt>
      <trkpt lat="62.635148449309" lon="17.993723880011">
        <ele>91.4</ele>
        <time>2018-01-23T12:04:38Z</time>
      </trkpt>
      <trkpt lat="62.635196896691" lon="17.993730334074">
        <ele>91.2</ele>
        <time>2018-01-23T12:04:39Z</time>
      </trkpt>
      <trkpt lat="62.635237884182" lon="17.993746259684">
        <ele>90.8</ele>
        <time>2018-01-23T12:04:40Z</time>
      </trkpt>
      <trkpt lat="62.635288259401" lon="17.993754557765">
        <ele>90.6</ele>
        <time>2018-01-23T12:04:41Z</time>
      </trkpt>
      <trkpt lat="62.63533612005" lon="17.993769561366">
        <ele>90.4</ele>
        <time>2018-01-23T12:04:42Z</time>
      </trkpt>
      <trkpt lat="62.63536964765" lon="17.993781715121">
        <ele>89.8</ele>
        <time>2018-01-23T12:04:43Z</time>
      </trkpt>
      <trkpt lat="62.635410551322" lon="17.993783978234">
        <ele>89.4</ele>
        <time>2018-01-23T12:04:44Z</time>
      </trkpt>
      <trkpt lat="62.635449443338" lon="17.993792024858">
        <ele>89</ele>
        <time>2018-01-23T12:04:45Z</time>
      </trkpt>
      <trkpt lat="62.63549202339" lon="17.993798311283">
        <ele>89</ele>
        <time>2018-01-23T12:04:46Z</time>
      </trkpt>
      <trkpt lat="62.635531669777" lon="17.993800490577">
        <ele>88.8</ele>
        <time>2018-01-23T12:04:47Z</time>
      </trkpt>
      <trkpt lat="62.635575255657" lon="17.993814069255">
        <ele>88.8</ele>
        <time>2018-01-23T12:04:48Z</time>
      </trkpt>
      <trkpt lat="62.635619931184" lon="17.993820607137">
        <ele>88.6</ele>
        <time>2018-01-23T12:04:49Z</time>
      </trkpt>
      <trkpt lat="62.635654967526" lon="17.993832593254">
        <ele>88</ele>
        <time>2018-01-23T12:04:50Z</time>
      </trkpt>
      <trkpt lat="62.63569737994" lon="17.993846926303">
        <ele>87.2</ele>
        <time>2018-01-23T12:04:51Z</time>
      </trkpt>
      <trkpt lat="62.635750856462" lon="17.993869222157">
        <ele>86.8</ele>
        <time>2018-01-23T12:04:52Z</time>
      </trkpt>
      <trkpt lat="62.63578706627" lon="17.993881795007">
        <ele>86.4</ele>
        <time>2018-01-23T12:04:53Z</time>
      </trkpt>
      <trkpt lat="62.635826042105" lon="17.993883555206">
        <ele>86.2</ele>
        <time>2018-01-23T12:04:54Z</time>
      </trkpt>
      <trkpt lat="62.635864682664" lon="17.993890679821">
        <ele>86.2</ele>
        <time>2018-01-23T12:04:55Z</time>
      </trkpt>
      <trkpt lat="62.635908352363" lon="17.993878609885">
        <ele>86.2</ele>
        <time>2018-01-23T12:04:56Z</time>
      </trkpt>
      <trkpt lat="62.635941628506" lon="17.993868216329">
        <ele>86.4</ele>
        <time>2018-01-23T12:04:57Z</time>
      </trkpt>
      <trkpt lat="62.635989405336" lon="17.993841226611">
        <ele>86.4</ele>
        <time>2018-01-23T12:04:58Z</time>
      </trkpt>
      <trkpt lat="62.636022849117" lon="17.99380107731">
        <ele>86.6</ele>
        <time>2018-01-23T12:04:59Z</time>
      </trkpt>
      <trkpt lat="62.636077834381" lon="17.993772746488">
        <ele>86.6</ele>
        <time>2018-01-23T12:05:00Z</time>
      </trkpt>
      <trkpt lat="62.636131813817" lon="17.993739721802">
        <ele>86.4</ele>
        <time>2018-01-23T12:05:01Z</time>
      </trkpt>
      <trkpt lat="62.636173807136" lon="17.993707032392">
        <ele>86</ele>
        <time>2018-01-23T12:05:02Z</time>
      </trkpt>
      <trkpt lat="62.636211106591" lon="17.993673504792">
        <ele>85.4</ele>
        <time>2018-01-23T12:05:03Z</time>
      </trkpt>
      <trkpt lat="62.636256368851" lon="17.993627991075">
        <ele>84.6</ele>
        <time>2018-01-23T12:05:04Z</time>
      </trkpt>
      <trkpt lat="62.636279167619" lon="17.993598151511">
        <ele>84.2</ele>
        <time>2018-01-23T12:05:05Z</time>
      </trkpt>
      <trkpt lat="62.636331554494" lon="17.993525899533">
        <ele>83.4</ele>
        <time>2018-01-23T12:05:06Z</time>
      </trkpt>
      <trkpt lat="62.636362567524" lon="17.993476194866">
        <ele>82.6</ele>
        <time>2018-01-23T12:05:07Z</time>
      </trkpt>
      <trkpt lat="62.636387042672" lon="17.993440152696">
        <ele>82</ele>
        <time>2018-01-23T12:05:08Z</time>
      </trkpt>
      <trkpt lat="62.63642409067" lon="17.993392543504">
        <ele>82</ele>
        <time>2018-01-23T12:05:09Z</time>
      </trkpt>
      <trkpt lat="62.636463988514" lon="17.993344599036">
        <ele>82</ele>
        <time>2018-01-23T12:05:10Z</time>
      </trkpt>
      <trkpt lat="62.636511430068" lon="17.993288607944">
        <ele>82</ele>
        <time>2018-01-23T12:05:11Z</time>
      </trkpt>
      <trkpt lat="62.636563314029" lon="17.993221971839">
        <ele>81.8</ele>
        <time>2018-01-23T12:05:12Z</time>
      </trkpt>
      <trkpt lat="62.636611174678" lon="17.993171848077">
        <ele>81.8</ele>
        <time>2018-01-23T12:05:13Z</time>
      </trkpt>
      <trkpt lat="62.636666076123" lon="17.993101021022">
        <ele>81.4</ele>
        <time>2018-01-23T12:05:14Z</time>
      </trkpt>
      <trkpt lat="62.636705890148" lon="17.993035726021">
        <ele>80.4</ele>
        <time>2018-01-23T12:05:15Z</time>
      </trkpt>
      <trkpt lat="62.63673505916" lon="17.992978729101">
        <ele>79.8</ele>
        <time>2018-01-23T12:05:16Z</time>
      </trkpt>
      <trkpt lat="62.636755930091" lon="17.992930952271">
        <ele>79.4</ele>
        <time>2018-01-23T12:05:17Z</time>
      </trkpt>
      <trkpt lat="62.636765569276" lon="17.992865489632">
        <ele>79.2</ele>
        <time>2018-01-23T12:05:18Z</time>
      </trkpt>
      <trkpt lat="62.63679289427" lon="17.99278267646">
        <ele>79</ele>
        <time>2018-01-23T12:05:19Z</time>
      </trkpt>
      <trkpt lat="62.636812843192" lon="17.992727775015">
        <ele>79</ele>
        <time>2018-01-23T12:05:20Z</time>
      </trkpt>
      <trkpt lat="62.636825416042" lon="17.992681758384">
        <ele>79</ele>
        <time>2018-01-23T12:05:21Z</time>
      </trkpt>
      <trkpt lat="62.636834133218" lon="17.99263599321">
        <ele>79.2</ele>
        <time>2018-01-23T12:05:22Z</time>
      </trkpt>
      <trkpt lat="62.636842598937" lon="17.992593832253">
        <ele>79.2</ele>
        <time>2018-01-23T12:05:23Z</time>
      </trkpt>
      <trkpt lat="62.636851902846" lon="17.99252870489">
        <ele>79.4</ele>
        <time>2018-01-23T12:05:24Z</time>
      </trkpt>
      <trkpt lat="62.636865732981" lon="17.992480257508">
        <ele>79.4</ele>
        <time>2018-01-23T12:05:25Z</time>
      </trkpt>
      <trkpt lat="62.636871851768" lon="17.992414291955">
        <ele>79.4</ele>
        <time>2018-01-23T12:05:26Z</time>
      </trkpt>
      <trkpt lat="62.63687336051" lon="17.992341537063">
        <ele>79.6</ele>
        <time>2018-01-23T12:05:27Z</time>
      </trkpt>
      <trkpt lat="62.636874282519" lon="17.992296023346">
        <ele>80</ele>
        <time>2018-01-23T12:05:28Z</time>
      </trkpt>
      <trkpt lat="62.636880652763" lon="17.992244055566">
        <ele>80</ele>
        <time>2018-01-23T12:05:29Z</time>
      </trkpt>
      <trkpt lat="62.636887106826" lon="17.992182616239">
        <ele>80</ele>
        <time>2018-01-23T12:05:30Z</time>
      </trkpt>
      <trkpt lat="62.636899009124" lon="17.992144310956">
        <ele>80</ele>
        <time>2018-01-23T12:05:31Z</time>
      </trkpt>
      <trkpt lat="62.636903032436" lon="17.992103658741">
        <ele>79.8</ele>
        <time>2018-01-23T12:05:32Z</time>
      </trkpt>
      <trkpt lat="62.636906469015" lon="17.992072142797">
        <ele>79.8</ele>
        <time>2018-01-23T12:05:33Z</time>
      </trkpt>
      <trkpt lat="62.636918706589" lon="17.992017744266">
        <ele>79.8</ele>
        <time>2018-01-23T12:05:34Z</time>
      </trkpt>
      <trkpt lat="62.636931363258" lon="17.991971392359">
        <ele>80</ele>
        <time>2018-01-23T12:05:35Z</time>
      </trkpt>
      <trkpt lat="62.636945109574" lon="17.991912551421">
        <ele>80</ele>
        <time>2018-01-23T12:05:36Z</time>
      </trkpt>
      <trkpt lat="62.636960867546" lon="17.991857901433">
        <ele>80</ele>
        <time>2018-01-23T12:05:37Z</time>
      </trkpt>
      <trkpt lat="62.63697897245" lon="17.991816997761">
        <ele>80.2</ele>
        <time>2018-01-23T12:05:38Z</time>
      </trkpt>
      <trkpt lat="62.636992970223" lon="17.991753462959">
        <ele>80.4</ele>
        <time>2018-01-23T12:05:39Z</time>
      </trkpt>
      <trkpt lat="62.637006884177" lon="17.991722198472">
        <ele>80.4</ele>
        <time>2018-01-23T12:05:40Z</time>
      </trkpt>
      <trkpt lat="62.637023731796" lon="17.991668386674">
        <ele>80.4</ele>
        <time>2018-01-23T12:05:41Z</time>
      </trkpt>
      <trkpt lat="62.637044854184" lon="17.991619520197">
        <ele>80.4</ele>
        <time>2018-01-23T12:05:42Z</time>
      </trkpt>
      <trkpt lat="62.637058013767" lon="17.991569061159">
        <ele>80.4</ele>
        <time>2018-01-23T12:05:43Z</time>
      </trkpt>
      <trkpt lat="62.637073520282" lon="17.991533438084">
        <ele>80.4</ele>
        <time>2018-01-23T12:05:44Z</time>
      </trkpt>
      <trkpt lat="62.637097911611" lon="17.991467388712">
        <ele>80.6</ele>
        <time>2018-01-23T12:05:45Z</time>
      </trkpt>
      <trkpt lat="62.637115345963" lon="17.991418606054">
        <ele>80.4</ele>
        <time>2018-01-23T12:05:46Z</time>
      </trkpt>
      <trkpt lat="62.637124314596" lon="17.991397567485">
        <ele>80.4</ele>
        <time>2018-01-23T12:05:47Z</time>
      </trkpt>
      <trkpt lat="62.637147281002" lon="17.991337972176">
        <ele>80.4</ele>
        <time>2018-01-23T12:05:48Z</time>
      </trkpt>
      <trkpt lat="62.637168319571" lon="17.991280556161">
        <ele>80.4</ele>
        <time>2018-01-23T12:05:49Z</time>
      </trkpt>
      <trkpt lat="62.637179635136" lon="17.991243005249">
        <ele>80.4</ele>
        <time>2018-01-23T12:05:50Z</time>
      </trkpt>
      <trkpt lat="62.637193046176" lon="17.991205705794">
        <ele>80.4</ele>
        <time>2018-01-23T12:05:51Z</time>
      </trkpt>
      <trkpt lat="62.637213581831" lon="17.991131945074">
        <ele>80.6</ele>
        <time>2018-01-23T12:05:52Z</time>
      </trkpt>
      <trkpt lat="62.637227160509" lon="17.991084084425">
        <ele>80.6</ele>
        <time>2018-01-23T12:05:53Z</time>
      </trkpt>
      <trkpt lat="62.63725306058" lon="17.990999678692">
        <ele>80.6</ele>
        <time>2018-01-23T12:05:54Z</time>
      </trkpt>
      <trkpt lat="62.637259933738" lon="17.990958691201">
        <ele>80.4</ele>
        <time>2018-01-23T12:05:55Z</time>
      </trkpt>
      <trkpt lat="62.637268818552" lon="17.99091938009">
        <ele>80.4</ele>
        <time>2018-01-23T12:05:56Z</time>
      </trkpt>
      <trkpt lat="62.637282900144" lon="17.990855593831">
        <ele>80.2</ele>
        <time>2018-01-23T12:05:57Z</time>
      </trkpt>
      <trkpt lat="62.63728574999" lon="17.990823491154">
        <ele>80.2</ele>
        <time>2018-01-23T12:05:58Z</time>
      </trkpt>
      <trkpt lat="62.637296814098" lon="17.990759537257">
        <ele>80.2</ele>
        <time>2018-01-23T12:05:59Z</time>
      </trkpt>
      <trkpt lat="62.637312404432" lon="17.990687620555">
        <ele>80</ele>
        <time>2018-01-23T12:06:00Z</time>
      </trkpt>
      <trkpt lat="62.63731592483" lon="17.990643196485">
        <ele>80</ele>
        <time>2018-01-23T12:06:01Z</time>
      </trkpt>
      <trkpt lat="62.63732849768" lon="17.990548145739">
        <ele>80</ele>
        <time>2018-01-23T12:06:02Z</time>
      </trkpt>
      <trkpt lat="62.637337466313" lon="17.99047262482">
        <ele>80.2</ele>
        <time>2018-01-23T12:06:03Z</time>
      </trkpt>
      <trkpt lat="62.637346686403" lon="17.99039551134">
        <ele>80</ele>
        <time>2018-01-23T12:06:04Z</time>
      </trkpt>
      <trkpt lat="62.637350625896" lon="17.990322421172">
        <ele>80</ele>
        <time>2018-01-23T12:06:05Z</time>
      </trkpt>
      <trkpt lat="62.63735615795" lon="17.990253438135">
        <ele>80</ele>
        <time>2018-01-23T12:06:06Z</time>
      </trkpt>
      <trkpt lat="62.637367222058" lon="17.9901725528">
        <ele>80</ele>
        <time>2018-01-23T12:06:07Z</time>
      </trkpt>
      <trkpt lat="62.637373424664" lon="17.990129386015">
        <ele>79.6</ele>
        <time>2018-01-23T12:06:08Z</time>
      </trkpt>
      <trkpt lat="62.637379459632" lon="17.990093092388">
        <ele>79.6</ele>
        <time>2018-01-23T12:06:09Z</time>
      </trkpt>
      <trkpt lat="62.637385746057" lon="17.990056128209">
        <ele>79.6</ele>
        <time>2018-01-23T12:06:10Z</time>
      </trkpt>
      <trkpt lat="62.63739974383" lon="17.989991252303">
        <ele>79.6</ele>
        <time>2018-01-23T12:06:11Z</time>
      </trkpt>
      <trkpt lat="62.63741650763" lon="17.989939955075">
        <ele>79.8</ele>
        <time>2018-01-23T12:06:12Z</time>
      </trkpt>
      <trkpt lat="62.637426733548" lon="17.989912210986">
        <ele>79.8</ele>
        <time>2018-01-23T12:06:13Z</time>
      </trkpt>
      <trkpt lat="62.637450538144" lon="17.989852615677">
        <ele>79.8</ele>
        <time>2018-01-23T12:06:14Z</time>
      </trkpt>
      <trkpt lat="62.637463110994" lon="17.989827805253">
        <ele>80</ele>
        <time>2018-01-23T12:06:15Z</time>
      </trkpt>
      <trkpt lat="62.637485490667" lon="17.989766952659">
        <ele>80</ele>
        <time>2018-01-23T12:06:16Z</time>
      </trkpt>
      <trkpt lat="62.637498817888" lon="17.989749434488">
        <ele>80</ele>
        <time>2018-01-23T12:06:17Z</time>
      </trkpt>
      <trkpt lat="62.637516419878" lon="17.989704591323">
        <ele>80</ele>
        <time>2018-01-23T12:06:18Z</time>
      </trkpt>
      <trkpt lat="62.637533183678" lon="17.989656982131">
        <ele>80.2</ele>
        <time>2018-01-23T12:06:19Z</time>
      </trkpt>
      <trkpt lat="62.6375531326" lon="17.989607361283">
        <ele>80.2</ele>
        <time>2018-01-23T12:06:20Z</time>
      </trkpt>
      <trkpt lat="62.637574171169" lon="17.989559752091">
        <ele>80.2</ele>
        <time>2018-01-23T12:06:21Z</time>
      </trkpt>
      <trkpt lat="62.637593281901" lon="17.989495462918">
        <ele>80.2</ele>
        <time>2018-01-23T12:06:22Z</time>
      </trkpt>
      <trkpt lat="62.637608956054" lon="17.989434777962">
        <ele>80.2</ele>
        <time>2018-01-23T12:06:23Z</time>
      </trkpt>
      <trkpt lat="62.637627144777" lon="17.989378032499">
        <ele>80.2</ele>
        <time>2018-01-23T12:06:24Z</time>
      </trkpt>
      <trkpt lat="62.637652625753" lon="17.989312653679">
        <ele>80</ele>
        <time>2018-01-23T12:06:25Z</time>
      </trkpt>
      <trkpt lat="62.637669305734" lon="17.989262865193">
        <ele>79.8</ele>
        <time>2018-01-23T12:06:26Z</time>
      </trkpt>
      <trkpt lat="62.637704509714" lon="17.989173849415">
        <ele>79.6</ele>
        <time>2018-01-23T12:06:27Z</time>
      </trkpt>
      <trkpt lat="62.637731080337" lon="17.989103609093">
        <ele>79.4</ele>
        <time>2018-01-23T12:06:28Z</time>
      </trkpt>
      <trkpt lat="62.637757483322" lon="17.98903009983">
        <ele>78.8</ele>
        <time>2018-01-23T12:06:29Z</time>
      </trkpt>
      <trkpt lat="62.637783886307" lon="17.98895550092">
        <ele>78</ele>
        <time>2018-01-23T12:06:30Z</time>
      </trkpt>
      <trkpt lat="62.637799979555" lon="17.98889347486">
        <ele>77.4</ele>
        <time>2018-01-23T12:06:31Z</time>
      </trkpt>
      <trkpt lat="62.637813474414" lon="17.988839914519">
        <ele>76.8</ele>
        <time>2018-01-23T12:06:32Z</time>
      </trkpt>
      <trkpt lat="62.637820682848" lon="17.988795574268">
        <ele>76.8</ele>
        <time>2018-01-23T12:06:33Z</time>
      </trkpt>
      <trkpt lat="62.637833674793" lon="17.988735308407">
        <ele>77</ele>
        <time>2018-01-23T12:06:34Z</time>
      </trkpt>
      <trkpt lat="62.637840547951" lon="17.988695578201">
        <ele>77.2</ele>
        <time>2018-01-23T12:06:35Z</time>
      </trkpt>
      <trkpt lat="62.637849516584" lon="17.988645538258">
        <ele>77.6</ele>
        <time>2018-01-23T12:06:36Z</time>
      </trkpt>
      <trkpt lat="62.637865861289" lon="17.988575130298">
        <ele>78</ele>
        <time>2018-01-23T12:06:37Z</time>
      </trkpt>
      <trkpt lat="62.63787248299" lon="17.988528275477">
        <ele>77.8</ele>
        <time>2018-01-23T12:06:38Z</time>
      </trkpt>
      <trkpt lat="62.637891258446" lon="17.9884374995">
        <ele>77.8</ele>
        <time>2018-01-23T12:06:39Z</time>
      </trkpt>
      <trkpt lat="62.637903244563" lon="17.988371617766">
        <ele>77.8</ele>
        <time>2018-01-23T12:06:40Z</time>
      </trkpt>
      <trkpt lat="62.637910704454" lon="17.988305149299">
        <ele>77.6</ele>
        <time>2018-01-23T12:06:41Z</time>
      </trkpt>
      <trkpt lat="62.637921768562" lon="17.988247817103">
        <ele>77.6</ele>
        <time>2018-01-23T12:06:42Z</time>
      </trkpt>
      <trkpt lat="62.637929647548" lon="17.988189311441">
        <ele>77.4</ele>
        <time>2018-01-23T12:06:43Z</time>
      </trkpt>
      <trkpt lat="62.637938448543" lon="17.988119071119">
        <ele>77.2</ele>
        <time>2018-01-23T12:06:44Z</time>
      </trkpt>
      <trkpt lat="62.637954374153" lon="17.988039610707">
        <ele>77.2</ele>
        <time>2018-01-23T12:06:45Z</time>
      </trkpt>
      <trkpt lat="62.63797138941" lon="17.987942715943">
        <ele>77</ele>
        <time>2018-01-23T12:06:46Z</time>
      </trkpt>
      <trkpt lat="62.637989661952" lon="17.987848419568">
        <ele>76.8</ele>
        <time>2018-01-23T12:06:47Z</time>
      </trkpt>
      <trkpt lat="62.638010449064" lon="17.987755045202">
        <ele>76.6</ele>
        <time>2018-01-23T12:06:48Z</time>
      </trkpt>
      <trkpt lat="62.638032074366" lon="17.987663347216">
        <ele>76.4</ele>
        <time>2018-01-23T12:06:49Z</time>
      </trkpt>
      <trkpt lat="62.638048419071" lon="17.987600399147">
        <ele>76.2</ele>
        <time>2018-01-23T12:06:50Z</time>
      </trkpt>
      <trkpt lat="62.638062584482" lon="17.987519932907">
        <ele>75.6</ele>
        <time>2018-01-23T12:06:51Z</time>
      </trkpt>
      <trkpt lat="62.638080102653" lon="17.98745597901">
        <ele>75.2</ele>
        <time>2018-01-23T12:06:52Z</time>
      </trkpt>
      <trkpt lat="62.638084377422" lon="17.98741406951">
        <ele>74.8</ele>
        <time>2018-01-23T12:06:53Z</time>
      </trkpt>
      <trkpt lat="62.638109020208" lon="17.987318348212">
        <ele>74.6</ele>
        <time>2018-01-23T12:06:54Z</time>
      </trkpt>
      <trkpt lat="62.63811891085" lon="17.987254645772">
        <ele>74.6</ele>
        <time>2018-01-23T12:06:55Z</time>
      </trkpt>
      <trkpt lat="62.638139781781" lon="17.987159092112">
        <ele>74.6</ele>
        <time>2018-01-23T12:06:56Z</time>
      </trkpt>
      <trkpt lat="62.638158808694" lon="17.987079799338">
        <ele>74.4</ele>
        <time>2018-01-23T12:06:57Z</time>
      </trkpt>
      <trkpt lat="62.638170962449" lon="17.987023975884">
        <ele>74.2</ele>
        <time>2018-01-23T12:06:58Z</time>
      </trkpt>
      <trkpt lat="62.638190827552" lon="17.986926075292">
        <ele>74</ele>
        <time>2018-01-23T12:06:59Z</time>
      </trkpt>
      <trkpt lat="62.638192420113" lon="17.986852649848">
        <ele>74</ele>
        <time>2018-01-23T12:07:00Z</time>
      </trkpt>
      <trkpt lat="62.638187726249" lon="17.986757850559">
        <ele>73.8</ele>
        <time>2018-01-23T12:07:01Z</time>
      </trkpt>
      <trkpt lat="62.638190659914" lon="17.986673863921">
        <ele>73.8</ele>
        <time>2018-01-23T12:07:02Z</time>
      </trkpt>
      <trkpt lat="62.638189486448" lon="17.986621560865">
        <ele>73.6</ele>
        <time>2018-01-23T12:07:03Z</time>
      </trkpt>
      <trkpt lat="62.638182445652" lon="17.986552494009">
        <ele>73.4</ele>
        <time>2018-01-23T12:07:04Z</time>
      </trkpt>
      <trkpt lat="62.638182194195" lon="17.986511757975">
        <ele>73.2</ele>
        <time>2018-01-23T12:07:05Z</time>
      </trkpt>
      <trkpt lat="62.638187977706" lon="17.9864342254">
        <ele>73.2</ele>
        <time>2018-01-23T12:07:06Z</time>
      </trkpt>
      <trkpt lat="62.638188732077" lon="17.986374881548">
        <ele>73.2</ele>
        <time>2018-01-23T12:07:07Z</time>
      </trkpt>
      <trkpt lat="62.63818931881" lon="17.986322410854">
        <ele>73</ele>
        <time>2018-01-23T12:07:08Z</time>
      </trkpt>
      <trkpt lat="62.63818428967" lon="17.986240687329">
        <ele>73</ele>
        <time>2018-01-23T12:07:09Z</time>
      </trkpt>
      <trkpt lat="62.638187474792" lon="17.986197520544">
        <ele>73</ele>
        <time>2018-01-23T12:07:10Z</time>
      </trkpt>
      <trkpt lat="62.638194096493" lon="17.986122670177">
        <ele>73</ele>
        <time>2018-01-23T12:07:11Z</time>
      </trkpt>
      <trkpt lat="62.638197952167" lon="17.986053351864">
        <ele>73</ele>
        <time>2018-01-23T12:07:12Z</time>
      </trkpt>
      <trkpt lat="62.638200969651" lon="17.986008843975">
        <ele>73</ele>
        <time>2018-01-23T12:07:13Z</time>
      </trkpt>
      <trkpt lat="62.638211782302" lon="17.985943548974">
        <ele>73</ele>
        <time>2018-01-23T12:07:14Z</time>
      </trkpt>
      <trkpt lat="62.63822536098" lon="17.985900214551">
        <ele>73</ele>
        <time>2018-01-23T12:07:15Z</time>
      </trkpt>
      <trkpt lat="62.638243717341" lon="17.985838188491">
        <ele>73</ele>
        <time>2018-01-23T12:07:16Z</time>
      </trkpt>
      <trkpt lat="62.638256541648" lon="17.985799045018">
        <ele>72.8</ele>
        <time>2018-01-23T12:07:17Z</time>
      </trkpt>
      <trkpt lat="62.638271880525" lon="17.985760488278">
        <ele>73</ele>
        <time>2018-01-23T12:07:18Z</time>
      </trkpt>
      <trkpt lat="62.638290236886" lon="17.985727128316">
        <ele>72.8</ele>
        <time>2018-01-23T12:07:19Z</time>
      </trkpt>
      <trkpt lat="62.638298618786" lon="17.985691337603">
        <ele>72.8</ele>
        <time>2018-01-23T12:07:20Z</time>
      </trkpt>
      <trkpt lat="62.638306833048" lon="17.985665269894">
        <ele>72.8</ele>
        <time>2018-01-23T12:07:21Z</time>
      </trkpt>
      <trkpt lat="62.638323010115" lon="17.985602489463">
        <ele>73</ele>
        <time>2018-01-23T12:07:22Z</time>
      </trkpt>
      <trkpt lat="62.638333319852" lon="17.985574577736">
        <ele>72.8</ele>
        <time>2018-01-23T12:07:23Z</time>
      </trkpt>
      <trkpt lat="62.638349832195" lon="17.985524621612">
        <ele>72.8</ele>
        <time>2018-01-23T12:07:24Z</time>
      </trkpt>
      <trkpt lat="62.638360896303" lon="17.985482544474">
        <ele>72.8</ele>
        <time>2018-01-23T12:07:25Z</time>
      </trkpt>
      <trkpt lat="62.638372798601" lon="17.985444574467">
        <ele>72.8</ele>
        <time>2018-01-23T12:07:26Z</time>
      </trkpt>
      <trkpt lat="62.638387634564" lon="17.985400066578">
        <ele>72.8</ele>
        <time>2018-01-23T12:07:27Z</time>
      </trkpt>
      <trkpt lat="62.638404230726" lon="17.985367880082">
        <ele>72.8</ele>
        <time>2018-01-23T12:07:28Z</time>
      </trkpt>
      <trkpt lat="62.638419485784" lon="17.985336699414">
        <ele>72.6</ele>
        <time>2018-01-23T12:07:29Z</time>
      </trkpt>
      <trkpt lat="62.638447816606" lon="17.985282803797">
        <ele>72.6</ele>
        <time>2018-01-23T12:07:30Z</time>
      </trkpt>
      <trkpt lat="62.638469190451" lon="17.985232847673">
        <ele>72.6</ele>
        <time>2018-01-23T12:07:31Z</time>
      </trkpt>
      <trkpt lat="62.638490815753" lon="17.985191273449">
        <ele>72.6</ele>
        <time>2018-01-23T12:07:32Z</time>
      </trkpt>
      <trkpt lat="62.638499197653" lon="17.985144418628">
        <ele>72.6</ele>
        <time>2018-01-23T12:07:33Z</time>
      </trkpt>
      <trkpt lat="62.638523672801" lon="17.985092199391">
        <ele>72.4</ele>
        <time>2018-01-23T12:07:34Z</time>
      </trkpt>
      <trkpt lat="62.63855309327" lon="17.985034699557">
        <ele>72.2</ele>
        <time>2018-01-23T12:07:35Z</time>
      </trkpt>
      <trkpt lat="62.638584022481" lon="17.984970410384">
        <ele>72</ele>
        <time>2018-01-23T12:07:36Z</time>
      </trkpt>
      <trkpt lat="62.638603636127" lon="17.984922465916">
        <ele>71.6</ele>
        <time>2018-01-23T12:07:37Z</time>
      </trkpt>
      <trkpt lat="62.638633308053" lon="17.984872928887">
        <ele>71.6</ele>
        <time>2018-01-23T12:07:38Z</time>
      </trkpt>
      <trkpt lat="62.638663315255" lon="17.984813920311">
        <ele>71.2</ele>
        <time>2018-01-23T12:07:39Z</time>
      </trkpt>
      <trkpt lat="62.638680079055" lon="17.984780308892">
        <ele>71</ele>
        <time>2018-01-23T12:07:40Z</time>
      </trkpt>
      <trkpt lat="62.638706565859" lon="17.984737561202">
        <ele>70.8</ele>
        <time>2018-01-23T12:07:41Z</time>
      </trkpt>
      <trkpt lat="62.638739422907" lon="17.984687018345">
        <ele>70.8</ele>
        <time>2018-01-23T12:07:42Z</time>
      </trkpt>
      <trkpt lat="62.63875425887" lon="17.984634296194">
        <ele>70.6</ele>
        <time>2018-01-23T12:07:43Z</time>
      </trkpt>
      <trkpt lat="62.638785104262" lon="17.984586435545">
        <ele>70.6</ele>
        <time>2018-01-23T12:07:44Z</time>
      </trkpt>
      <trkpt lat="62.638794324352" lon="17.98451141754">
        <ele>70.6</ele>
        <time>2018-01-23T12:07:45Z</time>
      </trkpt>
      <trkpt lat="62.638795497818" lon="17.984445284349">
        <ele>70.4</ele>
        <time>2018-01-23T12:07:46Z</time>
      </trkpt>
      <trkpt lat="62.638811507247" lon="17.984387784515">
        <ele>70.4</ele>
        <time>2018-01-23T12:07:47Z</time>
      </trkpt>
      <trkpt lat="62.63880957941" lon="17.984297176176">
        <ele>70.2</ele>
        <time>2018-01-23T12:07:48Z</time>
      </trkpt>
      <trkpt lat="62.638809160315" lon="17.984206567837">
        <ele>70</ele>
        <time>2018-01-23T12:07:49Z</time>
      </trkpt>
      <trkpt lat="62.638817542215" lon="17.984105398304">
        <ele>70</ele>
        <time>2018-01-23T12:07:50Z</time>
      </trkpt>
      <trkpt lat="62.638810836695" lon="17.984025351159">
        <ele>69.8</ele>
        <time>2018-01-23T12:07:51Z</time>
      </trkpt>
      <trkpt lat="62.638815195283" lon="17.983958547416">
        <ele>69.4</ele>
        <time>2018-01-23T12:07:52Z</time>
      </trkpt>
      <trkpt lat="62.638813099808" lon="17.983891240759">
        <ele>69.2</ele>
        <time>2018-01-23T12:07:53Z</time>
      </trkpt>
      <trkpt lat="62.638807651573" lon="17.983816977125">
        <ele>69</ele>
        <time>2018-01-23T12:07:54Z</time>
      </trkpt>
      <trkpt lat="62.638811088152" lon="17.983732571392">
        <ele>68.8</ele>
        <time>2018-01-23T12:07:55Z</time>
      </trkpt>
      <trkpt lat="62.638807986849" lon="17.983685213657">
        <ele>68.8</ele>
        <time>2018-01-23T12:07:56Z</time>
      </trkpt>
      <trkpt lat="62.638808657401" lon="17.983630898945">
        <ele>69</ele>
        <time>2018-01-23T12:07:57Z</time>
      </trkpt>
      <trkpt lat="62.638803125347" lon="17.983578344432">
        <ele>68.8</ele>
        <time>2018-01-23T12:07:58Z</time>
      </trkpt>
      <trkpt lat="62.63879952113" lon="17.98355001361">
        <ele>68.8</ele>
        <time>2018-01-23T12:07:59Z</time>
      </trkpt>
      <trkpt lat="62.638798599121" lon="17.983493938699">
        <ele>68.6</ele>
        <time>2018-01-23T12:08:00Z</time>
      </trkpt>
      <trkpt lat="62.638792983248" lon="17.983416154667">
        <ele>68.6</ele>
        <time>2018-01-23T12:08:01Z</time>
      </trkpt>
      <trkpt lat="62.638789211393" lon="17.983371730597">
        <ele>68.6</ele>
        <time>2018-01-23T12:08:02Z</time>
      </trkpt>
      <trkpt lat="62.638797258017" lon="17.983340969024">
        <ele>68.6</ele>
        <time>2018-01-23T12:08:03Z</time>
      </trkpt>
      <trkpt lat="62.638798431483" lon="17.983274584376">
        <ele>68.4</ele>
        <time>2018-01-23T12:08:04Z</time>
      </trkpt>
      <trkpt lat="62.638797593293" lon="17.983262765897">
        <ele>68.6</ele>
        <time>2018-01-23T12:08:05Z</time>
      </trkpt>
      <trkpt lat="62.638798515302" lon="17.983215994895">
        <ele>68.6</ele>
        <time>2018-01-23T12:08:06Z</time>
      </trkpt>
      <trkpt lat="62.638808657401" lon="17.983137372673">
        <ele>68.6</ele>
        <time>2018-01-23T12:08:07Z</time>
      </trkpt>
      <trkpt lat="62.638813099808" lon="17.983087835644">
        <ele>68.6</ele>
        <time>2018-01-23T12:08:08Z</time>
      </trkpt>
      <trkpt lat="62.63881628493" lon="17.98303285038">
        <ele>68.6</ele>
        <time>2018-01-23T12:08:09Z</time>
      </trkpt>
      <trkpt lat="62.638820643518" lon="17.982961771868">
        <ele>68.6</ele>
        <time>2018-01-23T12:08:10Z</time>
      </trkpt>
      <trkpt lat="62.63882382864" lon="17.982916509608">
        <ele>68.6</ele>
        <time>2018-01-23T12:08:11Z</time>
      </trkpt>
      <trkpt lat="62.638825756477" lon="17.982858674498">
        <ele>68.6</ele>
        <time>2018-01-23T12:08:12Z</time>
      </trkpt>
      <trkpt lat="62.638828271047" lon="17.982814334247">
        <ele>68.6</ele>
        <time>2018-01-23T12:08:13Z</time>
      </trkpt>
      <trkpt lat="62.638825672658" lon="17.98276882053">
        <ele>68.6</ele>
        <time>2018-01-23T12:08:14Z</time>
      </trkpt>
      <trkpt lat="62.638828606323" lon="17.98271517637">
        <ele>68.8</ele>
        <time>2018-01-23T12:08:15Z</time>
      </trkpt>
      <trkpt lat="62.638831456169" lon="17.982645522781">
        <ele>68.8</ele>
        <time>2018-01-23T12:08:16Z</time>
      </trkpt>
      <trkpt lat="62.638832461997" lon="17.982599170874">
        <ele>68.8</ele>
        <time>2018-01-23T12:08:17Z</time>
      </trkpt>
      <trkpt lat="62.638834138377" lon="17.982533959692">
        <ele>68.8</ele>
        <time>2018-01-23T12:08:18Z</time>
      </trkpt>
      <trkpt lat="62.638844029019" lon="17.982459863696">
        <ele>68.8</ele>
        <time>2018-01-23T12:08:19Z</time>
      </trkpt>
      <trkpt lat="62.638855847498" lon="17.982414936712">
        <ele>68.8</ele>
        <time>2018-01-23T12:08:20Z</time>
      </trkpt>
      <trkpt lat="62.638869677633" lon="17.98235307829">
        <ele>68.8</ele>
        <time>2018-01-23T12:08:21Z</time>
      </trkpt>
      <trkpt lat="62.638880490284" lon="17.982297422474">
        <ele>68.8</ele>
        <time>2018-01-23T12:08:22Z</time>
      </trkpt>
      <trkpt lat="62.638897840817" lon="17.982234809681">
        <ele>69</ele>
        <time>2018-01-23T12:08:23Z</time>
      </trkpt>
      <trkpt lat="62.638910748943" lon="17.982162138608">
        <ele>69</ele>
        <time>2018-01-23T12:08:24Z</time>
      </trkpt>
      <trkpt lat="62.638934553539" lon="17.982102794756">
        <ele>69</ele>
        <time>2018-01-23T12:08:25Z</time>
      </trkpt>
      <trkpt lat="62.63895374809" lon="17.98203875704">
        <ele>69</ele>
        <time>2018-01-23T12:08:26Z</time>
      </trkpt>
      <trkpt lat="62.638972272089" lon="17.981986621622">
        <ele>68.8</ele>
        <time>2018-01-23T12:08:27Z</time>
      </trkpt>
      <trkpt lat="62.638988532975" lon="17.981929457064">
        <ele>68.8</ele>
        <time>2018-01-23T12:08:28Z</time>
      </trkpt>
      <trkpt lat="62.639013594856" lon="17.981877656922">
        <ele>68.8</ele>
        <time>2018-01-23T12:08:29Z</time>
      </trkpt>
      <trkpt lat="62.639038908194" lon="17.981805237306">
        <ele>68.6</ele>
        <time>2018-01-23T12:08:30Z</time>
      </trkpt>
      <trkpt lat="62.639049050293" lon="17.981741618685">
        <ele>68.4</ele>
        <time>2018-01-23T12:08:31Z</time>
      </trkpt>
      <trkpt lat="62.639066987559" lon="17.981672300372">
        <ele>68.4</ele>
        <time>2018-01-23T12:08:32Z</time>
      </trkpt>
      <trkpt lat="62.639075201821" lon="17.981612285968">
        <ele>68.4</ele>
        <time>2018-01-23T12:08:33Z</time>
      </trkpt>
      <trkpt lat="62.639087104119" lon="17.981553361211">
        <ele>68.2</ele>
        <time>2018-01-23T12:08:34Z</time>
      </trkpt>
      <trkpt lat="62.639102694453" lon="17.981484629631">
        <ele>68</ele>
        <time>2018-01-23T12:08:35Z</time>
      </trkpt>
      <trkpt lat="62.639125325583" lon="17.981419669906">
        <ele>68</ele>
        <time>2018-01-23T12:08:36Z</time>
      </trkpt>
      <trkpt lat="62.639153069672" lon="17.981354542543">
        <ele>67.8</ele>
        <time>2018-01-23T12:08:37Z</time>
      </trkpt>
      <trkpt lat="62.63917838301" lon="17.981301317478">
        <ele>67.6</ele>
        <time>2018-01-23T12:08:38Z</time>
      </trkpt>
      <trkpt lat="62.639206965289" lon="17.981234681373">
        <ele>67.4</ele>
        <time>2018-01-23T12:08:39Z</time>
      </trkpt>
      <trkpt lat="62.639236385758" lon="17.981164860146">
        <ele>67.2</ele>
        <time>2018-01-23T12:08:40Z</time>
      </trkpt>
      <trkpt lat="62.639250970264" lon="17.981105348656">
        <ele>67</ele>
        <time>2018-01-23T12:08:41Z</time>
      </trkpt>
      <trkpt lat="62.639277205611" lon="17.981032258488">
        <ele>67</ele>
        <time>2018-01-23T12:08:42Z</time>
      </trkpt>
      <trkpt lat="62.63929908237" lon="17.980976686491">
        <ele>67</ele>
        <time>2018-01-23T12:08:43Z</time>
      </trkpt>
      <trkpt lat="62.63932422807" lon="17.980919019019">
        <ele>66.8</ele>
        <time>2018-01-23T12:08:44Z</time>
      </trkpt>
      <trkpt lat="62.639331939418" lon="17.980857076778">
        <ele>66.6</ele>
        <time>2018-01-23T12:08:45Z</time>
      </trkpt>
      <trkpt lat="62.63936278481" lon="17.980806869197">
        <ele>66.4</ele>
        <time>2018-01-23T12:08:46Z</time>
      </trkpt>
      <trkpt lat="62.639381811723" lon="17.980746687155">
        <ele>66.4</ele>
        <time>2018-01-23T12:08:47Z</time>
      </trkpt>
      <trkpt lat="62.639403520844" lon="17.980677871756">
        <ele>66.2</ele>
        <time>2018-01-23T12:08:48Z</time>
      </trkpt>
      <trkpt lat="62.639426738707" lon="17.980593633661">
        <ele>66.2</ele>
        <time>2018-01-23T12:08:49Z</time>
      </trkpt>
      <trkpt lat="62.639448364009" lon="17.98052582409">
        <ele>66.2</ele>
        <time>2018-01-23T12:08:50Z</time>
      </trkpt>
      <trkpt lat="62.639465463085" lon="17.980445106393">
        <ele>66</ele>
        <time>2018-01-23T12:08:51Z</time>
      </trkpt>
      <trkpt lat="62.639469654035" lon="17.98038333179">
        <ele>65.8</ele>
        <time>2018-01-23T12:08:52Z</time>
      </trkpt>
      <trkpt lat="62.639488178034" lon="17.980316192771">
        <ele>65.6</ele>
        <time>2018-01-23T12:08:53Z</time>
      </trkpt>
      <trkpt lat="62.639507875499" lon="17.980216699618">
        <ele>65.2</ele>
        <time>2018-01-23T12:08:54Z</time>
      </trkpt>
      <trkpt lat="62.639530087534" lon="17.980143022717">
        <ele>65</ele>
        <time>2018-01-23T12:08:55Z</time>
      </trkpt>
      <trkpt lat="62.639547270429" lon="17.980064735771">
        <ele>64.8</ele>
        <time>2018-01-23T12:08:56Z</time>
      </trkpt>
      <trkpt lat="62.639560262374" lon="17.980006481566">
        <ele>64.8</ele>
        <time>2018-01-23T12:08:57Z</time>
      </trkpt>
      <trkpt lat="62.63956227403" lon="17.979940599832">
        <ele>64.6</ele>
        <time>2018-01-23T12:08:58Z</time>
      </trkpt>
      <trkpt lat="62.63957400869" lon="17.979890140794">
        <ele>64.6</ele>
        <time>2018-01-23T12:08:59Z</time>
      </trkpt>
      <trkpt lat="62.639589515205" lon="17.979817721178">
        <ele>64.6</ele>
        <time>2018-01-23T12:09:00Z</time>
      </trkpt>
      <trkpt lat="62.639606027548" lon="17.979750582159">
        <ele>64.4</ele>
        <time>2018-01-23T12:09:01Z</time>
      </trkpt>
      <trkpt lat="62.639613990353" lon="17.979707247736">
        <ele>64.4</ele>
        <time>2018-01-23T12:09:02Z</time>
      </trkpt>
      <trkpt lat="62.639633687818" lon="17.979645137857">
        <ele>64.4</ele>
        <time>2018-01-23T12:09:03Z</time>
      </trkpt>
      <trkpt lat="62.639651457446" lon="17.979592248068">
        <ele>64.4</ele>
        <time>2018-01-23T12:09:04Z</time>
      </trkpt>
      <trkpt lat="62.639673669481" lon="17.979543297772">
        <ele>64.2</ele>
        <time>2018-01-23T12:09:05Z</time>
      </trkpt>
      <trkpt lat="62.639689846548" lon="17.979487641956">
        <ele>64.2</ele>
        <time>2018-01-23T12:09:06Z</time>
      </trkpt>
      <trkpt lat="62.639710549841" lon="17.97944791175">
        <ele>64</ele>
        <time>2018-01-23T12:09:07Z</time>
      </trkpt>
      <trkpt lat="62.63973326479" lon="17.979383622577">
        <ele>64</ele>
        <time>2018-01-23T12:09:08Z</time>
      </trkpt>
      <trkpt lat="62.639747430201" lon="17.979337103032">
        <ele>64</ele>
        <time>2018-01-23T12:09:09Z</time>
      </trkpt>
      <trkpt lat="62.639776515394" lon="17.979268622909">
        <ele>64</ele>
        <time>2018-01-23T12:09:10Z</time>
      </trkpt>
      <trkpt lat="62.639792273366" lon="17.979204752831">
        <ele>64</ele>
        <time>2018-01-23T12:09:11Z</time>
      </trkpt>
      <trkpt lat="62.639823370215" lon="17.979130070102">
        <ele>64</ele>
        <time>2018-01-23T12:09:12Z</time>
      </trkpt>
      <trkpt lat="62.639839379644" lon="17.979077767046">
        <ele>64</ele>
        <time>2018-01-23T12:09:13Z</time>
      </trkpt>
      <trkpt lat="62.639862094593" lon="17.979022446506">
        <ele>63.8</ele>
        <time>2018-01-23T12:09:14Z</time>
      </trkpt>
      <trkpt lat="62.639876092366" lon="17.978972825658">
        <ele>63.8</ele>
        <time>2018-01-23T12:09:15Z</time>
      </trkpt>
      <trkpt lat="62.639903165903" lon="17.978919684412">
        <ele>63.6</ele>
        <time>2018-01-23T12:09:16Z</time>
      </trkpt>
      <trkpt lat="62.639919929703" lon="17.978878194007">
        <ele>63.4</ele>
        <time>2018-01-23T12:09:17Z</time>
      </trkpt>
      <trkpt lat="62.639947422335" lon="17.978837877068">
        <ele>63.2</ele>
        <time>2018-01-23T12:09:18Z</time>
      </trkpt>
      <trkpt lat="62.639974579691" lon="17.978805355296">
        <ele>63</ele>
        <time>2018-01-23T12:09:19Z</time>
      </trkpt>
      <trkpt lat="62.639987320179" lon="17.978777778845">
        <ele>63</ele>
        <time>2018-01-23T12:09:20Z</time>
      </trkpt>
      <trkpt lat="62.640017159743" lon="17.978736539897">
        <ele>62.8</ele>
        <time>2018-01-23T12:09:21Z</time>
      </trkpt>
      <trkpt lat="62.640050435886" lon="17.978696642053">
        <ele>62.6</ele>
        <time>2018-01-23T12:09:22Z</time>
      </trkpt>
      <trkpt lat="62.640078012337" lon="17.978664287919">
        <ele>62.6</ele>
        <time>2018-01-23T12:09:23Z</time>
      </trkpt>
      <trkpt lat="62.640109193005" lon="17.97860720718">
        <ele>62.4</ele>
        <time>2018-01-23T12:09:24Z</time>
      </trkpt>
      <trkpt lat="62.640143558795" lon="17.978567393155">
        <ele>62.4</ele>
        <time>2018-01-23T12:09:25Z</time>
      </trkpt>
      <trkpt lat="62.640183624277" lon="17.978520789791">
        <ele>62.2</ele>
        <time>2018-01-23T12:09:26Z</time>
      </trkpt>
      <trkpt lat="62.640213212384" lon="17.978481730137">
        <ele>62</ele>
        <time>2018-01-23T12:09:27Z</time>
      </trkpt>
      <trkpt lat="62.640243638681" lon="17.978449124546">
        <ele>61.6</ele>
        <time>2018-01-23T12:09:28Z</time>
      </trkpt>
      <trkpt lat="62.640275741358" lon="17.978400928621">
        <ele>61.6</ele>
        <time>2018-01-23T12:09:29Z</time>
      </trkpt>
      <trkpt lat="62.640301138515" lon="17.978356756008">
        <ele>61.4</ele>
        <time>2018-01-23T12:09:30Z</time>
      </trkpt>
      <trkpt lat="62.64034011435" lon="17.978311661386">
        <ele>61.2</ele>
        <time>2018-01-23T12:09:31Z</time>
      </trkpt>
      <trkpt lat="62.640370624466" lon="17.978271260628">
        <ele>61</ele>
        <time>2018-01-23T12:09:32Z</time>
      </trkpt>
      <trkpt lat="62.640402308048" lon="17.978233709716">
        <ele>60.8</ele>
        <time>2018-01-23T12:09:33Z</time>
      </trkpt>
      <trkpt lat="62.640429716861" lon="17.978196074985">
        <ele>60.6</ele>
        <time>2018-01-23T12:09:34Z</time>
      </trkpt>
      <trkpt lat="62.640454024371" lon="17.978156009503">
        <ele>60.4</ele>
        <time>2018-01-23T12:09:35Z</time>
      </trkpt>
      <trkpt lat="62.640486965238" lon="17.978122481903">
        <ele>60.2</ele>
        <time>2018-01-23T12:09:36Z</time>
      </trkpt>
      <trkpt lat="62.640513368223" lon="17.978091971787">
        <ele>59.8</ele>
        <time>2018-01-23T12:09:37Z</time>
      </trkpt>
      <trkpt lat="62.640548236927" lon="17.978052744495">
        <ele>59.6</ele>
        <time>2018-01-23T12:09:38Z</time>
      </trkpt>
      <trkpt lat="62.640581345432" lon="17.978006308769">
        <ele>59.4</ele>
        <time>2018-01-23T12:09:39Z</time>
      </trkpt>
      <trkpt lat="62.640609424797" lon="17.97796515364">
        <ele>59.2</ele>
        <time>2018-01-23T12:09:40Z</time>
      </trkpt>
      <trkpt lat="62.640639515818" lon="17.977920981027">
        <ele>59</ele>
        <time>2018-01-23T12:09:41Z</time>
      </trkpt>
      <trkpt lat="62.640668517192" lon="17.977855266931">
        <ele>58.8</ele>
        <time>2018-01-23T12:09:42Z</time>
      </trkpt>
      <trkpt lat="62.640692321788" lon="17.977807993015">
        <ele>58.4</ele>
        <time>2018-01-23T12:09:43Z</time>
      </trkpt>
      <trkpt lat="62.640722831904" lon="17.977756947244">
        <ele>58.2</ele>
        <time>2018-01-23T12:09:44Z</time>
      </trkpt>
      <trkpt lat="62.640750911269" lon="17.977709254233">
        <ele>58</ele>
        <time>2018-01-23T12:09:45Z</time>
      </trkpt>
      <trkpt lat="62.640773710037" lon="17.977653682236">
        <ele>57.8</ele>
        <time>2018-01-23T12:09:46Z</time>
      </trkpt>
      <trkpt lat="62.640799274832" lon="17.977604312845">
        <ele>57.6</ele>
        <time>2018-01-23T12:09:47Z</time>
      </trkpt>
      <trkpt lat="62.640828024749" lon="17.977553937626">
        <ele>57.6</ele>
        <time>2018-01-23T12:09:48Z</time>
      </trkpt>
      <trkpt lat="62.640849817689" lon="17.97749241448">
        <ele>57.4</ele>
        <time>2018-01-23T12:09:49Z</time>
      </trkpt>
      <trkpt lat="62.640877729416" lon="17.977441033433">
        <ele>57.2</ele>
        <time>2018-01-23T12:09:50Z</time>
      </trkpt>
      <trkpt lat="62.640903461849" lon="17.977386886359">
        <ele>57.2</ele>
        <time>2018-01-23T12:09:51Z</time>
      </trkpt>
      <trkpt lat="62.640928859006" lon="17.977332990742">
        <ele>57.2</ele>
        <time>2018-01-23T12:09:52Z</time>
      </trkpt>
      <trkpt lat="62.640950651946" lon="17.977294266364">
        <ele>57</ele>
        <time>2018-01-23T12:09:53Z</time>
      </trkpt>
      <trkpt lat="62.64097713875" lon="17.977236934168">
        <ele>57</ele>
        <time>2018-01-23T12:09:54Z</time>
      </trkpt>
      <trkpt lat="62.641000272794" lon="17.977194102659">
        <ele>56.8</ele>
        <time>2018-01-23T12:09:55Z</time>
      </trkpt>
      <trkpt lat="62.641024412666" lon="17.977148672761">
        <ele>56.6</ele>
        <time>2018-01-23T12:09:56Z</time>
      </trkpt>
      <trkpt lat="62.641043439579" lon="17.977106679442">
        <ele>56.4</ele>
        <time>2018-01-23T12:09:57Z</time>
      </trkpt>
      <trkpt lat="62.641062215035" lon="17.977071307824">
        <ele>56</ele>
        <time>2018-01-23T12:09:58Z</time>
      </trkpt>
      <trkpt lat="62.641083840337" lon="17.977027973401">
        <ele>55.8</ele>
        <time>2018-01-23T12:09:59Z</time>
      </trkpt>
      <trkpt lat="62.641106639105" lon="17.976986734453">
        <ele>55.4</ele>
        <time>2018-01-23T12:10:00Z</time>
      </trkpt>
      <trkpt lat="62.64112885114" lon="17.976958738907">
        <ele>55</ele>
        <time>2018-01-23T12:10:01Z</time>
      </trkpt>
      <trkpt lat="62.641150308804" lon="17.976929318438">
        <ele>55</ele>
        <time>2018-01-23T12:10:02Z</time>
      </trkpt>
      <trkpt lat="62.641205713163" lon="17.976863520523">
        <ele>54.4</ele>
        <time>2018-01-23T12:10:04Z</time>
      </trkpt>
      <trkpt lat="62.641232870519" lon="17.976845834714">
        <ele>54.2</ele>
        <time>2018-01-23T12:10:05Z</time>
      </trkpt>
      <trkpt lat="62.641264386463" lon="17.976829070914">
        <ele>53.8</ele>
        <time>2018-01-23T12:10:06Z</time>
      </trkpt>
      <trkpt lat="62.641297075873" lon="17.976813899675">
        <ele>53.6</ele>
        <time>2018-01-23T12:10:07Z</time>
      </trkpt>
      <trkpt lat="62.641330603473" lon="17.976800404816">
        <ele>53.2</ele>
        <time>2018-01-23T12:10:08Z</time>
      </trkpt>
      <trkpt lat="62.641370501317" lon="17.976783473378">
        <ele>52.8</ele>
        <time>2018-01-23T12:10:09Z</time>
      </trkpt>
      <trkpt lat="62.641405286202" lon="17.976763272999">
        <ele>52.6</ele>
        <time>2018-01-23T12:10:10Z</time>
      </trkpt>
      <trkpt lat="62.641436718327" lon="17.976745671009">
        <ele>52.4</ele>
        <time>2018-01-23T12:10:11Z</time>
      </trkpt>
      <trkpt lat="62.641471167936" lon="17.976722536965">
        <ele>52</ele>
        <time>2018-01-23T12:10:12Z</time>
      </trkpt>
      <trkpt lat="62.641502935337" lon="17.976702252767">
        <ele>51.8</ele>
        <time>2018-01-23T12:10:13Z</time>
      </trkpt>
      <trkpt lat="62.641543503733" lon="17.976672748479">
        <ele>51.6</ele>
        <time>2018-01-23T12:10:14Z</time>
      </trkpt>
      <trkpt lat="62.641583317758" lon="17.976639220879">
        <ele>51.4</ele>
        <time>2018-01-23T12:10:15Z</time>
      </trkpt>
      <trkpt lat="62.64162086867" lon="17.976605106546">
        <ele>51</ele>
        <time>2018-01-23T12:10:16Z</time>
      </trkpt>
      <trkpt lat="62.641653893356" lon="17.976570321661">
        <ele>50.8</ele>
        <time>2018-01-23T12:10:17Z</time>
      </trkpt>
      <trkpt lat="62.641693623562" lon="17.97652262865">
        <ele>50.6</ele>
        <time>2018-01-23T12:10:18Z</time>
      </trkpt>
      <trkpt lat="62.641735868338" lon="17.976475187096">
        <ele>50.2</ele>
        <time>2018-01-23T12:10:19Z</time>
      </trkpt>
      <trkpt lat="62.641779454218" lon="17.976426655895">
        <ele>50</ele>
        <time>2018-01-23T12:10:20Z</time>
      </trkpt>
      <trkpt lat="62.6418195197" lon="17.976377035047">
        <ele>49.6</ele>
        <time>2018-01-23T12:10:21Z</time>
      </trkpt>
      <trkpt lat="62.641857824983" lon="17.976326576009">
        <ele>49</ele>
        <time>2018-01-23T12:10:22Z</time>
      </trkpt>
      <trkpt lat="62.641891771678" lon="17.97628206812">
        <ele>48.8</ele>
        <time>2018-01-23T12:10:23Z</time>
      </trkpt>
      <trkpt lat="62.641938794137" lon="17.976216856938">
        <ele>48.2</ele>
        <time>2018-01-23T12:10:24Z</time>
      </trkpt>
      <trkpt lat="62.641974333393" lon="17.976153573593">
        <ele>47.8</ele>
        <time>2018-01-23T12:10:25Z</time>
      </trkpt>
      <trkpt lat="62.642011213753" lon="17.976090625524">
        <ele>47.4</ele>
        <time>2018-01-23T12:10:26Z</time>
      </trkpt>
      <trkpt lat="62.642046920647" lon="17.9760322875">
        <ele>47</ele>
        <time>2018-01-23T12:10:27Z</time>
      </trkpt>
      <trkpt lat="62.642078436591" lon="17.975972692191">
        <ele>46.6</ele>
        <time>2018-01-23T12:10:28Z</time>
      </trkpt>
      <trkpt lat="62.642117496245" lon="17.975915192357">
        <ele>46.2</ele>
        <time>2018-01-23T12:10:29Z</time>
      </trkpt>
      <trkpt lat="62.642157058813" lon="17.975849897356">
        <ele>45.8</ele>
        <time>2018-01-23T12:10:30Z</time>
      </trkpt>
      <trkpt lat="62.642192346612" lon="17.975803796906">
        <ele>45.4</ele>
        <time>2018-01-23T12:10:31Z</time>
      </trkpt>
      <trkpt lat="62.642234088474" lon="17.97575400842">
        <ele>44.8</ele>
        <time>2018-01-23T12:10:32Z</time>
      </trkpt>
      <trkpt lat="62.642272561395" lon="17.975713356205">
        <ele>44.6</ele>
        <time>2018-01-23T12:10:33Z</time>
      </trkpt>
      <trkpt lat="62.642315895818" lon="17.975667171936">
        <ele>44</ele>
        <time>2018-01-23T12:10:34Z</time>
      </trkpt>
      <trkpt lat="62.642355877481" lon="17.97560983974">
        <ele>43.8</ele>
        <time>2018-01-23T12:10:35Z</time>
      </trkpt>
      <trkpt lat="62.642399128085" lon="17.975529122043">
        <ele>43.4</ele>
        <time>2018-01-23T12:10:36Z</time>
      </trkpt>
      <trkpt lat="62.642428297097" lon="17.975460893377">
        <ele>43.2</ele>
        <time>2018-01-23T12:10:37Z</time>
      </trkpt>
      <trkpt lat="62.642465512733" lon="17.975374727445">
        <ele>43</ele>
        <time>2018-01-23T12:10:38Z</time>
      </trkpt>
      <trkpt lat="62.642472218253" lon="17.975283113278">
        <ele>42.4</ele>
        <time>2018-01-23T12:10:39Z</time>
      </trkpt>
      <trkpt lat="62.642504740025" lon="17.975198204631">
        <ele>42</ele>
        <time>2018-01-23T12:10:40Z</time>
      </trkpt>
      <trkpt lat="62.642523431662" lon="17.975120252961">
        <ele>41.8</ele>
        <time>2018-01-23T12:10:41Z</time>
      </trkpt>
      <trkpt lat="62.64252443749" lon="17.975032578287">
        <ele>41.4</ele>
        <time>2018-01-23T12:10:42Z</time>
      </trkpt>
      <trkpt lat="62.642558719461" lon="17.974946244717">
        <ele>40.8</ele>
        <time>2018-01-23T12:10:43Z</time>
      </trkpt>
      <trkpt lat="62.642565592619" lon="17.974845913374">
        <ele>40.8</ele>
        <time>2018-01-23T12:10:44Z</time>
      </trkpt>
      <trkpt lat="62.642587637016" lon="17.974766704419">
        <ele>40.4</ele>
        <time>2018-01-23T12:10:45Z</time>
      </trkpt>
      <trkpt lat="62.642613956182" lon="17.974664864334">
        <ele>40</ele>
        <time>2018-01-23T12:10:46Z</time>
      </trkpt>
      <trkpt lat="62.642629965611" lon="17.974564700629">
        <ele>39.8</ele>
        <time>2018-01-23T12:10:47Z</time>
      </trkpt>
      <trkpt lat="62.642648741067" lon="17.974487922425">
        <ele>39.6</ele>
        <time>2018-01-23T12:10:48Z</time>
      </trkpt>
      <trkpt lat="62.642673467672" lon="17.974387255806">
        <ele>39.2</ele>
        <time>2018-01-23T12:10:49Z</time>
      </trkpt>
      <trkpt lat="62.642693500413" lon="17.974317015484">
        <ele>39</ele>
        <time>2018-01-23T12:10:50Z</time>
      </trkpt>
      <trkpt lat="62.642701211761" lon="17.974237303615">
        <ele>38.8</ele>
        <time>2018-01-23T12:10:51Z</time>
      </trkpt>
      <trkpt lat="62.642722334149" lon="17.974142671964">
        <ele>38.6</ele>
        <time>2018-01-23T12:10:52Z</time>
      </trkpt>
      <trkpt lat="62.642729207307" lon="17.974062457181">
        <ele>38.6</ele>
        <time>2018-01-23T12:10:53Z</time>
      </trkpt>
      <trkpt lat="62.642752844265" lon="17.973960784734">
        <ele>38.4</ele>
        <time>2018-01-23T12:10:54Z</time>
      </trkpt>
      <trkpt lat="62.642762818726" lon="17.973881324322">
        <ele>38.4</ele>
        <time>2018-01-23T12:10:55Z</time>
      </trkpt>
      <trkpt lat="62.642767177314" lon="17.973801277177">
        <ele>38.2</ele>
        <time>2018-01-23T12:10:56Z</time>
      </trkpt>
      <trkpt lat="62.642779750164" lon="17.97369541378">
        <ele>38.2</ele>
        <time>2018-01-23T12:10:57Z</time>
      </trkpt>
      <trkpt lat="62.642785282218" lon="17.973625424915">
        <ele>37.8</ele>
        <time>2018-01-23T12:10:58Z</time>
      </trkpt>
      <trkpt lat="62.642786623322" lon="17.973561890113">
        <ele>37.8</ele>
        <time>2018-01-23T12:10:59Z</time>
      </trkpt>
      <trkpt lat="62.642791233367" lon="17.973458457467">
        <ele>37.6</ele>
        <time>2018-01-23T12:11:00Z</time>
      </trkpt>
      <trkpt lat="62.642788886435" lon="17.973399951805">
        <ele>37.6</ele>
        <time>2018-01-23T12:11:01Z</time>
      </trkpt>
      <trkpt lat="62.642790730453" lon="17.973328454198">
        <ele>37.4</ele>
        <time>2018-01-23T12:11:02Z</time>
      </trkpt>
      <trkpt lat="62.642783186743" lon="17.973257375686">
        <ele>37.2</ele>
        <time>2018-01-23T12:11:03Z</time>
      </trkpt>
      <trkpt lat="62.642773715196" lon="17.973200127309">
        <ele>37.2</ele>
        <time>2018-01-23T12:11:04Z</time>
      </trkpt>
      <trkpt lat="62.642770697712" lon="17.973130557539">
        <ele>37</ele>
        <time>2018-01-23T12:11:05Z</time>
      </trkpt>
      <trkpt lat="62.64276918897" lon="17.973086552564">
        <ele>37</ele>
        <time>2018-01-23T12:11:06Z</time>
      </trkpt>
      <trkpt lat="62.64276583621" lon="17.973026454341">
        <ele>37</ele>
        <time>2018-01-23T12:11:07Z</time>
      </trkpt>
      <trkpt lat="62.642765584753" lon="17.972959399141">
        <ele>37</ele>
        <time>2018-01-23T12:11:08Z</time>
      </trkpt>
      <trkpt lat="62.642755358835" lon="17.972903910963">
        <ele>37</ele>
        <time>2018-01-23T12:11:09Z</time>
      </trkpt>
      <trkpt lat="62.642749826781" lon="17.972874741951">
        <ele>37</ele>
        <time>2018-01-23T12:11:10Z</time>
      </trkpt>
      <trkpt lat="62.642754353007" lon="17.972802909068">
        <ele>37</ele>
        <time>2018-01-23T12:11:11Z</time>
      </trkpt>
      <trkpt lat="62.642743959451" lon="17.972753623496">
        <ele>37.2</ele>
        <time>2018-01-23T12:11:12Z</time>
      </trkpt>
      <trkpt lat="62.642736331922" lon="17.972709367064">
        <ele>37.2</ele>
        <time>2018-01-23T12:11:13Z</time>
      </trkpt>
      <trkpt lat="62.64272727947" lon="17.972673408713">
        <ele>37.2</ele>
        <time>2018-01-23T12:11:14Z</time>
      </trkpt>
      <trkpt lat="62.642720322493" lon="17.972626386254">
        <ele>37.2</ele>
        <time>2018-01-23T12:11:15Z</time>
      </trkpt>
      <trkpt lat="62.642708587833" lon="17.97256721004">
        <ele>37.4</ele>
        <time>2018-01-23T12:11:16Z</time>
      </trkpt>
      <trkpt lat="62.642691488757" lon="17.972537789571">
        <ele>37.4</ele>
        <time>2018-01-23T12:11:17Z</time>
      </trkpt>
      <trkpt lat="62.642694506241" lon="17.972496718261">
        <ele>37.4</ele>
        <time>2018-01-23T12:11:18Z</time>
      </trkpt>
      <trkpt lat="62.642671539835" lon="17.972430836527">
        <ele>37.6</ele>
        <time>2018-01-23T12:11:19Z</time>
      </trkpt>
      <trkpt lat="62.642672126568" lon="17.972387334466">
        <ele>37.6</ele>
        <time>2018-01-23T12:11:20Z</time>
      </trkpt>
      <trkpt lat="62.642672629482" lon="17.972345173509">
        <ele>37.8</ele>
        <time>2018-01-23T12:11:21Z</time>
      </trkpt>
      <trkpt lat="62.642661649193" lon="17.972281890164">
        <ele>37.8</ele>
        <time>2018-01-23T12:11:22Z</time>
      </trkpt>
      <trkpt lat="62.642648573429" lon="17.972247943469">
        <ele>37.8</ele>
        <time>2018-01-23T12:11:23Z</time>
      </trkpt>
      <trkpt lat="62.642641281176" lon="17.972207961806">
        <ele>37.8</ele>
        <time>2018-01-23T12:11:24Z</time>
      </trkpt>
      <trkpt lat="62.64263591676" lon="17.972158676234">
        <ele>38</ele>
        <time>2018-01-23T12:11:25Z</time>
      </trkpt>
      <trkpt lat="62.642625439385" lon="17.972098410373">
        <ele>38.2</ele>
        <time>2018-01-23T12:11:26Z</time>
      </trkpt>
      <trkpt lat="62.642622170444" lon="17.97205004681">
        <ele>38.2</ele>
        <time>2018-01-23T12:11:27Z</time>
      </trkpt>
      <trkpt lat="62.642612195983" lon="17.971986092913">
        <ele>38.2</ele>
        <time>2018-01-23T12:11:28Z</time>
      </trkpt>
      <trkpt lat="62.642603730264" lon="17.971932867848">
        <ele>38.2</ele>
        <time>2018-01-23T12:11:29Z</time>
      </trkpt>
      <trkpt lat="62.642595851278" lon="17.971892634728">
        <ele>38.2</ele>
        <time>2018-01-23T12:11:30Z</time>
      </trkpt>
      <trkpt lat="62.642585290084" lon="17.97184217569">
        <ele>38.4</ele>
        <time>2018-01-23T12:11:31Z</time>
      </trkpt>
      <trkpt lat="62.642575483261" lon="17.971781155458">
        <ele>38.2</ele>
        <time>2018-01-23T12:11:32Z</time>
      </trkpt>
      <trkpt lat="62.642583529885" lon="17.971749807152">
        <ele>38.4</ele>
        <time>2018-01-23T12:11:33Z</time>
      </trkpt>
      <trkpt lat="62.642596438011" lon="17.971721141054">
        <ele>38.4</ele>
        <time>2018-01-23T12:11:34Z</time>
      </trkpt>
      <trkpt lat="62.642613369449" lon="17.971700605399">
        <ele>38.4</ele>
        <time>2018-01-23T12:11:35Z</time>
      </trkpt>
      <trkpt lat="62.64264597504" lon="17.971704796349">
        <ele>38.2</ele>
        <time>2018-01-23T12:11:36Z</time>
      </trkpt>
      <trkpt lat="62.642675144052" lon="17.971734384456">
        <ele>38.2</ele>
        <time>2018-01-23T12:11:37Z</time>
      </trkpt>
      <trkpt lat="62.642695512069" lon="17.971795907602">
        <ele>38.2</ele>
        <time>2018-01-23T12:11:38Z</time>
      </trkpt>
      <trkpt lat="62.642715880086" lon="17.971837565645">
        <ele>38.2</ele>
        <time>2018-01-23T12:11:39Z</time>
      </trkpt>
      <trkpt lat="62.642734655542" lon="17.971899591705">
        <ele>38.2</ele>
        <time>2018-01-23T12:11:40Z</time>
      </trkpt>
      <trkpt lat="62.64275577793" lon="17.971944853965">
        <ele>38.2</ele>
        <time>2018-01-23T12:11:41Z</time>
      </trkpt>
      <trkpt lat="62.642772877006" lon="17.972006712387">
        <ele>38</ele>
        <time>2018-01-23T12:11:42Z</time>
      </trkpt>
      <trkpt lat="62.642786623322" lon="17.972049124801">
        <ele>37.8</ele>
        <time>2018-01-23T12:11:43Z</time>
      </trkpt>
      <trkpt lat="62.642806572244" lon="17.972096482536">
        <ele>37.6</ele>
        <time>2018-01-23T12:11:44Z</time>
      </trkpt>
      <trkpt lat="62.642819145094" lon="17.972165884668">
        <ele>37.6</ele>
        <time>2018-01-23T12:11:45Z</time>
      </trkpt>
      <trkpt lat="62.642838423464" lon="17.972225563796">
        <ele>37.4</ele>
        <time>2018-01-23T12:11:46Z</time>
      </trkpt>
      <trkpt lat="62.642850241943" lon="17.972279459413">
        <ele>37.2</ele>
        <time>2018-01-23T12:11:47Z</time>
      </trkpt>
      <trkpt lat="62.642864072078" lon="17.972341317835">
        <ele>37.2</ele>
        <time>2018-01-23T12:11:48Z</time>
      </trkpt>
      <trkpt lat="62.642881925525" lon="17.972393201796">
        <ele>37.2</ele>
        <time>2018-01-23T12:11:49Z</time>
      </trkpt>
      <trkpt lat="62.642891816167" lon="17.97246075991">
        <ele>37</ele>
        <time>2018-01-23T12:11:50Z</time>
      </trkpt>
      <trkpt lat="62.642912351822" lon="17.972513817337">
        <ele>37</ele>
        <time>2018-01-23T12:11:51Z</time>
      </trkpt>
      <trkpt lat="62.642920649903" lon="17.972587661876">
        <ele>37</ele>
        <time>2018-01-23T12:11:52Z</time>
      </trkpt>
      <trkpt lat="62.642924924672" lon="17.972643988244">
        <ele>37</ele>
        <time>2018-01-23T12:11:53Z</time>
      </trkpt>
      <trkpt lat="62.642935904961" lon="17.972710121435">
        <ele>37</ele>
        <time>2018-01-23T12:11:54Z</time>
      </trkpt>
      <trkpt lat="62.642943364852" lon="17.972791593503">
        <ele>36.8</ele>
        <time>2018-01-23T12:11:55Z</time>
      </trkpt>
      <trkpt lat="62.642958368453" lon="17.972860911816">
        <ele>36.8</ele>
        <time>2018-01-23T12:11:56Z</time>
      </trkpt>
      <trkpt lat="62.642963900507" lon="17.972933163794">
        <ele>36.6</ele>
        <time>2018-01-23T12:11:57Z</time>
      </trkpt>
      <trkpt lat="62.642972701502" lon="17.97299049599">
        <ele>36.6</ele>
        <time>2018-01-23T12:11:58Z</time>
      </trkpt>
      <trkpt lat="62.642981334859" lon="17.973046822358">
        <ele>36.4</ele>
        <time>2018-01-23T12:11:59Z</time>
      </trkpt>
      <trkpt lat="62.642984771438" lon="17.973114380472">
        <ele>36.4</ele>
        <time>2018-01-23T12:12:00Z</time>
      </trkpt>
      <trkpt lat="62.642998182478" lon="17.973172215582">
        <ele>36.4</ele>
        <time>2018-01-23T12:12:01Z</time>
      </trkpt>
      <trkpt lat="62.642998601573" lon="17.973240360429">
        <ele>36.2</ele>
        <time>2018-01-23T12:12:02Z</time>
      </trkpt>
      <trkpt lat="62.64301645502" lon="17.973292998761">
        <ele>36.2</ele>
        <time>2018-01-23T12:12:03Z</time>
      </trkpt>
      <trkpt lat="62.643015533011" lon="17.973363071445">
        <ele>36</ele>
        <time>2018-01-23T12:12:04Z</time>
      </trkpt>
      <trkpt lat="62.643022154712" lon="17.973414536311">
        <ele>36</ele>
        <time>2018-01-23T12:12:05Z</time>
      </trkpt>
      <trkpt lat="62.643029530784" lon="17.973457619277">
        <ele>36</ele>
        <time>2018-01-23T12:12:06Z</time>
      </trkpt>
      <trkpt lat="62.64302735149" lon="17.973541941191">
        <ele>36</ele>
        <time>2018-01-23T12:12:07Z</time>
      </trkpt>
      <trkpt lat="62.643042355091" lon="17.973589718021">
        <ele>35.8</ele>
        <time>2018-01-23T12:12:08Z</time>
      </trkpt>
      <trkpt lat="62.64304160072" lon="17.973663311103">
        <ele>35.8</ele>
        <time>2018-01-23T12:12:09Z</time>
      </trkpt>
      <trkpt lat="62.643038750874" lon="17.973718547824">
        <ele>35.8</ele>
        <time>2018-01-23T12:12:10Z</time>
      </trkpt>
      <trkpt lat="62.643044869661" lon="17.973772191984">
        <ele>35.6</ele>
        <time>2018-01-23T12:12:11Z</time>
      </trkpt>
      <trkpt lat="62.643046546041" lon="17.97385634626">
        <ele>35.6</ele>
        <time>2018-01-23T12:12:12Z</time>
      </trkpt>
      <trkpt lat="62.643044534385" lon="17.973911163886">
        <ele>35.8</ele>
        <time>2018-01-23T12:12:13Z</time>
      </trkpt>
      <trkpt lat="62.643040008159" lon="17.97398291295">
        <ele>35.8</ele>
        <time>2018-01-23T12:12:14Z</time>
      </trkpt>
      <trkpt lat="62.643038499417" lon="17.974044771372">
        <ele>35.8</ele>
        <time>2018-01-23T12:12:15Z</time>
      </trkpt>
      <trkpt lat="62.643037577408" lon="17.974112245667">
        <ele>35.8</ele>
        <time>2018-01-23T12:12:16Z</time>
      </trkpt>
      <trkpt lat="62.643037661227" lon="17.974194891201">
        <ele>35.6</ele>
        <time>2018-01-23T12:12:17Z</time>
      </trkpt>
      <trkpt lat="62.643031207164" lon="17.974253983596">
        <ele>35.6</ele>
        <time>2018-01-23T12:12:18Z</time>
      </trkpt>
      <trkpt lat="62.643025256015" lon="17.974318272769">
        <ele>35.6</ele>
        <time>2018-01-23T12:12:19Z</time>
      </trkpt>
      <trkpt lat="62.643017963762" lon="17.974390524747">
        <ele>35.6</ele>
        <time>2018-01-23T12:12:20Z</time>
      </trkpt>
      <trkpt lat="62.643019304866" lon="17.974438217758">
        <ele>35.6</ele>
        <time>2018-01-23T12:12:21Z</time>
      </trkpt>
      <trkpt lat="62.643012934622" lon="17.974508541899">
        <ele>35.6</ele>
        <time>2018-01-23T12:12:22Z</time>
      </trkpt>
      <trkpt lat="62.643008827491" lon="17.974562605154">
        <ele>35.6</ele>
        <time>2018-01-23T12:12:23Z</time>
      </trkpt>
      <trkpt lat="62.643005055636" lon="17.974614153839">
        <ele>35.6</ele>
        <time>2018-01-23T12:12:24Z</time>
      </trkpt>
      <trkpt lat="62.643000697048" lon="17.9746828016">
        <ele>35.6</ele>
        <time>2018-01-23T12:12:25Z</time>
      </trkpt>
      <trkpt lat="62.642997763383" lon="17.974723537634">
        <ele>35.6</ele>
        <time>2018-01-23T12:12:26Z</time>
      </trkpt>
      <trkpt lat="62.642991728415" lon="17.974808613919">
        <ele>35.6</ele>
        <time>2018-01-23T12:12:27Z</time>
      </trkpt>
      <trkpt lat="62.642993740071" lon="17.974865359382">
        <ele>35.6</ele>
        <time>2018-01-23T12:12:28Z</time>
      </trkpt>
      <trkpt lat="62.642993656252" lon="17.974941383215">
        <ele>35.4</ele>
        <time>2018-01-23T12:12:29Z</time>
      </trkpt>
      <trkpt lat="62.642994326804" lon="17.975015479211">
        <ele>35.4</ele>
        <time>2018-01-23T12:12:30Z</time>
      </trkpt>
      <trkpt lat="62.642989549121" lon="17.975079516927">
        <ele>35.6</ele>
        <time>2018-01-23T12:12:31Z</time>
      </trkpt>
      <trkpt lat="62.642985693447" lon="17.975159899348">
        <ele>35.6</ele>
        <time>2018-01-23T12:12:32Z</time>
      </trkpt>
      <trkpt lat="62.64298208923" lon="17.975218907924">
        <ele>35.6</ele>
        <time>2018-01-23T12:12:33Z</time>
      </trkpt>
      <trkpt lat="62.642961553575" lon="17.975285376391">
        <ele>35.4</ele>
        <time>2018-01-23T12:12:34Z</time>
      </trkpt>
      <trkpt lat="62.642955853883" lon="17.97532234057">
        <ele>35.4</ele>
        <time>2018-01-23T12:12:35Z</time>
      </trkpt>
      <trkpt lat="62.642943029576" lon="17.975376236187">
        <ele>35.4</ele>
        <time>2018-01-23T12:12:36Z</time>
      </trkpt>
      <trkpt lat="62.642922745378" lon="17.975430131804">
        <ele>35.2</ele>
        <time>2018-01-23T12:12:37Z</time>
      </trkpt>
      <trkpt lat="62.642910759261" lon="17.975479501195">
        <ele>35.4</ele>
        <time>2018-01-23T12:12:38Z</time>
      </trkpt>
      <trkpt lat="62.642900365705" lon="17.975520321048">
        <ele>35.6</ele>
        <time>2018-01-23T12:12:39Z</time>
      </trkpt>
      <trkpt lat="62.642886703208" lon="17.975551920811">
        <ele>35.6</ele>
        <time>2018-01-23T12:12:40Z</time>
      </trkpt>
      <trkpt lat="62.642870190865" lon="17.975591231922">
        <ele>35.6</ele>
        <time>2018-01-23T12:12:41Z</time>
      </trkpt>
      <trkpt lat="62.642859042938" lon="17.975635404535">
        <ele>35.8</ele>
        <time>2018-01-23T12:12:42Z</time>
      </trkpt>
      <trkpt lat="62.642854013798" lon="17.975671698162">
        <ele>35.8</ele>
        <time>2018-01-23T12:12:43Z</time>
      </trkpt>
      <trkpt lat="62.642850744857" lon="17.975717044241">
        <ele>36</ele>
        <time>2018-01-23T12:12:44Z</time>
      </trkpt>
      <trkpt lat="62.642840099844" lon="17.975789966771">
        <ele>36</ele>
        <time>2018-01-23T12:12:45Z</time>
      </trkpt>
      <trkpt lat="62.642841440948" lon="17.975846125501">
        <ele>36</ele>
        <time>2018-01-23T12:12:46Z</time>
      </trkpt>
      <trkpt lat="62.642841943862" lon="17.9758981771">
        <ele>36.2</ele>
        <time>2018-01-23T12:12:47Z</time>
      </trkpt>
      <trkpt lat="62.642840099844" lon="17.975953413821">
        <ele>36.2</ele>
        <time>2018-01-23T12:12:48Z</time>
      </trkpt>
      <trkpt lat="62.642838591102" lon="17.976022899772">
        <ele>36.2</ele>
        <time>2018-01-23T12:12:49Z</time>
      </trkpt>
      <trkpt lat="62.642835741256" lon="17.976093307732">
        <ele>36.2</ele>
        <time>2018-01-23T12:12:50Z</time>
      </trkpt>
      <trkpt lat="62.642831969401" lon="17.976140497829">
        <ele>36.2</ele>
        <time>2018-01-23T12:12:51Z</time>
      </trkpt>
      <trkpt lat="62.642821743483" lon="17.976217778947">
        <ele>36.2</ele>
        <time>2018-01-23T12:12:52Z</time>
      </trkpt>
      <trkpt lat="62.642816462886" lon="17.976257341515">
        <ele>36.2</ele>
        <time>2018-01-23T12:12:53Z</time>
      </trkpt>
      <trkpt lat="62.642811433746" lon="17.976319116118">
        <ele>36</ele>
        <time>2018-01-23T12:12:54Z</time>
      </trkpt>
      <trkpt lat="62.64280187838" lon="17.976387512422">
        <ele>36</ele>
        <time>2018-01-23T12:12:55Z</time>
      </trkpt>
      <trkpt lat="62.642805650235" lon="17.976436630356">
        <ele>36.2</ele>
        <time>2018-01-23T12:12:56Z</time>
      </trkpt>
      <trkpt lat="62.642807661891" lon="17.976497818226">
        <ele>36.2</ele>
        <time>2018-01-23T12:12:57Z</time>
      </trkpt>
      <trkpt lat="62.642803135665" lon="17.976562442675">
        <ele>36</ele>
        <time>2018-01-23T12:12:58Z</time>
      </trkpt>
      <trkpt lat="62.642806320787" lon="17.976605022727">
        <ele>36.2</ele>
        <time>2018-01-23T12:12:59Z</time>
      </trkpt>
      <trkpt lat="62.642800285819" lon="17.97666763552">
        <ele>36</ele>
        <time>2018-01-23T12:13:00Z</time>
      </trkpt>
      <trkpt lat="62.64279852562" lon="17.976730667408">
        <ele>36</ele>
        <time>2018-01-23T12:13:01Z</time>
      </trkpt>
      <trkpt lat="62.642793664118" lon="17.97678498212">
        <ele>36.2</ele>
        <time>2018-01-23T12:13:02Z</time>
      </trkpt>
      <trkpt lat="62.642785449856" lon="17.97683946447">
        <ele>36</ele>
        <time>2018-01-23T12:13:03Z</time>
      </trkpt>
      <trkpt lat="62.642772206454" lon="17.976907860774">
        <ele>36</ele>
        <time>2018-01-23T12:13:04Z</time>
      </trkpt>
      <trkpt lat="62.642762148174" lon="17.976948345351">
        <ele>36</ele>
        <time>2018-01-23T12:13:05Z</time>
      </trkpt>
      <trkpt lat="62.642755191197" lon="17.976995451629">
        <ele>36</ele>
        <time>2018-01-23T12:13:06Z</time>
      </trkpt>
      <trkpt lat="62.642751670799" lon="17.977037444948">
        <ele>36</ele>
        <time>2018-01-23T12:13:07Z</time>
      </trkpt>
      <trkpt lat="62.642738762673" lon="17.977088574538">
        <ele>36.2</ele>
        <time>2018-01-23T12:13:08Z</time>
      </trkpt>
      <trkpt lat="62.642730716049" lon="17.977141296689">
        <ele>36.4</ele>
        <time>2018-01-23T12:13:09Z</time>
      </trkpt>
      <trkpt lat="62.642731218963" lon="17.977167783493">
        <ele>36.4</ele>
        <time>2018-01-23T12:13:10Z</time>
      </trkpt>
      <trkpt lat="62.642721747416" lon="17.977234922512">
        <ele>36.6</ele>
        <time>2018-01-23T12:13:11Z</time>
      </trkpt>
      <trkpt lat="62.642718143199" lon="17.977291584156">
        <ele>36.6</ele>
        <time>2018-01-23T12:13:12Z</time>
      </trkpt>
      <trkpt lat="62.64271470662" lon="17.977323603014">
        <ele>36.8</ele>
        <time>2018-01-23T12:13:13Z</time>
      </trkpt>
      <trkpt lat="62.64270297196" lon="17.977403147245">
        <ele>36.8</ele>
        <time>2018-01-23T12:13:14Z</time>
      </trkpt>
      <trkpt lat="62.642698697191" lon="17.977447906591">
        <ele>36.8</ele>
        <time>2018-01-23T12:13:15Z</time>
      </trkpt>
      <trkpt lat="62.642689980015" lon="17.977480009268">
        <ele>36.8</ele>
        <time>2018-01-23T12:13:16Z</time>
      </trkpt>
      <trkpt lat="62.642676820432" lon="17.977539939853">
        <ele>36.8</ele>
        <time>2018-01-23T12:13:17Z</time>
      </trkpt>
      <trkpt lat="62.64266106246" lon="17.97757288072">
        <ele>36.8</ele>
        <time>2018-01-23T12:13:18Z</time>
      </trkpt>
      <trkpt lat="62.642657961157" lon="17.977608839071">
        <ele>36.8</ele>
        <time>2018-01-23T12:13:19Z</time>
      </trkpt>
      <trkpt lat="62.642645388307" lon="17.977639181549">
        <ele>37</ele>
        <time>2018-01-23T12:13:20Z</time>
      </trkpt>
      <trkpt lat="62.642633737466" lon="17.977664327249">
        <ele>37.2</ele>
        <time>2018-01-23T12:13:21Z</time>
      </trkpt>
      <trkpt lat="62.642616889847" lon="17.977685701094">
        <ele>37.2</ele>
        <time>2018-01-23T12:13:22Z</time>
      </trkpt>
      <trkpt lat="62.642603562626" lon="17.977700117962">
        <ele>37.6</ele>
        <time>2018-01-23T12:13:23Z</time>
      </trkpt>
      <trkpt lat="62.642594929269" lon="17.977729789888">
        <ele>37.6</ele>
        <time>2018-01-23T12:13:24Z</time>
      </trkpt>
      <trkpt lat="62.642576237632" lon="17.977755689959">
        <ele>38</ele>
        <time>2018-01-23T12:13:25Z</time>
      </trkpt>
      <trkpt lat="62.642564167696" lon="17.977784607514">
        <ele>38</ele>
        <time>2018-01-23T12:13:26Z</time>
      </trkpt>
      <trkpt lat="62.642554528511" lon="17.977801287495">
        <ele>38.2</ele>
        <time>2018-01-23T12:13:27Z</time>
      </trkpt>
      <trkpt lat="62.642535082503" lon="17.977815788182">
        <ele>38.4</ele>
        <time>2018-01-23T12:13:28Z</time>
      </trkpt>
      <trkpt lat="62.642512535192" lon="17.977851075981">
        <ele>38.6</ele>
        <time>2018-01-23T12:13:29Z</time>
      </trkpt>
      <trkpt lat="62.64249510084" lon="17.977871527817">
        <ele>38.8</ele>
        <time>2018-01-23T12:13:30Z</time>
      </trkpt>
      <trkpt lat="62.642484372008" lon="17.977901786476">
        <ele>38.8</ele>
        <time>2018-01-23T12:13:31Z</time>
      </trkpt>
      <trkpt lat="62.642460399774" lon="17.977925842529">
        <ele>39</ele>
        <time>2018-01-23T12:13:32Z</time>
      </trkpt>
      <trkpt lat="62.642437433368" lon="17.977956939378">
        <ele>39</ele>
        <time>2018-01-23T12:13:33Z</time>
      </trkpt>
      <trkpt lat="62.642426033984" lon="17.977978229404">
        <ele>39</ele>
        <time>2018-01-23T12:13:34Z</time>
      </trkpt>
      <trkpt lat="62.642422765043" lon="17.97799449029">
        <ele>39</ele>
        <time>2018-01-23T12:13:35Z</time>
      </trkpt>
      <trkpt lat="62.642406001243" lon="17.978032711754">
        <ele>39</ele>
        <time>2018-01-23T12:13:36Z</time>
      </trkpt>
      <trkpt lat="62.64239284166" lon="17.978050229925">
        <ele>39.2</ele>
        <time>2018-01-23T12:13:37Z</time>
      </trkpt>
      <trkpt lat="62.64238362157" lon="17.978107813578">
        <ele>39.4</ele>
        <time>2018-01-23T12:13:38Z</time>
      </trkpt>
      <trkpt lat="62.642370042892" lon="17.978139413341">
        <ele>39.4</ele>
        <time>2018-01-23T12:13:39Z</time>
      </trkpt>
      <trkpt lat="62.642372473643" lon="17.978160954824">
        <ele>39.6</ele>
        <time>2018-01-23T12:13:40Z</time>
      </trkpt>
      <trkpt lat="62.642369288521" lon="17.978191213483">
        <ele>39.8</ele>
        <time>2018-01-23T12:13:41Z</time>
      </trkpt>
      <trkpt lat="62.642350680703" lon="17.978236894838">
        <ele>40</ele>
        <time>2018-01-23T12:13:42Z</time>
      </trkpt>
      <trkpt lat="62.642335677102" lon="17.978285845134">
        <ele>40.2</ele>
        <time>2018-01-23T12:13:43Z</time>
      </trkpt>
      <trkpt lat="62.642332072885" lon="17.978318450725">
        <ele>40.4</ele>
        <time>2018-01-23T12:13:44Z</time>
      </trkpt>
      <trkpt lat="62.642312794515" lon="17.978364467356">
        <ele>40.6</ele>
        <time>2018-01-23T12:13:45Z</time>
      </trkpt>
      <trkpt lat="62.642297371819" lon="17.978417105688">
        <ele>40.6</ele>
        <time>2018-01-23T12:13:46Z</time>
      </trkpt>
      <trkpt lat="62.642297790914" lon="17.978450968564">
        <ele>41</ele>
        <time>2018-01-23T12:13:47Z</time>
      </trkpt>
      <trkpt lat="62.642279602191" lon="17.978497488109">
        <ele>41</ele>
        <time>2018-01-23T12:13:48Z</time>
      </trkpt>
      <trkpt lat="62.642260826735" lon="17.978543253283">
        <ele>40.8</ele>
        <time>2018-01-23T12:13:49Z</time>
      </trkpt>
      <trkpt lat="62.642249678808" lon="17.978569069535">
        <ele>41</ele>
        <time>2018-01-23T12:13:50Z</time>
      </trkpt>
      <trkpt lat="62.642239871985" lon="17.978584240774">
        <ele>41</ele>
        <time>2018-01-23T12:13:51Z</time>
      </trkpt>
      <trkpt lat="62.642229813705" lon="17.978611481949">
        <ele>41</ele>
        <time>2018-01-23T12:13:52Z</time>
      </trkpt>
      <trkpt lat="62.642219923063" lon="17.978630760319">
        <ele>41.2</ele>
        <time>2018-01-23T12:13:53Z</time>
      </trkpt>
      <trkpt lat="62.64220843986" lon="17.978658252951">
        <ele>41.4</ele>
        <time>2018-01-23T12:13:54Z</time>
      </trkpt>
      <trkpt lat="62.642192430431" lon="17.978676860769">
        <ele>41.4</ele>
        <time>2018-01-23T12:13:55Z</time>
      </trkpt>
      <trkpt lat="62.642175331355" lon="17.97870276084">
        <ele>41.8</ele>
        <time>2018-01-23T12:13:56Z</time>
      </trkpt>
      <trkpt lat="62.642163931971" lon="17.978709885455">
        <ele>41.8</ele>
        <time>2018-01-23T12:13:57Z</time>
      </trkpt>
      <trkpt lat="62.642151862035" lon="17.978719021726">
        <ele>42.2</ele>
        <time>2018-01-23T12:13:58Z</time>
      </trkpt>
      <trkpt lat="62.642137026072" lon="17.978726649255">
        <ele>42.2</ele>
        <time>2018-01-23T12:13:59Z</time>
      </trkpt>
      <trkpt lat="62.642112131829" lon="17.978740144114">
        <ele>42.4</ele>
        <time>2018-01-23T12:14:00Z</time>
      </trkpt>
      <trkpt lat="62.642097128228" lon="17.978746262901">
        <ele>42.6</ele>
        <time>2018-01-23T12:14:01Z</time>
      </trkpt>
      <trkpt lat="62.642080532066" lon="17.978756824095">
        <ele>42.6</ele>
        <time>2018-01-23T12:14:02Z</time>
      </trkpt>
      <trkpt lat="62.642065696103" lon="17.978760093036">
        <ele>42.8</ele>
        <time>2018-01-23T12:14:03Z</time>
      </trkpt>
      <trkpt lat="62.642049770493" lon="17.978762523787">
        <ele>42.8</ele>
        <time>2018-01-23T12:14:04Z</time>
      </trkpt>
      <trkpt lat="62.642043232611" lon="17.978768642574">
        <ele>42.8</ele>
        <time>2018-01-23T12:14:05Z</time>
      </trkpt>
      <trkpt lat="62.642025882078" lon="17.978770905687">
        <ele>43</ele>
        <time>2018-01-23T12:14:06Z</time>
      </trkpt>
      <trkpt lat="62.641998724722" lon="17.978763613434">
        <ele>43.2</ele>
        <time>2018-01-23T12:14:07Z</time>
      </trkpt>
      <trkpt lat="62.641985732777" lon="17.978765122176">
        <ele>43.6</ele>
        <time>2018-01-23T12:14:08Z</time>
      </trkpt>
      <trkpt lat="62.641963436923" lon="17.978766882375">
        <ele>43.8</ele>
        <time>2018-01-23T12:14:09Z</time>
      </trkpt>
      <trkpt lat="62.641948852417" lon="17.978762942882">
        <ele>43.8</ele>
        <time>2018-01-23T12:14:10Z</time>
      </trkpt>
      <trkpt lat="62.641934267911" lon="17.978770151316">
        <ele>44</ele>
        <time>2018-01-23T12:14:11Z</time>
      </trkpt>
      <trkpt lat="62.641917252654" lon="17.978784652003">
        <ele>44</ele>
        <time>2018-01-23T12:14:12Z</time>
      </trkpt>
      <trkpt lat="62.641896046447" lon="17.978787250392">
        <ele>44.2</ele>
        <time>2018-01-23T12:14:13Z</time>
      </trkpt>
      <trkpt lat="62.641878193" lon="17.978786412202">
        <ele>44.4</ele>
        <time>2018-01-23T12:14:14Z</time>
      </trkpt>
      <trkpt lat="62.641864362865" lon="17.97878825622">
        <ele>44.6</ele>
        <time>2018-01-23T12:14:15Z</time>
      </trkpt>
      <trkpt lat="62.641852544386" lon="17.978794542645">
        <ele>44.8</ele>
        <time>2018-01-23T12:14:16Z</time>
      </trkpt>
      <trkpt lat="62.641830248532" lon="17.978786663659">
        <ele>45</ele>
        <time>2018-01-23T12:14:17Z</time>
      </trkpt>
      <trkpt lat="62.641817508044" lon="17.978795716111">
        <ele>45.2</ele>
        <time>2018-01-23T12:14:18Z</time>
      </trkpt>
      <trkpt lat="62.641800157511" lon="17.978805942029">
        <ele>45.4</ele>
        <time>2018-01-23T12:14:19Z</time>
      </trkpt>
      <trkpt lat="62.641785824462" lon="17.978818347241">
        <ele>45.6</ele>
        <time>2018-01-23T12:14:20Z</time>
      </trkpt>
      <trkpt lat="62.641768054834" lon="17.978815497395">
        <ele>45.8</ele>
        <time>2018-01-23T12:14:21Z</time>
      </trkpt>
      <trkpt lat="62.641758164192" lon="17.978818682517">
        <ele>46</ele>
        <time>2018-01-23T12:14:22Z</time>
      </trkpt>
      <trkpt lat="62.641741484211" lon="17.978816335585">
        <ele>46.2</ele>
        <time>2018-01-23T12:14:23Z</time>
      </trkpt>
      <trkpt lat="62.641732767035" lon="17.978832512652">
        <ele>46.4</ele>
        <time>2018-01-23T12:14:24Z</time>
      </trkpt>
      <trkpt lat="62.641717428158" lon="17.978828237883">
        <ele>46.8</ele>
        <time>2018-01-23T12:14:25Z</time>
      </trkpt>
      <trkpt lat="62.641702843652" lon="17.978834775765">
        <ele>47</ele>
        <time>2018-01-23T12:14:26Z</time>
      </trkpt>
      <trkpt lat="62.641688091508" lon="17.978829830444">
        <ele>47.2</ele>
        <time>2018-01-23T12:14:27Z</time>
      </trkpt>
      <trkpt lat="62.641675015744" lon="17.978826729141">
        <ele>47.4</ele>
        <time>2018-01-23T12:14:28Z</time>
      </trkpt>
      <trkpt lat="62.641660095962" lon="17.978825639494">
        <ele>47.8</ele>
        <time>2018-01-23T12:14:29Z</time>
      </trkpt>
      <trkpt lat="62.641646265827" lon="17.9788234602">
        <ele>47.8</ele>
        <time>2018-01-23T12:14:30Z</time>
      </trkpt>
      <trkpt lat="62.641632351873" lon="17.978819520707">
        <ele>48.2</ele>
        <time>2018-01-23T12:14:31Z</time>
      </trkpt>
      <trkpt lat="62.64161583953" lon="17.978816838499">
        <ele>48.4</ele>
        <time>2018-01-23T12:14:32Z</time>
      </trkpt>
      <trkpt lat="62.641602093214" lon="17.97881759287">
        <ele>48.6</ele>
        <time>2018-01-23T12:14:33Z</time>
      </trkpt>
      <trkpt lat="62.641587257251" lon="17.978817341413">
        <ele>48.8</ele>
        <time>2018-01-23T12:14:34Z</time>
      </trkpt>
      <trkpt lat="62.641573259478" lon="17.978816838499">
        <ele>49</ele>
        <time>2018-01-23T12:14:35Z</time>
      </trkpt>
      <trkpt lat="62.641554232565" lon="17.978813066644">
        <ele>49</ele>
        <time>2018-01-23T12:14:36Z</time>
      </trkpt>
      <trkpt lat="62.641536630575" lon="17.978809462427">
        <ele>49.2</ele>
        <time>2018-01-23T12:14:37Z</time>
      </trkpt>
      <trkpt lat="62.641525398829" lon="17.9788066964">
        <ele>49.4</ele>
        <time>2018-01-23T12:14:38Z</time>
      </trkpt>
      <trkpt lat="62.641507042468" lon="17.978798146862">
        <ele>49.6</ele>
        <time>2018-01-23T12:14:39Z</time>
      </trkpt>
      <trkpt lat="62.641491703591" lon="17.978792363351">
        <ele>49.8</ele>
        <time>2018-01-23T12:14:40Z</time>
      </trkpt>
      <trkpt lat="62.641475945619" lon="17.97878657984">
        <ele>50</ele>
        <time>2018-01-23T12:14:41Z</time>
      </trkpt>
      <trkpt lat="62.641458846543" lon="17.978778030302">
        <ele>50.2</ele>
        <time>2018-01-23T12:14:42Z</time>
      </trkpt>
      <trkpt lat="62.64144987791" lon="17.978772665886">
        <ele>50.2</ele>
        <time>2018-01-23T12:14:43Z</time>
      </trkpt>
      <trkpt lat="62.641431689187" lon="17.978763445796">
        <ele>50.4</ele>
        <time>2018-01-23T12:14:44Z</time>
      </trkpt>
      <trkpt lat="62.641413081369" lon="17.978755734448">
        <ele>50.6</ele>
        <time>2018-01-23T12:14:45Z</time>
      </trkpt>
      <trkpt lat="62.641395814655" lon="17.978750370032">
        <ele>50.6</ele>
        <time>2018-01-23T12:14:46Z</time>
      </trkpt>
      <trkpt lat="62.64137611719" lon="17.978739138286">
        <ele>50.8</ele>
        <time>2018-01-23T12:14:47Z</time>
      </trkpt>
      <trkpt lat="62.641354072793" lon="17.978741820494">
        <ele>51</ele>
        <time>2018-01-23T12:14:48Z</time>
      </trkpt>
      <trkpt lat="62.641335548794" lon="17.978744502702">
        <ele>51.2</ele>
        <time>2018-01-23T12:14:49Z</time>
      </trkpt>
      <trkpt lat="62.641317276252" lon="17.978745676168">
        <ele>51.4</ele>
        <time>2018-01-23T12:14:50Z</time>
      </trkpt>
      <trkpt lat="62.641301937375" lon="17.978756991733">
        <ele>51.4</ele>
        <time>2018-01-23T12:14:51Z</time>
      </trkpt>
      <trkpt lat="62.641284335385" lon="17.978759925398">
        <ele>51.6</ele>
        <time>2018-01-23T12:14:52Z</time>
      </trkpt>
      <trkpt lat="62.641272349268" lon="17.978764619262">
        <ele>51.6</ele>
        <time>2018-01-23T12:14:53Z</time>
      </trkpt>
      <trkpt lat="62.641253238536" lon="17.978768223479">
        <ele>51.8</ele>
        <time>2018-01-23T12:14:54Z</time>
      </trkpt>
      <trkpt lat="62.64123949222" lon="17.978778784673">
        <ele>51.8</ele>
        <time>2018-01-23T12:14:55Z</time>
      </trkpt>
      <trkpt lat="62.641218956565" lon="17.978783729994">
        <ele>52</ele>
        <time>2018-01-23T12:14:56Z</time>
      </trkpt>
      <trkpt lat="62.641199510557" lon="17.978790603152">
        <ele>52.2</ele>
        <time>2018-01-23T12:14:57Z</time>
      </trkpt>
      <trkpt lat="62.641182746757" lon="17.978786412202">
        <ele>52.6</ele>
        <time>2018-01-23T12:14:58Z</time>
      </trkpt>
      <trkpt lat="62.641157181962" lon="17.978799487966">
        <ele>52.6</ele>
        <time>2018-01-23T12:14:59Z</time>
      </trkpt>
      <trkpt lat="62.641135053746" lon="17.97880418183">
        <ele>52.8</ele>
        <time>2018-01-23T12:15:00Z</time>
      </trkpt>
      <trkpt lat="62.641117870851" lon="17.978813569558">
        <ele>53</ele>
        <time>2018-01-23T12:15:01Z</time>
      </trkpt>
      <trkpt lat="62.641098592481" lon="17.978820358897">
        <ele>53.2</ele>
        <time>2018-01-23T12:15:02Z</time>
      </trkpt>
      <trkpt lat="62.641079817025" lon="17.978830333358">
        <ele>53.2</ele>
        <time>2018-01-23T12:15:03Z</time>
      </trkpt>
      <trkpt lat="62.641064226691" lon="17.978833853756">
        <ele>53.2</ele>
        <time>2018-01-23T12:15:04Z</time>
      </trkpt>
      <trkpt lat="62.641051318565" lon="17.978851204289">
        <ele>53.4</ele>
        <time>2018-01-23T12:15:05Z</time>
      </trkpt>
      <trkpt lat="62.641032626928" lon="17.978874338333">
        <ele>53.8</ele>
        <time>2018-01-23T12:15:06Z</time>
      </trkpt>
      <trkpt lat="62.641016449861" lon="17.978898981119">
        <ele>54</ele>
        <time>2018-01-23T12:15:07Z</time>
      </trkpt>
      <trkpt lat="62.641002871183" lon="17.978923875362">
        <ele>54.2</ele>
        <time>2018-01-23T12:15:08Z</time>
      </trkpt>
      <trkpt lat="62.640995662749" lon="17.97895840879">
        <ele>54.4</ele>
        <time>2018-01-23T12:15:09Z</time>
      </trkpt>
      <trkpt lat="62.64098719703" lon="17.979002246127">
        <ele>54.4</ele>
        <time>2018-01-23T12:15:10Z</time>
      </trkpt>
      <trkpt lat="62.640983760451" lon="17.979065278015">
        <ele>54.4</ele>
        <time>2018-01-23T12:15:11Z</time>
      </trkpt>
      <trkpt lat="62.640981245881" lon="17.979096039588">
        <ele>54.4</ele>
        <time>2018-01-23T12:15:12Z</time>
      </trkpt>
      <trkpt lat="62.64097043323" lon="17.97916795629">
        <ele>54.4</ele>
        <time>2018-01-23T12:15:13Z</time>
      </trkpt>
      <trkpt lat="62.640971606696" lon="17.979199304596">
        <ele>54.6</ele>
        <time>2018-01-23T12:15:14Z</time>
      </trkpt>
      <trkpt lat="62.640971439058" lon="17.979274657877">
        <ele>54.6</ele>
        <time>2018-01-23T12:15:15Z</time>
      </trkpt>
      <trkpt lat="62.640958782389" lon="17.979324781639">
        <ele>54.6</ele>
        <time>2018-01-23T12:15:16Z</time>
      </trkpt>
      <trkpt lat="62.640950400489" lon="17.979358141601">
        <ele>54.6</ele>
        <time>2018-01-23T12:15:17Z</time>
      </trkpt>
      <trkpt lat="62.640947383005" lon="17.979423855697">
        <ele>54.6</ele>
        <time>2018-01-23T12:15:18Z</time>
      </trkpt>
      <trkpt lat="62.640942521503" lon="17.979483367187">
        <ele>54.6</ele>
        <time>2018-01-23T12:15:19Z</time>
      </trkpt>
      <trkpt lat="62.640941431856" lon="17.979522678298">
        <ele>54.6</ele>
        <time>2018-01-23T12:15:20Z</time>
      </trkpt>
      <trkpt lat="62.640936821811" lon="17.979575735725">
        <ele>54.6</ele>
        <time>2018-01-23T12:15:21Z</time>
      </trkpt>
      <trkpt lat="62.640929948653" lon="17.979638432337">
        <ele>54.6</ele>
        <time>2018-01-23T12:15:22Z</time>
      </trkpt>
      <trkpt lat="62.640925087151" lon="17.979680844751">
        <ele>54.8</ele>
        <time>2018-01-23T12:15:23Z</time>
      </trkpt>
      <trkpt lat="62.640925338608" lon="17.97971864712">
        <ele>54.8</ele>
        <time>2018-01-23T12:15:24Z</time>
      </trkpt>
      <trkpt lat="62.64091092174" lon="17.979781176094">
        <ele>55</ele>
        <time>2018-01-23T12:15:25Z</time>
      </trkpt>
      <trkpt lat="62.64090924536" lon="17.979834401159">
        <ele>55</ele>
        <time>2018-01-23T12:15:26Z</time>
      </trkpt>
      <trkpt lat="62.640908155713" lon="17.979861307058">
        <ele>55.2</ele>
        <time>2018-01-23T12:15:27Z</time>
      </trkpt>
      <trkpt lat="62.640900612003" lon="17.979915454132">
        <ele>55.2</ele>
        <time>2018-01-23T12:15:28Z</time>
      </trkpt>
      <trkpt lat="62.640898097433" lon="17.979972870147">
        <ele>55.2</ele>
        <time>2018-01-23T12:15:29Z</time>
      </trkpt>
      <trkpt lat="62.640902707478" lon="17.980005559557">
        <ele>55.2</ele>
        <time>2018-01-23T12:15:30Z</time>
      </trkpt>
      <trkpt lat="62.640891727189" lon="17.980085187607">
        <ele>55.2</ele>
        <time>2018-01-23T12:15:31Z</time>
      </trkpt>
      <trkpt lat="62.640891894827" lon="17.98013271298">
        <ele>55.4</ele>
        <time>2018-01-23T12:15:32Z</time>
      </trkpt>
      <trkpt lat="62.640889799352" lon="17.980189290805">
        <ele>55.4</ele>
        <time>2018-01-23T12:15:33Z</time>
      </trkpt>
      <trkpt lat="62.640890637542" lon="17.98024586863">
        <ele>55.4</ele>
        <time>2018-01-23T12:15:34Z</time>
      </trkpt>
      <trkpt lat="62.640890721361" lon="17.980329100897">
        <ele>55.6</ele>
        <time>2018-01-23T12:15:35Z</time>
      </trkpt>
      <trkpt lat="62.640896840148" lon="17.980385762541">
        <ele>55.4</ele>
        <time>2018-01-23T12:15:36Z</time>
      </trkpt>
      <trkpt lat="62.640900779641" lon="17.98044871061">
        <ele>55.4</ele>
        <time>2018-01-23T12:15:37Z</time>
      </trkpt>
      <trkpt lat="62.640904970591" lon="17.980509563204">
        <ele>55.4</ele>
        <time>2018-01-23T12:15:38Z</time>
      </trkpt>
      <trkpt lat="62.640913771586" lon="17.98056521902">
        <ele>55.4</ele>
        <time>2018-01-23T12:15:39Z</time>
      </trkpt>
      <trkpt lat="62.640913939224" lon="17.980639566473">
        <ele>55.2</ele>
        <time>2018-01-23T12:15:40Z</time>
      </trkpt>
      <trkpt lat="62.640918968364" lon="17.980693965004">
        <ele>55.2</ele>
        <time>2018-01-23T12:15:41Z</time>
      </trkpt>
      <trkpt lat="62.640922991676" lon="17.980776526719">
        <ele>55</ele>
        <time>2018-01-23T12:15:42Z</time>
      </trkpt>
      <trkpt lat="62.64093522925" lon="17.980816759839">
        <ele>55</ele>
        <time>2018-01-23T12:15:43Z</time>
      </trkpt>
      <trkpt lat="62.640950651946" lon="17.980899405373">
        <ele>54.8</ele>
        <time>2018-01-23T12:15:44Z</time>
      </trkpt>
      <trkpt lat="62.640964230624" lon="17.980957911035">
        <ele>54.8</ele>
        <time>2018-01-23T12:15:45Z</time>
      </trkpt>
      <trkpt lat="62.640982754623" lon="17.981035359791">
        <ele>54.4</ele>
        <time>2018-01-23T12:15:46Z</time>
      </trkpt>
      <trkpt lat="62.641002116812" lon="17.98110166062">
        <ele>54.4</ele>
        <time>2018-01-23T12:15:47Z</time>
      </trkpt>
      <trkpt lat="62.641022820105" lon="17.981173158227">
        <ele>54</ele>
        <time>2018-01-23T12:15:48Z</time>
      </trkpt>
      <trkpt lat="62.641044445407" lon="17.981264856213">
        <ele>53.6</ele>
        <time>2018-01-23T12:15:49Z</time>
      </trkpt>
      <trkpt lat="62.641055593334" lon="17.981358230579">
        <ele>53.2</ele>
        <time>2018-01-23T12:15:50Z</time>
      </trkpt>
      <trkpt lat="62.641053916954" lon="17.981449341832">
        <ele>52.6</ele>
        <time>2018-01-23T12:15:51Z</time>
      </trkpt>
      <trkpt lat="62.641055509515" lon="17.981521174715">
        <ele>52</ele>
        <time>2018-01-23T12:15:52Z</time>
      </trkpt>
      <trkpt lat="62.64104754671" lon="17.981593342874">
        <ele>51.8</ele>
        <time>2018-01-23T12:15:53Z</time>
      </trkpt>
      <trkpt lat="62.641040338276" lon="17.981676910417">
        <ele>51.6</ele>
        <time>2018-01-23T12:15:54Z</time>
      </trkpt>
      <trkpt lat="62.641046121787" lon="17.981719155193">
        <ele>51.6</ele>
        <time>2018-01-23T12:15:55Z</time>
      </trkpt>
      <trkpt lat="62.641042936665" lon="17.981809595894">
        <ele>51.8</ele>
        <time>2018-01-23T12:15:56Z</time>
      </trkpt>
      <trkpt lat="62.641046121787" lon="17.981868688289">
        <ele>52</ele>
        <time>2018-01-23T12:15:57Z</time>
      </trkpt>
      <trkpt lat="62.641045451235" lon="17.981917890042">
        <ele>52</ele>
        <time>2018-01-23T12:15:58Z</time>
      </trkpt>
      <trkpt lat="62.641041763199" lon="17.981985699613">
        <ele>52</ele>
        <time>2018-01-23T12:15:59Z</time>
      </trkpt>
      <trkpt lat="62.641051570022" lon="17.982043199447">
        <ele>51.8</ele>
        <time>2018-01-23T12:16:00Z</time>
      </trkpt>
      <trkpt lat="62.641052324393" lon="17.982109332638">
        <ele>52</ele>
        <time>2018-01-23T12:16:01Z</time>
      </trkpt>
      <trkpt lat="62.641052743488" lon="17.982172113069">
        <ele>51.8</ele>
        <time>2018-01-23T12:16:02Z</time>
      </trkpt>
      <trkpt lat="62.641062885587" lon="17.982205389212">
        <ele>51.8</ele>
        <time>2018-01-23T12:16:03Z</time>
      </trkpt>
      <trkpt lat="62.641066238347" lon="17.98228350852">
        <ele>51.8</ele>
        <time>2018-01-23T12:16:04Z</time>
      </trkpt>
      <trkpt lat="62.641076464265" lon="17.982330363341">
        <ele>52</ele>
        <time>2018-01-23T12:16:05Z</time>
      </trkpt>
      <trkpt lat="62.641077553912" lon="17.982384845691">
        <ele>52</ele>
        <time>2018-01-23T12:16:06Z</time>
      </trkpt>
      <trkpt lat="62.641087612192" lon="17.982455253651">
        <ele>51.8</ele>
        <time>2018-01-23T12:16:07Z</time>
      </trkpt>
      <trkpt lat="62.641096497006" lon="17.982516357702">
        <ele>51.8</ele>
        <time>2018-01-23T12:16:08Z</time>
      </trkpt>
      <trkpt lat="62.641109740408" lon="17.982593806458">
        <ele>51.8</ele>
        <time>2018-01-23T12:16:09Z</time>
      </trkpt>
      <trkpt lat="62.641124157276" lon="17.982645941876">
        <ele>51.6</ele>
        <time>2018-01-23T12:16:10Z</time>
      </trkpt>
      <trkpt lat="62.641137652135" lon="17.982703274072">
        <ele>51.6</ele>
        <time>2018-01-23T12:16:11Z</time>
      </trkpt>
      <trkpt lat="62.641143687103" lon="17.982774939317">
        <ele>51.6</ele>
        <time>2018-01-23T12:16:12Z</time>
      </trkpt>
      <trkpt lat="62.641153577745" lon="17.982831014228">
        <ele>51.6</ele>
        <time>2018-01-23T12:16:13Z</time>
      </trkpt>
      <trkpt lat="62.641155170306" lon="17.982900751636">
        <ele>51.4</ele>
        <time>2018-01-23T12:16:14Z</time>
      </trkpt>
      <trkpt lat="62.641169335717" lon="17.982965543723">
        <ele>51.4</ele>
        <time>2018-01-23T12:16:15Z</time>
      </trkpt>
      <trkpt lat="62.641183584947" lon="17.983028240335">
        <ele>51.2</ele>
        <time>2018-01-23T12:16:16Z</time>
      </trkpt>
      <trkpt lat="62.641185177508" lon="17.983116166466">
        <ele>51</ele>
        <time>2018-01-23T12:16:17Z</time>
      </trkpt>
      <trkpt lat="62.641183836404" lon="17.983185568598">
        <ele>51</ele>
        <time>2018-01-23T12:16:18Z</time>
      </trkpt>
      <trkpt lat="62.6411992591" lon="17.983246840287">
        <ele>50.8</ele>
        <time>2018-01-23T12:16:19Z</time>
      </trkpt>
      <trkpt lat="62.641212418683" lon="17.983329485821">
        <ele>50.8</ele>
        <time>2018-01-23T12:16:20Z</time>
      </trkpt>
      <trkpt lat="62.641229769216" lon="17.983392182433">
        <ele>50.8</ele>
        <time>2018-01-23T12:16:21Z</time>
      </trkpt>
      <trkpt lat="62.641242509704" lon="17.983482455496">
        <ele>50.6</ele>
        <time>2018-01-23T12:16:22Z</time>
      </trkpt>
      <trkpt lat="62.641250221052" lon="17.983569627256">
        <ele>50.6</ele>
        <time>2018-01-23T12:16:23Z</time>
      </trkpt>
      <trkpt lat="62.641256088382" lon="17.983680268336">
        <ele>50.4</ele>
        <time>2018-01-23T12:16:24Z</time>
      </trkpt>
      <trkpt lat="62.641250053414" lon="17.983774145616">
        <ele>50.2</ele>
        <time>2018-01-23T12:16:25Z</time>
      </trkpt>
      <trkpt lat="62.641249466681" lon="17.983880847203">
        <ele>49.8</ele>
        <time>2018-01-23T12:16:26Z</time>
      </trkpt>
      <trkpt lat="62.641249215224" lon="17.983979669804">
        <ele>49.4</ele>
        <time>2018-01-23T12:16:27Z</time>
      </trkpt>
      <trkpt lat="62.641249466681" lon="17.984064997546">
        <ele>49</ele>
        <time>2018-01-23T12:16:28Z</time>
      </trkpt>
      <trkpt lat="62.641244856636" lon="17.984173207875">
        <ele>48.8</ele>
        <time>2018-01-23T12:16:29Z</time>
      </trkpt>
      <trkpt lat="62.641238570211" lon="17.984273539218">
        <ele>48.4</ele>
        <time>2018-01-23T12:16:30Z</time>
      </trkpt>
      <trkpt lat="62.641236055641" lon="17.984370433982">
        <ele>48.2</ele>
        <time>2018-01-23T12:16:31Z</time>
      </trkpt>
      <trkpt lat="62.641232619062" lon="17.984450984041">
        <ele>48</ele>
        <time>2018-01-23T12:16:32Z</time>
      </trkpt>
      <trkpt lat="62.641227422284" lon="17.984558188542">
        <ele>47.8</ele>
        <time>2018-01-23T12:16:33Z</time>
      </trkpt>
      <trkpt lat="62.641226500275" lon="17.984635637298">
        <ele>47.6</ele>
        <time>2018-01-23T12:16:34Z</time>
      </trkpt>
      <trkpt lat="62.641228679569" lon="17.984728424931">
        <ele>47.4</ele>
        <time>2018-01-23T12:16:35Z</time>
      </trkpt>
      <trkpt lat="62.641229350121" lon="17.984807130972">
        <ele>47.4</ele>
        <time>2018-01-23T12:16:36Z</time>
      </trkpt>
      <trkpt lat="62.641217866918" lon="17.984918023509">
        <ele>47.2</ele>
        <time>2018-01-23T12:16:37Z</time>
      </trkpt>
      <trkpt lat="62.641209401199" lon="17.984999747034">
        <ele>47</ele>
        <time>2018-01-23T12:16:38Z</time>
      </trkpt>
      <trkpt lat="62.641204958792" lon="17.985072250469">
        <ele>46.8</ele>
        <time>2018-01-23T12:16:39Z</time>
      </trkpt>
      <trkpt lat="62.641191212476" lon="17.985145005361">
        <ele>46.8</ele>
        <time>2018-01-23T12:16:40Z</time>
      </trkpt>
      <trkpt lat="62.641182411481" lon="17.985212814932">
        <ele>46.6</ele>
        <time>2018-01-23T12:16:41Z</time>
      </trkpt>
      <trkpt lat="62.641180232187" lon="17.985275511544">
        <ele>46.6</ele>
        <time>2018-01-23T12:16:42Z</time>
      </trkpt>
      <trkpt lat="62.6411824953" lon="17.985356229241">
        <ele>46.6</ele>
        <time>2018-01-23T12:16:43Z</time>
      </trkpt>
      <trkpt lat="62.641187440621" lon="17.985425547554">
        <ele>46.6</ele>
        <time>2018-01-23T12:16:44Z</time>
      </trkpt>
      <trkpt lat="62.641184926051" lon="17.98550802545">
        <ele>46.4</ele>
        <time>2018-01-23T12:16:45Z</time>
      </trkpt>
      <trkpt lat="62.641181992386" lon="17.9855625078">
        <ele>46.2</ele>
        <time>2018-01-23T12:16:46Z</time>
      </trkpt>
      <trkpt lat="62.641178555807" lon="17.985630987923">
        <ele>46</ele>
        <time>2018-01-23T12:16:47Z</time>
      </trkpt>
      <trkpt lat="62.64117327521" lon="17.985694774182">
        <ele>45.8</ele>
        <time>2018-01-23T12:16:48Z</time>
      </trkpt>
      <trkpt lat="62.641165982957" lon="17.98576451159">
        <ele>45.8</ele>
        <time>2018-01-23T12:16:49Z</time>
      </trkpt>
      <trkpt lat="62.641145950216" lon="17.985847408581">
        <ele>45.6</ele>
        <time>2018-01-23T12:16:50Z</time>
      </trkpt>
      <trkpt lat="62.641123570543" lon="17.985897867619">
        <ele>45.6</ele>
        <time>2018-01-23T12:16:51Z</time>
      </trkpt>
      <trkpt lat="62.641120720697" lon="17.985953858711">
        <ele>45.6</ele>
        <time>2018-01-23T12:16:52Z</time>
      </trkpt>
      <trkpt lat="62.641106722924" lon="17.986005239758">
        <ele>45.6</ele>
        <time>2018-01-23T12:16:53Z</time>
      </trkpt>
      <trkpt lat="62.641092054599" lon="17.986081850324">
        <ele>45.6</ele>
        <time>2018-01-23T12:16:54Z</time>
      </trkpt>
      <trkpt lat="62.641079062654" lon="17.986130632982">
        <ele>45.6</ele>
        <time>2018-01-23T12:16:55Z</time>
      </trkpt>
      <trkpt lat="62.641068836736" lon="17.986185534427">
        <ele>45.8</ele>
        <time>2018-01-23T12:16:56Z</time>
      </trkpt>
      <trkpt lat="62.641060454836" lon="17.98624311808">
        <ele>45.8</ele>
        <time>2018-01-23T12:16:57Z</time>
      </trkpt>
      <trkpt lat="62.641049642185" lon="17.986315118601">
        <ele>45.8</ele>
        <time>2018-01-23T12:16:58Z</time>
      </trkpt>
      <trkpt lat="62.641052911126" lon="17.986374630091">
        <ele>45.8</ele>
        <time>2018-01-23T12:16:59Z</time>
      </trkpt>
      <trkpt lat="62.641038578077" lon="17.986444870413">
        <ele>45.8</ele>
        <time>2018-01-23T12:17:00Z</time>
      </trkpt>
      <trkpt lat="62.641029274168" lon="17.986516619477">
        <ele>45.8</ele>
        <time>2018-01-23T12:17:01Z</time>
      </trkpt>
      <trkpt lat="62.641019634983" lon="17.986574454587">
        <ele>45.6</ele>
        <time>2018-01-23T12:17:02Z</time>
      </trkpt>
      <trkpt lat="62.641012007454" lon="17.986638324665">
        <ele>45.6</ele>
        <time>2018-01-23T12:17:03Z</time>
      </trkpt>
      <trkpt lat="62.641012510368" lon="17.986699009621">
        <ele>45.6</ele>
        <time>2018-01-23T12:17:04Z</time>
      </trkpt>
      <trkpt lat="62.641000524251" lon="17.986771345418">
        <ele>45.4</ele>
        <time>2018-01-23T12:17:05Z</time>
      </trkpt>
      <trkpt lat="62.640986191202" lon="17.986853404219">
        <ele>45.4</ele>
        <time>2018-01-23T12:17:06Z</time>
      </trkpt>
      <trkpt lat="62.640985353012" lon="17.986897828289">
        <ele>45.4</ele>
        <time>2018-01-23T12:17:07Z</time>
      </trkpt>
      <trkpt lat="62.640975043275" lon="17.986962033643">
        <ele>45.4</ele>
        <time>2018-01-23T12:17:08Z</time>
      </trkpt>
      <trkpt lat="62.640966996651" lon="17.987018862925">
        <ele>45.4</ele>
        <time>2018-01-23T12:17:09Z</time>
      </trkpt>
      <trkpt lat="62.640957944199" lon="17.987090779627">
        <ele>45.6</ele>
        <time>2018-01-23T12:17:10Z</time>
      </trkpt>
      <trkpt lat="62.640949059385" lon="17.987152638049">
        <ele>45.6</ele>
        <time>2018-01-23T12:17:11Z</time>
      </trkpt>
      <trkpt lat="62.640950065213" lon="17.98720368382">
        <ele>45.6</ele>
        <time>2018-01-23T12:17:12Z</time>
      </trkpt>
      <trkpt lat="62.640942940598" lon="17.987278785644">
        <ele>45.6</ele>
        <time>2018-01-23T12:17:13Z</time>
      </trkpt>
      <trkpt lat="62.640949394661" lon="17.987334357641">
        <ele>45.6</ele>
        <time>2018-01-23T12:17:14Z</time>
      </trkpt>
      <trkpt lat="62.640933469051" lon="17.987400826108">
        <ele>45.6</ele>
        <time>2018-01-23T12:17:15Z</time>
      </trkpt>
      <trkpt lat="62.640922907857" lon="17.987465115281">
        <ele>45.6</ele>
        <time>2018-01-23T12:17:16Z</time>
      </trkpt>
      <trkpt lat="62.640914358319" lon="17.987522531296">
        <ele>45.6</ele>
        <time>2018-01-23T12:17:17Z</time>
      </trkpt>
      <trkpt lat="62.640905808781" lon="17.9875993095">
        <ele>45.4</ele>
        <time>2018-01-23T12:17:18Z</time>
      </trkpt>
      <trkpt lat="62.640904132401" lon="17.987664017768">
        <ele>45.4</ele>
        <time>2018-01-23T12:17:19Z</time>
      </trkpt>
      <trkpt lat="62.640884518755" lon="17.987747166216">
        <ele>45.4</ele>
        <time>2018-01-23T12:17:20Z</time>
      </trkpt>
      <trkpt lat="62.640875550122" lon="17.987804582231">
        <ele>45.2</ele>
        <time>2018-01-23T12:17:21Z</time>
      </trkpt>
      <trkpt lat="62.640863815462" lon="17.987855125088">
        <ele>45.2</ele>
        <time>2018-01-23T12:17:22Z</time>
      </trkpt>
      <trkpt lat="62.640857361399" lon="17.987914636578">
        <ele>45.2</ele>
        <time>2018-01-23T12:17:23Z</time>
      </trkpt>
      <trkpt lat="62.640847051662" lon="17.987955372612">
        <ele>45.2</ele>
        <time>2018-01-23T12:17:24Z</time>
      </trkpt>
      <trkpt lat="62.640828360025" lon="17.98802259545">
        <ele>45.2</ele>
        <time>2018-01-23T12:17:25Z</time>
      </trkpt>
      <trkpt lat="62.640815619537" lon="17.988069282633">
        <ele>45</ele>
        <time>2018-01-23T12:17:26Z</time>
      </trkpt>
      <trkpt lat="62.640805393619" lon="17.988120244585">
        <ele>45</ele>
        <time>2018-01-23T12:17:27Z</time>
      </trkpt>
      <trkpt lat="62.640791814941" lon="17.988184869034">
        <ele>45.2</ele>
        <time>2018-01-23T12:17:28Z</time>
      </trkpt>
      <trkpt lat="62.640776559883" lon="17.988227281448">
        <ele>45.2</ele>
        <time>2018-01-23T12:17:29Z</time>
      </trkpt>
      <trkpt lat="62.640759293169" lon="17.988300203978">
        <ele>45.2</ele>
        <time>2018-01-23T12:17:30Z</time>
      </trkpt>
      <trkpt lat="62.640744205749" lon="17.988357117079">
        <ele>45</ele>
        <time>2018-01-23T12:17:31Z</time>
      </trkpt>
      <trkpt lat="62.640727441949" lon="17.988404055719">
        <ele>45</ele>
        <time>2018-01-23T12:17:32Z</time>
      </trkpt>
      <trkpt lat="62.640714869099" lon="17.988452503101">
        <ele>45</ele>
        <time>2018-01-23T12:17:33Z</time>
      </trkpt>
      <trkpt lat="62.640703553534" lon="17.988483180855">
        <ele>45</ele>
        <time>2018-01-23T12:17:34Z</time>
      </trkpt>
      <trkpt lat="62.640678491653" lon="17.98853305316">
        <ele>45</ele>
        <time>2018-01-23T12:17:35Z</time>
      </trkpt>
      <trkpt lat="62.640660638206" lon="17.988564485285">
        <ele>45</ele>
        <time>2018-01-23T12:17:36Z</time>
      </trkpt>
      <trkpt lat="62.640651334297" lon="17.988597342333">
        <ele>45</ele>
        <time>2018-01-23T12:17:37Z</time>
      </trkpt>
      <trkpt lat="62.640629038443" lon="17.988641095851">
        <ele>45.2</ele>
        <time>2018-01-23T12:17:38Z</time>
      </trkpt>
      <trkpt lat="62.640603892743" lon="17.988673198528">
        <ele>45.2</ele>
        <time>2018-01-23T12:17:39Z</time>
      </trkpt>
      <trkpt lat="62.640596768128" lon="17.98870320573">
        <ele>45.2</ele>
        <time>2018-01-23T12:17:40Z</time>
      </trkpt>
      <trkpt lat="62.640583608545" lon="17.988719466616">
        <ele>45.4</ele>
        <time>2018-01-23T12:17:41Z</time>
      </trkpt>
      <trkpt lat="62.640567850573" lon="17.988760621745">
        <ele>45.4</ele>
        <time>2018-01-23T12:17:42Z</time>
      </trkpt>
      <trkpt lat="62.64054882366" lon="17.988787360006">
        <ele>45.6</ele>
        <time>2018-01-23T12:17:43Z</time>
      </trkpt>
      <trkpt lat="62.640541782864" lon="17.988820133235">
        <ele>45.6</ele>
        <time>2018-01-23T12:17:44Z</time>
      </trkpt>
      <trkpt lat="62.640527533634" lon="17.988854750482">
        <ele>45.6</ele>
        <time>2018-01-23T12:17:45Z</time>
      </trkpt>
      <trkpt lat="62.640503058486" lon="17.988890457376">
        <ele>45.8</ele>
        <time>2018-01-23T12:17:46Z</time>
      </trkpt>
      <trkpt lat="62.640495011862" lon="17.988930019944">
        <ele>46</ele>
        <time>2018-01-23T12:17:47Z</time>
      </trkpt>
      <trkpt lat="62.640488222523" lon="17.988957428757">
        <ele>46.2</ele>
        <time>2018-01-23T12:17:48Z</time>
      </trkpt>
      <trkpt lat="62.640468441239" lon="17.989007720157">
        <ele>46.4</ele>
        <time>2018-01-23T12:17:49Z</time>
      </trkpt>
      <trkpt lat="62.640458885873" lon="17.98904434906">
        <ele>46.6</ele>
        <time>2018-01-23T12:17:50Z</time>
      </trkpt>
      <trkpt lat="62.640445139557" lon="17.989085839465">
        <ele>46.4</ele>
        <time>2018-01-23T12:17:51Z</time>
      </trkpt>
      <trkpt lat="62.640417982201" lon="17.989139567444">
        <ele>46.4</ele>
        <time>2018-01-23T12:17:52Z</time>
      </trkpt>
      <trkpt lat="62.640415467631" lon="17.98916756299">
        <ele>46.4</ele>
        <time>2018-01-23T12:17:53Z</time>
      </trkpt>
      <trkpt lat="62.640393255596" lon="17.989207209377">
        <ele>46.4</ele>
        <time>2018-01-23T12:17:54Z</time>
      </trkpt>
      <trkpt lat="62.64037950928" lon="17.989231516887">
        <ele>46.6</ele>
        <time>2018-01-23T12:17:55Z</time>
      </trkpt>
      <trkpt lat="62.640369031905" lon="17.989262949012">
        <ele>46.6</ele>
        <time>2018-01-23T12:17:56Z</time>
      </trkpt>
      <trkpt lat="62.640349250621" lon="17.989307037806">
        <ele>46.8</ele>
        <time>2018-01-23T12:17:57Z</time>
      </trkpt>
      <trkpt lat="62.640329636975" lon="17.98935028841">
        <ele>46.8</ele>
        <time>2018-01-23T12:17:58Z</time>
      </trkpt>
      <trkpt lat="62.640317567039" lon="17.989382391087">
        <ele>47</ele>
        <time>2018-01-23T12:17:59Z</time>
      </trkpt>
      <trkpt lat="62.640297115203" lon="17.989431844297">
        <ele>47</ele>
        <time>2018-01-23T12:18:00Z</time>
      </trkpt>
      <trkpt lat="62.640276328091" lon="17.98947350234">
        <ele>47</ele>
        <time>2018-01-23T12:18:01Z</time>
      </trkpt>
      <trkpt lat="62.640272723874" lon="17.989514154555">
        <ele>47</ele>
        <time>2018-01-23T12:18:02Z</time>
      </trkpt>
      <trkpt lat="62.64026383906" lon="17.989544413214">
        <ele>47</ele>
        <time>2018-01-23T12:18:03Z</time>
      </trkpt>
      <trkpt lat="62.640253445504" lon="17.989577605538">
        <ele>47</ele>
        <time>2018-01-23T12:18:04Z</time>
      </trkpt>
      <trkpt lat="62.640234167134" lon="17.98962689111">
        <ele>47.2</ele>
        <time>2018-01-23T12:18:05Z</time>
      </trkpt>
      <trkpt lat="62.640218660619" lon="17.989676679596">
        <ele>47.4</ele>
        <time>2018-01-23T12:18:06Z</time>
      </trkpt>
      <trkpt lat="62.640218241524" lon="17.989691180283">
        <ele>47.4</ele>
        <time>2018-01-23T12:18:07Z</time>
      </trkpt>
      <trkpt lat="62.640204495208" lon="17.989742645149">
        <ele>47.6</ele>
        <time>2018-01-23T12:18:08Z</time>
      </trkpt>
      <trkpt lat="62.640193514919" lon="17.989770724514">
        <ele>47.8</ele>
        <time>2018-01-23T12:18:09Z</time>
      </trkpt>
      <trkpt lat="62.640186306485" lon="17.989800061164">
        <ele>47.8</ele>
        <time>2018-01-23T12:18:10Z</time>
      </trkpt>
      <trkpt lat="62.640171135246" lon="17.989863176871">
        <ele>47.8</ele>
        <time>2018-01-23T12:18:11Z</time>
      </trkpt>
      <trkpt lat="62.640154455265" lon="17.98990600838">
        <ele>48</ele>
        <time>2018-01-23T12:18:12Z</time>
      </trkpt>
      <trkpt lat="62.640150012858" lon="17.989938027238">
        <ele>48</ele>
        <time>2018-01-23T12:18:13Z</time>
      </trkpt>
      <trkpt lat="62.640140876587" lon="17.989986977534">
        <ele>48.2</ele>
        <time>2018-01-23T12:18:14Z</time>
      </trkpt>
      <trkpt lat="62.640133835791" lon="17.990044812644">
        <ele>48.4</ele>
        <time>2018-01-23T12:18:15Z</time>
      </trkpt>
      <trkpt lat="62.640124615701" lon="17.990086386868">
        <ele>48.4</ele>
        <time>2018-01-23T12:18:16Z</time>
      </trkpt>
      <trkpt lat="62.640115982344" lon="17.9901306433">
        <ele>48.6</ele>
        <time>2018-01-23T12:18:17Z</time>
      </trkpt>
      <trkpt lat="62.640098380354" lon="17.990168697126">
        <ele>48.6</ele>
        <time>2018-01-23T12:18:18Z</time>
      </trkpt>
      <trkpt lat="62.640086813332" lon="17.990221503096">
        <ele>48.6</ele>
        <time>2018-01-23T12:18:19Z</time>
      </trkpt>
      <trkpt lat="62.640083376753" lon="17.990255701248">
        <ele>48.6</ele>
        <time>2018-01-23T12:18:20Z</time>
      </trkpt>
      <trkpt lat="62.640067954057" lon="17.990299538585">
        <ele>48.6</ele>
        <time>2018-01-23T12:18:21Z</time>
      </trkpt>
      <trkpt lat="62.640059153062" lon="17.990323846095">
        <ele>48.8</ele>
        <time>2018-01-23T12:18:22Z</time>
      </trkpt>
      <trkpt lat="62.640046831669" lon="17.990365587957">
        <ele>48.8</ele>
        <time>2018-01-23T12:18:23Z</time>
      </trkpt>
      <trkpt lat="62.640027050385" lon="17.990406743086">
        <ele>49.2</ele>
        <time>2018-01-23T12:18:24Z</time>
      </trkpt>
      <trkpt lat="62.640015818639" lon="17.990435912098">
        <ele>49.4</ele>
        <time>2018-01-23T12:18:25Z</time>
      </trkpt>
      <trkpt lat="62.64000986749" lon="17.990467930956">
        <ele>49.4</ele>
        <time>2018-01-23T12:18:26Z</time>
      </trkpt>
      <trkpt lat="62.639984889428" lon="17.990530124654">
        <ele>49.6</ele>
        <time>2018-01-23T12:18:27Z</time>
      </trkpt>
      <trkpt lat="62.639977261899" lon="17.990552504327">
        <ele>49.6</ele>
        <time>2018-01-23T12:18:28Z</time>
      </trkpt>
      <trkpt lat="62.639962258298" lon="17.99058997142">
        <ele>49.6</ele>
        <time>2018-01-23T12:18:29Z</time>
      </trkpt>
      <trkpt lat="62.639941555005" lon="17.990640514277">
        <ele>49.6</ele>
        <time>2018-01-23T12:18:30Z</time>
      </trkpt>
      <trkpt lat="62.639937112598" lon="17.990661720484">
        <ele>49.6</ele>
        <time>2018-01-23T12:18:31Z</time>
      </trkpt>
      <trkpt lat="62.639914732925" lon="17.990717124843">
        <ele>49.6</ele>
        <time>2018-01-23T12:18:32Z</time>
      </trkpt>
      <trkpt lat="62.639899394048" lon="17.990735984118">
        <ele>49.6</ele>
        <time>2018-01-23T12:18:33Z</time>
      </trkpt>
      <trkpt lat="62.639882881705" lon="17.990775881962">
        <ele>49.6</ele>
        <time>2018-01-23T12:18:34Z</time>
      </trkpt>
      <trkpt lat="62.639870811769" lon="17.990804380422">
        <ele>49.8</ele>
        <time>2018-01-23T12:18:35Z</time>
      </trkpt>
      <trkpt lat="62.639851617218" lon="17.990857437849">
        <ele>49.8</ele>
        <time>2018-01-23T12:18:36Z</time>
      </trkpt>
      <trkpt lat="62.639839882558" lon="17.990882415911">
        <ele>49.8</ele>
        <time>2018-01-23T12:18:37Z</time>
      </trkpt>
      <trkpt lat="62.639825717147" lon="17.990923654859">
        <ele>50</ele>
        <time>2018-01-23T12:18:38Z</time>
      </trkpt>
      <trkpt lat="62.63980618732" lon="17.990969755309">
        <ele>50</ele>
        <time>2018-01-23T12:18:39Z</time>
      </trkpt>
      <trkpt lat="62.639794117384" lon="17.990986016195">
        <ele>50.2</ele>
        <time>2018-01-23T12:18:40Z</time>
      </trkpt>
      <trkpt lat="62.639778275593" lon="17.991014347017">
        <ele>50.2</ele>
        <time>2018-01-23T12:18:41Z</time>
      </trkpt>
      <trkpt lat="62.639767546761" lon="17.991051730291">
        <ele>50.4</ele>
        <time>2018-01-23T12:18:42Z</time>
      </trkpt>
      <trkpt lat="62.639760170689" lon="17.991078971466">
        <ele>50.6</ele>
        <time>2018-01-23T12:18:43Z</time>
      </trkpt>
      <trkpt lat="62.639741395233" lon="17.991130687789">
        <ele>50.6</ele>
        <time>2018-01-23T12:18:44Z</time>
      </trkpt>
      <trkpt lat="62.639728654745" lon="17.991158850973">
        <ele>50.8</ele>
        <time>2018-01-23T12:18:45Z</time>
      </trkpt>
      <trkpt lat="62.639724463795" lon="17.991196737161">
        <ele>51</ele>
        <time>2018-01-23T12:18:46Z</time>
      </trkpt>
      <trkpt lat="62.639710801298" lon="17.991249124036">
        <ele>51</ele>
        <time>2018-01-23T12:18:47Z</time>
      </trkpt>
      <trkpt lat="62.63970141357" lon="17.991301930006">
        <ele>51</ele>
        <time>2018-01-23T12:18:48Z</time>
      </trkpt>
      <trkpt lat="62.639699401914" lon="17.991340654384">
        <ele>51.2</ele>
        <time>2018-01-23T12:18:49Z</time>
      </trkpt>
      <trkpt lat="62.639691858204" lon="17.991405195014">
        <ele>51.2</ele>
        <time>2018-01-23T12:18:50Z</time>
      </trkpt>
      <trkpt lat="62.639683224847" lon="17.99144324884">
        <ele>51.2</ele>
        <time>2018-01-23T12:18:51Z</time>
      </trkpt>
      <trkpt lat="62.63968129701" lon="17.991480464476">
        <ele>51.2</ele>
        <time>2018-01-23T12:18:52Z</time>
      </trkpt>
      <trkpt lat="62.639676351689" lon="17.991508879117">
        <ele>51.2</ele>
        <time>2018-01-23T12:18:53Z</time>
      </trkpt>
      <trkpt lat="62.639666963961" lon="17.991563780562">
        <ele>51.4</ele>
        <time>2018-01-23T12:18:54Z</time>
      </trkpt>
      <trkpt lat="62.63966201864" lon="17.991601080017">
        <ele>51.4</ele>
        <time>2018-01-23T12:18:55Z</time>
      </trkpt>
      <trkpt lat="62.639656402767" lon="17.991645336449">
        <ele>51.8</ele>
        <time>2018-01-23T12:18:56Z</time>
      </trkpt>
      <trkpt lat="62.639655229301" lon="17.991674337823">
        <ele>51.8</ele>
        <time>2018-01-23T12:18:57Z</time>
      </trkpt>
      <trkpt lat="62.63964609303" lon="17.991721108825">
        <ele>52</ele>
        <time>2018-01-23T12:18:58Z</time>
      </trkpt>
      <trkpt lat="62.639647685591" lon="17.99177181932">
        <ele>52.2</ele>
        <time>2018-01-23T12:18:59Z</time>
      </trkpt>
      <trkpt lat="62.639637292035" lon="17.991818506503">
        <ele>52.2</ele>
        <time>2018-01-23T12:19:00Z</time>
      </trkpt>
      <trkpt lat="62.639638633139" lon="17.991844155117">
        <ele>52.2</ele>
        <time>2018-01-23T12:19:01Z</time>
      </trkpt>
      <trkpt lat="62.639624886823" lon="17.991904588616">
        <ele>52.4</ele>
        <time>2018-01-23T12:19:02Z</time>
      </trkpt>
      <trkpt lat="62.639616924018" lon="17.991945911383">
        <ele>52.4</ele>
        <time>2018-01-23T12:19:03Z</time>
      </trkpt>
      <trkpt lat="62.639618935674" lon="17.991973739291">
        <ele>52.6</ele>
        <time>2018-01-23T12:19:04Z</time>
      </trkpt>
      <trkpt lat="62.639605356996" lon="17.992041381224">
        <ele>52.6</ele>
        <time>2018-01-23T12:19:05Z</time>
      </trkpt>
      <trkpt lat="62.639598232381" lon="17.992070382598">
        <ele>52.6</ele>
        <time>2018-01-23T12:19:06Z</time>
      </trkpt>
      <trkpt lat="62.639596388363" lon="17.992102820551">
        <ele>52.6</ele>
        <time>2018-01-23T12:19:07Z</time>
      </trkpt>
      <trkpt lat="62.639582306771" lon="17.992149172458">
        <ele>52.8</ele>
        <time>2018-01-23T12:19:08Z</time>
      </trkpt>
      <trkpt lat="62.639578954011" lon="17.992185633723">
        <ele>52.8</ele>
        <time>2018-01-23T12:19:09Z</time>
      </trkpt>
      <trkpt lat="62.639567806084" lon="17.99223785296">
        <ele>52.8</ele>
        <time>2018-01-23T12:19:10Z</time>
      </trkpt>
      <trkpt lat="62.639561771116" lon="17.992280349193">
        <ele>52.8</ele>
        <time>2018-01-23T12:19:11Z</time>
      </trkpt>
      <trkpt lat="62.639559005089" lon="17.992314882621">
        <ele>52.8</ele>
        <time>2018-01-23T12:19:12Z</time>
      </trkpt>
      <trkpt lat="62.639540984004" lon="17.992372717731">
        <ele>52.8</ele>
        <time>2018-01-23T12:19:13Z</time>
      </trkpt>
      <trkpt lat="62.639533440294" lon="17.99242560752">
        <ele>53</ele>
        <time>2018-01-23T12:19:14Z</time>
      </trkpt>
      <trkpt lat="62.639526148041" lon="17.992467433201">
        <ele>53</ele>
        <time>2018-01-23T12:19:15Z</time>
      </trkpt>
      <trkpt lat="62.639511060621" lon="17.992521747913">
        <ele>53</ele>
        <time>2018-01-23T12:19:16Z</time>
      </trkpt>
      <trkpt lat="62.639488764767" lon="17.992541193921">
        <ele>53</ele>
        <time>2018-01-23T12:19:17Z</time>
      </trkpt>
      <trkpt lat="62.639493207174" lon="17.992569440924">
        <ele>53</ele>
        <time>2018-01-23T12:19:18Z</time>
      </trkpt>
      <trkpt lat="62.639479963772" lon="17.992624929102">
        <ele>53.2</ele>
        <time>2018-01-23T12:19:19Z</time>
      </trkpt>
      <trkpt lat="62.639476527193" lon="17.992653930476">
        <ele>53.2</ele>
        <time>2018-01-23T12:19:20Z</time>
      </trkpt>
      <trkpt lat="62.63947677865" lon="17.992701204392">
        <ele>53.4</ele>
        <time>2018-01-23T12:19:21Z</time>
      </trkpt>
      <trkpt lat="62.639474934632" lon="17.992737665657">
        <ele>53.4</ele>
        <time>2018-01-23T12:19:22Z</time>
      </trkpt>
      <trkpt lat="62.639482562161" lon="17.992779072243">
        <ele>53.6</ele>
        <time>2018-01-23T12:19:23Z</time>
      </trkpt>
      <trkpt lat="62.639492871898" lon="17.99283045329">
        <ele>53.6</ele>
        <time>2018-01-23T12:19:24Z</time>
      </trkpt>
      <trkpt lat="62.63950276254" lon="17.9928715246">
        <ele>53.8</ele>
        <time>2018-01-23T12:19:25Z</time>
      </trkpt>
      <trkpt lat="62.639504774196" lon="17.992922402733">
        <ele>53.6</ele>
        <time>2018-01-23T12:19:26Z</time>
      </trkpt>
      <trkpt lat="62.639504355101" lon="17.992987111001">
        <ele>53.6</ele>
        <time>2018-01-23T12:19:27Z</time>
      </trkpt>
      <trkpt lat="62.639506282938" lon="17.993012759615">
        <ele>53.6</ele>
        <time>2018-01-23T12:19:28Z</time>
      </trkpt>
      <trkpt lat="62.639508294594" lon="17.993074953313">
        <ele>53.6</ele>
        <time>2018-01-23T12:19:29Z</time>
      </trkpt>
      <trkpt lat="62.639514581019" lon="17.993126501998">
        <ele>53.6</ele>
        <time>2018-01-23T12:19:30Z</time>
      </trkpt>
      <trkpt lat="62.63951868815" lon="17.993166902756">
        <ele>53.6</ele>
        <time>2018-01-23T12:19:31Z</time>
      </trkpt>
      <trkpt lat="62.639518185236" lon="17.993202022917">
        <ele>53.6</ele>
        <time>2018-01-23T12:19:32Z</time>
      </trkpt>
      <trkpt lat="62.639512401725" lon="17.993257343457">
        <ele>53.6</ele>
        <time>2018-01-23T12:19:33Z</time>
      </trkpt>
      <trkpt lat="62.639513575191" lon="17.993294978188">
        <ele>53.8</ele>
        <time>2018-01-23T12:19:34Z</time>
      </trkpt>
      <trkpt lat="62.639512234087" lon="17.993322554639">
        <ele>53.8</ele>
        <time>2018-01-23T12:19:35Z</time>
      </trkpt>
      <trkpt lat="62.639506618214" lon="17.99338533507">
        <ele>54</ele>
        <time>2018-01-23T12:19:36Z</time>
      </trkpt>
      <trkpt lat="62.63950360073" lon="17.993413749711">
        <ele>54.2</ele>
        <time>2018-01-23T12:19:37Z</time>
      </trkpt>
      <trkpt lat="62.639497062848" lon="17.993462113274">
        <ele>54.2</ele>
        <time>2018-01-23T12:19:38Z</time>
      </trkpt>
      <trkpt lat="62.639488429491" lon="17.993532688872">
        <ele>54.2</ele>
        <time>2018-01-23T12:19:39Z</time>
      </trkpt>
      <trkpt lat="62.639487256025" lon="17.993569066318">
        <ele>54.2</ele>
        <time>2018-01-23T12:19:40Z</time>
      </trkpt>
      <trkpt lat="62.639473677347" lon="17.993620279727">
        <ele>54.2</ele>
        <time>2018-01-23T12:19:41Z</time>
      </trkpt>
      <trkpt lat="62.639463199972" lon="17.993686664375">
        <ele>54.2</ele>
        <time>2018-01-23T12:19:42Z</time>
      </trkpt>
      <trkpt lat="62.639461104497" lon="17.993705858926">
        <ele>54.2</ele>
        <time>2018-01-23T12:19:43Z</time>
      </trkpt>
      <trkpt lat="62.639436964625" lon="17.993776015429">
        <ele>54.2</ele>
        <time>2018-01-23T12:19:44Z</time>
      </trkpt>
      <trkpt lat="62.639424056499" lon="17.993807028459">
        <ele>54.2</ele>
        <time>2018-01-23T12:19:45Z</time>
      </trkpt>
      <trkpt lat="62.639411986563" lon="17.9938354431">
        <ele>54.2</ele>
        <time>2018-01-23T12:19:46Z</time>
      </trkpt>
      <trkpt lat="62.639389439252" lon="17.993880286265">
        <ele>54.2</ele>
        <time>2018-01-23T12:19:47Z</time>
      </trkpt>
      <trkpt lat="62.639373765099" lon="17.993910544924">
        <ele>54.2</ele>
        <time>2018-01-23T12:19:48Z</time>
      </trkpt>
      <trkpt lat="62.639363958276" lon="17.993938037556">
        <ele>54.2</ele>
        <time>2018-01-23T12:19:49Z</time>
      </trkpt>
      <trkpt lat="62.639345853372" lon="17.993968547672">
        <ele>54.4</ele>
        <time>2018-01-23T12:19:50Z</time>
      </trkpt>
      <trkpt lat="62.639330765952" lon="17.994006769136">
        <ele>54.6</ele>
        <time>2018-01-23T12:19:51Z</time>
      </trkpt>
      <trkpt lat="62.639314253609" lon="17.994016408321">
        <ele>54.8</ele>
        <time>2018-01-23T12:19:52Z</time>
      </trkpt>
      <trkpt lat="62.639300842569" lon="17.994031747198">
        <ele>54.8</ele>
        <time>2018-01-23T12:19:53Z</time>
      </trkpt>
      <trkpt lat="62.639289946099" lon="17.994060832391">
        <ele>54.8</ele>
        <time>2018-01-23T12:19:54Z</time>
      </trkpt>
      <trkpt lat="62.639278462896" lon="17.994088827937">
        <ele>55</ele>
        <time>2018-01-23T12:19:55Z</time>
      </trkpt>
      <trkpt lat="62.639269661901" lon="17.994120679157">
        <ele>55</ele>
        <time>2018-01-23T12:19:56Z</time>
      </trkpt>
      <trkpt lat="62.639259184526" lon="17.994154877309">
        <ele>55.2</ele>
        <time>2018-01-23T12:19:57Z</time>
      </trkpt>
      <trkpt lat="62.639243258916" lon="17.994201648311">
        <ele>55.4</ele>
        <time>2018-01-23T12:19:58Z</time>
      </trkpt>
      <trkpt lat="62.639229428781" lon="17.994249425141">
        <ele>55.6</ele>
        <time>2018-01-23T12:19:59Z</time>
      </trkpt>
      <trkpt lat="62.639220711605" lon="17.994284377664">
        <ele>55.8</ele>
        <time>2018-01-23T12:20:00Z</time>
      </trkpt>
      <trkpt lat="62.639211742972" lon="17.99431991692">
        <ele>56</ele>
        <time>2018-01-23T12:20:01Z</time>
      </trkpt>
      <trkpt lat="62.639187938376" lon="17.994371633243">
        <ele>56.2</ele>
        <time>2018-01-23T12:20:02Z</time>
      </trkpt>
      <trkpt lat="62.63918173577" lon="17.994399880246">
        <ele>56.4</ele>
        <time>2018-01-23T12:20:03Z</time>
      </trkpt>
      <trkpt lat="62.639166564531" lon="17.994453440587">
        <ele>56.4</ele>
        <time>2018-01-23T12:20:04Z</time>
      </trkpt>
      <trkpt lat="62.63914736998" lon="17.994501217417">
        <ele>56.4</ele>
        <time>2018-01-23T12:20:05Z</time>
      </trkpt>
      <trkpt lat="62.639137060243" lon="17.99453868451">
        <ele>56.4</ele>
        <time>2018-01-23T12:20:06Z</time>
      </trkpt>
      <trkpt lat="62.639129684171" lon="17.99456215383">
        <ele>56.4</ele>
        <time>2018-01-23T12:20:07Z</time>
      </trkpt>
      <trkpt lat="62.63911132781" lon="17.994608673375">
        <ele>56.4</ele>
        <time>2018-01-23T12:20:08Z</time>
      </trkpt>
      <trkpt lat="62.639091714164" lon="17.994655528196">
        <ele>56.6</ele>
        <time>2018-01-23T12:20:09Z</time>
      </trkpt>
      <trkpt lat="62.639089953965" lon="17.994675812394">
        <ele>56.8</ele>
        <time>2018-01-23T12:20:10Z</time>
      </trkpt>
      <trkpt lat="62.639063718618" lon="17.994734318056">
        <ele>56.8</ele>
        <time>2018-01-23T12:20:11Z</time>
      </trkpt>
      <trkpt lat="62.639049134112" lon="17.994764325258">
        <ele>57</ele>
        <time>2018-01-23T12:20:12Z</time>
      </trkpt>
      <trkpt lat="62.639044440248" lon="17.994792320804">
        <ele>57</ele>
        <time>2018-01-23T12:20:13Z</time>
      </trkpt>
      <trkpt lat="62.639019210729" lon="17.994835068494">
        <ele>57.2</ele>
        <time>2018-01-23T12:20:14Z</time>
      </trkpt>
      <trkpt lat="62.639010242096" lon="17.994856777615">
        <ele>57.2</ele>
        <time>2018-01-23T12:20:15Z</time>
      </trkpt>
      <trkpt lat="62.639003955671" lon="17.994884354066">
        <ele>57.4</ele>
        <time>2018-01-23T12:20:16Z</time>
      </trkpt>
      <trkpt lat="62.638983587654" lon="17.994918719856">
        <ele>57.4</ele>
        <time>2018-01-23T12:20:17Z</time>
      </trkpt>
      <trkpt lat="62.638969003148" lon="17.994940764253">
        <ele>57.4</ele>
        <time>2018-01-23T12:20:18Z</time>
      </trkpt>
      <trkpt lat="62.638951484977" lon="17.994973537482">
        <ele>57.4</ele>
        <time>2018-01-23T12:20:19Z</time>
      </trkpt>
      <trkpt lat="62.638942264887" lon="17.994987870531">
        <ele>57.4</ele>
        <time>2018-01-23T12:20:20Z</time>
      </trkpt>
      <trkpt lat="62.638927428924" lon="17.995019051199">
        <ele>57.4</ele>
        <time>2018-01-23T12:20:21Z</time>
      </trkpt>
      <trkpt lat="62.638912760599" lon="17.995047633478">
        <ele>57.6</ele>
        <time>2018-01-23T12:20:22Z</time>
      </trkpt>
      <trkpt lat="62.638898762826" lon="17.995088034236">
        <ele>57.8</ele>
        <time>2018-01-23T12:20:23Z</time>
      </trkpt>
      <trkpt lat="62.638880155008" lon="17.995122986759">
        <ele>58</ele>
        <time>2018-01-23T12:20:24Z</time>
      </trkpt>
      <trkpt lat="62.638870432004" lon="17.995149892658">
        <ele>58.2</ele>
        <time>2018-01-23T12:20:25Z</time>
      </trkpt>
      <trkpt lat="62.638841095354" lon="17.995208314501">
        <ele>58.4</ele>
        <time>2018-01-23T12:20:26Z</time>
      </trkpt>
      <trkpt lat="62.638829360694" lon="17.995224575387">
        <ele>58.4</ele>
        <time>2018-01-23T12:20:27Z</time>
      </trkpt>
      <trkpt lat="62.638821565527" lon="17.995251313648">
        <ele>58.6</ele>
        <time>2018-01-23T12:20:28Z</time>
      </trkpt>
      <trkpt lat="62.638805975193" lon="17.995276040253">
        <ele>58.8</ele>
        <time>2018-01-23T12:20:29Z</time>
      </trkpt>
      <trkpt lat="62.638781667683" lon="17.995323397988">
        <ele>58.8</ele>
        <time>2018-01-23T12:20:30Z</time>
      </trkpt>
      <trkpt lat="62.638768927195" lon="17.99535591976">
        <ele>58.8</ele>
        <time>2018-01-23T12:20:31Z</time>
      </trkpt>
      <trkpt lat="62.638748559178" lon="17.99539782926">
        <ele>58.8</ele>
        <time>2018-01-23T12:20:32Z</time>
      </trkpt>
      <trkpt lat="62.638731963016" lon="17.995414676879">
        <ele>58.8</ele>
        <time>2018-01-23T12:20:33Z</time>
      </trkpt>
      <trkpt lat="62.638719390166" lon="17.995444181167">
        <ele>58.8</ele>
        <time>2018-01-23T12:20:34Z</time>
      </trkpt>
      <trkpt lat="62.638707906963" lon="17.995471422342">
        <ele>58.8</ele>
        <time>2018-01-23T12:20:35Z</time>
      </trkpt>
      <trkpt lat="62.638680079055" lon="17.995518947715">
        <ele>59</ele>
        <time>2018-01-23T12:20:36Z</time>
      </trkpt>
      <trkpt lat="62.638675552829" lon="17.995541495026">
        <ele>59</ele>
        <time>2018-01-23T12:20:37Z</time>
      </trkpt>
      <trkpt lat="62.638655603907" lon="17.995579213576">
        <ele>59</ele>
        <time>2018-01-23T12:20:38Z</time>
      </trkpt>
      <trkpt lat="62.638627775999" lon="17.995623721465">
        <ele>59.2</ele>
        <time>2018-01-23T12:20:39Z</time>
      </trkpt>
      <trkpt lat="62.638621070479" lon="17.995648867165">
        <ele>59.2</ele>
        <time>2018-01-23T12:20:40Z</time>
      </trkpt>
      <trkpt lat="62.638605480145" lon="17.995685244611">
        <ele>59.2</ele>
        <time>2018-01-23T12:20:41Z</time>
      </trkpt>
      <trkpt lat="62.638581675549" lon="17.995726148283">
        <ele>59.2</ele>
        <time>2018-01-23T12:20:42Z</time>
      </trkpt>
      <trkpt lat="62.638564492654" lon="17.995761100806">
        <ele>59.4</ele>
        <time>2018-01-23T12:20:43Z</time>
      </trkpt>
      <trkpt lat="62.638559128238" lon="17.995783480479">
        <ele>59.4</ele>
        <time>2018-01-23T12:20:44Z</time>
      </trkpt>
      <trkpt lat="62.638532892891" lon="17.995835029164">
        <ele>59.6</ele>
        <time>2018-01-23T12:20:45Z</time>
      </trkpt>
      <trkpt lat="62.638515458539" lon="17.995872747714">
        <ele>59.6</ele>
        <time>2018-01-23T12:20:46Z</time>
      </trkpt>
      <trkpt lat="62.638507411915" lon="17.995927816797">
        <ele>59.6</ele>
        <time>2018-01-23T12:20:47Z</time>
      </trkpt>
      <trkpt lat="62.63849525816" lon="17.995973749609">
        <ele>59.8</ele>
        <time>2018-01-23T12:20:48Z</time>
      </trkpt>
      <trkpt lat="62.638468687537" lon="17.996009121227">
        <ele>59.8</ele>
        <time>2018-01-23T12:20:49Z</time>
      </trkpt>
      <trkpt lat="62.638448990072" lon="17.996029070149">
        <ele>60</ele>
        <time>2018-01-23T12:20:50Z</time>
      </trkpt>
      <trkpt lat="62.638435159937" lon="17.996052539469">
        <ele>60.2</ele>
        <time>2018-01-23T12:20:51Z</time>
      </trkpt>
      <trkpt lat="62.638422754725" lon="17.996082462852">
        <ele>60.4</ele>
        <time>2018-01-23T12:20:52Z</time>
      </trkpt>
      <trkpt lat="62.638414289006" lon="17.996095622435">
        <ele>60.4</ele>
        <time>2018-01-23T12:20:53Z</time>
      </trkpt>
      <trkpt lat="62.638393585713" lon="17.996124875266">
        <ele>60.4</ele>
        <time>2018-01-23T12:20:54Z</time>
      </trkpt>
      <trkpt lat="62.638389813858" lon="17.996156223572">
        <ele>60.6</ele>
        <time>2018-01-23T12:20:55Z</time>
      </trkpt>
      <trkpt lat="62.638367182728" lon="17.996189834991">
        <ele>60.6</ele>
        <time>2018-01-23T12:20:56Z</time>
      </trkpt>
      <trkpt lat="62.638346144159" lon="17.996235013432">
        <ele>60.8</ele>
        <time>2018-01-23T12:20:57Z</time>
      </trkpt>
      <trkpt lat="62.6383410312" lon="17.996260159132">
        <ele>60.8</ele>
        <time>2018-01-23T12:20:58Z</time>
      </trkpt>
      <trkpt lat="62.638320327907" lon="17.99630139808">
        <ele>60.8</ele>
        <time>2018-01-23T12:20:59Z</time>
      </trkpt>
      <trkpt lat="62.638290655981" lon="17.996318245699">
        <ele>60.8</ele>
        <time>2018-01-23T12:21:00Z</time>
      </trkpt>
      <trkpt lat="62.63829325437" lon="17.996346325064">
        <ele>61</ele>
        <time>2018-01-23T12:21:01Z</time>
      </trkpt>
      <trkpt lat="62.638281352072" lon="17.996379182112">
        <ele>61</ele>
        <time>2018-01-23T12:21:02Z</time>
      </trkpt>
      <trkpt lat="62.638265761738" lon="17.996418828499">
        <ele>61</ele>
        <time>2018-01-23T12:21:03Z</time>
      </trkpt>
      <trkpt lat="62.638254110897" lon="17.99642712658">
        <ele>61.2</ele>
        <time>2018-01-23T12:21:04Z</time>
      </trkpt>
      <trkpt lat="62.638243465884" lon="17.996459145438">
        <ele>61.4</ele>
        <time>2018-01-23T12:21:05Z</time>
      </trkpt>
      <trkpt lat="62.638216895261" lon="17.996526116819">
        <ele>61.2</ele>
        <time>2018-01-23T12:21:06Z</time>
      </trkpt>
      <trkpt lat="62.638213793958" lon="17.996532403244">
        <ele>61.4</ele>
        <time>2018-01-23T12:21:07Z</time>
      </trkpt>
      <trkpt lat="62.638186049869" lon="17.996575402391">
        <ele>61.4</ele>
        <time>2018-01-23T12:21:08Z</time>
      </trkpt>
      <trkpt lat="62.63816249673" lon="17.99662074847">
        <ele>61.4</ele>
        <time>2018-01-23T12:21:09Z</time>
      </trkpt>
      <trkpt lat="62.638144559464" lon="17.996642038496">
        <ele>61.4</ele>
        <time>2018-01-23T12:21:10Z</time>
      </trkpt>
      <trkpt lat="62.638134082089" lon="17.996668357662">
        <ele>61.6</ele>
        <time>2018-01-23T12:21:11Z</time>
      </trkpt>
      <trkpt lat="62.638115725728" lon="17.99671630213">
        <ele>61.6</ele>
        <time>2018-01-23T12:21:12Z</time>
      </trkpt>
      <trkpt lat="62.63809711791" lon="17.996746644608">
        <ele>61.6</ele>
        <time>2018-01-23T12:21:13Z</time>
      </trkpt>
      <trkpt lat="62.63809041239" lon="17.996765084788">
        <ele>61.8</ele>
        <time>2018-01-23T12:21:14Z</time>
      </trkpt>
      <trkpt lat="62.638076917531" lon="17.996791990687">
        <ele>61.8</ele>
        <time>2018-01-23T12:21:15Z</time>
      </trkpt>
      <trkpt lat="62.63806359031" lon="17.996814957093">
        <ele>62</ele>
        <time>2018-01-23T12:21:16Z</time>
      </trkpt>
      <trkpt lat="62.63804431194" lon="17.996847814141">
        <ele>62.2</ele>
        <time>2018-01-23T12:21:17Z</time>
      </trkpt>
      <trkpt lat="62.638031152357" lon="17.996874636221">
        <ele>62.4</ele>
        <time>2018-01-23T12:21:18Z</time>
      </trkpt>
      <trkpt lat="62.63801748986" lon="17.996894668962">
        <ele>62.6</ele>
        <time>2018-01-23T12:21:19Z</time>
      </trkpt>
      <trkpt lat="62.638002318621" lon="17.9969032185">
        <ele>62.8</ele>
        <time>2018-01-23T12:21:20Z</time>
      </trkpt>
      <trkpt lat="62.63798647683" lon="17.996922413051">
        <ele>63</ele>
        <time>2018-01-23T12:21:21Z</time>
      </trkpt>
      <trkpt lat="62.637958229827" lon="17.996948899855">
        <ele>63.2</ele>
        <time>2018-01-23T12:21:22Z</time>
      </trkpt>
      <trkpt lat="62.637948925918" lon="17.996959796325">
        <ele>63.2</ele>
        <time>2018-01-23T12:21:23Z</time>
      </trkpt>
      <trkpt lat="62.637928725539" lon="17.996987624233">
        <ele>63.2</ele>
        <time>2018-01-23T12:21:24Z</time>
      </trkpt>
      <trkpt lat="62.637906262047" lon="17.997031880665">
        <ele>63.2</ele>
        <time>2018-01-23T12:21:25Z</time>
      </trkpt>
      <trkpt lat="62.637888660057" lon="17.997061720229">
        <ele>63.2</ele>
        <time>2018-01-23T12:21:26Z</time>
      </trkpt>
      <trkpt lat="62.637887151315" lon="17.997088123214">
        <ele>63.4</ele>
        <time>2018-01-23T12:21:27Z</time>
      </trkpt>
      <trkpt lat="62.637868878773" lon="17.997135900044">
        <ele>63.4</ele>
        <time>2018-01-23T12:21:28Z</time>
      </trkpt>
      <trkpt lat="62.637848846032" lon="17.997163476495">
        <ele>63.4</ele>
        <time>2018-01-23T12:21:29Z</time>
      </trkpt>
      <trkpt lat="62.637840799408" lon="17.997195830629">
        <ele>63.6</ele>
        <time>2018-01-23T12:21:30Z</time>
      </trkpt>
      <trkpt lat="62.637818084459" lon="17.997236315206">
        <ele>63.6</ele>
        <time>2018-01-23T12:21:31Z</time>
      </trkpt>
      <trkpt lat="62.637790088913" lon="17.997260455078">
        <ele>63.6</ele>
        <time>2018-01-23T12:21:32Z</time>
      </trkpt>
      <trkpt lat="62.637787490524" lon="17.997277386516">
        <ele>63.8</ele>
        <time>2018-01-23T12:21:33Z</time>
      </trkpt>
      <trkpt lat="62.637756645132" lon="17.997339831671">
        <ele>63.8</ele>
        <time>2018-01-23T12:21:34Z</time>
      </trkpt>
      <trkpt lat="62.637744826653" lon="17.997377131126">
        <ele>63.8</ele>
        <time>2018-01-23T12:21:35Z</time>
      </trkpt>
      <trkpt lat="62.637733930183" lon="17.99741283802">
        <ele>64</ele>
        <time>2018-01-23T12:21:36Z</time>
      </trkpt>
      <trkpt lat="62.637714651813" lon="17.997459609022">
        <ele>63.8</ele>
        <time>2018-01-23T12:21:37Z</time>
      </trkpt>
      <trkpt lat="62.637708365388" lon="17.997491460242">
        <ele>64</ele>
        <time>2018-01-23T12:21:38Z</time>
      </trkpt>
      <trkpt lat="62.637697720375" lon="17.997530855172">
        <ele>64</ele>
        <time>2018-01-23T12:21:39Z</time>
      </trkpt>
      <trkpt lat="62.637674837788" lon="17.997597994191">
        <ele>64</ele>
        <time>2018-01-23T12:21:40Z</time>
      </trkpt>
      <trkpt lat="62.637668048449" lon="17.997628588126">
        <ele>64.2</ele>
        <time>2018-01-23T12:21:41Z</time>
      </trkpt>
      <trkpt lat="62.637661007653" lon="17.997668821246">
        <ele>64.2</ele>
        <time>2018-01-23T12:21:42Z</time>
      </trkpt>
      <trkpt lat="62.637643154206" lon="17.997728416555">
        <ele>64.2</ele>
        <time>2018-01-23T12:21:43Z</time>
      </trkpt>
      <trkpt lat="62.637624797845" lon="17.997759094309">
        <ele>64</ele>
        <time>2018-01-23T12:21:44Z</time>
      </trkpt>
      <trkpt lat="62.63762102599" lon="17.997804859483">
        <ele>64.2</ele>
        <time>2018-01-23T12:21:45Z</time>
      </trkpt>
      <trkpt lat="62.637608536959" lon="17.997855067064">
        <ele>64.2</ele>
        <time>2018-01-23T12:21:46Z</time>
      </trkpt>
      <trkpt lat="62.637598646317" lon="17.997874513072">
        <ele>64.2</ele>
        <time>2018-01-23T12:21:47Z</time>
      </trkpt>
      <trkpt lat="62.63758330744" lon="17.997927905775">
        <ele>64.2</ele>
        <time>2018-01-23T12:21:48Z</time>
      </trkpt>
      <trkpt lat="62.637569644943" lon="17.997964953773">
        <ele>64.2</ele>
        <time>2018-01-23T12:21:49Z</time>
      </trkpt>
      <trkpt lat="62.637562101233" lon="17.998010383671">
        <ele>64.4</ele>
        <time>2018-01-23T12:21:50Z</time>
      </trkpt>
      <trkpt lat="62.637542655225" lon="17.998061261804">
        <ele>64.4</ele>
        <time>2018-01-23T12:21:51Z</time>
      </trkpt>
      <trkpt lat="62.637528573633" lon="17.99808841916">
        <ele>64.4</ele>
        <time>2018-01-23T12:21:52Z</time>
      </trkpt>
      <trkpt lat="62.637516168421" lon="17.998113816317">
        <ele>64.2</ele>
        <time>2018-01-23T12:21:53Z</time>
      </trkpt>
      <trkpt lat="62.637491274178" lon="17.998148098288">
        <ele>64.2</ele>
        <time>2018-01-23T12:21:54Z</time>
      </trkpt>
      <trkpt lat="62.6374776955" lon="17.998181206793">
        <ele>64.2</ele>
        <time>2018-01-23T12:21:55Z</time>
      </trkpt>
      <trkpt lat="62.637456992207" lon="17.998215907859">
        <ele>64.4</ele>
        <time>2018-01-23T12:21:56Z</time>
      </trkpt>
      <trkpt lat="62.637431762688" lon="17.998249100183">
        <ele>64.4</ele>
        <time>2018-01-23T12:21:57Z</time>
      </trkpt>
      <trkpt lat="62.637407958092" lon="17.998276341358">
        <ele>64.4</ele>
        <time>2018-01-23T12:21:58Z</time>
      </trkpt>
      <trkpt lat="62.637385662238" lon="17.998291428778">
        <ele>64.6</ele>
        <time>2018-01-23T12:21:59Z</time>
      </trkpt>
      <trkpt lat="62.637369317533" lon="17.998312802623">
        <ele>64.8</ele>
        <time>2018-01-23T12:22:00Z</time>
      </trkpt>
      <trkpt lat="62.637352637552" lon="17.998338702694">
        <ele>64.8</ele>
        <time>2018-01-23T12:22:01Z</time>
      </trkpt>
      <trkpt lat="62.637338388322" lon="17.998367704068">
        <ele>65.2</ele>
        <time>2018-01-23T12:22:02Z</time>
      </trkpt>
      <trkpt lat="62.637323300902" lon="17.998404584428">
        <ele>65.2</ele>
        <time>2018-01-23T12:22:03Z</time>
      </trkpt>
      <trkpt lat="62.637292120234" lon="17.998463760642">
        <ele>65.2</ele>
        <time>2018-01-23T12:22:04Z</time>
      </trkpt>
      <trkpt lat="62.637286169085" lon="17.998489409256">
        <ele>65.4</ele>
        <time>2018-01-23T12:22:05Z</time>
      </trkpt>
      <trkpt lat="62.637254234046" lon="17.998529726195">
        <ele>65.4</ele>
        <time>2018-01-23T12:22:06Z</time>
      </trkpt>
      <trkpt lat="62.637238392255" lon="17.998581442518">
        <ele>65.2</ele>
        <time>2018-01-23T12:22:07Z</time>
      </trkpt>
      <trkpt lat="62.637229507441" lon="17.998607510227">
        <ele>65.4</ele>
        <time>2018-01-23T12:22:08Z</time>
      </trkpt>
      <trkpt lat="62.637196734212" lon="17.998676241807">
        <ele>65.4</ele>
        <time>2018-01-23T12:22:09Z</time>
      </trkpt>
      <trkpt lat="62.637187849398" lon="17.998702309516">
        <ele>65.4</ele>
        <time>2018-01-23T12:22:10Z</time>
      </trkpt>
      <trkpt lat="62.637171001779" lon="17.998743297007">
        <ele>65.4</ele>
        <time>2018-01-23T12:22:11Z</time>
      </trkpt>
      <trkpt lat="62.637144514975" lon="17.998793253131">
        <ele>65.4</ele>
        <time>2018-01-23T12:22:12Z</time>
      </trkpt>
      <trkpt lat="62.637130014288" lon="17.998822925057">
        <ele>65.4</ele>
        <time>2018-01-23T12:22:13Z</time>
      </trkpt>
      <trkpt lat="62.637117357619" lon="17.998850082413">
        <ele>65.6</ele>
        <time>2018-01-23T12:22:14Z</time>
      </trkpt>
      <trkpt lat="62.637095229403" lon="17.998893165379">
        <ele>65.6</ele>
        <time>2018-01-23T12:22:15Z</time>
      </trkpt>
      <trkpt lat="62.637071760083" lon="17.998917808165">
        <ele>65.8</ele>
        <time>2018-01-23T12:22:16Z</time>
      </trkpt>
      <trkpt lat="62.637061534165" lon="17.998944797883">
        <ele>65.8</ele>
        <time>2018-01-23T12:22:17Z</time>
      </trkpt>
      <trkpt lat="62.637039908863" lon="17.998982264976">
        <ele>65.8</ele>
        <time>2018-01-23T12:22:18Z</time>
      </trkpt>
      <trkpt lat="62.637018032104" lon="17.999017804232">
        <ele>65.8</ele>
        <time>2018-01-23T12:22:19Z</time>
      </trkpt>
      <trkpt lat="62.63700495634" lon="17.999027694874">
        <ele>66</ele>
        <time>2018-01-23T12:22:20Z</time>
      </trkpt>
      <trkpt lat="62.636992215852" lon="17.999044542493">
        <ele>65.8</ele>
        <time>2018-01-23T12:22:21Z</time>
      </trkpt>
      <trkpt lat="62.636961035184" lon="17.999065581062">
        <ele>66</ele>
        <time>2018-01-23T12:22:22Z</time>
      </trkpt>
      <trkpt lat="62.636945863945" lon="17.999086619631">
        <ele>66</ele>
        <time>2018-01-23T12:22:23Z</time>
      </trkpt>
      <trkpt lat="62.636927172308" lon="17.999111513874">
        <ele>66.2</ele>
        <time>2018-01-23T12:22:24Z</time>
      </trkpt>
      <trkpt lat="62.636910743784" lon="17.999137665402">
        <ele>66.4</ele>
        <time>2018-01-23T12:22:25Z</time>
      </trkpt>
      <trkpt lat="62.636899092943" lon="17.999173456115">
        <ele>66.6</ele>
        <time>2018-01-23T12:22:26Z</time>
      </trkpt>
      <trkpt lat="62.636885849541" lon="17.999198266539">
        <ele>66.6</ele>
        <time>2018-01-23T12:22:27Z</time>
      </trkpt>
      <trkpt lat="62.636872941415" lon="17.999218466918">
        <ele>66.8</ele>
        <time>2018-01-23T12:22:28Z</time>
      </trkpt>
      <trkpt lat="62.636856931986" lon="17.999240427496">
        <ele>67</ele>
        <time>2018-01-23T12:22:29Z</time>
      </trkpt>
      <trkpt lat="62.636835055227" lon="17.999271189069">
        <ele>67</ele>
        <time>2018-01-23T12:22:30Z</time>
      </trkpt>
      <trkpt lat="62.636823152929" lon="17.99930128009">
        <ele>67.2</ele>
        <time>2018-01-23T12:22:31Z</time>
      </trkpt>
      <trkpt lat="62.636802868731" lon="17.999320809917">
        <ele>67.4</ele>
        <time>2018-01-23T12:22:32Z</time>
      </trkpt>
      <trkpt lat="62.636777555393" lon="17.999356181535">
        <ele>67.6</ele>
        <time>2018-01-23T12:22:33Z</time>
      </trkpt>
      <trkpt lat="62.636764479629" lon="17.999380153769">
        <ele>67.6</ele>
        <time>2018-01-23T12:22:34Z</time>
      </trkpt>
      <trkpt lat="62.636747464372" lon="17.999401108519">
        <ele>67.6</ele>
        <time>2018-01-23T12:22:35Z</time>
      </trkpt>
      <trkpt lat="62.63672080993" lon="17.999435306671">
        <ele>67.6</ele>
        <time>2018-01-23T12:22:36Z</time>
      </trkpt>
      <trkpt lat="62.636717708627" lon="17.999458608353">
        <ele>67.6</ele>
        <time>2018-01-23T12:22:37Z</time>
      </trkpt>
      <trkpt lat="62.636689293986" lon="17.9995016075">
        <ele>67.6</ele>
        <time>2018-01-23T12:22:38Z</time>
      </trkpt>
      <trkpt lat="62.636669428883" lon="17.999538236403">
        <ele>67.8</ele>
        <time>2018-01-23T12:22:39Z</time>
      </trkpt>
      <trkpt lat="62.636663477734" lon="17.999573775659">
        <ele>67.8</ele>
        <time>2018-01-23T12:22:40Z</time>
      </trkpt>
      <trkpt lat="62.636647133029" lon="17.999616523349">
        <ele>68</ele>
        <time>2018-01-23T12:22:41Z</time>
      </trkpt>
      <trkpt lat="62.636629782496" lon="17.999667736758">
        <ele>68.2</ele>
        <time>2018-01-23T12:22:42Z</time>
      </trkpt>
      <trkpt lat="62.63662357989" lon="17.999702018729">
        <ele>68.2</ele>
        <time>2018-01-23T12:22:43Z</time>
      </trkpt>
      <trkpt lat="62.636597093086" lon="17.999765134436">
        <ele>68.2</ele>
        <time>2018-01-23T12:22:44Z</time>
      </trkpt>
      <trkpt lat="62.636589130281" lon="17.999804780823">
        <ele>68.2</ele>
        <time>2018-01-23T12:22:45Z</time>
      </trkpt>
      <trkpt lat="62.636574210499" lon="17.999857251517">
        <ele>68</ele>
        <time>2018-01-23T12:22:46Z</time>
      </trkpt>
      <trkpt lat="62.636558117251" lon="17.999902597596">
        <ele>68</ele>
        <time>2018-01-23T12:22:47Z</time>
      </trkpt>
      <trkpt lat="62.636550824998" lon="17.999936209015">
        <ele>68</ele>
        <time>2018-01-23T12:22:48Z</time>
      </trkpt>
      <trkpt lat="62.636538755062" lon="17.999980549266">
        <ele>68</ele>
        <time>2018-01-23T12:22:49Z</time>
      </trkpt>
      <trkpt lat="62.636524170556" lon="18.000027068811">
        <ele>68</ele>
        <time>2018-01-23T12:22:50Z</time>
      </trkpt>
      <trkpt lat="62.636516710665" lon="18.000066296103">
        <ele>68.2</ele>
        <time>2018-01-23T12:22:51Z</time>
      </trkpt>
      <trkpt lat="62.636510256602" lon="18.000103344101">
        <ele>68.2</ele>
        <time>2018-01-23T12:22:52Z</time>
      </trkpt>
      <trkpt lat="62.636492067879" lon="18.0001637776">
        <ele>68.2</ele>
        <time>2018-01-23T12:22:53Z</time>
      </trkpt>
      <trkpt lat="62.636484021255" lon="18.000195712639">
        <ele>68.2</ele>
        <time>2018-01-23T12:22:54Z</time>
      </trkpt>
      <trkpt lat="62.636472789509" lon="18.000243740926">
        <ele>68.4</ele>
        <time>2018-01-23T12:22:55Z</time>
      </trkpt>
      <trkpt lat="62.636460216659" lon="18.000285650426">
        <ele>68.2</ele>
        <time>2018-01-23T12:22:56Z</time>
      </trkpt>
      <trkpt lat="62.636452170035" lon="18.000321860234">
        <ele>68.2</ele>
        <time>2018-01-23T12:22:57Z</time>
      </trkpt>
      <trkpt lat="62.636438507538" lon="18.000365865209">
        <ele>68.2</ele>
        <time>2018-01-23T12:22:58Z</time>
      </trkpt>
      <trkpt lat="62.636428030163" lon="18.000415569876">
        <ele>68.2</ele>
        <time>2018-01-23T12:22:59Z</time>
      </trkpt>
      <trkpt lat="62.636421827557" lon="18.000449348933">
        <ele>68.4</ele>
        <time>2018-01-23T12:23:00Z</time>
      </trkpt>
      <trkpt lat="62.636399280246" lon="18.000506429672">
        <ele>68.4</ele>
        <time>2018-01-23T12:23:01Z</time>
      </trkpt>
      <trkpt lat="62.636388467595" lon="18.000539370539">
        <ele>68.2</ele>
        <time>2018-01-23T12:23:02Z</time>
      </trkpt>
      <trkpt lat="62.636383689912" lon="18.000576083261">
        <ele>68.4</ele>
        <time>2018-01-23T12:23:03Z</time>
      </trkpt>
      <trkpt lat="62.63636374099" lon="18.000621345521">
        <ele>68.4</ele>
        <time>2018-01-23T12:23:04Z</time>
      </trkpt>
      <trkpt lat="62.63635116814" lon="18.000668200342">
        <ele>68.4</ele>
        <time>2018-01-23T12:23:05Z</time>
      </trkpt>
      <trkpt lat="62.636347563923" lon="18.000698626639">
        <ele>68.4</ele>
        <time>2018-01-23T12:23:06Z</time>
      </trkpt>
      <trkpt lat="62.636320658024" lon="18.000761490889">
        <ele>68.4</ele>
        <time>2018-01-23T12:23:07Z</time>
      </trkpt>
      <trkpt lat="62.636306241156" lon="18.000790156987">
        <ele>68.4</ele>
        <time>2018-01-23T12:23:08Z</time>
      </trkpt>
      <trkpt lat="62.636295512324" lon="18.000834832514">
        <ele>68.4</ele>
        <time>2018-01-23T12:23:09Z</time>
      </trkpt>
      <trkpt lat="62.636271623909" lon="18.000901049524">
        <ele>68.4</ele>
        <time>2018-01-23T12:23:10Z</time>
      </trkpt>
      <trkpt lat="62.636261817086" lon="18.000939187169">
        <ele>68.6</ele>
        <time>2018-01-23T12:23:11Z</time>
      </trkpt>
      <trkpt lat="62.636246478209" lon="18.000978163004">
        <ele>68.4</ele>
        <time>2018-01-23T12:23:12Z</time>
      </trkpt>
      <trkpt lat="62.636231139332" lon="18.001012444975">
        <ele>68.4</ele>
        <time>2018-01-23T12:23:13Z</time>
      </trkpt>
      <trkpt lat="62.636219404672" lon="18.001058545425">
        <ele>68.6</ele>
        <time>2018-01-23T12:23:14Z</time>
      </trkpt>
      <trkpt lat="62.636197192637" lon="18.001113363051">
        <ele>68.6</ele>
        <time>2018-01-23T12:23:15Z</time>
      </trkpt>
      <trkpt lat="62.636189229832" lon="18.001157200388">
        <ele>68.6</ele>
        <time>2018-01-23T12:23:16Z</time>
      </trkpt>
      <trkpt lat="62.636178249543" lon="18.001182681364">
        <ele>68.6</ele>
        <time>2018-01-23T12:23:17Z</time>
      </trkpt>
      <trkpt lat="62.636153439119" lon="18.00124336632">
        <ele>68.6</ele>
        <time>2018-01-23T12:23:18Z</time>
      </trkpt>
      <trkpt lat="62.63613910607" lon="18.001275971911">
        <ele>68.6</ele>
        <time>2018-01-23T12:23:19Z</time>
      </trkpt>
      <trkpt lat="62.636133322559" lon="18.001315199203">
        <ele>68.4</ele>
        <time>2018-01-23T12:23:20Z</time>
      </trkpt>
      <trkpt lat="62.636107087212" lon="18.001382422041">
        <ele>68.4</ele>
        <time>2018-01-23T12:23:21Z</time>
      </trkpt>
      <trkpt lat="62.636100214054" lon="18.00140262242">
        <ele>68.6</ele>
        <time>2018-01-23T12:23:22Z</time>
      </trkpt>
      <trkpt lat="62.636084036987" lon="18.001444280463">
        <ele>68.6</ele>
        <time>2018-01-23T12:23:23Z</time>
      </trkpt>
      <trkpt lat="62.636059142744" lon="18.001500439193">
        <ele>68.6</ele>
        <time>2018-01-23T12:23:24Z</time>
      </trkpt>
      <trkpt lat="62.636057969278" lon="18.001528853834">
        <ele>68.8</ele>
        <time>2018-01-23T12:23:25Z</time>
      </trkpt>
      <trkpt lat="62.636036511614" lon="18.001588281505">
        <ele>68.8</ele>
        <time>2018-01-23T12:23:26Z</time>
      </trkpt>
      <trkpt lat="62.63602092128" lon="18.001629604272">
        <ele>68.8</ele>
        <time>2018-01-23T12:23:27Z</time>
      </trkpt>
      <trkpt lat="62.636012455561" lon="18.001660868759">
        <ele>68.8</ele>
        <time>2018-01-23T12:23:28Z</time>
      </trkpt>
      <trkpt lat="62.635984376196" lon="18.001721805172">
        <ele>68.8</ele>
        <time>2018-01-23T12:23:29Z</time>
      </trkpt>
      <trkpt lat="62.635977000124" lon="18.001755835686">
        <ele>68.6</ele>
        <time>2018-01-23T12:23:30Z</time>
      </trkpt>
      <trkpt lat="62.635951602967" lon="18.001809647484">
        <ele>68.6</ele>
        <time>2018-01-23T12:23:31Z</time>
      </trkpt>
      <trkpt lat="62.635934336253" lon="18.001827165655">
        <ele>68.6</ele>
        <time>2018-01-23T12:23:32Z</time>
      </trkpt>
      <trkpt lat="62.635923523602" lon="18.001870667716">
        <ele>68.6</ele>
        <time>2018-01-23T12:23:33Z</time>
      </trkpt>
      <trkpt lat="62.6359018983" lon="18.001923641324">
        <ele>68.4</ele>
        <time>2018-01-23T12:23:34Z</time>
      </trkpt>
      <trkpt lat="62.635885050681" lon="18.001973597448">
        <ele>68.6</ele>
        <time>2018-01-23T12:23:35Z</time>
      </trkpt>
      <trkpt lat="62.635879015713" lon="18.002002095908">
        <ele>68.6</ele>
        <time>2018-01-23T12:23:36Z</time>
      </trkpt>
      <trkpt lat="62.635847080674" lon="18.002061355941">
        <ele>68.8</ele>
        <time>2018-01-23T12:23:37Z</time>
      </trkpt>
      <trkpt lat="62.635836184204" lon="18.002092201333">
        <ele>68.8</ele>
        <time>2018-01-23T12:23:38Z</time>
      </trkpt>
      <trkpt lat="62.635823359897" lon="18.002129668426">
        <ele>69</ele>
        <time>2018-01-23T12:23:39Z</time>
      </trkpt>
      <trkpt lat="62.635795951084" lon="18.002171494107">
        <ele>69</ele>
        <time>2018-01-23T12:23:40Z</time>
      </trkpt>
      <trkpt lat="62.635782707682" lon="18.002209967028">
        <ele>69</ele>
        <time>2018-01-23T12:23:41Z</time>
      </trkpt>
      <trkpt lat="62.635755634145" lon="18.002256486573">
        <ele>68.8</ele>
        <time>2018-01-23T12:23:42Z</time>
      </trkpt>
      <trkpt lat="62.635755047412" lon="18.00230367667">
        <ele>68.8</ele>
        <time>2018-01-23T12:23:43Z</time>
      </trkpt>
      <trkpt lat="62.635734930852" lon="18.00235061531">
        <ele>69</ele>
        <time>2018-01-23T12:23:44Z</time>
      </trkpt>
      <trkpt lat="62.63572755478" lon="18.002391518982">
        <ele>69</ele>
        <time>2018-01-23T12:23:45Z</time>
      </trkpt>
      <trkpt lat="62.635718837604" lon="18.002449270273">
        <ele>69</ele>
        <time>2018-01-23T12:23:46Z</time>
      </trkpt>
      <trkpt lat="62.635710288066" lon="18.002509955229">
        <ele>68.8</ele>
        <time>2018-01-23T12:23:47Z</time>
      </trkpt>
      <trkpt lat="62.635708108772" lon="18.00256603014">
        <ele>68.8</ele>
        <time>2018-01-23T12:23:48Z</time>
      </trkpt>
      <trkpt lat="62.635693272809" lon="18.002640545231">
        <ele>68.8</ele>
        <time>2018-01-23T12:23:49Z</time>
      </trkpt>
      <trkpt lat="62.635696038836" lon="18.002689495527">
        <ele>68.6</ele>
        <time>2018-01-23T12:23:50Z</time>
      </trkpt>
      <trkpt lat="62.63568145433" lon="18.002769794129">
        <ele>68.6</ele>
        <time>2018-01-23T12:23:51Z</time>
      </trkpt>
      <trkpt lat="62.635681035235" lon="18.002840453546">
        <ele>68.4</ele>
        <time>2018-01-23T12:23:52Z</time>
      </trkpt>
      <trkpt lat="62.635661840684" lon="18.002919327225">
        <ele>68.4</ele>
        <time>2018-01-23T12:23:53Z</time>
      </trkpt>
      <trkpt lat="62.635637533174" lon="18.003009181193">
        <ele>68.2</ele>
        <time>2018-01-23T12:23:54Z</time>
      </trkpt>
      <trkpt lat="62.635631414387" lon="18.003072715995">
        <ele>67.8</ele>
        <time>2018-01-23T12:23:55Z</time>
      </trkpt>
      <trkpt lat="62.635610794913" lon="18.003147566362">
        <ele>67.6</ele>
        <time>2018-01-23T12:23:56Z</time>
      </trkpt>
      <trkpt lat="62.635603921755" lon="18.00320976006">
        <ele>67.2</ele>
        <time>2018-01-23T12:23:57Z</time>
      </trkpt>
      <trkpt lat="62.63558757705" lon="18.003263236582">
        <ele>67</ele>
        <time>2018-01-23T12:23:58Z</time>
      </trkpt>
      <trkpt lat="62.635570310336" lon="18.003332387257">
        <ele>67</ele>
        <time>2018-01-23T12:23:59Z</time>
      </trkpt>
      <trkpt lat="62.635564778282" lon="18.003385277046">
        <ele>66.8</ele>
        <time>2018-01-23T12:24:00Z</time>
      </trkpt>
      <trkpt lat="62.635546673378" lon="18.003462641983">
        <ele>66.6</ele>
        <time>2018-01-23T12:24:01Z</time>
      </trkpt>
      <trkpt lat="62.635534100528" lon="18.003530032459">
        <ele>66.6</ele>
        <time>2018-01-23T12:24:02Z</time>
      </trkpt>
      <trkpt lat="62.635522952601" lon="18.003596836202">
        <ele>66.6</ele>
        <time>2018-01-23T12:24:03Z</time>
      </trkpt>
      <trkpt lat="62.635510295932" lon="18.003675458424">
        <ele>66.2</ele>
        <time>2018-01-23T12:24:04Z</time>
      </trkpt>
      <trkpt lat="62.635497806901" lon="18.003753410094">
        <ele>66.2</ele>
        <time>2018-01-23T12:24:05Z</time>
      </trkpt>
      <trkpt lat="62.635481629834" lon="18.003842006777">
        <ele>66.2</ele>
        <time>2018-01-23T12:24:06Z</time>
      </trkpt>
      <trkpt lat="62.635477522703" lon="18.003910319262">
        <ele>66.2</ele>
        <time>2018-01-23T12:24:07Z</time>
      </trkpt>
      <trkpt lat="62.635460423627" lon="18.003978045014">
        <ele>65.8</ele>
        <time>2018-01-23T12:24:08Z</time>
      </trkpt>
      <trkpt lat="62.635443492189" lon="18.004061193462">
        <ele>65.6</ele>
        <time>2018-01-23T12:24:09Z</time>
      </trkpt>
      <trkpt lat="62.635435613203" lon="18.004123135703">
        <ele>65.6</ele>
        <time>2018-01-23T12:24:10Z</time>
      </trkpt>
      <trkpt lat="62.635420358145" lon="18.004181976641">
        <ele>65.4</ele>
        <time>2018-01-23T12:24:11Z</time>
      </trkpt>
      <trkpt lat="62.635411892426" lon="18.004232770955">
        <ele>65.2</ele>
        <time>2018-01-23T12:24:12Z</time>
      </trkpt>
      <trkpt lat="62.635391356771" lon="18.004299239422">
        <ele>65.2</ele>
        <time>2018-01-23T12:24:13Z</time>
      </trkpt>
      <trkpt lat="62.635376520808" lon="18.004360008197">
        <ele>65.2</ele>
        <time>2018-01-23T12:24:14Z</time>
      </trkpt>
      <trkpt lat="62.635364450872" lon="18.00440082805">
        <ele>65.2</ele>
        <time>2018-01-23T12:24:15Z</time>
      </trkpt>
      <trkpt lat="62.63534701652" lon="18.004458914617">
        <ele>65.4</ele>
        <time>2018-01-23T12:24:16Z</time>
      </trkpt>
      <trkpt lat="62.635336203869" lon="18.00448129429">
        <ele>65.2</ele>
        <time>2018-01-23T12:24:17Z</time>
      </trkpt>
      <trkpt lat="62.635308292142" lon="18.004547595119">
        <ele>65.4</ele>
        <time>2018-01-23T12:24:18Z</time>
      </trkpt>
      <trkpt lat="62.635283900813" lon="18.004584810755">
        <ele>65.2</ele>
        <time>2018-01-23T12:24:19Z</time>
      </trkpt>
      <trkpt lat="62.63526571209" lon="18.00462211021">
        <ele>65.2</ele>
        <time>2018-01-23T12:24:20Z</time>
      </trkpt>
      <trkpt lat="62.635235621069" lon="18.004664774081">
        <ele>65</ele>
        <time>2018-01-23T12:24:21Z</time>
      </trkpt>
      <trkpt lat="62.635209888636" lon="18.004700816251">
        <ele>65</ele>
        <time>2018-01-23T12:24:22Z</time>
      </trkpt>
      <trkpt lat="62.635197567243" lon="18.004718082965">
        <ele>64.8</ele>
        <time>2018-01-23T12:24:23Z</time>
      </trkpt>
      <trkpt lat="62.635161022159" lon="18.004754795687">
        <ele>65</ele>
        <time>2018-01-23T12:24:24Z</time>
      </trkpt>
      <trkpt lat="62.63513746902" lon="18.004783210328">
        <ele>65</ele>
        <time>2018-01-23T12:24:25Z</time>
      </trkpt>
      <trkpt lat="62.635125315265" lon="18.004807517838">
        <ele>65</ele>
        <time>2018-01-23T12:24:26Z</time>
      </trkpt>
      <trkpt lat="62.635093380226" lon="18.004852863917">
        <ele>65</ele>
        <time>2018-01-23T12:24:27Z</time>
      </trkpt>
      <trkpt lat="62.635067480155" lon="18.004881446196">
        <ele>65</ele>
        <time>2018-01-23T12:24:28Z</time>
      </trkpt>
      <trkpt lat="62.635056667504" lon="18.004903825869">
        <ele>65.2</ele>
        <time>2018-01-23T12:24:29Z</time>
      </trkpt>
      <trkpt lat="62.635020876791" lon="18.004941628238">
        <ele>65.2</ele>
        <time>2018-01-23T12:24:30Z</time>
      </trkpt>
      <trkpt lat="62.634995731091" lon="18.004981106987">
        <ele>65.2</ele>
        <time>2018-01-23T12:24:31Z</time>
      </trkpt>
      <trkpt lat="62.634987013915" lon="18.005009773085">
        <ele>65.2</ele>
        <time>2018-01-23T12:24:32Z</time>
      </trkpt>
      <trkpt lat="62.634959186007" lon="18.005045479979">
        <ele>65.2</ele>
        <time>2018-01-23T12:24:33Z</time>
      </trkpt>
      <trkpt lat="62.634936973972" lon="18.005084288176">
        <ele>65.2</ele>
        <time>2018-01-23T12:24:34Z</time>
      </trkpt>
      <trkpt lat="62.634927586244" lon="18.005114714473">
        <ele>65.2</ele>
        <time>2018-01-23T12:24:35Z</time>
      </trkpt>
      <trkpt lat="62.63490109944" lon="18.005171627574">
        <ele>65.2</ele>
        <time>2018-01-23T12:24:36Z</time>
      </trkpt>
      <trkpt lat="62.634886347296" lon="18.005213453255">
        <ele>65.2</ele>
        <time>2018-01-23T12:24:37Z</time>
      </trkpt>
      <trkpt lat="62.634875618464" lon="18.005240945887">
        <ele>65.2</ele>
        <time>2018-01-23T12:24:38Z</time>
      </trkpt>
      <trkpt lat="62.634846030357" lon="18.005301295567">
        <ele>65.2</ele>
        <time>2018-01-23T12:24:39Z</time>
      </trkpt>
      <trkpt lat="62.634832786955" lon="18.005340271402">
        <ele>65.2</ele>
        <time>2018-01-23T12:24:40Z</time>
      </trkpt>
      <trkpt lat="62.634814430594" lon="18.005374301916">
        <ele>65.2</ele>
        <time>2018-01-23T12:24:41Z</time>
      </trkpt>
      <trkpt lat="62.634802947391" lon="18.005402632738">
        <ele>65.2</ele>
        <time>2018-01-23T12:24:42Z</time>
      </trkpt>
      <trkpt lat="62.634767911049" lon="18.005431634112">
        <ele>65.4</ele>
        <time>2018-01-23T12:24:43Z</time>
      </trkpt>
      <trkpt lat="62.634742346254" lon="18.005450409568">
        <ele>65.4</ele>
        <time>2018-01-23T12:24:44Z</time>
      </trkpt>
      <trkpt lat="62.634724073712" lon="18.005464072065">
        <ele>65.4</ele>
        <time>2018-01-23T12:24:45Z</time>
      </trkpt>
      <trkpt lat="62.63469239013" lon="18.005483685711">
        <ele>65.4</ele>
        <time>2018-01-23T12:24:46Z</time>
      </trkpt>
      <trkpt lat="62.634669339905" lon="18.005500281873">
        <ele>65.6</ele>
        <time>2018-01-23T12:24:47Z</time>
      </trkpt>
      <trkpt lat="62.63465131882" lon="18.005512770904">
        <ele>65.4</ele>
        <time>2018-01-23T12:24:48Z</time>
      </trkpt>
      <trkpt lat="62.634633297735" lon="18.005541772278">
        <ele>65.4</ele>
        <time>2018-01-23T12:24:49Z</time>
      </trkpt>
      <trkpt lat="62.634616450116" lon="18.005563900494">
        <ele>65.8</ele>
        <time>2018-01-23T12:24:50Z</time>
      </trkpt>
      <trkpt lat="62.634592058787" lon="18.005591560764">
        <ele>65.8</ele>
        <time>2018-01-23T12:24:51Z</time>
      </trkpt>
      <trkpt lat="62.634570433485" lon="18.005628357305">
        <ele>66</ele>
        <time>2018-01-23T12:24:52Z</time>
      </trkpt>
      <trkpt lat="62.634568589467" lon="18.005631626246">
        <ele>66</ele>
        <time>2018-01-23T12:24:53Z</time>
      </trkpt>
      <trkpt lat="62.634540593921" lon="18.005678816343">
        <ele>66.2</ele>
        <time>2018-01-23T12:24:54Z</time>
      </trkpt>
      <trkpt lat="62.634518549524" lon="18.005719552377">
        <ele>66.2</ele>
        <time>2018-01-23T12:24:55Z</time>
      </trkpt>
      <trkpt lat="62.634508239787" lon="18.005756684194">
        <ele>66.4</ele>
        <time>2018-01-23T12:24:56Z</time>
      </trkpt>
      <trkpt lat="62.63448451901" lon="18.005784009188">
        <ele>66.4</ele>
        <time>2018-01-23T12:24:57Z</time>
      </trkpt>
      <trkpt lat="62.634466581744" lon="18.005827511249">
        <ele>66.4</ele>
        <time>2018-01-23T12:24:58Z</time>
      </trkpt>
      <trkpt lat="62.634458954215" lon="18.005861960858">
        <ele>66.4</ele>
        <time>2018-01-23T12:24:59Z</time>
      </trkpt>
      <trkpt lat="62.634434059972" lon="18.005908480403">
        <ele>66.6</ele>
        <time>2018-01-23T12:25:00Z</time>
      </trkpt>
      <trkpt lat="62.634415368335" lon="18.005956341052">
        <ele>66.6</ele>
        <time>2018-01-23T12:25:01Z</time>
      </trkpt>
      <trkpt lat="62.634406902616" lon="18.005973104852">
        <ele>66.6</ele>
        <time>2018-01-23T12:25:02Z</time>
      </trkpt>
      <trkpt lat="62.634380834907" lon="18.006020714044">
        <ele>66.8</ele>
        <time>2018-01-23T12:25:03Z</time>
      </trkpt>
      <trkpt lat="62.634370106075" lon="18.006053403454">
        <ele>66.6</ele>
        <time>2018-01-23T12:25:04Z</time>
      </trkpt>
      <trkpt lat="62.634342445805" lon="18.006095899687">
        <ele>66.6</ele>
        <time>2018-01-23T12:25:05Z</time>
      </trkpt>
      <trkpt lat="62.634323167435" lon="18.006142335413">
        <ele>66.6</ele>
        <time>2018-01-23T12:25:06Z</time>
      </trkpt>
      <trkpt lat="62.634316126639" lon="18.006172007339">
        <ele>66.6</ele>
        <time>2018-01-23T12:25:07Z</time>
      </trkpt>
      <trkpt lat="62.63429005893" lon="18.006218610703">
        <ele>66.6</ele>
        <time>2018-01-23T12:25:08Z</time>
      </trkpt>
      <trkpt lat="62.634280922659" lon="18.006245265145">
        <ele>66.6</ele>
        <time>2018-01-23T12:25:09Z</time>
      </trkpt>
      <trkpt lat="62.634258794443" lon="18.00630016659">
        <ele>66.6</ele>
        <time>2018-01-23T12:25:10Z</time>
      </trkpt>
      <trkpt lat="62.634239683711" lon="18.006325899023">
        <ele>66.6</ele>
        <time>2018-01-23T12:25:11Z</time>
      </trkpt>
      <trkpt lat="62.634233564924" lon="18.006363952849">
        <ele>66.6</ele>
        <time>2018-01-23T12:25:12Z</time>
      </trkpt>
      <trkpt lat="62.634208838319" lon="18.006401336123">
        <ele>66.6</ele>
        <time>2018-01-23T12:25:13Z</time>
      </trkpt>
      <trkpt lat="62.634197522754" lon="18.006430840411">
        <ele>66.4</ele>
        <time>2018-01-23T12:25:14Z</time>
      </trkpt>
      <trkpt lat="62.634178495841" lon="18.006476018852">
        <ele>66.4</ele>
        <time>2018-01-23T12:25:15Z</time>
      </trkpt>
      <trkpt lat="62.634159385109" lon="18.00651893418">
        <ele>66.4</ele>
        <time>2018-01-23T12:25:16Z</time>
      </trkpt>
      <trkpt lat="62.634150751752" lon="18.006539386016">
        <ele>66.4</ele>
        <time>2018-01-23T12:25:17Z</time>
      </trkpt>
      <trkpt lat="62.634128372079" lon="18.006588755407">
        <ele>66.4</ele>
        <time>2018-01-23T12:25:18Z</time>
      </trkpt>
      <trkpt lat="62.634105154216" lon="18.006629826717">
        <ele>66.6</ele>
        <time>2018-01-23T12:25:19Z</time>
      </trkpt>
      <trkpt lat="62.634096772316" lon="18.006663438136">
        <ele>66.6</ele>
        <time>2018-01-23T12:25:20Z</time>
      </trkpt>
      <trkpt lat="62.634068860589" lon="18.006715741192">
        <ele>66.6</ele>
        <time>2018-01-23T12:25:21Z</time>
      </trkpt>
      <trkpt lat="62.634052515884" lon="18.006754633208">
        <ele>66.6</ele>
        <time>2018-01-23T12:25:22Z</time>
      </trkpt>
      <trkpt lat="62.634044050165" lon="18.006778605442">
        <ele>66.6</ele>
        <time>2018-01-23T12:25:23Z</time>
      </trkpt>
      <trkpt lat="62.634014378239" lon="18.006843816624">
        <ele>66.6</ele>
        <time>2018-01-23T12:25:24Z</time>
      </trkpt>
      <trkpt lat="62.634006415434" lon="18.006880696984">
        <ele>66.6</ele>
        <time>2018-01-23T12:25:25Z</time>
      </trkpt>
      <trkpt lat="62.633987891435" lon="18.006923025579">
        <ele>66.6</ele>
        <time>2018-01-23T12:25:26Z</time>
      </trkpt>
      <trkpt lat="62.633969199798" lon="18.006971975875">
        <ele>66.6</ele>
        <time>2018-01-23T12:25:27Z</time>
      </trkpt>
      <trkpt lat="62.633964422115" lon="18.00700005524">
        <ele>66.8</ele>
        <time>2018-01-23T12:25:28Z</time>
      </trkpt>
      <trkpt lat="62.633944137917" lon="18.007053783219">
        <ele>66.8</ele>
        <time>2018-01-23T12:25:29Z</time>
      </trkpt>
      <trkpt lat="62.633929218135" lon="18.007100470402">
        <ele>66.8</ele>
        <time>2018-01-23T12:25:30Z</time>
      </trkpt>
      <trkpt lat="62.63392293171" lon="18.007137686038">
        <ele>66.8</ele>
        <time>2018-01-23T12:25:31Z</time>
      </trkpt>
      <trkpt lat="62.63390365334" lon="18.00718948618">
        <ele>66.8</ele>
        <time>2018-01-23T12:25:32Z</time>
      </trkpt>
      <trkpt lat="62.63389527144" lon="18.00723223387">
        <ele>66.8</ele>
        <time>2018-01-23T12:25:33Z</time>
      </trkpt>
      <trkpt lat="62.633878675278" lon="18.007282441451">
        <ele>66.8</ele>
        <time>2018-01-23T12:25:34Z</time>
      </trkpt>
      <trkpt lat="62.633859648365" lon="18.007335498878">
        <ele>66.6</ele>
        <time>2018-01-23T12:25:35Z</time>
      </trkpt>
      <trkpt lat="62.633848584257" lon="18.007374307075">
        <ele>66.6</ele>
        <time>2018-01-23T12:25:36Z</time>
      </trkpt>
      <trkpt lat="62.633828551516" lon="18.007422335362">
        <ele>66.6</ele>
        <time>2018-01-23T12:25:37Z</time>
      </trkpt>
      <trkpt lat="62.633807512947" lon="18.007462065568">
        <ele>66.6</ele>
        <time>2018-01-23T12:25:38Z</time>
      </trkpt>
      <trkpt lat="62.633797789943" lon="18.007495928444">
        <ele>66.4</ele>
        <time>2018-01-23T12:25:39Z</time>
      </trkpt>
      <trkpt lat="62.633768285655" lon="18.007520319773">
        <ele>66.4</ele>
        <time>2018-01-23T12:25:40Z</time>
      </trkpt>
      <trkpt lat="62.633757473004" lon="18.007526354741">
        <ele>66.4</ele>
        <time>2018-01-23T12:25:41Z</time>
      </trkpt>
      <trkpt lat="62.633730399467" lon="18.007523253438">
        <ele>66.6</ele>
        <time>2018-01-23T12:25:42Z</time>
      </trkpt>
      <trkpt lat="62.633709612355" lon="18.007515709728">
        <ele>66.6</ele>
        <time>2018-01-23T12:25:43Z</time>
      </trkpt>
      <trkpt lat="62.633688573786" lon="18.007505986724">
        <ele>66.8</ele>
        <time>2018-01-23T12:25:44Z</time>
      </trkpt>
      <trkpt lat="62.633665355923" lon="18.007480002834">
        <ele>66.8</ele>
        <time>2018-01-23T12:25:45Z</time>
      </trkpt>
      <trkpt lat="62.633639539671" lon="18.007447983976">
        <ele>66.8</ele>
        <time>2018-01-23T12:25:46Z</time>
      </trkpt>
      <trkpt lat="62.633627972649" lon="18.007428537968">
        <ele>66.8</ele>
        <time>2018-01-23T12:25:47Z</time>
      </trkpt>
      <trkpt lat="62.633607604632" lon="18.007400374784">
        <ele>66.8</ele>
        <time>2018-01-23T12:25:48Z</time>
      </trkpt>
      <trkpt lat="62.633582458932" lon="18.007381347871">
        <ele>66.8</ele>
        <time>2018-01-23T12:25:49Z</time>
      </trkpt>
      <trkpt lat="62.633559241069" lon="18.007361231311">
        <ele>66.8</ele>
        <time>2018-01-23T12:25:50Z</time>
      </trkpt>
      <trkpt lat="62.633543315459" lon="18.007333738679">
        <ele>67</ele>
        <time>2018-01-23T12:25:51Z</time>
      </trkpt>
      <trkpt lat="62.633527976582" lon="18.007323512761">
        <ele>67.2</ele>
        <time>2018-01-23T12:25:52Z</time>
      </trkpt>
      <trkpt lat="62.633512134791" lon="18.007307000418">
        <ele>67.4</ele>
        <time>2018-01-23T12:25:53Z</time>
      </trkpt>
      <trkpt lat="62.633489000747" lon="18.007283866374">
        <ele>67.4</ele>
        <time>2018-01-23T12:25:54Z</time>
      </trkpt>
      <trkpt lat="62.633465028513" lon="18.007263917452">
        <ele>67.6</ele>
        <time>2018-01-23T12:25:55Z</time>
      </trkpt>
      <trkpt lat="62.633452036568" lon="18.007260145597">
        <ele>67.8</ele>
        <time>2018-01-23T12:25:56Z</time>
      </trkpt>
      <trkpt lat="62.633422197004" lon="18.00723307206">
        <ele>68</ele>
        <time>2018-01-23T12:25:57Z</time>
      </trkpt>
      <trkpt lat="62.633400236426" lon="18.007216056803">
        <ele>68</ele>
        <time>2018-01-23T12:25:58Z</time>
      </trkpt>
      <trkpt lat="62.6333873283" lon="18.007205244152">
        <ele>68.2</ele>
        <time>2018-01-23T12:25:59Z</time>
      </trkpt>
      <trkpt lat="62.633365619179" lon="18.007183870307">
        <ele>68.2</ele>
        <time>2018-01-23T12:26:00Z</time>
      </trkpt>
      <trkpt lat="62.633342401316" lon="18.007141122617">
        <ele>68.2</ele>
        <time>2018-01-23T12:26:01Z</time>
      </trkpt>
      <trkpt lat="62.633327565353" lon="18.007114635813">
        <ele>68.2</ele>
        <time>2018-01-23T12:26:02Z</time>
      </trkpt>
      <trkpt lat="62.633315411598" lon="18.007080018566">
        <ele>68.4</ele>
        <time>2018-01-23T12:26:03Z</time>
      </trkpt>
      <trkpt lat="62.633289343889" lon="18.007020674714">
        <ele>68.4</ele>
        <time>2018-01-23T12:26:04Z</time>
      </trkpt>
      <trkpt lat="62.633283141283" lon="18.006998546498">
        <ele>68.4</ele>
        <time>2018-01-23T12:26:05Z</time>
      </trkpt>
      <trkpt lat="62.633267634768" lon="18.006944650881">
        <ele>68.4</ele>
        <time>2018-01-23T12:26:06Z</time>
      </trkpt>
      <trkpt lat="62.633253972271" lon="18.006882876278">
        <ele>68.6</ele>
        <time>2018-01-23T12:26:07Z</time>
      </trkpt>
      <trkpt lat="62.633245003638" lon="18.006841804968">
        <ele>68.8</ele>
        <time>2018-01-23T12:26:08Z</time>
      </trkpt>
      <trkpt lat="62.633238884851" lon="18.006799392554">
        <ele>68.8</ele>
        <time>2018-01-23T12:26:09Z</time>
      </trkpt>
      <trkpt lat="62.633235280634" lon="18.006754717027">
        <ele>69</ele>
        <time>2018-01-23T12:26:10Z</time>
      </trkpt>
      <trkpt lat="62.63323310134" lon="18.006716663201">
        <ele>69.2</ele>
        <time>2018-01-23T12:26:11Z</time>
      </trkpt>
      <trkpt lat="62.633231760236" lon="18.006661845575">
        <ele>69.4</ele>
        <time>2018-01-23T12:26:12Z</time>
      </trkpt>
      <trkpt lat="62.633228323657" lon="18.006627982699">
        <ele>69.4</ele>
        <time>2018-01-23T12:26:13Z</time>
      </trkpt>
      <trkpt lat="62.633225473811" lon="18.006590850882">
        <ele>69.4</ele>
        <time>2018-01-23T12:26:14Z</time>
      </trkpt>
      <trkpt lat="62.633227485467" lon="18.006546762088">
        <ele>69.4</ele>
        <time>2018-01-23T12:26:15Z</time>
      </trkpt>
      <trkpt lat="62.633228994209" lon="18.006511139013">
        <ele>69.4</ele>
        <time>2018-01-23T12:26:16Z</time>
      </trkpt>
      <trkpt lat="62.633226647277" lon="18.006475180662">
        <ele>69.6</ele>
        <time>2018-01-23T12:26:17Z</time>
      </trkpt>
      <trkpt lat="62.633226814915" lon="18.006428577298">
        <ele>69.6</ele>
        <time>2018-01-23T12:26:18Z</time>
      </trkpt>
      <trkpt lat="62.633223462155" lon="18.006379375545">
        <ele>69.8</ele>
        <time>2018-01-23T12:26:19Z</time>
      </trkpt>
      <trkpt lat="62.63322388125" lon="18.006343249556">
        <ele>69.8</ele>
        <time>2018-01-23T12:26:20Z</time>
      </trkpt>
      <trkpt lat="62.633221282861" lon="18.006298238753">
        <ele>70</ele>
        <time>2018-01-23T12:26:21Z</time>
      </trkpt>
      <trkpt lat="62.633220109395" lon="18.006256413072">
        <ele>70.2</ele>
        <time>2018-01-23T12:26:22Z</time>
      </trkpt>
      <trkpt lat="62.633217008092" lon="18.006229423354">
        <ele>70.4</ele>
        <time>2018-01-23T12:26:23Z</time>
      </trkpt>
      <trkpt lat="62.633220444671" lon="18.006187346216">
        <ele>70.6</ele>
        <time>2018-01-23T12:26:24Z</time>
      </trkpt>
      <trkpt lat="62.633224803259" lon="18.006152477512">
        <ele>70.8</ele>
        <time>2018-01-23T12:26:25Z</time>
      </trkpt>
      <trkpt lat="62.633219019748" lon="18.00611408841">
        <ele>70.8</ele>
        <time>2018-01-23T12:26:26Z</time>
      </trkpt>
      <trkpt lat="62.633215415531" lon="18.006088355977">
        <ele>71</ele>
        <time>2018-01-23T12:26:27Z</time>
      </trkpt>
      <trkpt lat="62.633217762463" lon="18.006057510585">
        <ele>71.2</ele>
        <time>2018-01-23T12:26:28Z</time>
      </trkpt>
      <trkpt lat="62.633216924273" lon="18.00603446036">
        <ele>71.4</ele>
        <time>2018-01-23T12:26:29Z</time>
      </trkpt>
      <trkpt lat="62.633219355024" lon="18.00598835991">
        <ele>71.6</ele>
        <time>2018-01-23T12:26:30Z</time>
      </trkpt>
      <trkpt lat="62.633222288689" lon="18.005952401559">
        <ele>71.8</ele>
        <time>2018-01-23T12:26:31Z</time>
      </trkpt>
      <trkpt lat="62.633221115223" lon="18.005932117361">
        <ele>72</ele>
        <time>2018-01-23T12:26:32Z</time>
      </trkpt>
      <trkpt lat="62.633221534318" lon="18.005906301109">
        <ele>72.2</ele>
        <time>2018-01-23T12:26:33Z</time>
      </trkpt>
      <trkpt lat="62.633223797431" lon="18.005876545364">
        <ele>72.4</ele>
        <time>2018-01-23T12:26:34Z</time>
      </trkpt>
      <trkpt lat="62.633221450499" lon="18.005855422976">
        <ele>72.4</ele>
        <time>2018-01-23T12:26:35Z</time>
      </trkpt>
      <trkpt lat="62.633221450499" lon="18.005839916461">
        <ele>72.4</ele>
        <time>2018-01-23T12:26:36Z</time>
      </trkpt>
      <trkpt lat="62.633223462155" lon="18.00582826562">
        <ele>72.6</ele>
        <time>2018-01-23T12:26:37Z</time>
      </trkpt>
      <trkpt lat="62.633225306173" lon="18.005812926743">
        <ele>72.8</ele>
        <time>2018-01-23T12:26:38Z</time>
      </trkpt>
      <trkpt lat="62.633227066372" lon="18.005790211794">
        <ele>73</ele>
        <time>2018-01-23T12:26:39Z</time>
      </trkpt>
      <trkpt lat="62.633224384164" lon="18.00577713603">
        <ele>73.2</ele>
        <time>2018-01-23T12:26:40Z</time>
      </trkpt>
      <trkpt lat="62.63322471944" lon="18.005765149913">
        <ele>73.6</ele>
        <time>2018-01-23T12:26:41Z</time>
      </trkpt>
      <trkpt lat="62.633225809087" lon="18.005742937878">
        <ele>73.8</ele>
        <time>2018-01-23T12:26:42Z</time>
      </trkpt>
      <trkpt lat="62.633224384164" lon="18.005717708359">
        <ele>74.2</ele>
        <time>2018-01-23T12:26:43Z</time>
      </trkpt>
      <trkpt lat="62.633221534318" lon="18.005704045862">
        <ele>74.6</ele>
        <time>2018-01-23T12:26:44Z</time>
      </trkpt>
      <trkpt lat="62.633224970897" lon="18.005694741953">
        <ele>75</ele>
        <time>2018-01-23T12:26:45Z</time>
      </trkpt>
      <trkpt lat="62.633225138535" lon="18.005668841882">
        <ele>75.2</ele>
        <time>2018-01-23T12:26:46Z</time>
      </trkpt>
      <trkpt lat="62.633225641449" lon="18.005643947639">
        <ele>75.6</ele>
        <time>2018-01-23T12:26:47Z</time>
      </trkpt>
      <trkpt lat="62.633225892906" lon="18.005606899641">
        <ele>75.8</ele>
        <time>2018-01-23T12:26:48Z</time>
      </trkpt>
      <trkpt lat="62.633221953413" lon="18.005587872728">
        <ele>76</ele>
        <time>2018-01-23T12:26:49Z</time>
      </trkpt>
      <trkpt lat="62.63322220487" lon="18.005560799191">
        <ele>76.4</ele>
        <time>2018-01-23T12:26:50Z</time>
      </trkpt>
      <trkpt lat="62.633224216526" lon="18.005549315988">
        <ele>76.6</ele>
        <time>2018-01-23T12:26:51Z</time>
      </trkpt>
      <trkpt lat="62.633229078028" lon="18.005532636007">
        <ele>76.8</ele>
        <time>2018-01-23T12:26:52Z</time>
      </trkpt>
      <trkpt lat="62.633233185159" lon="18.005498773131">
        <ele>77</ele>
        <time>2018-01-23T12:26:53Z</time>
      </trkpt>
      <trkpt lat="62.633231676417" lon="18.005468933567">
        <ele>77.2</ele>
        <time>2018-01-23T12:26:54Z</time>
      </trkpt>
      <trkpt lat="62.633231760236" lon="18.00545359469">
        <ele>77.2</ele>
        <time>2018-01-23T12:26:55Z</time>
      </trkpt>
      <trkpt lat="62.633233436616" lon="18.005440099831">
        <ele>77.4</ele>
        <time>2018-01-23T12:26:56Z</time>
      </trkpt>
      <trkpt lat="62.633233268978" lon="18.005424090402">
        <ele>77.4</ele>
        <time>2018-01-23T12:26:57Z</time>
      </trkpt>
      <trkpt lat="62.633234693901" lon="18.005394837571">
        <ele>77.6</ele>
        <time>2018-01-23T12:26:58Z</time>
      </trkpt>
      <trkpt lat="62.633234526263" lon="18.005363153989">
        <ele>77.8</ele>
        <time>2018-01-23T12:26:59Z</time>
      </trkpt>
      <trkpt lat="62.633232346969" lon="18.005340355221">
        <ele>77.8</ele>
        <time>2018-01-23T12:27:00Z</time>
      </trkpt>
      <trkpt lat="62.633235029177" lon="18.005316047711">
        <ele>78</ele>
        <time>2018-01-23T12:27:01Z</time>
      </trkpt>
      <trkpt lat="62.633235196815" lon="18.005304480689">
        <ele>78.2</ele>
        <time>2018-01-23T12:27:02Z</time>
      </trkpt>
      <trkpt lat="62.633232766064" lon="18.005279921722">
        <ele>78.4</ele>
        <time>2018-01-23T12:27:03Z</time>
      </trkpt>
      <trkpt lat="62.633233185159" lon="18.005250333615">
        <ele>78.8</ele>
        <time>2018-01-23T12:27:04Z</time>
      </trkpt>
      <trkpt lat="62.633230502951" lon="18.00522560701">
        <ele>79.2</ele>
        <time>2018-01-23T12:27:05Z</time>
      </trkpt>
      <trkpt lat="62.633231005865" lon="18.005199958396">
        <ele>79.6</ele>
        <time>2018-01-23T12:27:06Z</time>
      </trkpt>
      <trkpt lat="62.633232766064" lon="18.005182691682">
        <ele>79.8</ele>
        <time>2018-01-23T12:27:07Z</time>
      </trkpt>
      <trkpt lat="62.633234526263" lon="18.005157462163">
        <ele>80.2</ele>
        <time>2018-01-23T12:27:08Z</time>
      </trkpt>
      <trkpt lat="62.633230251494" lon="18.005125443305">
        <ele>80.4</ele>
        <time>2018-01-23T12:27:09Z</time>
      </trkpt>
      <trkpt lat="62.633231760236" lon="18.005097531578">
        <ele>80.6</ele>
        <time>2018-01-23T12:27:10Z</time>
      </trkpt>
      <trkpt lat="62.633227820743" lon="18.005069787489">
        <ele>81</ele>
        <time>2018-01-23T12:27:11Z</time>
      </trkpt>
      <trkpt lat="62.633219606481" lon="18.005044809427">
        <ele>81</ele>
        <time>2018-01-23T12:27:12Z</time>
      </trkpt>
      <trkpt lat="62.633214493522" lon="18.005020921012">
        <ele>81.4</ele>
        <time>2018-01-23T12:27:13Z</time>
      </trkpt>
      <trkpt lat="62.633211476038" lon="18.004997367873">
        <ele>81.6</ele>
        <time>2018-01-23T12:27:14Z</time>
      </trkpt>
      <trkpt lat="62.633207285088" lon="18.004976077847">
        <ele>81.8</ele>
        <time>2018-01-23T12:27:15Z</time>
      </trkpt>
      <trkpt lat="62.633199154645" lon="18.004947244111">
        <ele>82</ele>
        <time>2018-01-23T12:27:16Z</time>
      </trkpt>
      <trkpt lat="62.633192113849" lon="18.004928552474">
        <ele>82.2</ele>
        <time>2018-01-23T12:27:17Z</time>
      </trkpt>
      <trkpt lat="62.633182642302" lon="18.004906508077">
        <ele>82.2</ele>
        <time>2018-01-23T12:27:18Z</time>
      </trkpt>
      <trkpt lat="62.633172835479" lon="18.004889409001">
        <ele>82.4</ele>
        <time>2018-01-23T12:27:19Z</time>
      </trkpt>
      <trkpt lat="62.633168225434" lon="18.00487189083">
        <ele>82.6</ele>
        <time>2018-01-23T12:27:20Z</time>
      </trkpt>
      <trkpt lat="62.633158167154" lon="18.004860742903">
        <ele>82.8</ele>
        <time>2018-01-23T12:27:21Z</time>
      </trkpt>
      <trkpt lat="62.633146516313" lon="18.004846409854">
        <ele>83.2</ele>
        <time>2018-01-23T12:27:22Z</time>
      </trkpt>
      <trkpt lat="62.633135368386" lon="18.004829729873">
        <ele>83.4</ele>
        <time>2018-01-23T12:27:23Z</time>
      </trkpt>
      <trkpt lat="62.633121873527" lon="18.004821012697">
        <ele>83.4</ele>
        <time>2018-01-23T12:27:24Z</time>
      </trkpt>
      <trkpt lat="62.633108797763" lon="18.004816486471">
        <ele>83.8</ele>
        <time>2018-01-23T12:27:25Z</time>
      </trkpt>
      <trkpt lat="62.633095805818" lon="18.004817995213">
        <ele>84</ele>
        <time>2018-01-23T12:27:26Z</time>
      </trkpt>
      <trkpt lat="62.633085412262" lon="18.004823862543">
        <ele>84.2</ele>
        <time>2018-01-23T12:27:27Z</time>
      </trkpt>
      <trkpt lat="62.633074348154" lon="18.004827969674">
        <ele>84.6</ele>
        <time>2018-01-23T12:27:28Z</time>
      </trkpt>
      <trkpt lat="62.633060518019" lon="18.004830568063">
        <ele>85</ele>
        <time>2018-01-23T12:27:29Z</time>
      </trkpt>
      <trkpt lat="62.633040485278" lon="18.004832914995">
        <ele>85.2</ele>
        <time>2018-01-23T12:27:30Z</time>
      </trkpt>
      <trkpt lat="62.633024643487" lon="18.004846074578">
        <ele>85.6</ele>
        <time>2018-01-23T12:27:31Z</time>
      </trkpt>
      <trkpt lat="62.633008801696" lon="18.004856384315">
        <ele>85.6</ele>
        <time>2018-01-23T12:27:32Z</time>
      </trkpt>
      <trkpt lat="62.632998156683" lon="18.004870801183">
        <ele>85.8</ele>
        <time>2018-01-23T12:27:33Z</time>
      </trkpt>
      <trkpt lat="62.632976699019" lon="18.004883457852">
        <ele>86</ele>
        <time>2018-01-23T12:27:34Z</time>
      </trkpt>
      <trkpt lat="62.632961946875" lon="18.004895192512">
        <ele>86</ele>
        <time>2018-01-23T12:27:35Z</time>
      </trkpt>
      <trkpt lat="62.632943171419" lon="18.004916985452">
        <ele>86.2</ele>
        <time>2018-01-23T12:27:36Z</time>
      </trkpt>
      <trkpt lat="62.632930430931" lon="18.004940873867">
        <ele>86.2</ele>
        <time>2018-01-23T12:27:37Z</time>
      </trkpt>
      <trkpt lat="62.632919953556" lon="18.004973647096">
        <ele>86.2</ele>
        <time>2018-01-23T12:27:38Z</time>
      </trkpt>
      <trkpt lat="62.632900004634" lon="18.005017484433">
        <ele>86.4</ele>
        <time>2018-01-23T12:27:39Z</time>
      </trkpt>
      <trkpt lat="62.632889862535" lon="18.005053275146">
        <ele>86.6</ele>
        <time>2018-01-23T12:27:40Z</time>
      </trkpt>
      <trkpt lat="62.632872512002" lon="18.005094094999">
        <ele>86.8</ele>
        <time>2018-01-23T12:27:41Z</time>
      </trkpt>
      <trkpt lat="62.632857508401" lon="18.005129550436">
        <ele>86.8</ele>
        <time>2018-01-23T12:27:42Z</time>
      </trkpt>
      <trkpt lat="62.632833117072" lon="18.005167268986">
        <ele>87</ele>
        <time>2018-01-23T12:27:43Z</time>
      </trkpt>
      <trkpt lat="62.632819622213" lon="18.005199790758">
        <ele>87</ele>
        <time>2018-01-23T12:27:44Z</time>
      </trkpt>
      <trkpt lat="62.632796991083" lon="18.005232983082">
        <ele>87</ele>
        <time>2018-01-23T12:27:45Z</time>
      </trkpt>
      <trkpt lat="62.632782322758" lon="18.005252177633">
        <ele>87</ele>
        <time>2018-01-23T12:27:46Z</time>
      </trkpt>
      <trkpt lat="62.632754411031" lon="18.005270366356">
        <ele>86.8</ele>
        <time>2018-01-23T12:27:47Z</time>
      </trkpt>
      <trkpt lat="62.632740664715" lon="18.005297523712">
        <ele>86.8</ele>
        <time>2018-01-23T12:27:48Z</time>
      </trkpt>
      <trkpt lat="62.632712333893" lon="18.005322334136">
        <ele>86.6</ele>
        <time>2018-01-23T12:27:49Z</time>
      </trkpt>
      <trkpt lat="62.632700263957" lon="18.005313281684">
        <ele>86.4</ele>
        <time>2018-01-23T12:27:50Z</time>
      </trkpt>
      <trkpt lat="62.632692552609" lon="18.005315628616">
        <ele>86.4</ele>
        <time>2018-01-23T12:27:51Z</time>
      </trkpt>
      <trkpt lat="62.632681153225" lon="18.005312024399">
        <ele>86.4</ele>
        <time>2018-01-23T12:27:52Z</time>
      </trkpt>
      <trkpt lat="62.632665730529" lon="18.005313114046">
        <ele>86.4</ele>
        <time>2018-01-23T12:27:53Z</time>
      </trkpt>
      <trkpt lat="62.632645781607" lon="18.00531110239">
        <ele>86.8</ele>
        <time>2018-01-23T12:27:54Z</time>
      </trkpt>
      <trkpt lat="62.632621641735" lon="18.005314790426">
        <ele>87</ele>
        <time>2018-01-23T12:27:55Z</time>
      </trkpt>
      <trkpt lat="62.632610996722" lon="18.005314287512">
        <ele>87.2</ele>
        <time>2018-01-23T12:27:56Z</time>
      </trkpt>
      <trkpt lat="62.632591550714" lon="18.005312443494">
        <ele>87.6</ele>
        <time>2018-01-23T12:27:57Z</time>
      </trkpt>
      <trkpt lat="62.632573194353" lon="18.005319651928">
        <ele>87.8</ele>
        <time>2018-01-23T12:27:58Z</time>
      </trkpt>
      <trkpt lat="62.632559448037" lon="18.005325519258">
        <ele>88</ele>
        <time>2018-01-23T12:27:59Z</time>
      </trkpt>
      <trkpt lat="62.632537990373" lon="18.005329291113">
        <ele>88</ele>
        <time>2018-01-23T12:28:00Z</time>
      </trkpt>
      <trkpt lat="62.632517789994" lon="18.005341444868">
        <ele>88</ele>
        <time>2018-01-23T12:28:01Z</time>
      </trkpt>
      <trkpt lat="62.632504630411" lon="18.005360304143">
        <ele>88.2</ele>
        <time>2018-01-23T12:28:02Z</time>
      </trkpt>
      <trkpt lat="62.632489962086" lon="18.005376145934">
        <ele>88.2</ele>
        <time>2018-01-23T12:28:03Z</time>
      </trkpt>
      <trkpt lat="62.63247537758" lon="18.005392239182">
        <ele>88.2</ele>
        <time>2018-01-23T12:28:04Z</time>
      </trkpt>
      <trkpt lat="62.632465486938" lon="18.005404728213">
        <ele>88.4</ele>
        <time>2018-01-23T12:28:05Z</time>
      </trkpt>
      <trkpt lat="62.632457105038" lon="18.005413864484">
        <ele>88.4</ele>
        <time>2018-01-23T12:28:06Z</time>
      </trkpt>
      <trkpt lat="62.632452997907" lon="18.005417803977">
        <ele>88.6</ele>
        <time>2018-01-23T12:28:07Z</time>
      </trkpt>
      <trkpt lat="62.632451824441" lon="18.005422246384">
        <ele>88.6</ele>
        <time>2018-01-23T12:28:08Z</time>
      </trkpt>
      <trkpt lat="62.632449226052" lon="18.005422162565">
        <ele>88.8</ele>
        <time>2018-01-23T12:28:09Z</time>
      </trkpt>
      <trkpt lat="62.632452411174" lon="18.00541419976">
        <ele>89</ele>
        <time>2018-01-23T12:28:10Z</time>
      </trkpt>
      <trkpt lat="62.632282761518" lon="18.005491816154">
        <ele>88.8</ele>
        <time>2018-01-23T12:28:25Z</time>
      </trkpt>
      <trkpt lat="62.63227421198" lon="18.005488295756">
        <ele>88.8</ele>
        <time>2018-01-23T12:28:26Z</time>
      </trkpt>
      <trkpt lat="62.632260549483" lon="18.005472705422">
        <ele>88.8</ele>
        <time>2018-01-23T12:28:27Z</time>
      </trkpt>
      <trkpt lat="62.63224571352" lon="18.00546197659">
        <ele>88.8</ele>
        <time>2018-01-23T12:28:28Z</time>
      </trkpt>
      <trkpt lat="62.632232721575" lon="18.005460719305">
        <ele>88.8</ele>
        <time>2018-01-23T12:28:29Z</time>
      </trkpt>
      <trkpt lat="62.632208246427" lon="18.005435405967">
        <ele>89</ele>
        <time>2018-01-23T12:28:30Z</time>
      </trkpt>
      <trkpt lat="62.632188213686" lon="18.005441273297">
        <ele>89</ele>
        <time>2018-01-23T12:28:31Z</time>
      </trkpt>
      <trkpt lat="62.632171030791" lon="18.005452505043">
        <ele>89</ele>
        <time>2018-01-23T12:28:32Z</time>
      </trkpt>
      <trkpt lat="62.632147980566" lon="18.005456360717">
        <ele>89.2</ele>
        <time>2018-01-23T12:28:33Z</time>
      </trkpt>
      <trkpt lat="62.632123589237" lon="18.005469436481">
        <ele>89.4</ele>
        <time>2018-01-23T12:28:34Z</time>
      </trkpt>
      <trkpt lat="62.632105651971" lon="18.005475722906">
        <ele>89.6</ele>
        <time>2018-01-23T12:28:35Z</time>
      </trkpt>
      <trkpt lat="62.632083859031" lon="18.005488463394">
        <ele>89.8</ele>
        <time>2018-01-23T12:28:36Z</time>
      </trkpt>
      <trkpt lat="62.632053097458" lon="18.005487792842">
        <ele>89.8</ele>
        <time>2018-01-23T12:28:37Z</time>
      </trkpt>
      <trkpt lat="62.632028538491" lon="18.005494163086">
        <ele>89.8</ele>
        <time>2018-01-23T12:28:38Z</time>
      </trkpt>
      <trkpt lat="62.632011774691" lon="18.005504472823">
        <ele>89.8</ele>
        <time>2018-01-23T12:28:39Z</time>
      </trkpt>
      <trkpt lat="62.631983192412" lon="18.005506149203">
        <ele>89.6</ele>
        <time>2018-01-23T12:28:40Z</time>
      </trkpt>
      <trkpt lat="62.631971793028" lon="18.005513525275">
        <ele>89.6</ele>
        <time>2018-01-23T12:28:41Z</time>
      </trkpt>
      <trkpt lat="62.631949413355" lon="18.005520314614">
        <ele>89.8</ele>
        <time>2018-01-23T12:28:42Z</time>
      </trkpt>
      <trkpt lat="62.63192384856" lon="18.005521655718">
        <ele>89.8</ele>
        <time>2018-01-23T12:28:43Z</time>
      </trkpt>
      <trkpt lat="62.631905240742" lon="18.005527439229">
        <ele>89.8</ele>
        <time>2018-01-23T12:28:44Z</time>
      </trkpt>
      <trkpt lat="62.631887890209" lon="18.005531630179">
        <ele>89.8</ele>
        <time>2018-01-23T12:28:45Z</time>
      </trkpt>
      <trkpt lat="62.631851848039" lon="18.00552903179">
        <ele>90</ele>
        <time>2018-01-23T12:28:46Z</time>
      </trkpt>
      <trkpt lat="62.631837850266" lon="18.005534982939">
        <ele>90</ele>
        <time>2018-01-23T12:28:47Z</time>
      </trkpt>
      <trkpt lat="62.631815135317" lon="18.00552986998">
        <ele>90</ele>
        <time>2018-01-23T12:28:48Z</time>
      </trkpt>
      <trkpt lat="62.631793593834" lon="18.005509837239">
        <ele>90</ele>
        <time>2018-01-23T12:28:49Z</time>
      </trkpt>
      <trkpt lat="62.631773309636" lon="18.005481757874">
        <ele>90</ele>
        <time>2018-01-23T12:28:50Z</time>
      </trkpt>
      <trkpt lat="62.631749840316" lon="18.005454013785">
        <ele>90</ele>
        <time>2018-01-23T12:28:51Z</time>
      </trkpt>
      <trkpt lat="62.631735758724" lon="18.005440351288">
        <ele>90</ele>
        <time>2018-01-23T12:28:52Z</time>
      </trkpt>
      <trkpt lat="62.631719581657" lon="18.005392490639">
        <ele>90</ele>
        <time>2018-01-23T12:28:53Z</time>
      </trkpt>
      <trkpt lat="62.631691502292" lon="18.005350581139">
        <ele>90.2</ele>
        <time>2018-01-23T12:28:54Z</time>
      </trkpt>
      <trkpt lat="62.63167909708" lon="18.005326776543">
        <ele>90.2</ele>
        <time>2018-01-23T12:28:55Z</time>
      </trkpt>
      <trkpt lat="62.631659567253" lon="18.005282184835">
        <ele>90.2</ele>
        <time>2018-01-23T12:28:56Z</time>
      </trkpt>
      <trkpt lat="62.631645066566" lon="18.005225104096">
        <ele>90.2</ele>
        <time>2018-01-23T12:28:57Z</time>
      </trkpt>
      <trkpt lat="62.63162964387" lon="18.005191408858">
        <ele>90.2</ele>
        <time>2018-01-23T12:28:58Z</time>
      </trkpt>
      <trkpt lat="62.631619417952" lon="18.005155701964">
        <ele>90.2</ele>
        <time>2018-01-23T12:28:59Z</time>
      </trkpt>
      <trkpt lat="62.631600139582" lon="18.005100465243">
        <ele>90.2</ele>
        <time>2018-01-23T12:29:00Z</time>
      </trkpt>
      <trkpt lat="62.631583208144" lon="18.005046988721">
        <ele>90.2</ele>
        <time>2018-01-23T12:29:01Z</time>
      </trkpt>
      <trkpt lat="62.631571389665" lon="18.005028883817">
        <ele>90.4</ele>
        <time>2018-01-23T12:29:02Z</time>
      </trkpt>
      <trkpt lat="62.631553955313" lon="18.004982112815">
        <ele>90.4</ele>
        <time>2018-01-23T12:29:03Z</time>
      </trkpt>
      <trkpt lat="62.63153744297" lon="18.004950261595">
        <ele>90.4</ele>
        <time>2018-01-23T12:29:04Z</time>
      </trkpt>
      <trkpt lat="62.63152822288" lon="18.004919751479">
        <ele>90.4</ele>
        <time>2018-01-23T12:29:05Z</time>
      </trkpt>
      <trkpt lat="62.631516152944" lon="18.004887397345">
        <ele>90.6</ele>
        <time>2018-01-23T12:29:06Z</time>
      </trkpt>
      <trkpt lat="62.63149804804" lon="18.004871974649">
        <ele>90.8</ele>
        <time>2018-01-23T12:29:07Z</time>
      </trkpt>
      <trkpt lat="62.631490085235" lon="18.004859234161">
        <ele>90.8</ele>
        <time>2018-01-23T12:29:08Z</time>
      </trkpt>
      <trkpt lat="62.63147038777" lon="18.004839369058">
        <ele>91</ele>
        <time>2018-01-23T12:29:09Z</time>
      </trkpt>
      <trkpt lat="62.631445996441" lon="18.004801818146">
        <ele>91.2</ele>
        <time>2018-01-23T12:29:10Z</time>
      </trkpt>
      <trkpt lat="62.631427137166" lon="18.004768877279">
        <ele>91.4</ele>
        <time>2018-01-23T12:29:11Z</time>
      </trkpt>
      <trkpt lat="62.631407942615" lon="18.00474280957">
        <ele>91.4</ele>
        <time>2018-01-23T12:29:12Z</time>
      </trkpt>
      <trkpt lat="62.631391681729" lon="18.004724285571">
        <ele>91.4</ele>
        <time>2018-01-23T12:29:13Z</time>
      </trkpt>
      <trkpt lat="62.631369469694" lon="18.004696457663">
        <ele>91.4</ele>
        <time>2018-01-23T12:29:14Z</time>
      </trkpt>
      <trkpt lat="62.631348766401" lon="18.004686734659">
        <ele>91.6</ele>
        <time>2018-01-23T12:29:15Z</time>
      </trkpt>
      <trkpt lat="62.631326554366" lon="18.004684471546">
        <ele>91.6</ele>
        <time>2018-01-23T12:29:16Z</time>
      </trkpt>
      <trkpt lat="62.631308952376" lon="18.004664690262">
        <ele>91.8</ele>
        <time>2018-01-23T12:29:17Z</time>
      </trkpt>
      <trkpt lat="62.631292607671" lon="18.004655805448">
        <ele>92</ele>
        <time>2018-01-23T12:29:18Z</time>
      </trkpt>
      <trkpt lat="62.631274167491" lon="18.004646920634">
        <ele>92.2</ele>
        <time>2018-01-23T12:29:19Z</time>
      </trkpt>
      <trkpt lat="62.631249692343" lon="18.004621774934">
        <ele>92.2</ele>
        <time>2018-01-23T12:29:20Z</time>
      </trkpt>
      <trkpt lat="62.631231419801" lon="18.004610124093">
        <ele>92.4</ele>
        <time>2018-01-23T12:29:21Z</time>
      </trkpt>
      <trkpt lat="62.631220942426" lon="18.004595707225">
        <ele>92.4</ele>
        <time>2018-01-23T12:29:22Z</time>
      </trkpt>
      <trkpt lat="62.63120887249" lon="18.004589085524">
        <ele>92.2</ele>
        <time>2018-01-23T12:29:23Z</time>
      </trkpt>
      <trkpt lat="62.631180709306" lon="18.004563269272">
        <ele>92.4</ele>
        <time>2018-01-23T12:29:24Z</time>
      </trkpt>
      <trkpt lat="62.631164196963" lon="18.004539883771">
        <ele>92.4</ele>
        <time>2018-01-23T12:29:25Z</time>
      </trkpt>
      <trkpt lat="62.631146511154" lon="18.004515324804">
        <ele>92.4</ele>
        <time>2018-01-23T12:29:26Z</time>
      </trkpt>
      <trkpt lat="62.631129831173" lon="18.004490682018">
        <ele>92.6</ele>
        <time>2018-01-23T12:29:27Z</time>
      </trkpt>
      <trkpt lat="62.631115749581" lon="18.004472493295">
        <ele>92.6</ele>
        <time>2018-01-23T12:29:28Z</time>
      </trkpt>
      <trkpt lat="62.631094291917" lon="18.004445755034">
        <ele>92.8</ele>
        <time>2018-01-23T12:29:29Z</time>
      </trkpt>
      <trkpt lat="62.631075516461" lon="18.004429745605">
        <ele>92.8</ele>
        <time>2018-01-23T12:29:30Z</time>
      </trkpt>
      <trkpt lat="62.631050622218" lon="18.004396553281">
        <ele>92.8</ele>
        <time>2018-01-23T12:29:31Z</time>
      </trkpt>
      <trkpt lat="62.631031260029" lon="18.004390183037">
        <ele>93</ele>
        <time>2018-01-23T12:29:32Z</time>
      </trkpt>
      <trkpt lat="62.631012652211" lon="18.00436813864">
        <ele>93</ele>
        <time>2018-01-23T12:29:33Z</time>
      </trkpt>
      <trkpt lat="62.630985578674" lon="18.004338634352">
        <ele>93.2</ele>
        <time>2018-01-23T12:29:34Z</time>
      </trkpt>
      <trkpt lat="62.630971832358" lon="18.00431952362">
        <ele>93.4</ele>
        <time>2018-01-23T12:29:35Z</time>
      </trkpt>
      <trkpt lat="62.630952051074" lon="18.004295048472">
        <ele>93.4</ele>
        <time>2018-01-23T12:29:36Z</time>
      </trkpt>
      <trkpt lat="62.630933024161" lon="18.004266550012">
        <ele>93.6</ele>
        <time>2018-01-23T12:29:37Z</time>
      </trkpt>
      <trkpt lat="62.630913745791" lon="18.004245595262">
        <ele>93.8</ele>
        <time>2018-01-23T12:29:38Z</time>
      </trkpt>
      <trkpt lat="62.630895473249" lon="18.00421558806">
        <ele>93.8</ele>
        <time>2018-01-23T12:29:39Z</time>
      </trkpt>
      <trkpt lat="62.630880218191" lon="18.00418373684">
        <ele>93.8</ele>
        <time>2018-01-23T12:29:40Z</time>
      </trkpt>
      <trkpt lat="62.630862783839" lon="18.004149706326">
        <ele>94</ele>
        <time>2018-01-23T12:29:41Z</time>
      </trkpt>
      <trkpt lat="62.630843254012" lon="18.004103689695">
        <ele>94.2</ele>
        <time>2018-01-23T12:29:42Z</time>
      </trkpt>
      <trkpt lat="62.630832441361" lon="18.004087261171">
        <ele>94.2</ele>
        <time>2018-01-23T12:29:43Z</time>
      </trkpt>
      <trkpt lat="62.630825065289" lon="18.004075442692">
        <ele>94.4</ele>
        <time>2018-01-23T12:29:44Z</time>
      </trkpt>
      <trkpt lat="62.630807547118" lon="18.004057505426">
        <ele>94.6</ele>
        <time>2018-01-23T12:29:45Z</time>
      </trkpt>
      <trkpt lat="62.630801176874" lon="18.004016434116">
        <ele>94.8</ele>
        <time>2018-01-23T12:29:46Z</time>
      </trkpt>
      <trkpt lat="62.630786592368" lon="18.003970668942">
        <ele>95</ele>
        <time>2018-01-23T12:29:47Z</time>
      </trkpt>
      <trkpt lat="62.630780305943" lon="18.003940745559">
        <ele>95.2</ele>
        <time>2018-01-23T12:29:48Z</time>
      </trkpt>
      <trkpt lat="62.630778713382" lon="18.003891795263">
        <ele>95.4</ele>
        <time>2018-01-23T12:29:49Z</time>
      </trkpt>
      <trkpt lat="62.630771756405" lon="18.003840581854">
        <ele>95.6</ele>
        <time>2018-01-23T12:29:50Z</time>
      </trkpt>
      <trkpt lat="62.630775109165" lon="18.003810993747">
        <ele>95.6</ele>
        <time>2018-01-23T12:29:51Z</time>
      </trkpt>
      <trkpt lat="62.630774941527" lon="18.003736646294">
        <ele>95.8</ele>
        <time>2018-01-23T12:29:52Z</time>
      </trkpt>
      <trkpt lat="62.630772091681" lon="18.003687779817">
        <ele>95.8</ele>
        <time>2018-01-23T12:29:53Z</time>
      </trkpt>
      <trkpt lat="62.630773935699" lon="18.003639835349">
        <ele>96</ele>
        <time>2018-01-23T12:29:54Z</time>
      </trkpt>
      <trkpt lat="62.63077888102" lon="18.003609325233">
        <ele>96</ele>
        <time>2018-01-23T12:29:55Z</time>
      </trkpt>
      <trkpt lat="62.630785251264" lon="18.003546460983">
        <ele>96</ele>
        <time>2018-01-23T12:29:56Z</time>
      </trkpt>
      <trkpt lat="62.630786676187" lon="18.003494828479">
        <ele>96</ele>
        <time>2018-01-23T12:29:57Z</time>
      </trkpt>
      <trkpt lat="62.630790364223" lon="18.003449901495">
        <ele>96.2</ele>
        <time>2018-01-23T12:29:58Z</time>
      </trkpt>
      <trkpt lat="62.6307973212" lon="18.003418301732">
        <ele>96.2</ele>
        <time>2018-01-23T12:29:59Z</time>
      </trkpt>
      <trkpt lat="62.630803104711" lon="18.003376308413">
        <ele>96.2</ele>
        <time>2018-01-23T12:30:00Z</time>
      </trkpt>
      <trkpt lat="62.63080989405" lon="18.003321658425">
        <ele>96.4</ele>
        <time>2018-01-23T12:30:01Z</time>
      </trkpt>
      <trkpt lat="62.630816515751" lon="18.003285448617">
        <ele>96.6</ele>
        <time>2018-01-23T12:30:02Z</time>
      </trkpt>
      <trkpt lat="62.630824059461" lon="18.003245969868">
        <ele>96.6</ele>
        <time>2018-01-23T12:30:03Z</time>
      </trkpt>
      <trkpt lat="62.63083001061" lon="18.003204898558">
        <ele>96.6</ele>
        <time>2018-01-23T12:30:04Z</time>
      </trkpt>
      <trkpt lat="62.630836464673" lon="18.003153685149">
        <ele>96.8</ele>
        <time>2018-01-23T12:30:05Z</time>
      </trkpt>
      <trkpt lat="62.630841074718" lon="18.003108087613">
        <ele>97</ele>
        <time>2018-01-23T12:30:06Z</time>
      </trkpt>
      <trkpt lat="62.630838979243" lon="18.003080930257">
        <ele>96.8</ele>
        <time>2018-01-23T12:30:07Z</time>
      </trkpt>
      <trkpt lat="62.630840990899" lon="18.003031812323">
        <ele>97</ele>
        <time>2018-01-23T12:30:08Z</time>
      </trkpt>
      <trkpt lat="62.630834369198" lon="18.002970959729">
        <ele>97.2</ele>
        <time>2018-01-23T12:30:09Z</time>
      </trkpt>
      <trkpt lat="62.630837470501" lon="18.002936677758">
        <ele>97.4</ele>
        <time>2018-01-23T12:30:10Z</time>
      </trkpt>
      <trkpt lat="62.630835542664" lon="18.0028878951">
        <ele>97.4</ele>
        <time>2018-01-23T12:30:11Z</time>
      </trkpt>
      <trkpt lat="62.630834033922" lon="18.002836933148">
        <ele>97.6</ele>
        <time>2018-01-23T12:30:12Z</time>
      </trkpt>
      <trkpt lat="62.630829926791" lon="18.002805584842">
        <ele>97.8</ele>
        <time>2018-01-23T12:30:13Z</time>
      </trkpt>
      <trkpt lat="62.630819533235" lon="18.002742385316">
        <ele>97.6</ele>
        <time>2018-01-23T12:30:14Z</time>
      </trkpt>
      <trkpt lat="62.630814336457" lon="18.002699972902">
        <ele>97.8</ele>
        <time>2018-01-23T12:30:15Z</time>
      </trkpt>
      <trkpt lat="62.630815258466" lon="18.002669462786">
        <ele>97.8</ele>
        <time>2018-01-23T12:30:16Z</time>
      </trkpt>
      <trkpt lat="62.630807128023" lon="18.002621853594">
        <ele>97.8</ele>
        <time>2018-01-23T12:30:17Z</time>
      </trkpt>
      <trkpt lat="62.630801093055" lon="18.002564940493">
        <ele>98</ele>
        <time>2018-01-23T12:30:18Z</time>
      </trkpt>
      <trkpt lat="62.630796399191" lon="18.002529317418">
        <ele>98</ele>
        <time>2018-01-23T12:30:19Z</time>
      </trkpt>
      <trkpt lat="62.630792711155" lon="18.002491766506">
        <ele>98</ele>
        <time>2018-01-23T12:30:20Z</time>
      </trkpt>
      <trkpt lat="62.630801176874" lon="18.002408701877">
        <ele>98.2</ele>
        <time>2018-01-23T12:30:22Z</time>
      </trkpt>
      <trkpt lat="62.630796063915" lon="18.002394033552">
        <ele>98.6</ele>
        <time>2018-01-23T12:30:23Z</time>
      </trkpt>
      <trkpt lat="62.630791537689" lon="18.002350866767">
        <ele>98.6</ele>
        <time>2018-01-23T12:30:24Z</time>
      </trkpt>
      <trkpt lat="62.63078977749" lon="18.00229445658">
        <ele>98.8</ele>
        <time>2018-01-23T12:30:25Z</time>
      </trkpt>
      <trkpt lat="62.630782652875" lon="18.002249781053">
        <ele>99</ele>
        <time>2018-01-23T12:30:26Z</time>
      </trkpt>
      <trkpt lat="62.630776869364" lon="18.002203261508">
        <ele>99.2</ele>
        <time>2018-01-23T12:30:27Z</time>
      </trkpt>
      <trkpt lat="62.630776534088" lon="18.002168392804">
        <ele>99.2</ele>
        <time>2018-01-23T12:30:28Z</time>
      </trkpt>
      <trkpt lat="62.63077301369" lon="18.002126986218">
        <ele>99.4</ele>
        <time>2018-01-23T12:30:29Z</time>
      </trkpt>
      <trkpt lat="62.630764715609" lon="18.002076359542">
        <ele>99.6</ele>
        <time>2018-01-23T12:30:30Z</time>
      </trkpt>
      <trkpt lat="62.630754154415" lon="18.002029756178">
        <ele>99.6</ele>
        <time>2018-01-23T12:30:31Z</time>
      </trkpt>
      <trkpt lat="62.630747365076" lon="18.001970663783">
        <ele>99.6</ele>
        <time>2018-01-23T12:30:32Z</time>
      </trkpt>
      <trkpt lat="62.630742755031" lon="18.001922551677">
        <ele>99.8</ele>
        <time>2018-01-23T12:30:33Z</time>
      </trkpt>
      <trkpt lat="62.630733032027" lon="18.001875529218">
        <ele>99.8</ele>
        <time>2018-01-23T12:30:34Z</time>
      </trkpt>
      <trkpt lat="62.630734540769" lon="18.00182171742">
        <ele>99.8</ele>
        <time>2018-01-23T12:30:35Z</time>
      </trkpt>
      <trkpt lat="62.630735965692" lon="18.001762708844">
        <ele>100</ele>
        <time>2018-01-23T12:30:36Z</time>
      </trkpt>
      <trkpt lat="62.630718112245" lon="18.001724906475">
        <ele>100</ele>
        <time>2018-01-23T12:30:37Z</time>
      </trkpt>
      <trkpt lat="62.630727835249" lon="18.001660030569">
        <ele>100</ele>
        <time>2018-01-23T12:30:38Z</time>
      </trkpt>
      <trkpt lat="62.630732110018" lon="18.001613678662">
        <ele>100</ele>
        <time>2018-01-23T12:30:39Z</time>
      </trkpt>
      <trkpt lat="62.630726158869" lon="18.001576714483">
        <ele>100</ele>
        <time>2018-01-23T12:30:40Z</time>
      </trkpt>
      <trkpt lat="62.630728673439" lon="18.001511000387">
        <ele>100.2</ele>
        <time>2018-01-23T12:30:41Z</time>
      </trkpt>
      <trkpt lat="62.630729343991" lon="18.001467498326">
        <ele>100.2</ele>
        <time>2018-01-23T12:30:42Z</time>
      </trkpt>
      <trkpt lat="62.630715597675" lon="18.001428354853">
        <ele>100.4</ele>
        <time>2018-01-23T12:30:43Z</time>
      </trkpt>
      <trkpt lat="62.63070595849" lon="18.001366244974">
        <ele>100.4</ele>
        <time>2018-01-23T12:30:44Z</time>
      </trkpt>
      <trkpt lat="62.630708221603" lon="18.001343278568">
        <ele>100.6</ele>
        <time>2018-01-23T12:30:45Z</time>
      </trkpt>
      <trkpt lat="62.630696235486" lon="18.001283264164">
        <ele>100.4</ele>
        <time>2018-01-23T12:30:46Z</time>
      </trkpt>
      <trkpt lat="62.630675280736" lon="18.00122995528">
        <ele>100.6</ele>
        <time>2018-01-23T12:30:47Z</time>
      </trkpt>
      <trkpt lat="62.630674610184" lon="18.001184273925">
        <ele>100.6</ele>
        <time>2018-01-23T12:30:48Z</time>
      </trkpt>
      <trkpt lat="62.630670503053" lon="18.001145465728">
        <ele>100.8</ele>
        <time>2018-01-23T12:30:49Z</time>
      </trkpt>
      <trkpt lat="62.630659103669" lon="18.001101125477">
        <ele>100.8</ele>
        <time>2018-01-23T12:30:50Z</time>
      </trkpt>
      <trkpt lat="62.630656253823" lon="18.001032393897">
        <ele>100.8</ele>
        <time>2018-01-23T12:30:51Z</time>
      </trkpt>
      <trkpt lat="62.630647201371" lon="18.0010103495">
        <ele>101</ele>
        <time>2018-01-23T12:30:52Z</time>
      </trkpt>
      <trkpt lat="62.630637059272" lon="18.000956621521">
        <ele>100.8</ele>
        <time>2018-01-23T12:30:53Z</time>
      </trkpt>
      <trkpt lat="62.630629850838" lon="18.000890823606">
        <ele>101</ele>
        <time>2018-01-23T12:30:54Z</time>
      </trkpt>
      <trkpt lat="62.630640831127" lon="18.000863498612">
        <ele>101</ele>
        <time>2018-01-23T12:30:55Z</time>
      </trkpt>
      <trkpt lat="62.630631443399" lon="18.000823349311">
        <ele>101</ele>
        <time>2018-01-23T12:30:56Z</time>
      </trkpt>
      <trkpt lat="62.630611075382" lon="18.000766268572">
        <ele>101.2</ele>
        <time>2018-01-23T12:30:57Z</time>
      </trkpt>
      <trkpt lat="62.630599340722" lon="18.000730729316">
        <ele>101.2</ele>
        <time>2018-01-23T12:30:58Z</time>
      </trkpt>
      <trkpt lat="62.630594563039" lon="18.000699967743">
        <ele>101.4</ele>
        <time>2018-01-23T12:30:59Z</time>
      </trkpt>
      <trkpt lat="62.630593389573" lon="18.000619585322">
        <ele>101.4</ele>
        <time>2018-01-23T12:31:00Z</time>
      </trkpt>
      <trkpt lat="62.630581654913" lon="18.000574239243">
        <ele>101.4</ele>
        <time>2018-01-23T12:31:01Z</time>
      </trkpt>
      <trkpt lat="62.630576541954" lon="18.000544651136">
        <ele>101.6</ele>
        <time>2018-01-23T12:31:02Z</time>
      </trkpt>
      <trkpt lat="62.63057017171" lon="18.000493856822">
        <ele>101.6</ele>
        <time>2018-01-23T12:31:03Z</time>
      </trkpt>
      <trkpt lat="62.630554329919" lon="18.000441972861">
        <ele>101.6</ele>
        <time>2018-01-23T12:31:04Z</time>
      </trkpt>
      <trkpt lat="62.630547792037" lon="18.000409534908">
        <ele>101.6</ele>
        <time>2018-01-23T12:31:05Z</time>
      </trkpt>
      <trkpt lat="62.630542846716" lon="18.00040182356">
        <ele>101.6</ele>
        <time>2018-01-23T12:31:06Z</time>
      </trkpt>
      <trkpt lat="62.630527926934" lon="18.000337450568">
        <ele>101.8</ele>
        <time>2018-01-23T12:31:07Z</time>
      </trkpt>
      <trkpt lat="62.630519125939" lon="18.000298307095">
        <ele>101.8</ele>
        <time>2018-01-23T12:31:08Z</time>
      </trkpt>
      <trkpt lat="62.630510995496" lon="18.000238041234">
        <ele>101.8</ele>
        <time>2018-01-23T12:31:09Z</time>
      </trkpt>
      <trkpt lat="62.630501356311" lon="18.000194287716">
        <ele>102</ele>
        <time>2018-01-23T12:31:10Z</time>
      </trkpt>
      <trkpt lat="62.630484173416" lon="18.000143744859">
        <ele>102</ele>
        <time>2018-01-23T12:31:11Z</time>
      </trkpt>
      <trkpt lat="62.630477635534" lon="18.000093788735">
        <ele>102.4</ele>
        <time>2018-01-23T12:31:12Z</time>
      </trkpt>
      <trkpt lat="62.630472774032" lon="18.000059422945">
        <ele>102.4</ele>
        <time>2018-01-23T12:31:13Z</time>
      </trkpt>
      <trkpt lat="62.630460536458" lon="18.000005527328">
        <ele>102.4</ele>
        <time>2018-01-23T12:31:14Z</time>
      </trkpt>
      <trkpt lat="62.630444610848" lon="17.999952805177">
        <ele>102.6</ele>
        <time>2018-01-23T12:31:15Z</time>
      </trkpt>
      <trkpt lat="62.630432540912" lon="17.999917182102">
        <ele>102.6</ele>
        <time>2018-01-23T12:31:16Z</time>
      </trkpt>
      <trkpt lat="62.630421895899" lon="17.999870997833">
        <ele>102.6</ele>
        <time>2018-01-23T12:31:17Z</time>
      </trkpt>
      <trkpt lat="62.630404880642" lon="17.999818275682">
        <ele>102.6</ele>
        <time>2018-01-23T12:31:18Z</time>
      </trkpt>
      <trkpt lat="62.630391553421" lon="17.999772845784">
        <ele>102.8</ele>
        <time>2018-01-23T12:31:19Z</time>
      </trkpt>
      <trkpt lat="62.630373448517" lon="17.999743090039">
        <ele>102.8</ele>
        <time>2018-01-23T12:31:20Z</time>
      </trkpt>
      <trkpt lat="62.630356181803" lon="17.999694307381">
        <ele>102.8</ele>
        <time>2018-01-23T12:31:21Z</time>
      </trkpt>
      <trkpt lat="62.630338579813" lon="17.999637981013">
        <ele>102.8</ele>
        <time>2018-01-23T12:31:22Z</time>
      </trkpt>
      <trkpt lat="62.630343106039" lon="17.999604956327">
        <ele>102.8</ele>
        <time>2018-01-23T12:31:23Z</time>
      </trkpt>
      <trkpt lat="62.630327767162" lon="17.999556844221">
        <ele>103</ele>
        <time>2018-01-23T12:31:24Z</time>
      </trkpt>
      <trkpt lat="62.630303543471" lon="17.999499847301">
        <ele>103</ele>
        <time>2018-01-23T12:31:25Z</time>
      </trkpt>
      <trkpt lat="62.630293904286" lon="17.999469001909">
        <ele>103.2</ele>
        <time>2018-01-23T12:31:26Z</time>
      </trkpt>
      <trkpt lat="62.6302860253" lon="17.999439749078">
        <ele>103.2</ele>
        <time>2018-01-23T12:31:27Z</time>
      </trkpt>
      <trkpt lat="62.630273620088" lon="17.999374034982">
        <ele>103.4</ele>
        <time>2018-01-23T12:31:28Z</time>
      </trkpt>
      <trkpt lat="62.630275045011" lon="17.999344111599">
        <ele>103.4</ele>
        <time>2018-01-23T12:31:29Z</time>
      </trkpt>
      <trkpt lat="62.630264148541" lon="17.999284935385">
        <ele>103.4</ele>
        <time>2018-01-23T12:31:30Z</time>
      </trkpt>
      <trkpt lat="62.630247217103" lon="17.999216203805">
        <ele>103.4</ele>
        <time>2018-01-23T12:31:31Z</time>
      </trkpt>
      <trkpt lat="62.630246714189" lon="17.999184184947">
        <ele>103.6</ele>
        <time>2018-01-23T12:31:32Z</time>
      </trkpt>
      <trkpt lat="62.630238835203" lon="17.999119057584">
        <ele>103.6</ele>
        <time>2018-01-23T12:31:33Z</time>
      </trkpt>
      <trkpt lat="62.630225507982" lon="17.999041525009">
        <ele>103.8</ele>
        <time>2018-01-23T12:31:34Z</time>
      </trkpt>
      <trkpt lat="62.630216958444" lon="17.99900372264">
        <ele>103.8</ele>
        <time>2018-01-23T12:31:35Z</time>
      </trkpt>
      <trkpt lat="62.630215030607" lon="17.99895929857">
        <ele>104</ele>
        <time>2018-01-23T12:31:36Z</time>
      </trkpt>
      <trkpt lat="62.630200949015" lon="17.998906241143">
        <ele>104</ele>
        <time>2018-01-23T12:31:37Z</time>
      </trkpt>
      <trkpt lat="62.6301938244" lon="17.998840024133">
        <ele>104.2</ele>
        <time>2018-01-23T12:31:38Z</time>
      </trkpt>
      <trkpt lat="62.630194578771" lon="17.998807753818">
        <ele>104.2</ele>
        <time>2018-01-23T12:31:39Z</time>
      </trkpt>
      <trkpt lat="62.630196171332" lon="17.998753439106">
        <ele>104.2</ele>
        <time>2018-01-23T12:31:40Z</time>
      </trkpt>
      <trkpt lat="62.630191142192" lon="17.998693005607">
        <ele>104.4</ele>
        <time>2018-01-23T12:31:41Z</time>
      </trkpt>
      <trkpt lat="62.630177312057" lon="17.998661992577">
        <ele>104.2</ele>
        <time>2018-01-23T12:31:42Z</time>
      </trkpt>
      <trkpt lat="62.630164571569" lon="17.998592506626">
        <ele>104.4</ele>
        <time>2018-01-23T12:31:43Z</time>
      </trkpt>
      <trkpt lat="62.630164739207" lon="17.998544310701">
        <ele>104.2</ele>
        <time>2018-01-23T12:31:44Z</time>
      </trkpt>
      <trkpt lat="62.630160715895" lon="17.998502736477">
        <ele>104.4</ele>
        <time>2018-01-23T12:31:45Z</time>
      </trkpt>
      <trkpt lat="62.630161386447" lon="17.998438698761">
        <ele>104.6</ele>
        <time>2018-01-23T12:31:46Z</time>
      </trkpt>
      <trkpt lat="62.630160380619" lon="17.998399555288">
        <ele>104.6</ele>
        <time>2018-01-23T12:31:47Z</time>
      </trkpt>
      <trkpt lat="62.630158368963" lon="17.998357059055">
        <ele>104.8</ele>
        <time>2018-01-23T12:31:48Z</time>
      </trkpt>
      <trkpt lat="62.63016197318" lon="17.998289500941">
        <ele>104.8</ele>
        <time>2018-01-23T12:31:49Z</time>
      </trkpt>
      <trkpt lat="62.630167924329" lon="17.998222110465">
        <ele>105</ele>
        <time>2018-01-23T12:31:50Z</time>
      </trkpt>
      <trkpt lat="62.630169097795" lon="17.998188582865">
        <ele>105</ele>
        <time>2018-01-23T12:31:51Z</time>
      </trkpt>
      <trkpt lat="62.630169852166" lon="17.998096884879">
        <ele>105</ele>
        <time>2018-01-23T12:31:52Z</time>
      </trkpt>
      <trkpt lat="62.630176390048" lon="17.998063524917">
        <ele>104.6</ele>
        <time>2018-01-23T12:31:53Z</time>
      </trkpt>
      <trkpt lat="62.630185777776" lon="17.997998984287">
        <ele>104.6</ele>
        <time>2018-01-23T12:31:54Z</time>
      </trkpt>
      <trkpt lat="62.630201284291" lon="17.99793586858">
        <ele>104.6</ele>
        <time>2018-01-23T12:31:55Z</time>
      </trkpt>
      <trkpt lat="62.630206145793" lon="17.997890187225">
        <ele>104.8</ele>
        <time>2018-01-23T12:31:56Z</time>
      </trkpt>
      <trkpt lat="62.630217042263" lon="17.99784702044">
        <ele>104.8</ele>
        <time>2018-01-23T12:31:57Z</time>
      </trkpt>
      <trkpt lat="62.630222574317" lon="17.997809469528">
        <ele>105</ele>
        <time>2018-01-23T12:31:58Z</time>
      </trkpt>
      <trkpt lat="62.630226178534" lon="17.997729003288">
        <ele>105.2</ele>
        <time>2018-01-23T12:31:59Z</time>
      </trkpt>
      <trkpt lat="62.630237494099" lon="17.997699499">
        <ele>105.2</ele>
        <time>2018-01-23T12:32:00Z</time>
      </trkpt>
      <trkpt lat="62.630250318406" lon="17.997658762966">
        <ele>105.2</ele>
        <time>2018-01-23T12:32:01Z</time>
      </trkpt>
      <trkpt lat="62.630260711962" lon="17.997586678626">
        <ele>105.2</ele>
        <time>2018-01-23T12:32:02Z</time>
      </trkpt>
      <trkpt lat="62.630272865717" lon="17.997554743587">
        <ele>105.2</ele>
        <time>2018-01-23T12:32:03Z</time>
      </trkpt>
      <trkpt lat="62.630282756359" lon="17.99750252435">
        <ele>105.2</ele>
        <time>2018-01-23T12:32:04Z</time>
      </trkpt>
      <trkpt lat="62.63029356901" lon="17.997441168842">
        <ele>105.2</ele>
        <time>2018-01-23T12:32:05Z</time>
      </trkpt>
      <trkpt lat="62.630310835724" lon="17.997394649297">
        <ele>105.2</ele>
        <time>2018-01-23T12:32:06Z</time>
      </trkpt>
      <trkpt lat="62.630318295615" lon="17.997361624611">
        <ele>105.2</ele>
        <time>2018-01-23T12:32:07Z</time>
      </trkpt>
      <trkpt lat="62.630329359723" lon="17.997318709283">
        <ele>105.2</ele>
        <time>2018-01-23T12:32:08Z</time>
      </trkpt>
      <trkpt lat="62.63034888955" lon="17.997257856689">
        <ele>105.4</ele>
        <time>2018-01-23T12:32:09Z</time>
      </trkpt>
      <trkpt lat="62.630356936174" lon="17.997225251098">
        <ele>105.4</ele>
        <time>2018-01-23T12:32:10Z</time>
      </trkpt>
      <trkpt lat="62.630376885096" lon="17.997180240295">
        <ele>105.4</ele>
        <time>2018-01-23T12:32:11Z</time>
      </trkpt>
      <trkpt lat="62.630397169294" lon="17.997118884787">
        <ele>105.4</ele>
        <time>2018-01-23T12:32:12Z</time>
      </trkpt>
      <trkpt lat="62.630402366072" lon="17.997097175666">
        <ele>105.2</ele>
        <time>2018-01-23T12:32:13Z</time>
      </trkpt>
      <trkpt lat="62.630421476804" lon="17.99706834193">
        <ele>105.2</ele>
        <time>2018-01-23T12:32:14Z</time>
      </trkpt>
      <trkpt lat="62.630444778486" lon="17.997020648919">
        <ele>105.2</ele>
        <time>2018-01-23T12:32:15Z</time>
      </trkpt>
      <trkpt lat="62.630460201182" lon="17.996992401916">
        <ele>105.2</ele>
        <time>2018-01-23T12:32:16Z</time>
      </trkpt>
      <trkpt lat="62.630469085996" lon="17.996962143257">
        <ele>105</ele>
        <time>2018-01-23T12:32:17Z</time>
      </trkpt>
      <trkpt lat="62.630489202556" lon="17.996908080002">
        <ele>105.2</ele>
        <time>2018-01-23T12:32:18Z</time>
      </trkpt>
      <trkpt lat="62.630499260836" lon="17.996882012293">
        <ele>105.4</ele>
        <time>2018-01-23T12:32:19Z</time>
      </trkpt>
      <trkpt lat="62.630530441504" lon="17.996821746432">
        <ele>105.2</ele>
        <time>2018-01-23T12:32:20Z</time>
      </trkpt>
      <trkpt lat="62.630546283295" lon="17.996776567991">
        <ele>105.4</ele>
        <time>2018-01-23T12:32:21Z</time>
      </trkpt>
      <trkpt lat="62.630562795638" lon="17.996737005423">
        <ele>105.4</ele>
        <time>2018-01-23T12:32:22Z</time>
      </trkpt>
      <trkpt lat="62.630576290497" lon="17.996690904973">
        <ele>105.4</ele>
        <time>2018-01-23T12:32:23Z</time>
      </trkpt>
      <trkpt lat="62.630588695709" lon="17.996642960505">
        <ele>105.4</ele>
        <time>2018-01-23T12:32:24Z</time>
      </trkpt>
      <trkpt lat="62.630603196396" lon="17.996593172019">
        <ele>105.4</ele>
        <time>2018-01-23T12:32:25Z</time>
      </trkpt>
      <trkpt lat="62.630614763418" lon="17.996530475407">
        <ele>105.4</ele>
        <time>2018-01-23T12:32:26Z</time>
      </trkpt>
      <trkpt lat="62.630636807815" lon="17.996466437691">
        <ele>105.4</ele>
        <time>2018-01-23T12:32:27Z</time>
      </trkpt>
      <trkpt lat="62.630639406204" lon="17.996423187087">
        <ele>105.4</ele>
        <time>2018-01-23T12:32:28Z</time>
      </trkpt>
      <trkpt lat="62.630646027905" lon="17.996384043614">
        <ele>105.8</ele>
        <time>2018-01-23T12:32:29Z</time>
      </trkpt>
      <trkpt lat="62.630658433117" lon="17.996334003671">
        <ele>105.8</ele>
        <time>2018-01-23T12:32:30Z</time>
      </trkpt>
      <trkpt lat="62.630671173605" lon="17.996286059203">
        <ele>106</ele>
        <time>2018-01-23T12:32:31Z</time>
      </trkpt>
      <trkpt lat="62.630688524138" lon="17.996220848021">
        <ele>106.2</ele>
        <time>2018-01-23T12:32:32Z</time>
      </trkpt>
      <trkpt lat="62.630700594074" lon="17.99619327157">
        <ele>106.2</ele>
        <time>2018-01-23T12:32:33Z</time>
      </trkpt>
      <trkpt lat="62.630708808336" lon="17.996152367898">
        <ele>106</ele>
        <time>2018-01-23T12:32:34Z</time>
      </trkpt>
      <trkpt lat="62.630738144986" lon="17.996097298815">
        <ele>106</ele>
        <time>2018-01-23T12:32:35Z</time>
      </trkpt>
      <trkpt lat="62.630764296514" lon="17.996070560554">
        <ele>106</ele>
        <time>2018-01-23T12:32:36Z</time>
      </trkpt>
      <trkpt lat="62.630788268748" lon="17.996026220303">
        <ele>105.8</ele>
        <time>2018-01-23T12:32:37Z</time>
      </trkpt>
      <trkpt lat="62.63080989405" lon="17.996008366856">
        <ele>105.8</ele>
        <time>2018-01-23T12:32:38Z</time>
      </trkpt>
      <trkpt lat="62.630833531008" lon="17.995960506207">
        <ele>105.8</ele>
        <time>2018-01-23T12:32:39Z</time>
      </trkpt>
      <trkpt lat="62.630868734988" lon="17.995926475693">
        <ele>105.8</ele>
        <time>2018-01-23T12:32:40Z</time>
      </trkpt>
      <trkpt lat="62.630884995874" lon="17.995906862047">
        <ele>105.8</ele>
        <time>2018-01-23T12:32:41Z</time>
      </trkpt>
      <trkpt lat="62.630902681683" lon="17.995878615044">
        <ele>106</ele>
        <time>2018-01-23T12:32:42Z</time>
      </trkpt>
      <trkpt lat="62.630925815727" lon="17.995852212059">
        <ele>106</ele>
        <time>2018-01-23T12:32:43Z</time>
      </trkpt>
      <trkpt lat="62.630953392178" lon="17.995802255935">
        <ele>106</ele>
        <time>2018-01-23T12:32:44Z</time>
      </trkpt>
      <trkpt lat="62.630966970856" lon="17.995774092751">
        <ele>106</ele>
        <time>2018-01-23T12:32:45Z</time>
      </trkpt>
      <trkpt lat="62.630999073533" lon="17.995738553495">
        <ele>106</ele>
        <time>2018-01-23T12:32:46Z</time>
      </trkpt>
      <trkpt lat="62.631010389098" lon="17.995697733642">
        <ele>106.2</ele>
        <time>2018-01-23T12:32:47Z</time>
      </trkpt>
      <trkpt lat="62.631039977205" lon="17.995674683417">
        <ele>106.2</ele>
        <time>2018-01-23T12:32:48Z</time>
      </trkpt>
      <trkpt lat="62.631060596679" lon="17.99564090436">
        <ele>106.2</ele>
        <time>2018-01-23T12:32:49Z</time>
      </trkpt>
      <trkpt lat="62.631084401275" lon="17.995628163872">
        <ele>106.2</ele>
        <time>2018-01-23T12:32:50Z</time>
      </trkpt>
      <trkpt lat="62.631112564459" lon="17.995583739802">
        <ele>106.2</ele>
        <time>2018-01-23T12:32:51Z</time>
      </trkpt>
      <trkpt lat="62.631128741526" lon="17.995547362356">
        <ele>106.2</ele>
        <time>2018-01-23T12:32:52Z</time>
      </trkpt>
      <trkpt lat="62.631149277181" lon="17.995526575244">
        <ele>106.4</ele>
        <time>2018-01-23T12:32:53Z</time>
      </trkpt>
      <trkpt lat="62.631175093433" lon="17.995486006848">
        <ele>106.4</ele>
        <time>2018-01-23T12:32:54Z</time>
      </trkpt>
      <trkpt lat="62.631187750102" lon="17.9954615317">
        <ele>106.4</ele>
        <time>2018-01-23T12:32:55Z</time>
      </trkpt>
      <trkpt lat="62.631211554698" lon="17.995417442906">
        <ele>106.4</ele>
        <time>2018-01-23T12:32:56Z</time>
      </trkpt>
      <trkpt lat="62.631225301014" lon="17.99538944736">
        <ele>106.4</ele>
        <time>2018-01-23T12:32:57Z</time>
      </trkpt>
      <trkpt lat="62.631226390661" lon="17.995361116538">
        <ele>106.4</ele>
        <time>2018-01-23T12:32:58Z</time>
      </trkpt>
      <trkpt lat="62.631245836669" lon="17.995311328052">
        <ele>106.6</ele>
        <time>2018-01-23T12:32:59Z</time>
      </trkpt>
      <trkpt lat="62.631258158062" lon="17.995264808507">
        <ele>106.6</ele>
        <time>2018-01-23T12:33:00Z</time>
      </trkpt>
      <trkpt lat="62.63128766235" lon="17.995219881523">
        <ele>106.8</ele>
        <time>2018-01-23T12:33:01Z</time>
      </trkpt>
      <trkpt lat="62.631281208287" lon="17.995179396946">
        <ele>106.8</ele>
        <time>2018-01-23T12:33:02Z</time>
      </trkpt>
      <trkpt lat="62.631300654295" lon="17.995143270957">
        <ele>106.8</ele>
        <time>2018-01-23T12:33:03Z</time>
      </trkpt>
      <trkpt lat="62.631318088647" lon="17.995096835231">
        <ele>107</ele>
        <time>2018-01-23T12:33:04Z</time>
      </trkpt>
      <trkpt lat="62.631327560194" lon="17.995064900192">
        <ele>107</ele>
        <time>2018-01-23T12:33:05Z</time>
      </trkpt>
      <trkpt lat="62.631341474148" lon="17.995017458638">
        <ele>106.8</ele>
        <time>2018-01-23T12:33:06Z</time>
      </trkpt>
      <trkpt lat="62.631355807197" lon="17.994978482803">
        <ele>107</ele>
        <time>2018-01-23T12:33:07Z</time>
      </trkpt>
      <trkpt lat="62.631370140246" lon="17.994923078444">
        <ele>107</ele>
        <time>2018-01-23T12:33:08Z</time>
      </trkpt>
      <trkpt lat="62.631377767775" lon="17.994884689342">
        <ele>107</ele>
        <time>2018-01-23T12:33:09Z</time>
      </trkpt>
      <trkpt lat="62.631386987865" lon="17.994807659681">
        <ele>107</ele>
        <time>2018-01-23T12:33:10Z</time>
      </trkpt>
      <trkpt lat="62.631397046145" lon="17.994751165675">
        <ele>107</ele>
        <time>2018-01-23T12:33:11Z</time>
      </trkpt>
      <trkpt lat="62.631406350054" lon="17.994684110475">
        <ele>106.8</ele>
        <time>2018-01-23T12:33:12Z</time>
      </trkpt>
      <trkpt lat="62.631413055574" lon="17.994630801591">
        <ele>106.8</ele>
        <time>2018-01-23T12:33:13Z</time>
      </trkpt>
      <trkpt lat="62.631425376967" lon="17.994588389177">
        <ele>106.6</ele>
        <time>2018-01-23T12:33:14Z</time>
      </trkpt>
      <trkpt lat="62.631426718071" lon="17.994510269869">
        <ele>106.6</ele>
        <time>2018-01-23T12:33:15Z</time>
      </trkpt>
      <trkpt lat="62.631434094143" lon="17.994438353167">
        <ele>106.6</ele>
        <time>2018-01-23T12:33:16Z</time>
      </trkpt>
      <trkpt lat="62.631405511864" lon="17.994364005714">
        <ele>106.4</ele>
        <time>2018-01-23T12:33:17Z</time>
      </trkpt>
      <trkpt lat="62.631398051973" lon="17.994300219455">
        <ele>106.4</ele>
        <time>2018-01-23T12:33:18Z</time>
      </trkpt>
      <trkpt lat="62.631418587628" lon="17.994258980507">
        <ele>106.4</ele>
        <time>2018-01-23T12:33:19Z</time>
      </trkpt>
      <trkpt lat="62.631404673674" lon="17.994182369941">
        <ele>106.2</ele>
        <time>2018-01-23T12:33:20Z</time>
      </trkpt>
      <trkpt lat="62.63140249438" lon="17.994124953926">
        <ele>106</ele>
        <time>2018-01-23T12:33:21Z</time>
      </trkpt>
      <trkpt lat="62.631407691158" lon="17.994080278399">
        <ele>105.8</ele>
        <time>2018-01-23T12:33:22Z</time>
      </trkpt>
      <trkpt lat="62.631403500208" lon="17.99401565395">
        <ele>105.8</ele>
        <time>2018-01-23T12:33:23Z</time>
      </trkpt>
      <trkpt lat="62.631393358109" lon="17.993958740849">
        <ele>105.8</ele>
        <time>2018-01-23T12:33:24Z</time>
      </trkpt>
      <trkpt lat="62.631387909874" lon="17.993904845232">
        <ele>105.8</ele>
        <time>2018-01-23T12:33:25Z</time>
      </trkpt>
      <trkpt lat="62.63138321601" lon="17.993835778376">
        <ele>105.8</ele>
        <time>2018-01-23T12:33:26Z</time>
      </trkpt>
      <trkpt lat="62.631379527974" lon="17.993812728151">
        <ele>105.8</ele>
        <time>2018-01-23T12:33:27Z</time>
      </trkpt>
      <trkpt lat="62.631377516318" lon="17.993739386526">
        <ele>105.6</ele>
        <time>2018-01-23T12:33:28Z</time>
      </trkpt>
      <trkpt lat="62.631385395304" lon="17.993678282475">
        <ele>105.8</ele>
        <time>2018-01-23T12:33:29Z</time>
      </trkpt>
      <trkpt lat="62.631392687557" lon="17.993620279727">
        <ele>105.6</ele>
        <time>2018-01-23T12:33:30Z</time>
      </trkpt>
      <trkpt lat="62.631398219611" lon="17.993541908962">
        <ele>105.6</ele>
        <time>2018-01-23T12:33:31Z</time>
      </trkpt>
      <trkpt lat="62.631404003122" lon="17.993501675842">
        <ele>105.6</ele>
        <time>2018-01-23T12:33:32Z</time>
      </trkpt>
      <trkpt lat="62.631416073058" lon="17.993405283992">
        <ele>105.6</ele>
        <time>2018-01-23T12:33:33Z</time>
      </trkpt>
      <trkpt lat="62.631430489926" lon="17.993351304556">
        <ele>105.6</ele>
        <time>2018-01-23T12:33:34Z</time>
      </trkpt>
      <trkpt lat="62.631437865998" lon="17.993279136397">
        <ele>105.4</ele>
        <time>2018-01-23T12:33:35Z</time>
      </trkpt>
      <trkpt lat="62.631452366685" lon="17.993211997378">
        <ele>105.4</ele>
        <time>2018-01-23T12:33:36Z</time>
      </trkpt>
      <trkpt lat="62.631459323662" lon="17.993162963263">
        <ele>105.2</ele>
        <time>2018-01-23T12:33:37Z</time>
      </trkpt>
      <trkpt lat="62.631472147969" lon="17.993082497023">
        <ele>105</ele>
        <time>2018-01-23T12:33:38Z</time>
      </trkpt>
      <trkpt lat="62.631492935081" lon="17.993027092664">
        <ele>104.8</ele>
        <time>2018-01-23T12:33:39Z</time>
      </trkpt>
      <trkpt lat="62.631500646429" lon="17.992971604486">
        <ele>104.6</ele>
        <time>2018-01-23T12:33:40Z</time>
      </trkpt>
      <trkpt lat="62.631511123804" lon="17.992910248978">
        <ele>104.4</ele>
        <time>2018-01-23T12:33:41Z</time>
      </trkpt>
      <trkpt lat="62.631518835152" lon="17.992870015858">
        <ele>104.4</ele>
        <time>2018-01-23T12:33:42Z</time>
      </trkpt>
      <trkpt lat="62.631526043586" lon="17.992837829362">
        <ele>104.2</ele>
        <time>2018-01-23T12:33:43Z</time>
      </trkpt>
      <trkpt lat="62.631536353323" lon="17.992794997853">
        <ele>104.4</ele>
        <time>2018-01-23T12:33:44Z</time>
      </trkpt>
      <trkpt lat="62.631543645576" lon="17.992753255991">
        <ele>104.4</ele>
        <time>2018-01-23T12:33:45Z</time>
      </trkpt>
      <trkpt lat="62.631557056616" lon="17.992699863288">
        <ele>104.6</ele>
        <time>2018-01-23T12:33:46Z</time>
      </trkpt>
      <trkpt lat="62.631568958914" lon="17.992649907164">
        <ele>104.6</ele>
        <time>2018-01-23T12:33:47Z</time>
      </trkpt>
      <trkpt lat="62.631586979999" lon="17.992594251348">
        <ele>104.8</ele>
        <time>2018-01-23T12:33:48Z</time>
      </trkpt>
      <trkpt lat="62.631605923093" lon="17.992549072907">
        <ele>104.8</ele>
        <time>2018-01-23T12:33:49Z</time>
      </trkpt>
      <trkpt lat="62.631624950006" lon="17.992518730429">
        <ele>104.8</ele>
        <time>2018-01-23T12:33:50Z</time>
      </trkpt>
      <trkpt lat="62.631642049082" lon="17.992494758195">
        <ele>104.8</ele>
        <time>2018-01-23T12:33:51Z</time>
      </trkpt>
      <trkpt lat="62.631659902529" lon="17.992474725454">
        <ele>104.8</ele>
        <time>2018-01-23T12:33:52Z</time>
      </trkpt>
      <trkpt lat="62.631692005206" lon="17.992454860351">
        <ele>104.6</ele>
        <time>2018-01-23T12:33:53Z</time>
      </trkpt>
      <trkpt lat="62.631703320771" lon="17.992434240877">
        <ele>104.6</ele>
        <time>2018-01-23T12:33:54Z</time>
      </trkpt>
      <trkpt lat="62.63172938848" lon="17.992411023014">
        <ele>104.6</ele>
        <time>2018-01-23T12:33:55Z</time>
      </trkpt>
      <trkpt lat="62.631757803121" lon="17.992354948103">
        <ele>104.4</ele>
        <time>2018-01-23T12:33:56Z</time>
      </trkpt>
      <trkpt lat="62.631791079264" lon="17.992334999181">
        <ele>104.4</ele>
        <time>2018-01-23T12:33:57Z</time>
      </trkpt>
      <trkpt lat="62.631807759245" lon="17.992303986151">
        <ele>104.2</ele>
        <time>2018-01-23T12:33:58Z</time>
      </trkpt>
      <trkpt lat="62.631818488077" lon="17.992287054713">
        <ele>104.2</ele>
        <time>2018-01-23T12:33:59Z</time>
      </trkpt>
      <trkpt lat="62.631843969053" lon="17.992252353647">
        <ele>104.2</ele>
        <time>2018-01-23T12:34:00Z</time>
      </trkpt>
      <trkpt lat="62.631873473341" lon="17.992195189089">
        <ele>104.2</ele>
        <time>2018-01-23T12:34:01Z</time>
      </trkpt>
      <trkpt lat="62.631889566589" lon="17.992157554358">
        <ele>104.4</ele>
        <time>2018-01-23T12:34:02Z</time>
      </trkpt>
      <trkpt lat="62.631900546878" lon="17.992129391174">
        <ele>104.4</ele>
        <time>2018-01-23T12:34:03Z</time>
      </trkpt>
      <trkpt lat="62.631917897411" lon="17.992080357059">
        <ele>104.4</ele>
        <time>2018-01-23T12:34:04Z</time>
      </trkpt>
      <trkpt lat="62.631929799709" lon="17.992041465043">
        <ele>104.2</ele>
        <time>2018-01-23T12:34:05Z</time>
      </trkpt>
      <trkpt lat="62.631943210749" lon="17.992001567199">
        <ele>104.2</ele>
        <time>2018-01-23T12:34:06Z</time>
      </trkpt>
      <trkpt lat="62.631970284286" lon="17.991922358244">
        <ele>104</ele>
        <time>2018-01-23T12:34:07Z</time>
      </trkpt>
      <trkpt lat="62.631963914042" lon="17.991886064617">
        <ele>104</ele>
        <time>2018-01-23T12:34:08Z</time>
      </trkpt>
      <trkpt lat="62.631976486892" lon="17.991821104892">
        <ele>104</ele>
        <time>2018-01-23T12:34:09Z</time>
      </trkpt>
      <trkpt lat="62.631970535743" lon="17.991763185963">
        <ele>104.2</ele>
        <time>2018-01-23T12:34:10Z</time>
      </trkpt>
      <trkpt lat="62.631982605679" lon="17.991713816572">
        <ele>104.2</ele>
        <time>2018-01-23T12:34:11Z</time>
      </trkpt>
      <trkpt lat="62.631979839652" lon="17.991637122187">
        <ele>104.4</ele>
        <time>2018-01-23T12:34:12Z</time>
      </trkpt>
      <trkpt lat="62.631984952611" lon="17.991591357013">
        <ele>104.4</ele>
        <time>2018-01-23T12:34:13Z</time>
      </trkpt>
      <trkpt lat="62.63199425652" lon="17.991530252962">
        <ele>104.2</ele>
        <time>2018-01-23T12:34:14Z</time>
      </trkpt>
      <trkpt lat="62.631995681443" lon="17.991464455047">
        <ele>104.2</ele>
        <time>2018-01-23T12:34:15Z</time>
      </trkpt>
      <trkpt lat="62.632000794402" lon="17.991409637421">
        <ele>104.2</ele>
        <time>2018-01-23T12:34:16Z</time>
      </trkpt>
      <trkpt lat="62.632010768863" lon="17.991333110674">
        <ele>104.2</ele>
        <time>2018-01-23T12:34:17Z</time>
      </trkpt>
      <trkpt lat="62.632027029749" lon="17.991286842586">
        <ele>104.2</ele>
        <time>2018-01-23T12:34:18Z</time>
      </trkpt>
      <trkpt lat="62.632022000609" lon="17.991219703567">
        <ele>104.2</ele>
        <time>2018-01-23T12:34:19Z</time>
      </trkpt>
      <trkpt lat="62.632032477984" lon="17.991159018611">
        <ele>104.2</ele>
        <time>2018-01-23T12:34:20Z</time>
      </trkpt>
      <trkpt lat="62.632042620083" lon="17.991106883193">
        <ele>104</ele>
        <time>2018-01-23T12:34:21Z</time>
      </trkpt>
      <trkpt lat="62.632052175449" lon="17.991031865188">
        <ele>104</ele>
        <time>2018-01-23T12:34:22Z</time>
      </trkpt>
      <trkpt lat="62.632062233729" lon="17.990983501625">
        <ele>104</ele>
        <time>2018-01-23T12:34:23Z</time>
      </trkpt>
      <trkpt lat="62.632075812407" lon="17.990933964596">
        <ele>104</ele>
        <time>2018-01-23T12:34:24Z</time>
      </trkpt>
      <trkpt lat="62.632089893999" lon="17.990875123658">
        <ele>104</ele>
        <time>2018-01-23T12:34:25Z</time>
      </trkpt>
      <trkpt lat="62.632106909256" lon="17.990843188619">
        <ele>104</ele>
        <time>2018-01-23T12:34:26Z</time>
      </trkpt>
      <trkpt lat="62.632119314468" lon="17.990819719299">
        <ele>104.2</ele>
        <time>2018-01-23T12:34:27Z</time>
      </trkpt>
      <trkpt lat="62.632140353037" lon="17.990792561943">
        <ele>104.2</ele>
        <time>2018-01-23T12:34:28Z</time>
      </trkpt>
      <trkpt lat="62.632165414918" lon="17.990753921384">
        <ele>104</ele>
        <time>2018-01-23T12:34:29Z</time>
      </trkpt>
      <trkpt lat="62.6321803347" lon="17.990726344933">
        <ele>104.2</ele>
        <time>2018-01-23T12:34:30Z</time>
      </trkpt>
      <trkpt lat="62.632208497884" lon="17.990672030221">
        <ele>104.4</ele>
        <time>2018-01-23T12:34:31Z</time>
      </trkpt>
      <trkpt lat="62.632220819277" lon="17.990642023019">
        <ele>104.4</ele>
        <time>2018-01-23T12:34:32Z</time>
      </trkpt>
      <trkpt lat="62.632239594733" lon="17.990584690823">
        <ele>104.6</ele>
        <time>2018-01-23T12:34:33Z</time>
      </trkpt>
      <trkpt lat="62.632258370189" lon="17.990532220129">
        <ele>104.6</ele>
        <time>2018-01-23T12:34:34Z</time>
      </trkpt>
      <trkpt lat="62.63226918284" lon="17.990492070828">
        <ele>104.8</ele>
        <time>2018-01-23T12:34:35Z</time>
      </trkpt>
      <trkpt lat="62.632286617192" lon="17.990426692008">
        <ele>104.8</ele>
        <time>2018-01-23T12:34:36Z</time>
      </trkpt>
      <trkpt lat="62.632303632449" lon="17.990394840788">
        <ele>104.8</ele>
        <time>2018-01-23T12:34:37Z</time>
      </trkpt>
      <trkpt lat="62.632315953842" lon="17.990340106981">
        <ele>104.8</ele>
        <time>2018-01-23T12:34:38Z</time>
      </trkpt>
      <trkpt lat="62.632324671018" lon="17.990288474477">
        <ele>104.6</ele>
        <time>2018-01-23T12:34:39Z</time>
      </trkpt>
      <trkpt lat="62.632339674619" lon="17.990230052634">
        <ele>104.6</ele>
        <time>2018-01-23T12:34:40Z</time>
      </trkpt>
      <trkpt lat="62.632346799234" lon="17.990191244437">
        <ele>104.6</ele>
        <time>2018-01-23T12:34:41Z</time>
      </trkpt>
      <trkpt lat="62.632366329061" lon="17.990148329109">
        <ele>104.6</ele>
        <time>2018-01-23T12:34:42Z</time>
      </trkpt>
      <trkpt lat="62.632370855287" lon="17.990099462632">
        <ele>104.6</ele>
        <time>2018-01-23T12:34:43Z</time>
      </trkpt>
      <trkpt lat="62.632388708734" lon="17.990044393549">
        <ele>104.8</ele>
        <time>2018-01-23T12:34:44Z</time>
      </trkpt>
      <trkpt lat="62.632404634344" lon="17.989978847091">
        <ele>104.8</ele>
        <time>2018-01-23T12:34:45Z</time>
      </trkpt>
      <trkpt lat="62.632419554126" lon="17.989931405537">
        <ele>104.8</ele>
        <time>2018-01-23T12:34:46Z</time>
      </trkpt>
      <trkpt lat="62.632434222451" lon="17.989879940671">
        <ele>104.6</ele>
        <time>2018-01-23T12:34:47Z</time>
      </trkpt>
      <trkpt lat="62.632451405346" lon="17.989833840221">
        <ele>104.6</ele>
        <time>2018-01-23T12:34:48Z</time>
      </trkpt>
      <trkpt lat="62.632457440314" lon="17.989794110015">
        <ele>104.6</ele>
        <time>2018-01-23T12:34:49Z</time>
      </trkpt>
      <trkpt lat="62.63247705396" lon="17.989729234109">
        <ele>104.6</ele>
        <time>2018-01-23T12:34:50Z</time>
      </trkpt>
      <trkpt lat="62.632499768909" lon="17.989674165026">
        <ele>104.6</ele>
        <time>2018-01-23T12:34:51Z</time>
      </trkpt>
      <trkpt lat="62.632514521053" lon="17.989637368485">
        <ele>104.6</ele>
        <time>2018-01-23T12:34:52Z</time>
      </trkpt>
      <trkpt lat="62.632526590989" lon="17.989589507836">
        <ele>104.6</ele>
        <time>2018-01-23T12:34:53Z</time>
      </trkpt>
      <trkpt lat="62.632544276798" lon="17.989535109305">
        <ele>104.6</ele>
        <time>2018-01-23T12:34:54Z</time>
      </trkpt>
      <trkpt lat="62.632559364218" lon="17.9895020008">
        <ele>104.6</ele>
        <time>2018-01-23T12:34:55Z</time>
      </trkpt>
      <trkpt lat="62.6325826659" lon="17.989443159862">
        <ele>104.6</ele>
        <time>2018-01-23T12:34:56Z</time>
      </trkpt>
      <trkpt lat="62.632587443583" lon="17.989412398289">
        <ele>104.8</ele>
        <time>2018-01-23T12:34:57Z</time>
      </trkpt>
      <trkpt lat="62.632607308686" lon="17.989374763558">
        <ele>104.8</ele>
        <time>2018-01-23T12:34:58Z</time>
      </trkpt>
      <trkpt lat="62.63264385377" lon="17.989328076375">
        <ele>104.8</ele>
        <time>2018-01-23T12:34:59Z</time>
      </trkpt>
      <trkpt lat="62.632662545407" lon="17.989296728069">
        <ele>104.8</ele>
        <time>2018-01-23T12:35:00Z</time>
      </trkpt>
      <trkpt lat="62.632688445478" lon="17.989250627619">
        <ele>104.8</ele>
        <time>2018-01-23T12:35:01Z</time>
      </trkpt>
      <trkpt lat="62.632708310581" lon="17.989218022028">
        <ele>105</ele>
        <time>2018-01-23T12:35:02Z</time>
      </trkpt>
      <trkpt lat="62.632729935883" lon="17.989179046193">
        <ele>105</ele>
        <time>2018-01-23T12:35:03Z</time>
      </trkpt>
      <trkpt lat="62.632767319157" lon="17.989139483625">
        <ele>105</ele>
        <time>2018-01-23T12:35:04Z</time>
      </trkpt>
      <trkpt lat="62.632795063246" lon="17.989126156404">
        <ele>105</ele>
        <time>2018-01-23T12:35:05Z</time>
      </trkpt>
      <trkpt lat="62.632827752656" lon="17.989099501962">
        <ele>104.8</ele>
        <time>2018-01-23T12:35:06Z</time>
      </trkpt>
      <trkpt lat="62.632852143985" lon="17.989073769529">
        <ele>104.8</ele>
        <time>2018-01-23T12:35:07Z</time>
      </trkpt>
      <trkpt lat="62.63287016507" lon="17.98905692191">
        <ele>104.8</ele>
        <time>2018-01-23T12:35:08Z</time>
      </trkpt>
      <trkpt lat="62.632906542516" lon="17.989024651595">
        <ele>104.8</ele>
        <time>2018-01-23T12:35:09Z</time>
      </trkpt>
      <trkpt lat="62.632924563601" lon="17.989002523379">
        <ele>104.8</ele>
        <time>2018-01-23T12:35:10Z</time>
      </trkpt>
      <trkpt lat="62.63296488054" lon="17.988963966639">
        <ele>105</ele>
        <time>2018-01-23T12:35:11Z</time>
      </trkpt>
      <trkpt lat="62.63297242425" lon="17.988921386587">
        <ele>105</ele>
        <time>2018-01-23T12:35:12Z</time>
      </trkpt>
      <trkpt lat="62.632985332376" lon="17.988860450174">
        <ele>105</ele>
        <time>2018-01-23T12:35:14Z</time>
      </trkpt>
      <trkpt lat="62.632995809751" lon="17.988815942285">
        <ele>105</ele>
        <time>2018-01-23T12:35:15Z</time>
      </trkpt>
      <trkpt lat="62.633004694565" lon="17.988767243446">
        <ele>105</ele>
        <time>2018-01-23T12:35:16Z</time>
      </trkpt>
      <trkpt lat="62.633018357062" lon="17.988680993695">
        <ele>105</ele>
        <time>2018-01-23T12:35:17Z</time>
      </trkpt>
      <trkpt lat="62.633024224392" lon="17.988608909355">
        <ele>105</ele>
        <time>2018-01-23T12:35:18Z</time>
      </trkpt>
      <trkpt lat="62.63303361212" lon="17.988558953231">
        <ele>104.8</ele>
        <time>2018-01-23T12:35:19Z</time>
      </trkpt>
      <trkpt lat="62.633051297929" lon="17.988499106465">
        <ele>104.8</ele>
        <time>2018-01-23T12:35:20Z</time>
      </trkpt>
      <trkpt lat="62.633060769476" lon="17.988463064295">
        <ele>104.8</ele>
        <time>2018-01-23T12:35:21Z</time>
      </trkpt>
      <trkpt lat="62.633085244624" lon="17.988404139538">
        <ele>104.8</ele>
        <time>2018-01-23T12:35:22Z</time>
      </trkpt>
      <trkpt lat="62.633098068931" lon="17.988366420988">
        <ele>104.8</ele>
        <time>2018-01-23T12:35:23Z</time>
      </trkpt>
      <trkpt lat="62.633118688405" lon="17.988329540628">
        <ele>104.8</ele>
        <time>2018-01-23T12:35:24Z</time>
      </trkpt>
      <trkpt lat="62.633136374214" lon="17.988291067707">
        <ele>104.8</ele>
        <time>2018-01-23T12:35:25Z</time>
      </trkpt>
      <trkpt lat="62.633150455806" lon="17.98825142132">
        <ele>104.8</ele>
        <time>2018-01-23T12:35:26Z</time>
      </trkpt>
      <trkpt lat="62.633163615389" lon="17.988198950626">
        <ele>104.8</ele>
        <time>2018-01-23T12:35:27Z</time>
      </trkpt>
      <trkpt lat="62.633177864619" lon="17.988163076094">
        <ele>105</ele>
        <time>2018-01-23T12:35:28Z</time>
      </trkpt>
      <trkpt lat="62.633193203496" lon="17.988124184078">
        <ele>105</ele>
        <time>2018-01-23T12:35:29Z</time>
      </trkpt>
      <trkpt lat="62.633200579568" lon="17.988076071972">
        <ele>105.2</ele>
        <time>2018-01-23T12:35:30Z</time>
      </trkpt>
      <trkpt lat="62.633220444671" lon="17.988001808338">
        <ele>105.2</ele>
        <time>2018-01-23T12:35:31Z</time>
      </trkpt>
      <trkpt lat="62.63323561591" lon="17.987953109499">
        <ele>105.4</ele>
        <time>2018-01-23T12:35:32Z</time>
      </trkpt>
      <trkpt lat="62.633241064145" lon="17.987893598009">
        <ele>105.6</ele>
        <time>2018-01-23T12:35:33Z</time>
      </trkpt>
      <trkpt lat="62.633245422733" lon="17.98781640071">
        <ele>105.6</ele>
        <time>2018-01-23T12:35:34Z</time>
      </trkpt>
      <trkpt lat="62.63324986514" lon="17.987755631935">
        <ele>105.4</ele>
        <time>2018-01-23T12:35:35Z</time>
      </trkpt>
      <trkpt lat="62.633255648651" lon="17.987700646671">
        <ele>105.4</ele>
        <time>2018-01-23T12:35:36Z</time>
      </trkpt>
      <trkpt lat="62.633265287836" lon="17.987638452973">
        <ele>105.2</ele>
        <time>2018-01-23T12:35:37Z</time>
      </trkpt>
      <trkpt lat="62.633271574261" lon="17.987587239564">
        <ele>105.2</ele>
        <time>2018-01-23T12:35:38Z</time>
      </trkpt>
      <trkpt lat="62.633279537066" lon="17.987541558209">
        <ele>105.2</ele>
        <time>2018-01-23T12:35:39Z</time>
      </trkpt>
      <trkpt lat="62.633288338061" lon="17.987495709216">
        <ele>105</ele>
        <time>2018-01-23T12:35:40Z</time>
      </trkpt>
      <trkpt lat="62.63328926007" lon="17.987455308458">
        <ele>105</ele>
        <time>2018-01-23T12:35:41Z</time>
      </trkpt>
      <trkpt lat="62.633292948106" lon="17.987397808624">
        <ele>105.2</ele>
        <time>2018-01-23T12:35:42Z</time>
      </trkpt>
      <trkpt lat="62.633289930622" lon="17.98736629268">
        <ele>105.2</ele>
        <time>2018-01-23T12:35:43Z</time>
      </trkpt>
      <trkpt lat="62.633278782695" lon="17.987321365696">
        <ele>105.4</ele>
        <time>2018-01-23T12:35:44Z</time>
      </trkpt>
      <trkpt lat="62.633269478786" lon="17.987292867236">
        <ele>105.6</ele>
        <time>2018-01-23T12:35:45Z</time>
      </trkpt>
      <trkpt lat="62.633248021122" lon="17.987238552524">
        <ele>106</ele>
        <time>2018-01-23T12:35:46Z</time>
      </trkpt>
      <trkpt lat="62.633230838227" lon="17.987189937504">
        <ele>106.4</ele>
        <time>2018-01-23T12:35:47Z</time>
      </trkpt>
      <trkpt lat="62.633217343368" lon="17.98712489396">
        <ele>106.4</ele>
        <time>2018-01-23T12:35:48Z</time>
      </trkpt>
      <trkpt lat="62.633193454953" lon="17.987026322816">
        <ele>106.4</ele>
        <time>2018-01-23T12:35:49Z</time>
      </trkpt>
      <trkpt lat="62.633172667841" lon="17.986929763328">
        <ele>105.8</ele>
        <time>2018-01-23T12:35:50Z</time>
      </trkpt>
      <trkpt lat="62.633156658412" lon="17.986836975695">
        <ele>105</ele>
        <time>2018-01-23T12:35:51Z</time>
      </trkpt>
      <trkpt lat="62.633143582648" lon="17.986735470886">
        <ele>104</ele>
        <time>2018-01-23T12:35:52Z</time>
      </trkpt>
      <trkpt lat="62.63314341501" lon="17.986656010474">
        <ele>103.6</ele>
        <time>2018-01-23T12:35:53Z</time>
      </trkpt>
      <trkpt lat="62.633136877128" lon="17.986546123765">
        <ele>103</ele>
        <time>2018-01-23T12:35:54Z</time>
      </trkpt>
      <trkpt lat="62.633128076133" lon="17.98647026757">
        <ele>103</ele>
        <time>2018-01-23T12:35:55Z</time>
      </trkpt>
      <trkpt lat="62.633122711717" lon="17.986404134379">
        <ele>103</ele>
        <time>2018-01-23T12:35:56Z</time>
      </trkpt>
      <trkpt lat="62.633117850215" lon="17.986304473588">
        <ele>103.2</ele>
        <time>2018-01-23T12:35:57Z</time>
      </trkpt>
      <trkpt lat="62.633110557962" lon="17.986230712868">
        <ele>103.4</ele>
        <time>2018-01-23T12:35:58Z</time>
      </trkpt>
      <trkpt lat="62.633106702288" lon="17.986136416493">
        <ele>103.6</ele>
        <time>2018-01-23T12:35:59Z</time>
      </trkpt>
      <trkpt lat="62.633107708116" lon="17.98602937963">
        <ele>103.2</ele>
        <time>2018-01-23T12:36:00Z</time>
      </trkpt>
      <trkpt lat="62.633112150523" lon="17.985938352196">
        <ele>102.6</ele>
        <time>2018-01-23T12:36:01Z</time>
      </trkpt>
      <trkpt lat="62.63311743112" lon="17.985861322535">
        <ele>102.2</ele>
        <time>2018-01-23T12:36:02Z</time>
      </trkpt>
      <trkpt lat="62.633118520767" lon="17.985762751391">
        <ele>101.8</ele>
        <time>2018-01-23T12:36:03Z</time>
      </trkpt>
      <trkpt lat="62.633113491627" lon="17.985650014836">
        <ele>101.6</ele>
        <time>2018-01-23T12:36:04Z</time>
      </trkpt>
      <trkpt lat="62.633110306505" lon="17.985575667383">
        <ele>101.4</ele>
        <time>2018-01-23T12:36:05Z</time>
      </trkpt>
      <trkpt lat="62.633110557962" lon="17.985467121778">
        <ele>101</ele>
        <time>2018-01-23T12:36:06Z</time>
      </trkpt>
      <trkpt lat="62.633115084188" lon="17.985380788208">
        <ele>101</ele>
        <time>2018-01-23T12:36:07Z</time>
      </trkpt>
      <trkpt lat="62.633125226287" lon="17.985289676955">
        <ele>101.2</ele>
        <time>2018-01-23T12:36:08Z</time>
      </trkpt>
      <trkpt lat="62.633137799137" lon="17.985158667858">
        <ele>101</ele>
        <time>2018-01-23T12:36:09Z</time>
      </trkpt>
      <trkpt lat="62.633145175209" lon="17.985042494724">
        <ele>100.2</ele>
        <time>2018-01-23T12:36:10Z</time>
      </trkpt>
      <trkpt lat="62.633159172982" lon="17.984928668522">
        <ele>99.6</ele>
        <time>2018-01-23T12:36:11Z</time>
      </trkpt>
      <trkpt lat="62.633175852963" lon="17.984822637487">
        <ele>98.6</ele>
        <time>2018-01-23T12:36:12Z</time>
      </trkpt>
      <trkpt lat="62.633195466609" lon="17.984734962813">
        <ele>97.8</ele>
        <time>2018-01-23T12:36:13Z</time>
      </trkpt>
      <trkpt lat="62.633211727495" lon="17.98462541138">
        <ele>97</ele>
        <time>2018-01-23T12:36:14Z</time>
      </trkpt>
      <trkpt lat="62.6332280722" lon="17.984537233792">
        <ele>96.8</ele>
        <time>2018-01-23T12:36:15Z</time>
      </trkpt>
      <trkpt lat="62.633253888452" lon="17.984446122539">
        <ele>97</ele>
        <time>2018-01-23T12:36:16Z</time>
      </trkpt>
      <trkpt lat="62.633269897881" lon="17.984391304913">
        <ele>97</ele>
        <time>2018-01-23T12:36:17Z</time>
      </trkpt>
      <trkpt lat="62.633286158767" lon="17.984316622184">
        <ele>97.2</ele>
        <time>2018-01-23T12:36:18Z</time>
      </trkpt>
      <trkpt lat="62.633292529011" lon="17.984255601952">
        <ele>97.6</ele>
        <time>2018-01-23T12:36:19Z</time>
      </trkpt>
      <trkpt lat="62.633305269499" lon="17.984204807638">
        <ele>98</ele>
        <time>2018-01-23T12:36:20Z</time>
      </trkpt>
      <trkpt lat="62.633316752702" lon="17.984143200673">
        <ele>98</ele>
        <time>2018-01-23T12:36:21Z</time>
      </trkpt>
      <trkpt lat="62.633324631688" lon="17.984085533201">
        <ele>98.2</ele>
        <time>2018-01-23T12:36:22Z</time>
      </trkpt>
      <trkpt lat="62.633326475706" lon="17.984019232372">
        <ele>98</ele>
        <time>2018-01-23T12:36:23Z</time>
      </trkpt>
      <trkpt lat="62.633329660828" lon="17.983938430856">
        <ele>98</ele>
        <time>2018-01-23T12:36:24Z</time>
      </trkpt>
      <trkpt lat="62.633335611977" lon="17.983881601574">
        <ele>98</ele>
        <time>2018-01-23T12:36:25Z</time>
      </trkpt>
      <trkpt lat="62.633346005533" lon="17.983815636021">
        <ele>98</ele>
        <time>2018-01-23T12:36:26Z</time>
      </trkpt>
      <trkpt lat="62.633356482908" lon="17.983737684351">
        <ele>98</ele>
        <time>2018-01-23T12:36:27Z</time>
      </trkpt>
      <trkpt lat="62.633366205912" lon="17.983695523394">
        <ele>98</ele>
        <time>2018-01-23T12:36:28Z</time>
      </trkpt>
      <trkpt lat="62.633380790418" lon="17.983642968881">
        <ele>98</ele>
        <time>2018-01-23T12:36:29Z</time>
      </trkpt>
      <trkpt lat="62.633400990797" lon="17.983570465446">
        <ele>98.2</ele>
        <time>2018-01-23T12:36:30Z</time>
      </trkpt>
      <trkpt lat="62.63341582676" lon="17.983514893449">
        <ele>98</ele>
        <time>2018-01-23T12:36:31Z</time>
      </trkpt>
      <trkpt lat="62.633429153981" lon="17.98346870918">
        <ele>98.2</ele>
        <time>2018-01-23T12:36:32Z</time>
      </trkpt>
      <trkpt lat="62.633447929437" lon="17.98340165398">
        <ele>98.2</ele>
        <time>2018-01-23T12:36:33Z</time>
      </trkpt>
      <trkpt lat="62.633461172839" lon="17.983335604608">
        <ele>98.2</ele>
        <time>2018-01-23T12:36:34Z</time>
      </trkpt>
      <trkpt lat="62.633474416241" lon="17.983270225788">
        <ele>98</ele>
        <time>2018-01-23T12:36:35Z</time>
      </trkpt>
      <trkpt lat="62.633487994919" lon="17.983209540832">
        <ele>98.2</ele>
        <time>2018-01-23T12:36:36Z</time>
      </trkpt>
      <trkpt lat="62.633501238321" lon="17.983155896672">
        <ele>98.2</ele>
        <time>2018-01-23T12:36:37Z</time>
      </trkpt>
      <trkpt lat="62.633514649361" lon="17.983097055734">
        <ele>98.4</ele>
        <time>2018-01-23T12:36:38Z</time>
      </trkpt>
      <trkpt lat="62.633531245523" lon="17.983033437113">
        <ele>98.4</ele>
        <time>2018-01-23T12:36:39Z</time>
      </trkpt>
      <trkpt lat="62.63354239345" lon="17.982965459904">
        <ele>98.6</ele>
        <time>2018-01-23T12:36:40Z</time>
      </trkpt>
      <trkpt lat="62.633559492526" lon="17.982918688902">
        <ele>98.6</ele>
        <time>2018-01-23T12:36:41Z</time>
      </trkpt>
      <trkpt lat="62.63357843562" lon="17.982873175185">
        <ele>98.4</ele>
        <time>2018-01-23T12:36:42Z</time>
      </trkpt>
      <trkpt lat="62.633593355402" lon="17.982817016455">
        <ele>98.6</ele>
        <time>2018-01-23T12:36:43Z</time>
      </trkpt>
      <trkpt lat="62.633599641827" lon="17.982754068386">
        <ele>98.4</ele>
        <time>2018-01-23T12:36:44Z</time>
      </trkpt>
      <trkpt lat="62.633604503329" lon="17.982700591864">
        <ele>98.4</ele>
        <time>2018-01-23T12:36:45Z</time>
      </trkpt>
      <trkpt lat="62.63360944865" lon="17.982633201388">
        <ele>98.4</ele>
        <time>2018-01-23T12:36:46Z</time>
      </trkpt>
      <trkpt lat="62.633604000415" lon="17.98258190416">
        <ele>98.4</ele>
        <time>2018-01-23T12:36:47Z</time>
      </trkpt>
      <trkpt lat="62.633609281012" lon="17.982522560308">
        <ele>98.4</ele>
        <time>2018-01-23T12:36:48Z</time>
      </trkpt>
      <trkpt lat="62.633614813066" lon="17.98244947014">
        <ele>98.4</ele>
        <time>2018-01-23T12:36:49Z</time>
      </trkpt>
      <trkpt lat="62.633624116975" lon="17.982397586179">
        <ele>98.4</ele>
        <time>2018-01-23T12:36:50Z</time>
      </trkpt>
      <trkpt lat="62.633636438368" lon="17.98232877078">
        <ele>98.6</ele>
        <time>2018-01-23T12:36:51Z</time>
      </trkpt>
      <trkpt lat="62.633629816667" lon="17.982266409444">
        <ele>98.4</ele>
        <time>2018-01-23T12:36:52Z</time>
      </trkpt>
      <trkpt lat="62.633636354549" lon="17.982217459148">
        <ele>98.6</ele>
        <time>2018-01-23T12:36:53Z</time>
      </trkpt>
      <trkpt lat="62.633647586295" lon="17.982136489994">
        <ele>98.6</ele>
        <time>2018-01-23T12:36:54Z</time>
      </trkpt>
      <trkpt lat="62.63364381444" lon="17.982077649056">
        <ele>98.6</ele>
        <time>2018-01-23T12:36:55Z</time>
      </trkpt>
      <trkpt lat="62.633651777245" lon="17.982031548606">
        <ele>98.8</ele>
        <time>2018-01-23T12:36:56Z</time>
      </trkpt>
      <trkpt lat="62.633667619036" lon="17.981967091795">
        <ele>98.6</ele>
        <time>2018-01-23T12:36:57Z</time>
      </trkpt>
      <trkpt lat="62.633675414203" lon="17.981916548938">
        <ele>98.8</ele>
        <time>2018-01-23T12:36:58Z</time>
      </trkpt>
      <trkpt lat="62.633680024248" lon="17.981870867583">
        <ele>98.6</ele>
        <time>2018-01-23T12:36:59Z</time>
      </trkpt>
      <trkpt lat="62.633686310673" lon="17.981821330554">
        <ele>98.8</ele>
        <time>2018-01-23T12:37:00Z</time>
      </trkpt>
      <trkpt lat="62.633692345641" lon="17.98175628701">
        <ele>98.8</ele>
        <time>2018-01-23T12:37:01Z</time>
      </trkpt>
      <trkpt lat="62.633699637894" lon="17.981705911791">
        <ele>98.8</ele>
        <time>2018-01-23T12:37:02Z</time>
      </trkpt>
      <trkpt lat="62.63370667869" lon="17.981638772772">
        <ele>98.8</ele>
        <time>2018-01-23T12:37:03Z</time>
      </trkpt>
      <trkpt lat="62.633711204916" lon="17.981554702315">
        <ele>98.8</ele>
        <time>2018-01-23T12:37:04Z</time>
      </trkpt>
      <trkpt lat="62.633706008138" lon="17.98150399182">
        <ele>99</ele>
        <time>2018-01-23T12:37:05Z</time>
      </trkpt>
      <trkpt lat="62.633712043106" lon="17.981447162538">
        <ele>99</ele>
        <time>2018-01-23T12:37:06Z</time>
      </trkpt>
      <trkpt lat="62.633731070019" lon="17.981372647447">
        <ele>99</ele>
        <time>2018-01-23T12:37:07Z</time>
      </trkpt>
      <trkpt lat="62.633742804679" lon="17.981329313024">
        <ele>99</ele>
        <time>2018-01-23T12:37:08Z</time>
      </trkpt>
      <trkpt lat="62.633753449692" lon="17.981272567561">
        <ele>99</ele>
        <time>2018-01-23T12:37:09Z</time>
      </trkpt>
      <trkpt lat="62.633764849076" lon="17.981209032759">
        <ele>99</ele>
        <time>2018-01-23T12:37:10Z</time>
      </trkpt>
      <trkpt lat="62.633778343935" lon="17.981167626173">
        <ele>99</ele>
        <time>2018-01-23T12:37:11Z</time>
      </trkpt>
      <trkpt lat="62.633795610649" lon="17.981117921506">
        <ele>99</ele>
        <time>2018-01-23T12:37:12Z</time>
      </trkpt>
      <trkpt lat="62.633807512947" lon="17.981084980639">
        <ele>99</ele>
        <time>2018-01-23T12:37:13Z</time>
      </trkpt>
      <trkpt lat="62.633829473525" lon="17.98102622352">
        <ele>99.2</ele>
        <time>2018-01-23T12:37:14Z</time>
      </trkpt>
      <trkpt lat="62.633844644764" lon="17.980970400066">
        <ele>99.4</ele>
        <time>2018-01-23T12:37:15Z</time>
      </trkpt>
      <trkpt lat="62.633856463243" lon="17.980922707055">
        <ele>99.6</ele>
        <time>2018-01-23T12:37:16Z</time>
      </trkpt>
      <trkpt lat="62.633870628654" lon="17.98088959855">
        <ele>99.8</ele>
        <time>2018-01-23T12:37:17Z</time>
      </trkpt>
      <trkpt lat="62.633886973359" lon="17.980839390969">
        <ele>99.8</ele>
        <time>2018-01-23T12:37:18Z</time>
      </trkpt>
      <trkpt lat="62.633906084091" lon="17.980792955243">
        <ele>99.8</ele>
        <time>2018-01-23T12:37:19Z</time>
      </trkpt>
      <trkpt lat="62.633919830407" lon="17.980757751263">
        <ele>100</ele>
        <time>2018-01-23T12:37:20Z</time>
      </trkpt>
      <trkpt lat="62.63393047542" lon="17.980717266686">
        <ele>100</ele>
        <time>2018-01-23T12:37:21Z</time>
      </trkpt>
      <trkpt lat="62.633938186768" lon="17.980682062706">
        <ele>99.8</ele>
        <time>2018-01-23T12:37:22Z</time>
      </trkpt>
      <trkpt lat="62.63395645931" lon="17.980637219541">
        <ele>100</ele>
        <time>2018-01-23T12:37:23Z</time>
      </trkpt>
      <trkpt lat="62.633981185915" lon="17.980571840721">
        <ele>100</ele>
        <time>2018-01-23T12:37:24Z</time>
      </trkpt>
      <trkpt lat="62.633997446801" lon="17.980536050008">
        <ele>100</ele>
        <time>2018-01-23T12:37:25Z</time>
      </trkpt>
      <trkpt lat="62.634018066275" lon="17.980478131079">
        <ele>100</ele>
        <time>2018-01-23T12:37:26Z</time>
      </trkpt>
      <trkpt lat="62.634033405152" lon="17.980425576566">
        <ele>100</ele>
        <time>2018-01-23T12:37:27Z</time>
      </trkpt>
      <trkpt lat="62.634044972174" lon="17.980389115301">
        <ele>100.2</ele>
        <time>2018-01-23T12:37:28Z</time>
      </trkpt>
      <trkpt lat="62.634063999087" lon="17.980338237168">
        <ele>100.2</ele>
        <time>2018-01-23T12:37:29Z</time>
      </trkpt>
      <trkpt lat="62.634072380987" lon="17.980299596609">
        <ele>100.2</ele>
        <time>2018-01-23T12:37:30Z</time>
      </trkpt>
      <trkpt lat="62.634083780371" lon="17.980260704593">
        <ele>100.2</ele>
        <time>2018-01-23T12:37:31Z</time>
      </trkpt>
      <trkpt lat="62.634101633818" lon="17.980218878912">
        <ele>100.2</ele>
        <time>2018-01-23T12:37:32Z</time>
      </trkpt>
      <trkpt lat="62.63412325912" lon="17.980168336055">
        <ele>100.4</ele>
        <time>2018-01-23T12:37:33Z</time>
      </trkpt>
      <trkpt lat="62.634141531662" lon="17.980128857306">
        <ele>100.2</ele>
        <time>2018-01-23T12:37:34Z</time>
      </trkpt>
      <trkpt lat="62.634161648222" lon="17.98009415624">
        <ele>100.2</ele>
        <time>2018-01-23T12:37:35Z</time>
      </trkpt>
      <trkpt lat="62.634186877741" lon="17.98004805579">
        <ele>100.2</ele>
        <time>2018-01-23T12:37:36Z</time>
      </trkpt>
      <trkpt lat="62.634218142228" lon="17.979985442997">
        <ele>100.2</ele>
        <time>2018-01-23T12:37:37Z</time>
      </trkpt>
      <trkpt lat="62.634235911856" lon="17.979944204049">
        <ele>100.4</ele>
        <time>2018-01-23T12:37:38Z</time>
      </trkpt>
      <trkpt lat="62.634254435855" lon="17.979883016179">
        <ele>100.6</ele>
        <time>2018-01-23T12:37:39Z</time>
      </trkpt>
      <trkpt lat="62.634266002877" lon="17.97983347915">
        <ele>100.6</ele>
        <time>2018-01-23T12:37:40Z</time>
      </trkpt>
      <trkpt lat="62.634277569899" lon="17.979786875786">
        <ele>100.6</ele>
        <time>2018-01-23T12:37:41Z</time>
      </trkpt>
      <trkpt lat="62.634297937916" lon="17.979716551645">
        <ele>100.6</ele>
        <time>2018-01-23T12:37:42Z</time>
      </trkpt>
      <trkpt lat="62.634298189373" lon="17.979658548897">
        <ele>100.8</ele>
        <time>2018-01-23T12:37:43Z</time>
      </trkpt>
      <trkpt lat="62.634300368667" lon="17.979596606656">
        <ele>100.6</ele>
        <time>2018-01-23T12:37:44Z</time>
      </trkpt>
      <trkpt lat="62.634309504938" lon="17.97953424532">
        <ele>100.4</ele>
        <time>2018-01-23T12:37:45Z</time>
      </trkpt>
      <trkpt lat="62.634321826331" lon="17.979478505685">
        <ele>100.2</ele>
        <time>2018-01-23T12:37:46Z</time>
      </trkpt>
      <trkpt lat="62.634331297878" lon="17.979430896493">
        <ele>100.2</ele>
        <time>2018-01-23T12:37:47Z</time>
      </trkpt>
      <trkpt lat="62.634341356158" lon="17.979377252333">
        <ele>100.2</ele>
        <time>2018-01-23T12:37:48Z</time>
      </trkpt>
      <trkpt lat="62.634349654239" lon="17.979312795522">
        <ele>100.2</ele>
        <time>2018-01-23T12:37:49Z</time>
      </trkpt>
      <trkpt lat="62.634365915125" lon="17.979243058114">
        <ele>100.2</ele>
        <time>2018-01-23T12:37:50Z</time>
      </trkpt>
      <trkpt lat="62.634365244573" lon="17.97918891104">
        <ele>100.2</ele>
        <time>2018-01-23T12:37:51Z</time>
      </trkpt>
      <trkpt lat="62.634372872102" lon="17.979138284364">
        <ele>100.2</ele>
        <time>2018-01-23T12:37:52Z</time>
      </trkpt>
      <trkpt lat="62.634384020029" lon="17.979084221109">
        <ele>100.2</ele>
        <time>2018-01-23T12:37:53Z</time>
      </trkpt>
      <trkpt lat="62.634391144644" lon="17.979008784009">
        <ele>100.2</ele>
        <time>2018-01-23T12:37:54Z</time>
      </trkpt>
      <trkpt lat="62.634403382218" lon="17.978946841768">
        <ele>100.2</ele>
        <time>2018-01-23T12:37:55Z</time>
      </trkpt>
      <trkpt lat="62.634421906217" lon="17.978892024142">
        <ele>100.2</ele>
        <time>2018-01-23T12:37:56Z</time>
      </trkpt>
      <trkpt lat="62.63443841856" lon="17.978824214571">
        <ele>100.2</ele>
        <time>2018-01-23T12:37:57Z</time>
      </trkpt>
      <trkpt lat="62.634448728297" lon="17.978773336438">
        <ele>100.4</ele>
        <time>2018-01-23T12:37:58Z</time>
      </trkpt>
      <trkpt lat="62.634456691102" lon="17.978723045038">
        <ele>100.2</ele>
        <time>2018-01-23T12:37:59Z</time>
      </trkpt>
      <trkpt lat="62.634470772694" lon="17.978646015377">
        <ele>100.4</ele>
        <time>2018-01-23T12:38:00Z</time>
      </trkpt>
      <trkpt lat="62.634480076603" lon="17.978582480575">
        <ele>100.4</ele>
        <time>2018-01-23T12:38:01Z</time>
      </trkpt>
      <trkpt lat="62.63449122453" lon="17.978524142551">
        <ele>100.4</ele>
        <time>2018-01-23T12:38:02Z</time>
      </trkpt>
      <trkpt lat="62.634500025525" lon="17.978450549469">
        <ele>100.2</ele>
        <time>2018-01-23T12:38:03Z</time>
      </trkpt>
      <trkpt lat="62.634512263099" lon="17.978380728242">
        <ele>100.2</ele>
        <time>2018-01-23T12:38:04Z</time>
      </trkpt>
      <trkpt lat="62.634524165397" lon="17.978308727721">
        <ele>100</ele>
        <time>2018-01-23T12:38:05Z</time>
      </trkpt>
      <trkpt lat="62.634531541469" lon="17.978215940088">
        <ele>99.8</ele>
        <time>2018-01-23T12:38:06Z</time>
      </trkpt>
      <trkpt lat="62.634544114319" lon="17.978153159657">
        <ele>99.6</ele>
        <time>2018-01-23T12:38:07Z</time>
      </trkpt>
      <trkpt lat="62.634554675513" lon="17.978089289579">
        <ele>99.4</ele>
        <time>2018-01-23T12:38:08Z</time>
      </trkpt>
      <trkpt lat="62.634574037702" lon="17.978002788371">
        <ele>99.4</ele>
        <time>2018-01-23T12:38:09Z</time>
      </trkpt>
      <trkpt lat="62.634587448742" lon="17.977939756483">
        <ele>99.2</ele>
        <time>2018-01-23T12:38:10Z</time>
      </trkpt>
      <trkpt lat="62.634597507022" lon="17.977870941084">
        <ele>99</ele>
        <time>2018-01-23T12:38:11Z</time>
      </trkpt>
      <trkpt lat="62.634614187003" lon="17.977796928907">
        <ele>99</ele>
        <time>2018-01-23T12:38:12Z</time>
      </trkpt>
      <trkpt lat="62.634625921663" lon="17.977733394105">
        <ele>99</ele>
        <time>2018-01-23T12:38:13Z</time>
      </trkpt>
      <trkpt lat="62.634638159237" lon="17.977649407467">
        <ele>98.8</ele>
        <time>2018-01-23T12:38:14Z</time>
      </trkpt>
      <trkpt lat="62.634650899725" lon="17.977598361696">
        <ele>99</ele>
        <time>2018-01-23T12:38:15Z</time>
      </trkpt>
      <trkpt lat="62.634659030168" lon="17.977521080578">
        <ele>99</ele>
        <time>2018-01-23T12:38:16Z</time>
      </trkpt>
      <trkpt lat="62.634668753172" lon="17.977466765866">
        <ele>99</ele>
        <time>2018-01-23T12:38:17Z</time>
      </trkpt>
      <trkpt lat="62.634681242203" lon="17.977406332367">
        <ele>98.8</ele>
        <time>2018-01-23T12:38:18Z</time>
      </trkpt>
      <trkpt lat="62.634693395958" lon="17.977338606615">
        <ele>98.6</ele>
        <time>2018-01-23T12:38:19Z</time>
      </trkpt>
      <trkpt lat="62.634705633532" lon="17.977278089297">
        <ele>98.6</ele>
        <time>2018-01-23T12:38:20Z</time>
      </trkpt>
      <trkpt lat="62.634716781459" lon="17.977229641915">
        <ele>98.6</ele>
        <time>2018-01-23T12:38:21Z</time>
      </trkpt>
      <trkpt lat="62.634730695413" lon="17.977158144308">
        <ele>98.6</ele>
        <time>2018-01-23T12:38:22Z</time>
      </trkpt>
      <trkpt lat="62.634739412589" lon="17.977098884275">
        <ele>98.6</ele>
        <time>2018-01-23T12:38:23Z</time>
      </trkpt>
      <trkpt lat="62.634755757294" lon="17.977011880153">
        <ele>98.6</ele>
        <time>2018-01-23T12:38:24Z</time>
      </trkpt>
      <trkpt lat="62.634766234669" lon="17.976941639831">
        <ele>98.6</ele>
        <time>2018-01-23T12:38:25Z</time>
      </trkpt>
      <trkpt lat="62.634778304605" lon="17.976881876884">
        <ele>98.6</ele>
        <time>2018-01-23T12:38:26Z</time>
      </trkpt>
      <trkpt lat="62.634792386197" lon="17.976805350137">
        <ele>98.6</ele>
        <time>2018-01-23T12:38:27Z</time>
      </trkpt>
      <trkpt lat="62.634805881056" lon="17.976723207517">
        <ele>98.6</ele>
        <time>2018-01-23T12:38:28Z</time>
      </trkpt>
      <trkpt lat="62.634822896313" lon="17.976667886977">
        <ele>98.4</ele>
        <time>2018-01-23T12:38:29Z</time>
      </trkpt>
      <trkpt lat="62.634833876602" lon="17.976619774871">
        <ele>98.4</ele>
        <time>2018-01-23T12:38:30Z</time>
      </trkpt>
      <trkpt lat="62.634854076981" lon="17.97654693616">
        <ele>98.6</ele>
        <time>2018-01-23T12:38:31Z</time>
      </trkpt>
      <trkpt lat="62.634868326211" lon="17.976483568996">
        <ele>98.4</ele>
        <time>2018-01-23T12:38:32Z</time>
      </trkpt>
      <trkpt lat="62.634886431115" lon="17.976407377525">
        <ele>98.2</ele>
        <time>2018-01-23T12:38:33Z</time>
      </trkpt>
      <trkpt lat="62.634903530191" lon="17.976334790271">
        <ele>98</ele>
        <time>2018-01-23T12:38:34Z</time>
      </trkpt>
      <trkpt lat="62.634918030878" lon="17.976260861913">
        <ele>97.8</ele>
        <time>2018-01-23T12:38:35Z</time>
      </trkpt>
      <trkpt lat="62.634935884325" lon="17.976187855564">
        <ele>97.6</ele>
        <time>2018-01-23T12:38:36Z</time>
      </trkpt>
      <trkpt lat="62.634955330333" lon="17.976108478971">
        <ele>97.6</ele>
        <time>2018-01-23T12:38:37Z</time>
      </trkpt>
      <trkpt lat="62.634973854332" lon="17.976032538957">
        <ele>97.4</ele>
        <time>2018-01-23T12:38:38Z</time>
      </trkpt>
      <trkpt lat="62.634992378331" lon="17.975956096029">
        <ele>97.2</ele>
        <time>2018-01-23T12:38:39Z</time>
      </trkpt>
      <trkpt lat="62.63500587319" lon="17.975880239834">
        <ele>97.2</ele>
        <time>2018-01-23T12:38:40Z</time>
      </trkpt>
      <trkpt lat="62.635016434384" lon="17.97581351991">
        <ele>97</ele>
        <time>2018-01-23T12:38:41Z</time>
      </trkpt>
      <trkpt lat="62.635022301714" lon="17.975739256276">
        <ele>97</ele>
        <time>2018-01-23T12:38:42Z</time>
      </trkpt>
      <trkpt lat="62.635024732465" lon="17.97566264571">
        <ele>96.8</ele>
        <time>2018-01-23T12:38:43Z</time>
      </trkpt>
      <trkpt lat="62.635029761605" lon="17.975584358764">
        <ele>96.8</ele>
        <time>2018-01-23T12:38:44Z</time>
      </trkpt>
      <trkpt lat="62.635037808229" lon="17.975511436234">
        <ele>96.8</ele>
        <time>2018-01-23T12:38:45Z</time>
      </trkpt>
      <trkpt lat="62.635046525405" lon="17.975435999134">
        <ele>96.6</ele>
        <time>2018-01-23T12:38:46Z</time>
      </trkpt>
      <trkpt lat="62.63505365002" lon="17.975364669165">
        <ele>96.6</ele>
        <time>2018-01-23T12:38:47Z</time>
      </trkpt>
      <trkpt lat="62.635052308916" lon="17.975278335595">
        <ele>96.6</ele>
        <time>2018-01-23T12:38:48Z</time>
      </trkpt>
      <trkpt lat="62.635050548717" lon="17.975187811075">
        <ele>96.4</ele>
        <time>2018-01-23T12:38:49Z</time>
      </trkpt>
      <trkpt lat="62.635042166817" lon="17.975098962935">
        <ele>96.4</ele>
        <time>2018-01-23T12:38:50Z</time>
      </trkpt>
      <trkpt lat="62.635026157388" lon="17.975018831971">
        <ele>96.2</ele>
        <time>2018-01-23T12:38:51Z</time>
      </trkpt>
      <trkpt lat="62.635009058312" lon="17.974942389043">
        <ele>95.8</ele>
        <time>2018-01-23T12:38:52Z</time>
      </trkpt>
      <trkpt lat="62.634993887073" lon="17.974889583073">
        <ele>95.6</ele>
        <time>2018-01-23T12:38:53Z</time>
      </trkpt>
      <trkpt lat="62.634970166296" lon="17.974798220363">
        <ele>95.4</ele>
        <time>2018-01-23T12:38:54Z</time>
      </trkpt>
      <trkpt lat="62.634950636469" lon="17.974737451588">
        <ele>95</ele>
        <time>2018-01-23T12:38:55Z</time>
      </trkpt>
      <trkpt lat="62.634926161321" lon="17.974661930669">
        <ele>94.8</ele>
        <time>2018-01-23T12:38:56Z</time>
      </trkpt>
      <trkpt lat="62.634906715313" lon="17.974580374782">
        <ele>94.6</ele>
        <time>2018-01-23T12:38:57Z</time>
      </trkpt>
      <trkpt lat="62.634895902662" lon="17.974523042586">
        <ele>94.4</ele>
        <time>2018-01-23T12:38:58Z</time>
      </trkpt>
      <trkpt lat="62.634882575441" lon="17.974443330717">
        <ele>94.2</ele>
        <time>2018-01-23T12:38:59Z</time>
      </trkpt>
      <trkpt lat="62.634865392546" lon="17.974396056801">
        <ele>93.8</ele>
        <time>2018-01-23T12:39:00Z</time>
      </trkpt>
      <trkpt lat="62.634851813868" lon="17.974328079592">
        <ele>93.6</ele>
        <time>2018-01-23T12:39:01Z</time>
      </trkpt>
      <trkpt lat="62.634839157199" lon="17.974269490111">
        <ele>93.6</ele>
        <time>2018-01-23T12:39:02Z</time>
      </trkpt>
      <trkpt lat="62.634824069779" lon="17.974215845951">
        <ele>93.2</ele>
        <time>2018-01-23T12:39:03Z</time>
      </trkpt>
      <trkpt lat="62.634810994015" lon="17.974142504326">
        <ele>93.2</ele>
        <time>2018-01-23T12:39:04Z</time>
      </trkpt>
      <trkpt lat="62.634788446704" lon="17.974085926501">
        <ele>93.2</ele>
        <time>2018-01-23T12:39:05Z</time>
      </trkpt>
      <trkpt lat="62.634773443103" lon="17.974008477745">
        <ele>93.2</ele>
        <time>2018-01-23T12:39:06Z</time>
      </trkpt>
      <trkpt lat="62.634745615195" lon="17.973945781133">
        <ele>93</ele>
        <time>2018-01-23T12:39:07Z</time>
      </trkpt>
      <trkpt lat="62.634735892191" lon="17.97390077033">
        <ele>93</ele>
        <time>2018-01-23T12:39:08Z</time>
      </trkpt>
      <trkpt lat="62.634721307685" lon="17.973823153936">
        <ele>93</ele>
        <time>2018-01-23T12:39:09Z</time>
      </trkpt>
      <trkpt lat="62.634712087595" lon="17.973787447042">
        <ele>93</ele>
        <time>2018-01-23T12:39:10Z</time>
      </trkpt>
      <trkpt lat="62.634700185297" lon="17.973729109018">
        <ele>92.8</ele>
        <time>2018-01-23T12:39:11Z</time>
      </trkpt>
      <trkpt lat="62.634694485605" lon="17.973663311103">
        <ele>92.8</ele>
        <time>2018-01-23T12:39:12Z</time>
      </trkpt>
      <trkpt lat="62.634674620502" lon="17.973599273387">
        <ele>92.8</ele>
        <time>2018-01-23T12:39:13Z</time>
      </trkpt>
      <trkpt lat="62.634665903326" lon="17.973521237898">
        <ele>92.8</ele>
        <time>2018-01-23T12:39:14Z</time>
      </trkpt>
      <trkpt lat="62.634662131471" lon="17.973438340907">
        <ele>92.6</ele>
        <time>2018-01-23T12:39:15Z</time>
      </trkpt>
      <trkpt lat="62.634654252485" lon="17.973370112241">
        <ele>92.8</ele>
        <time>2018-01-23T12:39:16Z</time>
      </trkpt>
      <trkpt lat="62.63465802434" lon="17.973302470308">
        <ele>92.6</ele>
        <time>2018-01-23T12:39:17Z</time>
      </trkpt>
      <trkpt lat="62.634670094276" lon="17.97322602738">
        <ele>92.6</ele>
        <time>2018-01-23T12:39:18Z</time>
      </trkpt>
      <trkpt lat="62.634684762601" lon="17.973153021031">
        <ele>92.6</ele>
        <time>2018-01-23T12:39:19Z</time>
      </trkpt>
      <trkpt lat="62.63468987556" lon="17.97308604965">
        <ele>92.8</ele>
        <time>2018-01-23T12:39:20Z</time>
      </trkpt>
      <trkpt lat="62.634707393731" lon="17.973008684713">
        <ele>92.6</ele>
        <time>2018-01-23T12:39:21Z</time>
      </trkpt>
      <trkpt lat="62.634727258834" lon="17.972927128826">
        <ele>92.4</ele>
        <time>2018-01-23T12:39:22Z</time>
      </trkpt>
      <trkpt lat="62.634740250779" lon="17.972865186585">
        <ele>92.4</ele>
        <time>2018-01-23T12:39:23Z</time>
      </trkpt>
      <trkpt lat="62.634765731755" lon="17.972770303477">
        <ele>92.2</ele>
        <time>2018-01-23T12:39:24Z</time>
      </trkpt>
      <trkpt lat="62.63478542922" lon="17.972701739535">
        <ele>92</ele>
        <time>2018-01-23T12:39:25Z</time>
      </trkpt>
      <trkpt lat="62.634809317635" lon="17.972633929964">
        <ele>91.8</ele>
        <time>2018-01-23T12:39:26Z</time>
      </trkpt>
      <trkpt lat="62.634828009272" lon="17.972559163416">
        <ele>91.8</ele>
        <time>2018-01-23T12:39:27Z</time>
      </trkpt>
      <trkpt lat="62.634847539099" lon="17.972489593646">
        <ele>91.6</ele>
        <time>2018-01-23T12:39:28Z</time>
      </trkpt>
      <trkpt lat="62.634878133034" lon="17.972407451026">
        <ele>91.6</ele>
        <time>2018-01-23T12:39:29Z</time>
      </trkpt>
      <trkpt lat="62.634907553503" lon="17.972319776352">
        <ele>91.4</ele>
        <time>2018-01-23T12:39:30Z</time>
      </trkpt>
      <trkpt lat="62.63493378885" lon="17.972244171614">
        <ele>91.2</ele>
        <time>2018-01-23T12:39:31Z</time>
      </trkpt>
      <trkpt lat="62.634965053337" lon="17.972157167492">
        <ele>91.2</ele>
        <time>2018-01-23T12:39:32Z</time>
      </trkpt>
      <trkpt lat="62.634996736919" lon="17.972093884147">
        <ele>91.2</ele>
        <time>2018-01-23T12:39:33Z</time>
      </trkpt>
      <trkpt lat="62.635027247035" lon="17.971989361854">
        <ele>91</ele>
        <time>2018-01-23T12:39:34Z</time>
      </trkpt>
      <trkpt lat="62.635043675559" lon="17.971879475145">
        <ele>90.8</ele>
        <time>2018-01-23T12:39:35Z</time>
      </trkpt>
      <trkpt lat="62.635061864282" lon="17.971752070265">
        <ele>90</ele>
        <time>2018-01-23T12:39:36Z</time>
      </trkpt>
      <trkpt lat="62.635074688589" lon="17.971629191611">
        <ele>89.2</ele>
        <time>2018-01-23T12:39:37Z</time>
      </trkpt>
      <trkpt lat="62.635085082145" lon="17.971522490024">
        <ele>88.4</ele>
        <time>2018-01-23T12:39:38Z</time>
      </trkpt>
      <trkpt lat="62.635099079918" lon="17.971396090972">
        <ele>87.4</ele>
        <time>2018-01-23T12:39:39Z</time>
      </trkpt>
      <trkpt lat="62.635111820406" lon="17.97128394115">
        <ele>86.8</ele>
        <time>2018-01-23T12:39:40Z</time>
      </trkpt>
      <trkpt lat="62.635124477075" lon="17.971172378061">
        <ele>86.4</ele>
        <time>2018-01-23T12:39:41Z</time>
      </trkpt>
      <trkpt lat="62.635137133744" lon="17.971051678701">
        <ele>86</ele>
        <time>2018-01-23T12:39:42Z</time>
      </trkpt>
      <trkpt lat="62.635148114033" lon="17.970944809476">
        <ele>85.6</ele>
        <time>2018-01-23T12:39:43Z</time>
      </trkpt>
      <trkpt lat="62.635160686883" lon="17.970825618858">
        <ele>85.2</ele>
        <time>2018-01-23T12:39:44Z</time>
      </trkpt>
      <trkpt lat="62.635170828982" lon="17.970722270031">
        <ele>85</ele>
        <time>2018-01-23T12:39:45Z</time>
      </trkpt>
      <trkpt lat="62.635200920003" lon="17.970499143853">
        <ele>84.6</ele>
        <time>2018-01-23T12:39:47Z</time>
      </trkpt>
      <trkpt lat="62.635215169233" lon="17.970384395642">
        <ele>84.4</ele>
        <time>2018-01-23T12:39:48Z</time>
      </trkpt>
      <trkpt lat="62.635231513938" lon="17.970266462309">
        <ele>84.2</ele>
        <time>2018-01-23T12:39:49Z</time>
      </trkpt>
      <trkpt lat="62.63525062467" lon="17.970158335799">
        <ele>84</ele>
        <time>2018-01-23T12:39:50Z</time>
      </trkpt>
      <trkpt lat="62.635273088162" lon="17.970049454918">
        <ele>83.6</ele>
        <time>2018-01-23T12:39:51Z</time>
      </trkpt>
      <trkpt lat="62.635296808939" lon="17.969946441367">
        <ele>83</ele>
        <time>2018-01-23T12:39:52Z</time>
      </trkpt>
      <trkpt lat="62.635317512232" lon="17.969858431417">
        <ele>82.6</ele>
        <time>2018-01-23T12:39:53Z</time>
      </trkpt>
      <trkpt lat="62.635345172502" lon="17.969742258283">
        <ele>82.2</ele>
        <time>2018-01-23T12:39:54Z</time>
      </trkpt>
      <trkpt lat="62.635369480012" lon="17.96964360332">
        <ele>81.8</ele>
        <time>2018-01-23T12:39:55Z</time>
      </trkpt>
      <trkpt lat="62.635393033151" lon="17.969542266149">
        <ele>81.6</ele>
        <time>2018-01-23T12:39:56Z</time>
      </trkpt>
      <trkpt lat="62.635418430308" lon="17.969437492399">
        <ele>81.4</ele>
        <time>2018-01-23T12:39:57Z</time>
      </trkpt>
      <trkpt lat="62.635441815809" lon="17.96933598759">
        <ele>81.2</ele>
        <time>2018-01-23T12:39:58Z</time>
      </trkpt>
      <trkpt lat="62.635469224622" lon="17.969231046202">
        <ele>81</ele>
        <time>2018-01-23T12:39:59Z</time>
      </trkpt>
      <trkpt lat="62.635498309815" lon="17.969117974371">
        <ele>80.8</ele>
        <time>2018-01-23T12:40:00Z</time>
      </trkpt>
      <trkpt lat="62.635526221542" lon="17.969015212277">
        <ele>80.4</ele>
        <time>2018-01-23T12:40:01Z</time>
      </trkpt>
      <trkpt lat="62.635550780509" lon="17.968927705241">
        <ele>80</ele>
        <time>2018-01-23T12:40:02Z</time>
      </trkpt>
      <trkpt lat="62.635579781883" lon="17.968834498513">
        <ele>79.8</ele>
        <time>2018-01-23T12:40:03Z</time>
      </trkpt>
      <trkpt lat="62.635614818225" lon="17.968744057812">
        <ele>79</ele>
        <time>2018-01-23T12:40:04Z</time>
      </trkpt>
      <trkpt lat="62.635648513463" lon="17.968674404223">
        <ele>78.8</ele>
        <time>2018-01-23T12:40:05Z</time>
      </trkpt>
      <trkpt lat="62.635692015524" lon="17.968609695955">
        <ele>78.2</ele>
        <time>2018-01-23T12:40:06Z</time>
      </trkpt>
      <trkpt lat="62.635735182309" lon="17.968562505858">
        <ele>77.6</ele>
        <time>2018-01-23T12:40:07Z</time>
      </trkpt>
      <trkpt lat="62.635778516732" lon="17.968531241371">
        <ele>77.2</ele>
        <time>2018-01-23T12:40:08Z</time>
      </trkpt>
      <trkpt lat="62.63583232853" lon="17.968504922205">
        <ele>76.8</ele>
        <time>2018-01-23T12:40:09Z</time>
      </trkpt>
      <trkpt lat="62.635876668781" lon="17.968489834785">
        <ele>76.4</ele>
        <time>2018-01-23T12:40:10Z</time>
      </trkpt>
      <trkpt lat="62.63595638065" lon="17.96847516646">
        <ele>75.6</ele>
        <time>2018-01-23T12:40:12Z</time>
      </trkpt>
      <trkpt lat="62.635983705644" lon="17.968478016306">
        <ele>75.4</ele>
        <time>2018-01-23T12:40:13Z</time>
      </trkpt>
      <trkpt lat="62.636006001498" lon="17.968485476197">
        <ele>75.2</ele>
        <time>2018-01-23T12:40:14Z</time>
      </trkpt>
    </trkseg>
  </trk>
</gpx>